# Wetter Temperatur Luftdruck Luftfeuchtigkeit Sichtweite Windgeschwindigkeit Windrichtung Zeit
1 Clouds 2 1003 74 10000 5.7 190 21:57 28.01.2020
2 Clouds 2 1003 74 10000 5.7 190 21:38 28.01.2020
3 Clouds 3 1003 74 10000 5.1 180 21:19 28.01.2020
4 Clouds 3 1003 74 10000 5.1 190 20:46 28.01.2020
5 Clouds 3 1003 74 10000 5.7 190 20:26 28.01.2020
6 Clouds 3 1003 58 10000 5.1 200 19:57 28.01.2020
7 Clouds 3 1002 69 10000 5.1 220 19:38 28.01.2020
8 Clouds 3 1002 69 10000 5.1 220 19:19 28.01.2020
9 Clouds 3 1002 69 10000 5.1 220 19:19 28.01.2020
10 Clouds 3 1002 58 10000 7.2 220 18:54 28.01.2020
11 Rain 3 1002 58 10000 7.7 230 18:36 28.01.2020
12 Rain 3 1002 58 10000 7.7 230 18:18 28.01.2020
13 Rain 4 1001 58 10000 7.2 220 17:55 28.01.2020
14 Rain 4 1001 58 10000 8.2 240 17:36 28.01.2020
15 Rain 4 1001 54 10000 8.2 240 17:18 28.01.2020
16 Rain 5 1000 75 10000 8.7 230 16:44 28.01.2020
17 Rain 5 1000 70 10000 8.2 230 16:25 28.01.2020
18 Rain 5 999 80 10000 9.3 230 15:59 28.01.2020
19 Rain 5 999 80 10000 9.3 230 15:40 28.01.2020
20 Clouds 5 999 80 10000 7.2 240 15:18 28.01.2020
21 Rain 5 998 54 10000 6.7 260 14:44 28.01.2020
22 Rain 6 998 56 10000 7.2 240 14:20 28.01.2020
23 Rain 6 998 70 10000 8.7 230 13:43 28.01.2020
24 Rain 6 998 70 10000 9.3 230 13:25 28.01.2020
25 Rain 5 997 75 10000 9.8 230 12:58 28.01.2020
26 Rain 5 997 75 10000 9.8 230 12:40 28.01.2020
27 Rain 5 997 75 10000 8.2 230 12:22 28.01.2020
28 Rain 4 997 80 10000 7.2 230 11:41 28.01.2020
29 Rain 5 996 81 10000 7.7 250 11:22 28.01.2020
30 Rain 5 995 80 10000 11.8 240 10:55 28.01.2020
31 Rain 5 995 80 10000 8.2 270 10:37 28.01.2020
32 Rain 5 995 86 10000 10.3 280 10:18 28.01.2020
33 Clouds 5 994 93 10000 5.7 220 09:42 28.01.2020
34 Rain 6 995 81 10000 7.7 240 09:20 28.01.2020
35 Rain 6 995 81 10000 7.2 190 08:46 28.01.2020
36 Rain 6 995 87 10000 5.1 210 08:26 28.01.2020
37 Rain 6 995 81 10000 5.1 180 07:57 28.01.2020
38 Clouds 6 996 100 10000 4.6 200 07:36 28.01.2020
39 Rain 6 997 81 10000 6.7 190 06:49 28.01.2020
40 Rain 6 997 87 10000 5.1 190 06:25 28.01.2020
41 Rain 6 997 87 10000 5.1 190 06:25 28.01.2020
42 Rain 6 998 93 10000 2.6 210 05:53 28.01.2020
43 Rain 6 998 87 10000 4.6 190 05:25 28.01.2020
44 Rain 6 999 87 10000 7.2 200 03:57 28.01.2020
45 Rain 6 999 100 10000 4.6 200 02:58 28.01.2020
46 Rain 6 999 100 10000 5.7 190 02:25 28.01.2020
47 Rain 6 999 100 10000 5.1 200 01:57 28.01.2020
48 Rain 6 1000 93 10000 6.7 180 01:24 28.01.2020
49 Rain 6 1001 100 10000 4.1 190 00:48 28.01.2020
50 Rain 6 1001 93 10000 6.2 180 00:28 28.01.2020
51 Rain 6 1002 93 10000 5.1 190 23:49 27.01.2020
52 Rain 6 1003 93 10000 4.6 190 23:30 27.01.2020
53 Clouds 6 1003 93 10000 3.6 190 22:55 27.01.2020
54 Clouds 6 1004 100 10000 5.1 200 22:36 27.01.2020
55 Clouds 6 1004 93 10000 4.6 180 22:18 27.01.2020
56 Clouds 6 1004 93 10000 4.6 180 22:18 27.01.2020
57 Rain 6 1005 93 10000 5.1 180 21:54 27.01.2020
58 Rain 6 1005 100 10000 4.1 200 21:36 27.01.2020
59 Rain 6 1005 93 10000 5.1 180 21:18 27.01.2020
60 Rain 6 1005 93 10000 5.7 180 20:43 27.01.2020
61 Rain 6 1005 100 10000 3.1 200 20:22 27.01.2020
62 Rain 6 1005 100 10000 3.1 200 20:22 27.01.2020
63 Rain 6 1006 100 10000 3.1 190 19:59 27.01.2020
64 Rain 6 1006 100 10000 3.1 190 19:40 27.01.2020
65 Rain 6 1006 100 10000 3.6 200 19:22 27.01.2020
66 Rain 6 1007 100 10000 3.6 200 18:56 27.01.2020
67 Rain 6 1007 100 10000 3.6 200 18:38 27.01.2020
68 Rain 6 1007 100 10000 4.1 180 18:19 27.01.2020
69 Rain 6 1007 100 10000 4.6 210 17:39 27.01.2020
70 Rain 6 1008 100 10000 3.1 200 17:21 27.01.2020
71 Rain 6 1008 87 10000 5.7 200 16:59 27.01.2020
72 Rain 6 1008 87 10000 5.7 200 16:41 27.01.2020
73 Rain 7 1009 93 10000 5.1 200 16:23 27.01.2020
74 Rain 7 1009 93 7000 4.6 180 15:55 27.01.2020
75 Rain 7 1009 93 7000 4.6 180 15:55 27.01.2020
76 Rain 7 1009 93 6000 4.6 190 15:37 27.01.2020
77 Rain 7 1009 93 6000 4.6 190 15:36 27.01.2020
78 Rain 7 1009 93 6000 4.6 190 15:18 27.01.2020
79 Rain 7 1009 93 10000 5.1 180 14:42 27.01.2020
80 Rain 7 1010 93 10000 4.6 180 14:22 27.01.2020
81 Rain 7 1010 100 10000 1.5 180 13:58 27.01.2020
82 Rain 7 1010 100 10000 1.5 180 13:39 27.01.2020
83 Rain 7 1011 100 10000 2.1 190 13:19 27.01.2020
84 Clouds 6 1011 81 10000 4.6 180 12:54 27.01.2020
85 Rain 6 1012 93 10000 4.1 180 12:36 27.01.2020
86 Rain 6 1012 93 10000 4.1 180 12:18 27.01.2020
87 Rain 6 1012 87 10000 3.6 180 11:41 27.01.2020
88 Rain 5 1013 93 10000 4.6 180 11:21 27.01.2020
89 Mist 5 1013 100 4400 1.5 150 10:43 27.01.2020
90 Rain 4 1013 100 2400 1.5 180 10:24 27.01.2020
91 Mist 4 1014 100 2000 3.41 194 09:56 27.01.2020
92 Mist 4 1014 100 2000 3.41 194 09:38 27.01.2020
93 Fog 4 1014 100 1400 3.41 194 09:18 27.01.2020
94 Mist 3 1014 100 4500 2.1 210 08:43 27.01.2020
95 Mist 3 1014 100 4000 2.1 260 08:22 27.01.2020
96 Mist 3 1014 100 4000 1.5 210 07:54 27.01.2020
97 Fog 3 1015 100 800 2.97 186 07:35 27.01.2020
98 Mist 2 1015 100 2800 2.6 230 06:53 27.01.2020
99 Mist 2 1015 100 2200 2.1 160 06:27 27.01.2020
100 Fog 2 1015 100 600 1.5 160 05:28 27.01.2020
101 Mist 2 1016 100 1500 2.1 240 03:58 27.01.2020
102 Fog 2 1016 100 300 1 0 02:43 27.01.2020
103 Fog 2 1017 100 200 0.5 0 01:31 27.01.2020
104 Fog 2 1017 100 200 1 0 00:59 27.01.2020
105 Fog 2 1017 100 200 1 230 00:37 27.01.2020
106 Fog 2 1017 100 200 1 230 00:19 27.01.2020
107 Fog 2 1018 100 800 1.95 193 23:41 26.01.2020
108 Fog 2 1018 100 800 1.56 178 23:19 26.01.2020
109 Mist 2 1018 100 1100 2.1 210 22:57 26.01.2020
110 Mist 2 1018 100 2200 2.1 160 22:37 26.01.2020
111 Mist 2 1018 100 2200 2.1 160 22:18 26.01.2020
112 Mist 2 1018 100 2500 2.1 190 21:56 26.01.2020
113 Mist 2 1018 100 2000 1.5 210 21:38 26.01.2020
114 Mist 2 1018 100 2000 1.5 210 21:19 26.01.2020
115 Mist 2 1018 100 2000 1.5 210 21:19 26.01.2020
116 Fog 2 1018 100 500 1 0 20:56 26.01.2020
117 Fog 2 1018 100 500 1 0 20:38 26.01.2020
118 Fog 2 1018 100 250 1.5 160 20:18 26.01.2020
119 Fog 2 1018 100 250 1.5 210 19:57 26.01.2020
120 Fog 2 1018 100 400 1.5 180 19:37 26.01.2020
121 Fog 2 1018 100 400 1.5 180 19:18 26.01.2020
122 Fog 2 1018 100 300 2.1 200 18:41 26.01.2020
123 Fog 2 1018 100 300 2.1 220 18:22 26.01.2020
124 Fog 2 1018 100 500 2.1 220 17:59 26.01.2020
125 Fog 2 1018 100 400 1.34 182 17:40 26.01.2020
126 Fog 2 1018 100 800 1.5 200 17:20 26.01.2020
127 Fog 2 1018 100 800 1.5 200 17:20 26.01.2020
128 Fog 2 1018 100 800 1 200 16:59 26.01.2020
129 Fog 2 1018 100 800 1 200 16:40 26.01.2020
130 Mist 3 1018 100 1000 1.5 210 16:22 26.01.2020
131 Mist 3 1018 100 1000 1.5 210 16:22 26.01.2020
132 Fog 2 1019 100 400 1.5 180 15:58 26.01.2020
133 Fog 2 1019 100 400 1.5 180 15:58 26.01.2020
134 Fog 3 1019 100 400 1.5 180 15:58 26.01.2020
135 Fog 3 1019 100 400 1.5 180 15:40 26.01.2020
136 Fog 3 1019 100 400 1.5 190 15:19 26.01.2020
137 Fog 3 1019 100 400 1.5 190 14:41 26.01.2020
138 Mist 2 1019 100 2200 1.5 170 14:23 26.01.2020
139 Mist 2 1019 100 2200 1.5 170 13:59 26.01.2020
140 Mist 2 1019 100 2200 1.5 170 13:59 26.01.2020
141 Mist 2 1019 100 2200 1.5 170 13:38 26.01.2020
142 Fog 2 1020 100 800 1.5 190 13:18 26.01.2020
143 Fog 2 1020 100 800 1.5 190 12:43 26.01.2020
144 Fog 2 1020 100 800 1.5 190 12:43 26.01.2020
145 Fog 2 1020 100 800 1.5 190 12:24 26.01.2020
146 Fog 2 1020 100 400 1.5 170 11:59 26.01.2020
147 Fog 2 1020 100 400 1.5 170 11:40 26.01.2020
148 Fog 1 1020 90 500 1.5 160 11:19 26.01.2020
149 Fog 1 1020 90 500 1.5 160 10:59 26.01.2020
150 Fog 1 1020 90 500 1.5 160 10:39 26.01.2020
151 Fog 1 1020 90 500 1.5 160 10:21 26.01.2020
152 Fog 1 1020 90 300 1.5 160 09:59 26.01.2020
153 Fog 1 1020 90 300 1.5 160 09:41 26.01.2020
154 Fog 0 1020 90 300 2.1 0 09:22 26.01.2020
155 Fog 0 1020 90 300 1.5 120 08:45 26.01.2020
156 Fog 0 1020 85 300 2.1 150 08:24 26.01.2020
157 Fog 1 1020 90 400 2.1 160 07:59 26.01.2020
158 Fog 1 1020 90 400 2.1 160 07:41 26.01.2020
159 Fog 0 1020 100 300 2.1 150 07:22 26.01.2020
160 Fog 1 1020 100 300 1.5 110 06:32 26.01.2020
161 Mist 1 1020 100 1400 0.2 126 05:37 26.01.2020
162 Fog 1 1020 100 400 1 0 04:58 26.01.2020
163 Fog 0 1021 100 800 1 0 02:59 26.01.2020
164 Fog 1 1021 100 700 1 0 01:59 26.01.2020
165 Fog 1 1021 100 700 1 0 01:39 26.01.2020
166 Fog 1 1021 100 700 0.5 0 01:19 26.01.2020
167 Mist 1 1021 100 1000 1 80 00:39 26.01.2020
168 Mist 1 1021 100 1200 1 110 00:20 26.01.2020
169 Mist 1 1022 87 1600 0.03 260 23:38 25.01.2020
170 Mist 1 1022 83 1600 0.22 26 23:20 25.01.2020
171 Mist 1 1022 100 1600 1.5 10 22:43 25.01.2020
172 Clouds 1 1015 93 0 0.22 26 22:21 25.01.2020
173 Fog 1 1022 100 800 0.22 26 21:59 25.01.2020
174 Fog 1 1022 100 800 0.22 26 21:59 25.01.2020
175 Fog 1 1022 100 800 0.22 26 21:41 25.01.2020
176 Fog 1 1022 100 800 0.22 26 21:22 25.01.2020
177 Fog 1 1022 100 800 0.22 26 20:55 25.01.2020
178 Fog 1 1022 100 800 0.22 26 20:36 25.01.2020
179 Clouds 2 1022 79 0 0.29 120 20:18 25.01.2020
180 Clouds 1 1015 91 0 0.08 135 19:42 25.01.2020
181 Clouds 1 1015 90 0 0.08 135 19:20 25.01.2020
182 Clouds 1 1015 90 0 0.08 135 19:20 25.01.2020
183 Clouds 1 1015 89 0 0.29 120 18:57 25.01.2020
184 Clouds 1 1015 89 0 0.29 120 18:57 25.01.2020
185 Clouds 1 1015 89 0 0.29 120 18:38 25.01.2020
186 Clouds 1 1015 89 0 0.29 120 18:20 25.01.2020
187 Clouds 1 1015 88 0 0.08 135 17:40 25.01.2020
188 Mist 1 1022 100 6000 0.39 182 17:20 25.01.2020
189 Mist 1 1022 100 6000 0.39 182 16:58 25.01.2020
190 Mist 2 1022 100 6000 0.39 182 16:39 25.01.2020
191 Mist 2 1022 100 8000 0.39 182 16:19 25.01.2020
192 Mist 2 1022 100 8000 0.39 182 15:47 25.01.2020
193 Mist 2 1022 100 8000 0.39 182 15:25 25.01.2020
194 Mist 1 1022 100 5000 0.39 182 14:59 25.01.2020
195 Mist 2 1022 100 5000 0.39 182 14:41 25.01.2020
196 Mist 2 1023 100 2800 0.88 203 14:18 25.01.2020
197 Fog 1 1023 100 600 0.88 203 13:43 25.01.2020
198 Fog 1 1023 100 800 0.88 203 13:24 25.01.2020
199 Fog 1 1023 100 800 0.88 203 13:24 25.01.2020
200 Drizzle 1 1024 74 2000 1 0 12:46 25.01.2020
201 Drizzle 1 1024 74 2000 1 0 12:28 25.01.2020
202 Drizzle 1 1024 74 2000 1 0 11:54 25.01.2020
203 Mist 1 1024 74 1400 0.59 185 11:36 25.01.2020
204 Fog 1 1024 78 800 1 0 11:18 25.01.2020
205 Fog 0 1023 78 500 1 0 10:40 25.01.2020
206 Fog 0 1023 78 400 1.5 170 10:21 25.01.2020
207 Fog 0 1023 78 700 1.5 180 09:57 25.01.2020
208 Fog 0 1023 78 400 0.62 203 09:37 25.01.2020
209 Mist 0 1023 78 2300 1.5 180 09:18 25.01.2020
210 Mist 0 1023 78 3500 2.1 170 08:42 25.01.2020
211 Mist 0 1023 74 4000 1.5 180 07:54 25.01.2020
212 Mist 0 1022 74 4500 1.5 210 07:21 25.01.2020
213 Mist 0 1022 74 5000 1.5 210 06:31 25.01.2020
214 Mist 0 1022 74 4500 1 0 05:57 25.01.2020
215 Mist 0 1022 74 4500 1 0 05:38 25.01.2020
216 Mist 0 1023 71 1200 1.5 180 03:58 25.01.2020
217 Mist 0 1023 71 2500 1.5 210 03:39 25.01.2020
218 Mist 0 1023 71 5000 2.1 240 02:36 25.01.2020
219 Mist 0 1023 64 4000 1 0 01:57 25.01.2020
220 Mist 0 1023 72 4500 1.5 200 01:23 25.01.2020
221 Mist 0 1023 72 4500 1.5 220 00:39 25.01.2020
222 Mist 0 1023 72 4000 0.3 96 00:18 25.01.2020
223 Mist 0 1023 72 5000 1 150 23:42 24.01.2020
224 Mist 0 1023 72 5000 1 150 23:42 24.01.2020
225 Clouds 0 1023 72 6000 1 140 23:24 24.01.2020
226 Clouds 0 1023 65 6000 1.5 150 22:46 24.01.2020
227 Clouds 0 1023 65 6000 1.5 150 22:46 24.01.2020
228 Clouds 0 1024 65 6000 1 150 22:28 24.01.2020
229 Clouds 0 1024 86 6000 0.5 0 21:59 24.01.2020
230 Clouds 0 1024 86 6000 0.5 0 21:40 24.01.2020
231 Clouds 0 1024 65 6000 1 190 21:19 24.01.2020
232 Clouds 0 1024 65 6000 1 0 20:44 24.01.2020
233 Clouds 0 1024 60 6000 1 0 20:22 24.01.2020
234 Clouds 0 1023 58 6000 1 0 19:59 24.01.2020
235 Clouds 0 1023 58 6000 1 0 19:40 24.01.2020
236 Clouds 0 1023 86 6000 1.5 190 19:22 24.01.2020
237 Clouds 0 1023 86 6000 0.5 0 18:57 24.01.2020
238 Clouds 0 1023 86 6000 0.5 0 18:39 24.01.2020
239 Clouds 0 1024 86 6000 0.5 0 18:21 24.01.2020
240 Mist 0 1023 86 5000 2.1 180 17:42 24.01.2020
241 Mist 1 1023 86 5000 1.5 150 17:21 24.01.2020
242 Clouds 1 1023 86 6000 2.1 170 16:57 24.01.2020
243 Clouds 1 1023 86 6000 2.1 170 16:38 24.01.2020
244 Clouds 1 1023 86 7000 2.1 170 16:18 24.01.2020
245 Clouds 1 1023 86 7000 2.6 140 15:41 24.01.2020
246 Clouds 1 1023 86 8000 2.1 220 15:21 24.01.2020
247 Clouds 1 1024 86 9000 2.1 200 14:42 24.01.2020
248 Clouds 1 1024 80 9000 1.5 200 14:24 24.01.2020
249 Clouds 1 1024 80 9000 2.1 220 13:59 24.01.2020
250 Clouds 1 1024 80 9000 2.1 220 13:40 24.01.2020
251 Clouds 1 1025 80 8000 2.1 170 13:21 24.01.2020
252 Clouds 1 1025 80 8000 3.1 180 12:42 24.01.2020
253 Clouds 1 1025 80 8000 2.6 170 12:20 24.01.2020
254 Clouds 1 1025 80 8000 2.1 170 11:44 24.01.2020
255 Clouds 0 1025 66 8000 2.6 180 11:19 24.01.2020
256 Clouds 0 1025 66 8000 3.1 180 10:56 24.01.2020
257 Clouds 0 1025 66 8000 3.1 180 10:38 24.01.2020
258 Clouds 0 1025 66 9000 2.6 190 10:18 24.01.2020
259 Clouds 0 1025 66 9000 2.1 180 09:41 24.01.2020
260 Clouds 0 1025 66 9000 2.6 180 09:23 24.01.2020
261 Clouds 0 1025 66 8000 2.6 170 08:41 24.01.2020
262 Clouds 0 1025 74 8000 2.1 190 08:21 24.01.2020
263 Clouds 0 1025 74 8000 3.1 190 07:58 24.01.2020
264 Clouds 0 1025 80 8000 2.6 160 07:39 24.01.2020
265 Clouds 0 1025 86 8000 2.1 160 06:54 24.01.2020
266 Clouds 0 1025 86 8000 1 0 06:33 24.01.2020
267 Clouds 0 1025 86 8000 1 200 05:59 24.01.2020
268 Clouds 0 1025 86 8000 1.5 230 05:18 24.01.2020
269 Clouds 0 1026 74 10000 1.5 190 02:54 24.01.2020
270 Clouds 0 1027 73 10000 2.6 210 02:27 24.01.2020
271 Clouds 0 1027 80 10000 2.1 210 01:56 24.01.2020
272 Clouds 0 1027 80 10000 2.1 180 01:35 24.01.2020
273 Clouds 0 1027 86 10000 0.5 210 00:33 24.01.2020
274 Clouds 0 1027 86 10000 0.5 0 23:58 23.01.2020
275 Clouds 0 1027 86 10000 0.5 0 23:40 23.01.2020
276 Clouds 0 1028 86 10000 2.1 150 23:21 23.01.2020
277 Clouds 0 1028 86 10000 1.5 150 22:55 23.01.2020
278 Clouds 0 1028 86 10000 1.5 150 22:55 23.01.2020
279 Clouds 0 1028 80 10000 2.6 140 22:36 23.01.2020
280 Clouds 0 1028 80 10000 2.6 140 22:36 23.01.2020
281 Clouds 0 1028 80 10000 2.6 140 22:18 23.01.2020
282 Clouds 0 1028 80 10000 3.6 110 21:55 23.01.2020
283 Clouds 0 1028 80 10000 3.1 120 21:37 23.01.2020
284 Clouds 0 1028 80 10000 3.1 120 21:18 23.01.2020
285 Clouds 1 1028 80 10000 3.1 120 20:41 23.01.2020
286 Clouds 1 1028 80 10000 3.1 120 20:22 23.01.2020
287 Clouds 1 1028 86 10000 1.5 80 19:57 23.01.2020
288 Clouds 1 1028 86 10000 1.5 80 19:39 23.01.2020
289 Clouds 1 1028 80 10000 3.6 110 19:21 23.01.2020
290 Clouds 1 1028 80 10000 3.1 70 18:56 23.01.2020
291 Clouds 1 1028 80 10000 3.1 70 18:38 23.01.2020
292 Clouds 1 1028 80 10000 3.1 70 18:19 23.01.2020
293 Clouds 1 1028 80 10000 3.6 70 17:45 23.01.2020
294 Clouds 2 1028 74 10000 3.6 100 17:21 23.01.2020
295 Clouds 2 1029 74 10000 3.6 90 16:59 23.01.2020
296 Clouds 3 1029 69 10000 3.1 100 16:39 23.01.2020
297 Clouds 3 1029 69 10000 3.1 100 16:20 23.01.2020
298 Clouds 3 1029 69 10000 3.6 20 15:58 23.01.2020
299 Clouds 3 1030 69 10000 2.1 20 15:39 23.01.2020
300 Clouds 3 1030 69 10000 2.6 10 15:19 23.01.2020
301 Clouds 3 1030 69 10000 4.1 10 14:58 23.01.2020
302 Clouds 3 1030 69 10000 4.1 10 14:40 23.01.2020
303 Clouds 3 1031 69 10000 2.1 50 14:22 23.01.2020
304 Clouds 3 1031 69 10000 3.1 60 13:56 23.01.2020
305 Clouds 3 1032 69 10000 3.1 50 13:37 23.01.2020
306 Clouds 2 1032 69 10000 3.1 50 13:18 23.01.2020
307 Clouds 3 1032 74 10000 4.1 80 12:43 23.01.2020
308 Clouds 2 1032 74 10000 4.1 60 12:24 23.01.2020
309 Clouds 2 1033 74 10000 4.6 50 11:56 23.01.2020
310 Clouds 2 1033 80 10000 4.6 70 11:37 23.01.2020
311 Clouds 2 1033 80 10000 4.6 70 11:37 23.01.2020
312 Clouds 2 1033 80 10000 4.6 70 11:18 23.01.2020
313 Clouds 2 1033 80 10000 4.6 70 11:18 23.01.2020
314 Clouds 1 1033 68 10000 4.6 60 10:43 23.01.2020
315 Clouds 1 1033 71 10000 4.1 60 10:19 23.01.2020
316 Clouds 1 1034 68 6000 3.1 60 09:43 23.01.2020
317 Clouds 1 1034 68 6000 3.1 60 09:25 23.01.2020
318 Clouds 1 1034 71 6000 3.1 30 08:58 23.01.2020
319 Clouds 0 1034 71 8000 2.6 30 08:40 23.01.2020
320 Clouds 0 1034 77 8000 2.6 30 08:21 23.01.2020
321 Clouds 0 1034 77 8000 2.6 60 07:44 23.01.2020
322 Clouds 0 1034 77 6000 3.6 30 07:24 23.01.2020
323 Mist 0 1034 86 5000 3.6 10 06:51 23.01.2020
324 Drizzle 0 1034 77 5000 2.1 50 06:22 23.01.2020
325 Drizzle 0 1034 77 5000 2.6 360 05:44 23.01.2020
326 Mist 0 1035 73 3700 1.5 60 04:24 23.01.2020
327 Mist 0 1036 73 4000 1.97 51 02:34 23.01.2020
328 Drizzle 0 1037 63 4400 1.5 100 01:19 23.01.2020
329 Drizzle -1 1037 100 4500 0.5 0 00:27 23.01.2020
330 Drizzle -1 1036 63 4600 1.5 140 23:48 22.01.2020
331 Drizzle -1 1036 63 4600 1.5 140 23:29 22.01.2020
332 Drizzle -1 1036 51 5000 2.1 40 22:59 22.01.2020
333 Drizzle -1 1036 51 5000 2.1 40 22:40 22.01.2020
334 Drizzle -1 1036 92 4700 2.6 20 22:22 22.01.2020
335 Snow -1 1036 92 3900 2.6 20 21:40 22.01.2020
336 Snow -1 1036 92 3900 2.6 20 21:22 22.01.2020
337 Snow -1 1036 92 3900 1 70 20:57 22.01.2020
338 Snow -1 1036 92 4000 1.5 90 20:39 22.01.2020
339 Snow -1 1036 92 4000 1.5 90 20:21 22.01.2020
340 Mist -2 1036 100 4000 1 0 19:57 22.01.2020
341 Mist -1 1036 92 4000 1 150 19:38 22.01.2020
342 Mist -1 1036 92 4000 1 150 19:18 22.01.2020
343 Mist -1 1036 92 3500 1.5 100 18:56 22.01.2020
344 Mist -2 1035 92 3500 1.5 150 18:38 22.01.2020
345 Mist -2 1035 92 3500 1.5 150 18:19 22.01.2020
346 Mist -2 1035 100 2500 1.5 120 17:54 22.01.2020
347 Mist -2 1035 92 2500 2.1 20 17:36 22.01.2020
348 Mist -1 1035 92 2500 2.1 20 17:18 22.01.2020
349 Mist -1 1035 92 2500 2.1 20 17:18 22.01.2020
350 Mist -1 1035 92 1700 1.5 70 16:43 22.01.2020
351 Mist -1 1035 92 1400 1 0 16:22 22.01.2020
352 Mist -1 1035 92 1200 1 0 15:58 22.01.2020
353 Mist -1 1036 100 1200 1.5 200 15:39 22.01.2020
354 Mist -1 1036 100 1200 1.5 200 15:21 22.01.2020
355 Snow -1 1036 92 1400 1.5 170 14:56 22.01.2020
356 Snow -1 1036 100 1400 1 170 14:36 22.01.2020
357 Snow -1 1036 100 1400 1 170 14:18 22.01.2020
358 Snow -1 1036 100 800 1 0 13:54 22.01.2020
359 Mist -1 1036 92 2700 2.1 150 13:36 22.01.2020
360 Mist -1 1036 92 2700 2.1 150 13:18 22.01.2020
361 Mist -1 1036 92 2700 2.6 130 12:54 22.01.2020
362 Fog -1 1037 100 1500 2.1 60 12:36 22.01.2020
363 Fog -1 1037 100 1500 2.1 60 12:18 22.01.2020
364 Fog -1 1037 100 1500 2.1 130 11:54 22.01.2020
365 Mist -2 1037 92 1000 1.12 56 11:36 22.01.2020
366 Fog -2 1036 100 1500 1 0 11:18 22.01.2020
367 Fog -3 1036 92 900 2.1 200 10:42 22.01.2020
368 Fog -3 1036 100 600 2.1 190 10:19 22.01.2020
369 Fog -4 1036 92 800 1 0 09:43 22.01.2020
370 Fog -4 1036 92 9000 2.1 180 09:24 22.01.2020
371 Clouds -4 1036 85 9000 1 0 08:57 22.01.2020
372 Clouds -4 1036 85 9000 1 0 08:57 22.01.2020
373 Fog -4 1036 85 200 0.98 239 08:39 22.01.2020
374 Clouds -4 1036 92 10000 0.33 11 08:20 22.01.2020
375 Clouds -4 1036 85 10000 2.6 90 07:48 22.01.2020
376 Clouds -5 1036 100 10000 1.5 50 07:30 22.01.2020
377 Clouds -4 1035 92 10000 1 0 06:50 22.01.2020
378 Clouds -5 1036 92 10000 1.5 100 06:26 22.01.2020
379 Clouds -5 1036 92 10000 1 0 05:33 22.01.2020
380 Clouds -4 1036 92 10000 1.5 80 04:18 22.01.2020
381 Clouds -4 1037 92 10000 2.1 80 03:21 22.01.2020
382 Clear -4 1037 92 10000 0.5 170 01:44 22.01.2020
383 Clear -3 1038 100 10000 0.5 320 00:44 22.01.2020
384 Clear -3 1038 92 10000 0.5 180 00:26 22.01.2020
385 Clear -3 1038 92 10000 0.5 0 23:38 21.01.2020
386 Clear -3 1038 92 10000 0.5 260 23:38 21.01.2020
387 Clear -3 1038 92 10000 0.5 0 23:38 21.01.2020
388 Clear -3 1038 92 10000 0.5 260 23:20 21.01.2020
389 Clear -3 1038 100 10000 1 180 22:59 21.01.2020
390 Clear -3 1038 100 10000 1 180 22:39 21.01.2020
391 Clear -2 1039 92 10000 0.5 0 22:20 21.01.2020
392 Clear -2 1038 92 10000 1 190 21:56 21.01.2020
393 Clear -2 1039 92 10000 1 0 21:37 21.01.2020
394 Clear -2 1039 92 10000 1 0 21:19 21.01.2020
395 Clear -1 1039 86 10000 1 100 20:55 21.01.2020
396 Clear -1 1039 86 10000 2.1 50 20:37 21.01.2020
397 Clear -1 1039 86 10000 2.1 50 20:18 21.01.2020
398 Clear -1 1039 86 10000 2.1 50 20:18 21.01.2020
399 Clear -1 1039 86 10000 0.5 150 19:55 21.01.2020
400 Clear -1 1039 63 10000 0.5 0 19:37 21.01.2020
401 Clear -1 1039 63 10000 0.5 0 19:19 21.01.2020
402 Clear 0 1039 74 10000 0.5 0 18:55 21.01.2020
403 Clear 0 1039 69 10000 1 0 18:36 21.01.2020
404 Clear 1 1039 69 10000 1 0 18:18 21.01.2020
405 Clear 1 1039 80 10000 1 70 17:43 21.01.2020
406 Clear 2 1040 60 10000 1 0 17:20 21.01.2020
407 Clear 4 1040 60 10000 2.1 100 16:58 21.01.2020
408 Clear 4 1040 60 10000 1.5 70 16:37 21.01.2020
409 Clear 4 1040 60 10000 1.5 70 16:18 21.01.2020
410 Clear 4 1040 60 10000 2.1 80 15:42 21.01.2020
411 Clear 5 1040 60 10000 2.1 90 15:21 21.01.2020
412 Clear 5 1040 60 10000 2.6 60 14:59 21.01.2020
413 Clear 5 1041 60 10000 2.1 80 14:38 21.01.2020
414 Clear 5 1041 60 10000 2.1 80 14:19 21.01.2020
415 Clear 4 1041 64 10000 2.6 60 13:40 21.01.2020
416 Clear 4 1041 64 10000 2.6 60 13:19 21.01.2020
417 Clear 3 1042 69 10000 3.1 70 12:44 21.01.2020
418 Clear 3 1042 74 10000 3.1 70 12:25 21.01.2020
419 Clear 2 1043 74 10000 3.6 70 11:58 21.01.2020
420 Clear 2 1043 74 10000 3.6 70 11:40 21.01.2020
421 Clear 1 1043 86 10000 3.6 80 11:21 21.01.2020
422 Clear 0 1043 74 10000 3.1 80 10:55 21.01.2020
423 Clear 0 1043 74 10000 2.6 90 10:37 21.01.2020
424 Clear -1 1043 74 10000 2.6 90 10:18 21.01.2020
425 Clear -2 1043 92 10000 2.1 80 09:41 21.01.2020
426 Clear -2 1043 92 10000 2.1 80 09:22 21.01.2020
427 Clear -3 1043 92 10000 1.5 0 08:50 21.01.2020
428 Clear -3 1043 92 10000 2.6 20 08:30 21.01.2020
429 Clear -3 1043 86 10000 2.1 70 07:59 21.01.2020
430 Clear -3 1043 86 10000 2.1 70 07:40 21.01.2020
431 Clear -3 1043 86 10000 1.5 90 07:40 21.01.2020
432 Clear -3 1043 86 10000 1.5 90 07:21 21.01.2020
433 Clear -3 1043 92 10000 2.1 100 06:49 21.01.2020
434 Clear -3 1043 92 10000 3.1 90 06:29 21.01.2020
435 Clear -3 1043 86 10000 2.1 70 05:42 21.01.2020
436 Clear -2 1043 86 10000 3.1 70 04:40 21.01.2020
437 Clear -2 1044 80 10000 2.1 60 02:56 21.01.2020
438 Clouds -1 1045 78 10000 1.5 50 01:55 21.01.2020
439 Clouds -1 1045 86 10000 2.1 60 01:18 21.01.2020
440 Clouds -1 1045 92 10000 1.5 60 00:37 21.01.2020
441 Clouds -1 1045 86 10000 2.1 70 23:59 20.01.2020
442 Clouds -1 1045 92 10000 1 0 23:39 20.01.2020
443 Clouds -1 1045 92 10000 1 0 23:39 20.01.2020
444 Clouds -1 1045 92 10000 1 0 23:19 20.01.2020
445 Clouds -1 1045 80 10000 2.1 80 22:56 20.01.2020
446 Clouds 0 1045 74 10000 3.1 20 22:38 20.01.2020
447 Clouds 0 1045 74 10000 3.1 20 22:20 20.01.2020
448 Clouds 0 1045 80 10000 3.6 20 21:57 20.01.2020
449 Clouds 0 1045 80 10000 4.1 30 21:37 20.01.2020
450 Clouds 0 1045 80 10000 4.1 30 21:19 20.01.2020
451 Clouds 1 1045 80 10000 4.1 30 20:56 20.01.2020
452 Clouds 0 1045 74 10000 5.7 20 20:38 20.01.2020
453 Clouds 1 1045 74 10000 5.7 20 20:18 20.01.2020
454 Clouds 1 1045 74 10000 4.6 20 19:56 20.01.2020
455 Clouds 1 1045 74 10000 3.6 20 19:38 20.01.2020
456 Clouds 1 1045 74 10000 3.6 20 19:18 20.01.2020
457 Clouds 2 1045 69 10000 4.6 20 18:44 20.01.2020
458 Clouds 2 1045 69 10000 5.1 30 18:22 20.01.2020
459 Clouds 3 1045 65 10000 4.1 40 17:58 20.01.2020
460 Clouds 3 1045 65 10000 4.6 30 17:36 20.01.2020
461 Clouds 3 1045 65 10000 4.6 30 17:36 20.01.2020
462 Clouds 3 1045 65 10000 4.6 30 17:18 20.01.2020
463 Clouds 4 1045 60 10000 4.6 20 16:43 20.01.2020
464 Clouds 5 1045 60 10000 4.6 10 16:25 20.01.2020
465 Clouds 5 1045 60 10000 5.1 30 15:58 20.01.2020
466 Clouds 5 1046 60 10000 4.1 60 15:39 20.01.2020
467 Clouds 5 1046 60 10000 4.1 60 15:21 20.01.2020
468 Clouds 5 1046 52 10000 3.6 70 14:42 20.01.2020
469 Clouds 5 1046 56 10000 3.6 80 14:24 20.01.2020
470 Clouds 5 1046 56 10000 4.1 60 13:59 20.01.2020
471 Clouds 5 1046 56 10000 4.1 60 13:40 20.01.2020
472 Clouds 5 1046 56 10000 4.6 50 13:22 20.01.2020
473 Clouds 5 1047 60 10000 4.6 70 12:48 20.01.2020
474 Clouds 5 1047 62 10000 4.6 60 12:29 20.01.2020
475 Clouds 5 1047 62 10000 4.6 60 12:29 20.01.2020
476 Clouds 5 1047 70 10000 4.6 50 11:59 20.01.2020
477 Clouds 5 1047 75 10000 4.1 40 11:40 20.01.2020
478 Clouds 4 1047 75 10000 4.1 40 11:22 20.01.2020
479 Clouds 3 1047 80 10000 1.5 80 10:57 20.01.2020
480 Clear 2 1047 86 0 1 0 10:39 20.01.2020
481 Clear 2 1047 86 0 1 0 10:19 20.01.2020
482 Clouds 1 1046 73 10000 0.5 0 09:41 20.01.2020
483 Clouds 0 1046 92 10000 1.5 160 09:21 20.01.2020
484 Clouds 0 1046 92 10000 1.5 150 08:49 20.01.2020
485 Clouds 0 1046 73 10000 2.1 160 08:30 20.01.2020
486 Clouds 0 1045 84 10000 1 0 07:54 20.01.2020
487 Clouds 1 1046 84 10000 1 0 07:30 20.01.2020
488 Clouds 1 1045 86 10000 1.5 130 06:59 20.01.2020
489 Clouds 1 1045 84 10000 1 0 06:34 20.01.2020
490 Clouds 1 1045 100 10000 0.5 0 05:49 20.01.2020
491 Clouds 1 1045 92 10000 1 0 05:30 20.01.2020
492 Clouds 1 1045 92 10000 1 0 05:30 20.01.2020
493 Clear 1 1044 100 10000 1 0 04:58 20.01.2020
494 Clear 1 1044 81 10000 1 240 03:46 20.01.2020
495 Clouds 2 1044 79 10000 0.5 0 01:58 20.01.2020
496 Clouds 2 1044 93 10000 1 0 01:38 20.01.2020
497 Clouds 2 1044 93 10000 1 200 00:46 20.01.2020
498 Clouds 2 1044 93 10000 1.5 260 00:27 20.01.2020
499 Clouds 3 1043 86 10000 0.5 0 23:55 19.01.2020
500 Clouds 3 1043 86 10000 0.5 0 23:36 19.01.2020
501 Clouds 3 1043 86 10000 0.5 0 23:18 19.01.2020
502 Clouds 3 1043 80 10000 1.5 60 22:54 19.01.2020
503 Clouds 3 1043 75 10000 3.1 40 22:36 19.01.2020
504 Clouds 3 1043 75 10000 3.1 40 22:18 19.01.2020
505 Clouds 3 1043 75 10000 3.1 30 21:55 19.01.2020
506 Clouds 3 1043 75 10000 3.1 30 21:55 19.01.2020
507 Clouds 3 1043 75 10000 3.1 30 21:55 19.01.2020
508 Rain 3 1042 86 10000 3.1 30 21:37 19.01.2020
509 Rain 3 1042 86 10000 3.1 30 21:19 19.01.2020
510 Rain 3 1042 75 10000 4.1 20 20:55 19.01.2020
511 Rain 3 1042 75 10000 4.1 20 20:55 19.01.2020
512 Rain 3 1042 80 10000 3.6 20 20:37 19.01.2020
513 Rain 3 1042 80 10000 3.6 20 20:37 19.01.2020
514 Clouds 3 1042 80 10000 3.6 20 20:18 19.01.2020
515 Clouds 3 1041 86 10000 3.1 10 19:54 19.01.2020
516 Clouds 3 1041 80 10000 2.6 20 19:36 19.01.2020
517 Clouds 3 1041 80 10000 2.6 20 19:18 19.01.2020
518 Rain 3 1040 80 10000 2.6 10 18:54 19.01.2020
519 Rain 3 1040 75 10000 2.6 340 18:36 19.01.2020
520 Rain 3 1040 80 10000 2.6 350 18:18 19.01.2020
521 Clouds 3 1039 75 10000 2.6 350 17:56 19.01.2020
522 Clouds 4 1039 75 10000 2.6 350 17:38 19.01.2020
523 Rain 4 1039 80 10000 4.1 50 17:18 19.01.2020
524 Clouds 4 1038 70 10000 4.1 30 16:55 19.01.2020
525 Clouds 4 1038 70 10000 3.1 40 16:36 19.01.2020
526 Clouds 5 1038 70 10000 3.1 40 16:18 19.01.2020
527 Clouds 5 1037 70 10000 2.6 330 15:54 19.01.2020
528 Clouds 5 1037 70 10000 2.6 30 15:36 19.01.2020
529 Clouds 5 1037 70 10000 3.1 10 15:18 19.01.2020
530 Clouds 5 1037 70 10000 2.6 30 15:18 19.01.2020
531 Clouds 5 1037 70 10000 3.1 10 15:18 19.01.2020
532 Clouds 5 1037 65 10000 3.6 10 14:40 19.01.2020
533 Clouds 5 1037 75 10000 3.6 0 14:21 19.01.2020
534 Clouds 5 1036 70 10000 2.6 350 13:59 19.01.2020
535 Clouds 5 1036 70 10000 2.6 330 13:40 19.01.2020
536 Clouds 5 1036 70 10000 2.6 330 13:22 19.01.2020
537 Clouds 5 1036 70 10000 3.6 320 12:59 19.01.2020
538 Rain 5 1036 75 10000 3.6 330 12:41 19.01.2020
539 Rain 5 1036 75 10000 3.6 330 12:21 19.01.2020
540 Clouds 4 1036 75 10000 3.6 320 11:57 19.01.2020
541 Clouds 4 1036 75 10000 2.6 0 11:38 19.01.2020
542 Clouds 4 1036 75 10000 2.6 0 11:18 19.01.2020
543 Clouds 3 1035 86 10000 3.1 290 10:41 19.01.2020
544 Clouds 2 1035 86 10000 3.1 290 10:21 19.01.2020
545 Rain 2 1034 93 10000 2.6 290 09:58 19.01.2020
546 Rain 2 1034 79 10000 3.6 320 09:39 19.01.2020
547 Rain 2 1034 79 10000 3.6 320 09:21 19.01.2020
548 Clouds 1 1033 79 10000 2.6 320 08:56 19.01.2020
549 Clouds 1 1033 79 10000 2.1 310 08:38 19.01.2020
550 Clouds 1 1033 84 10000 2.1 310 08:19 19.01.2020
551 Clouds 1 1032 84 10000 2.6 290 07:30 19.01.2020
552 Clouds 1 1032 84 10000 3.1 300 06:56 19.01.2020
553 Clouds 1 1031 84 10000 3.1 300 06:25 19.01.2020
554 Clouds 1 1031 83 10000 2.1 320 04:39 19.01.2020
555 Clouds 1 1030 83 10000 3.1 230 02:37 19.01.2020
556 Clouds 1 1030 79 10000 3.1 230 02:19 19.01.2020
557 Clouds 1 1029 81 10000 2.1 200 01:24 19.01.2020
558 Clouds 1 1029 81 10000 1.5 230 00:45 19.01.2020
559 Clouds 1 1029 81 10000 1.5 300 00:27 19.01.2020
560 Clouds 1 1028 81 10000 2.6 240 23:55 18.01.2020
561 Rain 1 1028 81 10000 3.1 240 23:37 18.01.2020
562 Rain 1 1028 77 10000 3.1 240 23:18 18.01.2020
563 Clouds 2 1028 77 10000 3.1 240 22:54 18.01.2020
564 Clouds 2 1028 77 10000 3.6 250 22:36 18.01.2020
565 Clouds 2 1028 77 10000 3.6 250 22:18 18.01.2020
566 Clouds 2 1028 77 10000 3.6 250 21:56 18.01.2020
567 Clouds 1 1028 77 10000 1.5 220 21:36 18.01.2020
568 Clouds 2 1028 77 10000 1.5 220 21:18 18.01.2020
569 Clouds 2 1028 77 10000 1.5 180 20:42 18.01.2020
570 Rain 2 1028 74 10000 1.5 240 20:20 18.01.2020
571 Rain 2 1028 74 10000 2.1 220 19:55 18.01.2020
572 Rain 2 1027 74 10000 3.1 200 19:37 18.01.2020
573 Rain 3 1027 74 10000 3.1 200 19:19 18.01.2020
574 Clouds 3 1027 86 10000 2.1 210 18:42 18.01.2020
575 Clouds 4 1027 80 10000 3.1 220 18:21 18.01.2020
576 Clouds 4 1026 80 10000 3.1 200 17:54 18.01.2020
577 Clouds 4 1026 75 10000 4.1 220 17:36 18.01.2020
578 Clouds 4 1026 75 10000 4.1 220 17:18 18.01.2020
579 Clouds 5 1025 75 10000 2.1 200 16:41 18.01.2020
580 Clouds 5 1025 75 10000 2.1 200 16:23 18.01.2020
581 Rain 5 1025 75 10000 3.1 210 15:59 18.01.2020
582 Rain 5 1025 75 10000 3.6 220 15:41 18.01.2020
583 Rain 5 1025 75 10000 3.6 220 15:22 18.01.2020
584 Rain 5 1025 81 10000 4.6 220 14:55 18.01.2020
585 Rain 5 1026 86 10000 4.6 220 14:37 18.01.2020
586 Rain 5 1026 86 10000 4.6 220 14:18 18.01.2020
587 Rain 5 1026 75 10000 6.2 230 13:43 18.01.2020
588 Rain 5 1026 81 10000 5.7 260 13:24 18.01.2020
589 Rain 5 1026 86 10000 6.2 230 12:57 18.01.2020
590 Rain 6 1026 80 10000 4.6 270 12:38 18.01.2020
591 Clouds 6 1026 86 10000 5.1 260 12:19 18.01.2020
592 Clouds 5 1026 70 10000 5.1 210 11:44 18.01.2020
593 Clouds 5 1026 75 10000 3.6 200 11:21 18.01.2020
594 Clouds 4 1026 80 10000 3.1 190 10:56 18.01.2020
595 Clouds 4 1026 86 10000 2.1 250 10:38 18.01.2020
596 Clouds 4 1026 86 10000 2.1 250 10:19 18.01.2020
597 Clouds 3 1026 93 10000 3.87 216 09:42 18.01.2020
598 Clouds 3 1026 86 10000 3.1 200 09:24 18.01.2020
599 Clouds 3 1025 93 10000 3.6 170 08:55 18.01.2020
600 Clouds 2 1025 74 10000 2.6 150 08:37 18.01.2020
601 Clouds 2 1025 82 10000 2.6 150 08:18 18.01.2020
602 Clouds 2 1025 82 10000 2.6 150 08:18 18.01.2020
603 Clouds 3 1025 80 10000 3.1 160 07:45 18.01.2020
604 Clouds 3 1025 80 10000 4.6 200 07:26 18.01.2020
605 Clouds 3 1025 80 10000 5.7 210 06:47 18.01.2020
606 Clouds 3 1025 80 10000 5.7 210 06:47 18.01.2020
607 Clouds 3 1024 86 10000 3.6 210 05:59 18.01.2020
608 Clouds 3 1024 93 10000 3.1 280 05:19 18.01.2020
609 Clouds 4 1023 80 10000 3.6 210 02:53 18.01.2020
610 Clouds 5 1022 75 10000 4.6 240 01:52 18.01.2020
611 Clouds 5 1022 75 10000 4.1 230 01:30 18.01.2020
612 Clouds 5 1021 81 10000 4.1 210 00:37 18.01.2020
613 Clouds 5 1021 81 10000 4.1 210 00:18 18.01.2020
614 Clouds 6 1021 81 10000 4.6 220 23:41 17.01.2020
615 Clouds 6 1021 81 10000 4.6 220 23:20 17.01.2020
616 Clouds 6 1020 87 10000 4.1 220 22:45 17.01.2020
617 Clouds 7 1020 81 10000 4.6 210 22:22 17.01.2020
618 Clouds 7 1020 81 10000 4.1 230 21:59 17.01.2020
619 Clouds 7 1020 81 10000 4.1 230 21:41 17.01.2020
620 Clouds 7 1019 93 10000 3.1 200 21:22 17.01.2020
621 Clouds 7 1019 93 10000 2.6 210 20:58 17.01.2020
622 Clouds 7 1019 93 10000 2.6 210 20:38 17.01.2020
623 Clouds 7 1019 87 10000 1.5 240 20:20 17.01.2020
624 Clouds 7 1018 87 10000 1 0 19:55 17.01.2020
625 Clouds 7 1018 87 10000 1 0 19:55 17.01.2020
626 Clouds 7 1019 93 10000 3.51 225 19:37 17.01.2020
627 Clouds 7 1018 87 10000 2.6 270 19:19 17.01.2020
628 Clouds 7 1018 87 10000 2.1 240 18:56 17.01.2020
629 Clouds 7 1018 87 10000 2.1 240 18:56 17.01.2020
630 Clouds 7 1018 87 10000 3.51 225 18:36 17.01.2020
631 Clouds 7 1018 87 10000 3.51 225 18:18 17.01.2020
632 Clouds 7 1018 87 10000 3.51 225 17:39 17.01.2020
633 Rain 7 1017 81 10000 3.1 210 17:20 17.01.2020
634 Rain 8 1018 81 10000 3.7 211 16:44 17.01.2020
635 Clouds 8 1017 75 10000 2.1 220 16:21 17.01.2020
636 Clouds 8 1017 75 10000 2.1 220 16:21 17.01.2020
637 Clouds 8 1017 75 10000 2.1 220 15:58 17.01.2020
638 Clouds 8 1017 81 10000 3.7 211 15:40 17.01.2020
639 Clouds 8 1017 81 10000 2.6 210 15:21 17.01.2020
640 Clouds 7 1018 81 10000 3.7 211 14:43 17.01.2020
641 Clouds 7 1018 75 10000 3.1 210 14:24 17.01.2020
642 Clouds 8 1018 75 10000 3.1 210 13:45 17.01.2020
643 Clouds 7 1018 81 10000 3.6 210 13:23 17.01.2020
644 Clouds 7 1018 81 10000 2.1 200 12:48 17.01.2020
645 Clouds 7 1019 86 10000 2.1 200 12:24 17.01.2020
646 Clouds 6 1019 86 10000 2.1 210 11:56 17.01.2020
647 Clouds 6 1019 86 10000 1.5 210 11:37 17.01.2020
648 Clouds 5 1019 86 10000 1.5 210 11:18 17.01.2020
649 Clouds 5 1019 86 10000 0.5 0 10:42 17.01.2020
650 Fog 4 1020 100 10000 0.5 0 10:42 17.01.2020
651 Fog 3 1020 100 10000 0.5 0 10:22 17.01.2020
652 Clouds 3 1020 87 10000 1 0 09:57 17.01.2020
653 Clouds 2 1020 87 10000 2.8 178 09:37 17.01.2020
654 Clouds 2 1020 87 10000 2.8 178 09:18 17.01.2020
655 Clouds 2 1020 100 10000 0.5 0 08:42 17.01.2020
656 Clouds 1 1020 100 10000 0.5 0 08:24 17.01.2020
657 Clouds 1 1020 100 10000 0.5 0 07:53 17.01.2020
658 Clouds 1 1020 100 10000 0.5 0 07:31 17.01.2020
659 Clouds 2 1020 100 10000 0.5 0 06:57 17.01.2020
660 Clouds 1 1021 92 10000 0.5 80 06:37 17.01.2020
661 Clouds 2 1021 92 10000 0.5 0 05:28 17.01.2020
662 Clear 2 1022 100 10000 0.43 123 03:39 17.01.2020
663 Clear 3 1022 100 10000 0.43 123 02:45 17.01.2020
664 Clear 4 1023 93 10000 0.76 91 01:46 17.01.2020
665 Clear 4 1023 93 10000 0.85 79 01:27 17.01.2020
666 Clear 4 1023 93 10000 3.1 100 00:46 17.01.2020
667 Clear 4 1023 93 10000 3.1 100 00:21 17.01.2020
668 Clear 4 1024 100 10000 1 40 23:43 16.01.2020
669 Clear 5 1024 100 10000 1 40 23:25 16.01.2020
670 Clear 5 1024 93 10000 1.5 50 22:56 16.01.2020
671 Clear 5 1024 93 10000 1.5 50 22:38 16.01.2020
672 Clear 5 1024 93 10000 2.1 70 22:19 16.01.2020
673 Clear 5 1025 100 10000 1 0 21:54 16.01.2020
674 Clear 5 1025 100 10000 0.5 300 21:36 16.01.2020
675 Clear 5 1025 100 10000 0.5 300 21:36 16.01.2020
676 Clear 5 1025 100 10000 0.5 300 21:18 16.01.2020
677 Clear 5 1025 93 10000 1 0 20:40 16.01.2020
678 Clear 6 1025 93 10000 1 0 20:21 16.01.2020
679 Clear 6 1025 93 10000 0.5 0 19:59 16.01.2020
680 Clear 7 1025 87 10000 1.5 60 19:41 16.01.2020
681 Clear 7 1025 87 10000 1.5 60 19:22 16.01.2020
682 Clear 7 1025 87 10000 1.5 60 19:22 16.01.2020
683 Clear 7 1025 87 10000 1.5 60 19:22 16.01.2020
684 Clear 7 1025 87 10000 1.5 90 18:57 16.01.2020
685 Clear 7 1025 87 10000 0.5 0 18:38 16.01.2020
686 Clear 8 1025 87 10000 0.5 0 18:20 16.01.2020
687 Clear 8 1025 81 10000 1 0 17:59 16.01.2020
688 Clouds 9 1025 71 10000 1.5 180 17:40 16.01.2020
689 Clouds 10 1025 71 10000 1.5 180 17:20 16.01.2020
690 Clouds 10 1025 66 10000 2.6 160 16:56 16.01.2020
691 Clouds 11 1026 62 10000 2.6 170 16:36 16.01.2020
692 Clouds 11 1026 62 10000 2.6 170 16:18 16.01.2020
693 Clouds 12 1026 58 10000 2.6 190 15:42 16.01.2020
694 Clouds 12 1026 58 10000 3.1 180 15:21 16.01.2020
695 Clouds 11 1026 62 10000 3.1 190 14:45 16.01.2020
696 Clouds 11 1026 66 10000 4.1 190 14:24 16.01.2020
697 Clouds 12 1027 66 10000 3.1 170 13:57 16.01.2020
698 Clouds 11 1027 71 10000 3.6 200 13:39 16.01.2020
699 Clouds 11 1027 71 10000 3.6 200 13:21 16.01.2020
700 Clouds 12 1027 71 10000 3.1 200 12:45 16.01.2020
701 Clouds 12 1028 66 10000 2.1 200 12:27 16.01.2020
702 Clouds 11 1028 71 10000 2.1 170 11:56 16.01.2020
703 Clouds 10 1028 76 10000 1.5 180 11:37 16.01.2020
704 Clouds 9 1028 76 10000 1.5 180 11:19 16.01.2020
705 Clouds 8 1028 81 10000 1.5 170 10:39 16.01.2020
706 Clouds 8 1028 81 10000 1 0 10:21 16.01.2020
707 Clouds 7 1028 87 10000 1 0 09:58 16.01.2020
708 Clouds 7 1028 87 10000 1 0 09:39 16.01.2020
709 Clouds 7 1028 93 10000 1.5 140 09:21 16.01.2020
710 Clouds 6 1027 93 10000 0.5 0 08:52 16.01.2020
711 Clouds 6 1027 100 10000 1 0 08:34 16.01.2020
712 Mist 7 1027 100 2200 1.88 199 07:59 16.01.2020
713 Mist 7 1027 100 2200 1.88 199 07:39 16.01.2020
714 Rain 7 1027 93 10000 2.1 200 07:21 16.01.2020
715 Rain 7 1027 93 10000 1.5 230 06:43 16.01.2020
716 Rain 8 1026 87 10000 2.1 250 06:22 16.01.2020
717 Rain 8 1026 87 10000 1.5 190 05:46 16.01.2020
718 Clouds 8 1026 87 10000 2.1 220 04:40 16.01.2020
719 Clouds 8 1026 87 10000 2.1 220 04:40 16.01.2020
720 Rain 9 1025 87 10000 1 0 03:28 16.01.2020
721 Clouds 9 1025 81 10000 1 0 02:43 16.01.2020
722 Rain 10 1024 76 10000 3.6 210 01:24 16.01.2020
723 Rain 10 1023 71 10000 2.6 190 00:25 16.01.2020
724 Clouds 10 1022 66 0 5.1 220 23:56 15.01.2020
725 Clouds 10 1022 66 0 5.1 220 23:38 15.01.2020
726 Rain 11 1022 76 10000 5.7 260 23:18 15.01.2020
727 Clouds 11 1021 62 10000 4.6 210 22:56 15.01.2020
728 Clouds 11 1021 62 10000 4.6 200 22:36 15.01.2020
729 Clouds 11 1021 62 10000 4.6 200 22:18 15.01.2020
730 Clouds 11 1020 62 10000 4.6 200 21:55 15.01.2020
731 Clouds 11 1020 62 10000 3.1 160 21:36 15.01.2020
732 Clouds 11 1020 62 10000 3.1 160 21:18 15.01.2020
733 Clouds 11 1020 62 10000 2.6 170 20:54 15.01.2020
734 Clouds 11 1020 66 10000 3.6 180 20:36 15.01.2020
735 Clouds 10 1020 66 10000 3.6 180 20:18 15.01.2020
736 Clouds 10 1019 62 10000 5.1 180 19:54 15.01.2020
737 Clouds 10 1019 62 10000 4.1 190 19:36 15.01.2020
738 Clouds 10 1019 62 10000 4.1 190 19:18 15.01.2020
739 Clouds 10 1018 58 10000 5.7 190 18:54 15.01.2020
740 Clouds 10 1018 58 10000 5.1 200 18:36 15.01.2020
741 Clouds 10 1018 58 10000 5.1 200 18:18 15.01.2020
742 Clouds 10 1018 58 10000 3.6 190 17:40 15.01.2020
743 Clouds 11 1018 58 10000 3.6 190 17:21 15.01.2020
744 Clouds 11 1017 58 10000 3.6 180 16:56 15.01.2020
745 -273 0 0 0 0 0 16:38 15.01.2020
746 Clouds 11 1017 54 10000 4.6 180 16:20 15.01.2020
747 Clouds 11 1017 54 10000 4.6 180 16:20 15.01.2020
748 Clouds 11 1016 58 10000 5.7 160 15:43 15.01.2020
749 Clouds 12 1016 58 10000 4.6 190 15:21 15.01.2020
750 Clouds 11 1016 54 10000 4.1 190 14:56 15.01.2020
751 Clouds 12 1017 58 10000 4.1 200 14:37 15.01.2020
752 Clouds 12 1017 58 10000 4.1 200 14:18 15.01.2020
753 Clouds 11 1017 58 10000 3.6 190 13:44 15.01.2020
754 Clear 11 1017 62 10000 3.6 190 13:23 15.01.2020
755 Clear 11 1017 57 10000 4.6 190 12:56 15.01.2020
756 Clear 11 1017 57 10000 4.6 190 12:37 15.01.2020
757 Clear 11 1017 57 10000 4.6 190 12:19 15.01.2020
758 Clear 10 1017 61 10000 4.1 200 11:55 15.01.2020
759 Clear 10 1017 61 10000 4.1 200 11:36 15.01.2020
760 Clear 9 1017 61 10000 4.1 200 11:18 15.01.2020
761 Clear 8 1017 70 10000 1.5 200 10:41 15.01.2020
762 Clear 8 1017 70 10000 1.5 200 10:21 15.01.2020
763 Clear 7 1017 70 10000 1.5 240 09:42 15.01.2020
764 Clear 6 1017 70 10000 3.1 190 09:22 15.01.2020
765 Clear 6 1017 70 10000 3.1 190 08:46 15.01.2020
766 Clouds 6 1016 70 10000 3.6 180 08:28 15.01.2020
767 Clouds 7 1016 70 10000 2.6 180 07:59 15.01.2020
768 Clouds 7 1016 70 10000 2.6 180 07:40 15.01.2020
769 Clouds 7 1016 65 10000 4.1 170 07:21 15.01.2020
770 Clouds 7 1016 70 10000 4.6 170 06:43 15.01.2020
771 Clouds 8 1016 70 10000 3.1 160 05:52 15.01.2020
772 Clouds 8 1016 66 10000 4.1 200 03:56 15.01.2020
773 Clouds 8 1015 66 10000 3.6 190 02:28 15.01.2020
774 Clouds 8 1015 66 10000 4.1 200 01:22 15.01.2020
775 Clouds 9 1015 61 10000 4.1 200 00:45 15.01.2020
776 Clouds 9 1015 61 10000 5.1 200 00:26 15.01.2020
777 Clouds 9 1015 61 10000 5.7 200 23:47 14.01.2020
778 Clouds 9 1015 61 10000 4.1 190 23:29 14.01.2020
779 Clouds 9 1015 61 10000 4.1 180 22:59 14.01.2020
780 Clouds 9 1015 61 10000 4.1 180 22:40 14.01.2020
781 Clouds 9 1014 66 10000 4.1 180 22:19 14.01.2020
782 Clouds 9 1014 61 10000 5.1 180 21:58 14.01.2020
783 Clouds 9 1014 61 10000 4.1 180 21:39 14.01.2020
784 Clouds 9 1014 61 10000 4.1 180 21:39 14.01.2020
785 Clouds 9 1014 61 10000 4.1 180 21:20 14.01.2020
786 Clouds 9 1014 61 10000 5.1 200 20:56 14.01.2020
787 Clouds 9 1014 71 10000 3.6 230 20:38 14.01.2020
788 Clouds 9 1014 71 10000 3.6 230 20:19 14.01.2020
789 Clouds 9 1014 61 10000 7.2 200 19:55 14.01.2020
790 Clouds 9 1014 61 10000 6.7 190 19:37 14.01.2020
791 Clouds 9 1014 61 10000 6.7 190 19:18 14.01.2020
792 Clouds 9 1014 57 10000 6.7 190 18:41 14.01.2020
793 Clouds 9 1014 57 10000 6.2 200 18:20 14.01.2020
794 Clouds 9 1014 57 10000 6.2 200 17:59 14.01.2020
795 Clouds 9 1013 61 10000 5.7 190 17:37 14.01.2020
796 Clouds 9 1013 61 10000 5.7 190 17:18 14.01.2020
797 Clouds 9 1013 61 10000 5.7 190 17:18 14.01.2020
798 Clouds 9 1013 61 10000 6.7 190 16:55 14.01.2020
799 Clouds 9 1013 61 10000 6.2 190 16:37 14.01.2020
800 Clouds 9 1013 61 10000 6.2 190 16:18 14.01.2020
801 Clouds 9 1013 61 10000 5.1 190 15:42 14.01.2020
802 Clouds 9 1013 57 10000 3.1 180 15:19 14.01.2020
803 Clouds 10 1013 57 10000 4.6 190 14:47 14.01.2020
804 Clouds 9 1013 57 10000 6.2 200 14:23 14.01.2020
805 Clouds 9 1013 61 10000 7.2 200 13:59 14.01.2020
806 Clouds 9 1013 61 10000 6.2 190 13:40 14.01.2020
807 Clouds 9 1013 61 10000 6.2 190 13:19 14.01.2020
808 Clouds 9 1013 61 10000 6.2 190 12:42 14.01.2020
809 Clouds 9 1013 65 10000 5.7 190 12:23 14.01.2020
810 Clouds 8 1014 65 10000 5.7 200 11:58 14.01.2020
811 Clouds 8 1013 65 10000 4.6 200 11:40 14.01.2020
812 Clouds 7 1013 65 10000 4.6 200 11:22 14.01.2020
813 Clouds 7 1013 70 10000 5.1 190 10:56 14.01.2020
814 Clouds 7 1013 70 10000 5.1 190 10:37 14.01.2020
815 Clouds 7 1013 70 10000 5.1 190 10:19 14.01.2020
816 Clouds 6 1013 70 10000 3.1 190 09:43 14.01.2020
817 Clouds 6 1013 75 10000 2.6 200 09:24 14.01.2020
818 Clouds 6 1013 75 10000 3.1 210 08:58 14.01.2020
819 Clouds 6 1013 75 10000 4.1 180 08:39 14.01.2020
820 Clouds 5 1013 75 10000 4.1 180 08:20 14.01.2020
821 Clouds 5 1013 75 10000 5.1 180 07:51 14.01.2020
822 Clouds 5 1013 81 10000 4.1 170 07:18 14.01.2020
823 Rain 5 1013 75 10000 4.6 180 06:42 14.01.2020
824 Clouds 5 1013 81 10000 3.6 200 05:58 14.01.2020
825 Clouds 5 1013 81 10000 4.6 200 04:50 14.01.2020
826 Clouds 5 1013 81 10000 2.6 200 03:46 14.01.2020
827 Clouds 5 1014 87 10000 1.5 270 02:33 14.01.2020
828 Clouds 5 1015 100 10000 1.5 250 01:21 14.01.2020
829 Clouds 5 1015 100 10000 1.5 270 00:48 14.01.2020
830 Clouds 5 1015 100 10000 1 0 00:21 14.01.2020
831 Clouds 5 1016 93 10000 1 280 23:44 13.01.2020
832 Rain 5 1015 87 10000 2.1 200 23:19 13.01.2020
833 Rain 5 1016 87 10000 1.5 210 22:58 13.01.2020
834 Clouds 5 1016 87 10000 1 0 22:39 13.01.2020
835 Clouds 5 1016 87 10000 1 0 22:20 13.01.2020
836 Clouds 5 1016 87 10000 1 0 21:56 13.01.2020
837 Clouds 5 1016 87 10000 1 0 21:56 13.01.2020
838 Clouds 5 1017 87 10000 2.1 190 21:37 13.01.2020
839 Clouds 5 1017 87 10000 2.1 190 21:18 13.01.2020
840 Clouds 5 1017 87 10000 2.1 190 21:18 13.01.2020
841 Clouds 5 1017 87 10000 2.1 180 20:56 13.01.2020
842 Rain 5 1017 87 10000 3.1 190 20:38 13.01.2020
843 Rain 5 1017 87 10000 3.1 190 20:19 13.01.2020
844 Clouds 5 1017 87 10000 4.1 190 19:56 13.01.2020
845 Clouds 5 1017 87 10000 4.1 190 19:37 13.01.2020
846 Clouds 5 1018 93 10000 3.6 180 19:18 13.01.2020
847 Clouds 5 1018 93 10000 3.1 140 18:55 13.01.2020
848 Clouds 5 1018 87 10000 3.1 190 18:36 13.01.2020
849 Clouds 5 1018 87 10000 3.1 190 18:18 13.01.2020
850 Clouds 5 1018 87 10000 3.1 170 17:40 13.01.2020
851 Clouds 6 1019 87 10000 3.6 190 17:21 13.01.2020
852 Clouds 6 1019 81 10000 3.1 190 16:56 13.01.2020
853 Clouds 6 1019 93 10000 2.1 180 16:37 13.01.2020
854 Clouds 6 1019 93 10000 2.1 180 16:18 13.01.2020
855 Clouds 6 1019 87 10000 2.1 170 15:43 13.01.2020
856 Clouds 6 1019 87 10000 2.1 170 15:22 13.01.2020
857 Clouds 6 1019 87 10000 2.1 170 15:22 13.01.2020
858 Clouds 6 1020 93 10000 3.1 180 14:57 13.01.2020
859 Clouds 6 1020 93 10000 3.1 180 14:37 13.01.2020
860 Clouds 6 1020 93 10000 3.1 180 14:18 13.01.2020
861 Clouds 6 1021 93 10000 3.1 180 13:41 13.01.2020
862 Clouds 6 1001 81 0 2.39 202 13:23 13.01.2020
863 Clouds 6 1022 86 10000 4.1 190 12:58 13.01.2020
864 Clouds 6 1022 86 10000 4.1 190 12:40 13.01.2020
865 -273 0 0 0 0 0 12:22 13.01.2020
866 Clouds 5 1022 86 10000 4.1 190 11:57 13.01.2020
867 Clouds 5 1022 86 10000 2.6 200 11:37 13.01.2020
868 Clouds 5 1022 86 10000 2.6 200 11:19 13.01.2020
869 Clouds 5 1022 86 10000 3.1 190 10:55 13.01.2020
870 Clouds 5 1023 86 10000 3.1 200 10:37 13.01.2020
871 Clouds 5 1023 86 10000 3.1 200 10:19 13.01.2020
872 Clouds 4 1023 93 10000 3.6 200 09:43 13.01.2020
873 Clouds 4 1023 93 10000 2.6 220 09:23 13.01.2020
874 Clouds 4 1023 93 10000 2.1 230 08:56 13.01.2020
875 Clouds 4 1023 100 10000 1.5 110 08:36 13.01.2020
876 Clouds 4 1023 100 10000 1.5 110 08:18 13.01.2020
877 Clouds 4 1023 100 10000 2.6 160 07:42 13.01.2020
878 Clouds 4 1023 86 10000 3.6 180 07:21 13.01.2020
879 Clouds 4 1024 86 10000 4.1 190 06:37 13.01.2020
880 Clouds 5 1024 100 10000 2.1 190 05:37 13.01.2020
881 Clouds 5 1024 86 10000 4.1 190 05:18 13.01.2020
882 Clouds 5 1025 93 10000 4.6 190 03:41 13.01.2020
883 Clouds 5 1025 87 10000 4.1 190 02:50 13.01.2020
884 Clouds 5 1025 93 10000 3.6 190 02:30 13.01.2020
885 Clouds 5 1026 93 10000 4.6 200 01:33 13.01.2020
886 Clouds 5 1026 86 10000 4.1 200 00:46 13.01.2020
887 Clouds 5 1026 93 10000 2.1 270 00:26 13.01.2020
888 Clouds 4 1026 86 10000 4.6 180 23:59 12.01.2020
889 Clouds 4 1026 86 10000 6.2 190 23:40 12.01.2020
890 Clouds 4 1026 86 10000 6.2 190 23:21 12.01.2020
891 Clouds 4 1026 86 10000 3.6 250 22:56 12.01.2020
892 Clouds 4 1026 86 10000 3.6 250 22:37 12.01.2020
893 Clouds 4 1026 86 10000 6.2 190 22:19 12.01.2020
894 Clouds 4 1026 80 10000 5.1 190 21:54 12.01.2020
895 Clouds 4 1026 86 10000 3.6 240 21:36 12.01.2020
896 Clouds 4 1026 86 10000 3.6 240 21:18 12.01.2020
897 Clouds 4 1026 80 10000 4.1 190 20:54 12.01.2020
898 Clouds 4 1025 80 10000 6.7 190 20:36 12.01.2020
899 Clouds 4 1025 86 10000 4.1 240 20:18 12.01.2020
900 Clouds 4 1026 80 10000 5.1 190 19:54 12.01.2020
901 Clouds 4 1026 86 10000 5.1 190 19:36 12.01.2020
902 Clouds 4 1026 86 10000 5.1 190 19:18 12.01.2020
903 Rain 4 1025 93 10000 6.7 190 18:54 12.01.2020
904 Clouds 4 1025 86 10000 3.1 230 18:36 12.01.2020
905 Clouds 4 1025 86 10000 3.1 230 18:18 12.01.2020
906 Rain 4 1025 86 10000 3.6 220 17:42 12.01.2020
907 Rain 4 1025 75 10000 5.7 200 17:21 12.01.2020
908 Clouds 4 1025 75 10000 4.1 220 16:57 12.01.2020
909 Clouds 4 1024 75 10000 4.6 190 16:38 12.01.2020
910 Clouds 4 1024 75 10000 4.6 190 16:20 12.01.2020
911 Clouds 5 1024 75 10000 5.7 190 15:55 12.01.2020
912 Clouds 5 1025 75 10000 5.7 190 15:37 12.01.2020
913 Clouds 5 1025 75 10000 5.7 190 15:19 12.01.2020
914 Clouds 4 1025 75 10000 6.2 200 14:42 12.01.2020
915 Clouds 4 1025 75 10000 7.2 220 14:23 12.01.2020
916 Clouds 4 1025 86 10000 5.1 200 13:57 12.01.2020
917 Clouds 4 1026 80 10000 6.2 200 13:39 12.01.2020
918 Clouds 4 1026 80 10000 6.2 200 13:20 12.01.2020
919 Clouds 4 1026 80 10000 5.1 190 12:55 12.01.2020
920 Clouds 4 1026 80 10000 4.6 190 12:37 12.01.2020
921 Clouds 4 1026 80 10000 4.6 190 12:18 12.01.2020
922 Clouds 3 1026 80 10000 5.1 200 11:42 12.01.2020
923 Clouds 3 1026 81 10000 5.1 200 11:22 12.01.2020
924 Clouds 2 1026 81 10000 4.6 180 10:56 12.01.2020
925 Clouds 2 1026 81 10000 4.6 180 10:37 12.01.2020
926 Clouds 2 1026 81 10000 4.6 180 10:19 12.01.2020
927 Clouds 1 1027 81 10000 3.1 180 09:42 12.01.2020
928 Clouds 1 1027 81 10000 3.1 180 09:23 12.01.2020
929 Clouds 1 1027 81 10000 4.1 190 08:48 12.01.2020
930 Clouds 1 1027 81 10000 3.6 180 08:25 12.01.2020
931 Clouds 0 1027 87 10000 4.1 170 07:58 12.01.2020
932 Clouds 0 1027 87 10000 2.6 180 07:38 12.01.2020
933 Clouds 0 1027 87 10000 2.6 180 07:19 12.01.2020
934 Clouds 0 1027 100 10000 1 260 06:40 12.01.2020
935 Clouds -1 1027 100 10000 1.5 220 05:58 12.01.2020
936 Clouds -1 1027 92 8000 1 220 05:18 12.01.2020
937 Clouds -1 1028 100 10000 2.1 260 03:44 12.01.2020
938 Clouds -1 1028 100 10000 0.5 0 02:55 12.01.2020
939 Clouds -1 1029 100 10000 0.5 0 02:30 12.01.2020
940 Clouds -1 1029 100 10000 1 0 01:40 12.01.2020
941 Clouds -1 1029 100 10000 0.5 210 01:21 12.01.2020
942 Clouds 0 1030 100 10000 1 280 00:40 12.01.2020
943 Clouds 0 1030 92 10000 1.5 210 00:18 12.01.2020
944 Clouds 0 1030 100 10000 1.5 250 23:41 11.01.2020
945 Clouds 0 1030 86 10000 2.1 180 23:19 11.01.2020
946 Clouds 1 1030 84 10000 3.1 170 22:57 11.01.2020
947 Clouds 1 1030 84 10000 3.1 170 22:39 11.01.2020
948 Clouds 1 1030 86 10000 2.6 160 22:20 11.01.2020
949 Clouds 1 1031 86 10000 2.6 160 21:54 11.01.2020
950 Clouds 1 1031 86 10000 2.6 160 21:54 11.01.2020
951 Clouds 1 1031 84 10000 1 0 21:36 11.01.2020
952 Clouds 1 1031 84 10000 1 0 21:18 11.01.2020
953 Clouds 2 1031 84 10000 1.5 170 20:40 11.01.2020
954 Clouds 2 1031 79 10000 1.5 170 20:22 11.01.2020
955 Clouds 2 1031 79 10000 2.6 190 19:58 11.01.2020
956 Clouds 2 1031 79 10000 2.6 190 19:38 11.01.2020
957 Clouds 2 1031 79 10000 2.1 190 19:38 11.01.2020
958 Clouds 2 1031 79 10000 2.1 190 19:38 11.01.2020
959 Clouds 2 1032 79 10000 1.5 190 19:20 11.01.2020
960 Clouds 2 1032 79 10000 1.5 190 18:57 11.01.2020
961 Clouds 3 1032 86 10000 2.1 180 18:38 11.01.2020
962 Clouds 3 1032 86 10000 2.1 180 18:19 11.01.2020
963 Clouds 3 1032 86 10000 2.6 190 17:57 11.01.2020
964 Clouds 4 1032 79 10000 2.1 180 17:39 11.01.2020
965 Clouds 4 1032 72 10000 2.1 180 17:19 11.01.2020
966 Clouds 5 1032 70 10000 2.1 220 16:45 11.01.2020
967 Clouds 5 1032 70 10000 2.6 230 16:27 11.01.2020
968 Clouds 5 1032 70 10000 3.1 220 15:58 11.01.2020
969 Clouds 5 1032 72 10000 3.1 200 15:40 11.01.2020
970 Clouds 6 1032 72 10000 3.1 200 15:22 11.01.2020
971 Clouds 6 1032 70 10000 2.6 200 14:57 11.01.2020
972 Clouds 6 1033 70 10000 3.1 200 14:38 11.01.2020
973 Clouds 6 1033 70 10000 3.1 200 14:20 11.01.2020
974 Clouds 6 1033 65 10000 4.1 220 13:40 11.01.2020
975 Clouds 6 1034 70 10000 2.1 220 13:20 11.01.2020
976 Clouds 6 1034 75 10000 2.6 200 12:58 11.01.2020
977 Clouds 6 1034 75 10000 2.6 200 12:40 11.01.2020
978 Clouds 5 1034 80 10000 1 0 12:21 11.01.2020
979 Clouds 5 1034 93 10000 1.5 190 11:48 11.01.2020
980 Clouds 5 1034 93 10000 1.5 190 11:26 11.01.2020
981 Clouds 3 1035 82 10000 1.5 250 10:51 11.01.2020
982 Clouds 2 1034 82 10000 1.5 160 10:30 11.01.2020
983 Clouds 2 1034 82 10000 1 0 09:58 11.01.2020
984 Fog 1 1034 100 10000 1 0 09:38 11.01.2020
985 Fog 1 1034 100 10000 1 0 09:20 11.01.2020
986 Clouds 1 1033 100 10000 0.5 0 08:42 11.01.2020
987 Clouds 1 1034 100 10000 1 0 08:22 11.01.2020
988 Clouds 1 1034 87 10000 0.67 255 07:44 11.01.2020
989 Clouds 1 1034 100 10000 0.5 0 07:25 11.01.2020
990 Clouds 1 1033 87 10000 1 0 06:51 11.01.2020
991 Clouds 2 1033 87 10000 1 0 05:48 11.01.2020
992 Clouds 2 1032 86 10000 1 180 04:47 11.01.2020
993 Clouds 2 1032 86 10000 0.5 0 04:28 11.01.2020
994 Clouds 3 1032 93 10000 1.5 260 02:58 11.01.2020
995 Clouds 4 1032 100 10000 1 0 02:38 11.01.2020
996 Clouds 4 1031 93 10000 1.5 230 01:43 11.01.2020
997 Clouds 5 1031 86 10000 1 0 01:20 11.01.2020
998 Clouds 5 1030 86 10000 3.1 220 00:43 11.01.2020
999 Clouds 5 1030 81 10000 3.1 240 00:18 11.01.2020
1000 Clouds 5 1030 81 10000 3.6 260 23:40 10.01.2020
1001 Clouds 5 1029 75 10000 3.1 260 23:40 10.01.2020
1002 Clouds 5 1029 75 10000 3.1 260 23:22 10.01.2020
1003 Clouds 5 1029 81 10000 3.1 260 22:59 10.01.2020
1004 Clouds 5 1029 81 10000 3.1 260 22:40 10.01.2020
1005 Clouds 6 1028 75 10000 4.1 240 22:20 10.01.2020
1006 Clouds 6 1028 81 10000 3.1 260 21:57 10.01.2020
1007 Clouds 6 1028 75 10000 5.7 300 21:37 10.01.2020
1008 Clouds 6 1027 81 10000 2.6 270 21:19 10.01.2020
1009 Clouds 6 1026 81 10000 4.6 290 20:43 10.01.2020
1010 Clouds 6 1026 81 10000 3.6 250 20:25 10.01.2020
1011 Clouds 6 1026 81 10000 3.6 250 20:25 10.01.2020
1012 Clouds 6 1025 81 10000 2.6 270 19:59 10.01.2020
1013 Clouds 7 1025 87 10000 4.1 260 19:38 10.01.2020
1014 Clouds 7 1025 87 10000 4.1 260 19:19 10.01.2020
1015 Rain 7 1024 81 10000 5.1 270 18:44 10.01.2020
1016 Rain 7 1024 81 10000 5.7 270 18:20 10.01.2020
1017 Clouds 7 1023 81 10000 5.7 260 17:58 10.01.2020
1018 Clouds 7 1023 81 10000 2.6 270 17:39 10.01.2020
1019 Clouds 7 1023 81 10000 2.6 270 17:21 10.01.2020
1020 Rain 8 1021 87 10000 4.1 270 16:59 10.01.2020
1021 Rain 8 1021 93 10000 3.1 240 16:40 10.01.2020
1022 Rain 8 1021 93 10000 3.1 240 16:21 10.01.2020
1023 Rain 8 1021 93 10000 3.1 240 16:21 10.01.2020
1024 Rain 8 1020 93 6000 4.6 250 15:56 10.01.2020
1025 Rain 9 1020 87 10000 4.1 290 15:37 10.01.2020
1026 Rain 9 1019 71 10000 6.2 210 15:19 10.01.2020
1027 Rain 9 1019 87 10000 5.7 260 14:56 10.01.2020
1028 Clouds 9 1019 87 10000 5.7 260 14:38 10.01.2020
1029 Rain 10 1018 81 10000 6.2 270 14:19 10.01.2020
1030 Rain 10 1018 81 10000 6.7 270 13:45 10.01.2020
1031 Clouds 10 1018 66 10000 9.3 220 13:26 10.01.2020
1032 Clouds 10 1018 71 10000 8.2 220 12:59 10.01.2020
1033 Clouds 10 1018 71 10000 8.2 230 12:40 10.01.2020
1034 Clouds 10 1018 71 10000 8.2 230 12:21 10.01.2020
1035 Clouds 10 1018 76 10000 5.1 230 11:58 10.01.2020
1036 Clouds 9 1018 76 10000 5.1 230 11:40 10.01.2020
1037 Clouds 9 1018 81 10000 3.6 180 11:19 10.01.2020
1038 Clouds 9 1017 87 10000 4.1 180 10:59 10.01.2020
1039 Clouds 8 1017 87 10000 4.6 200 10:38 10.01.2020
1040 Clouds 8 1017 87 10000 4.6 200 10:19 10.01.2020
1041 Rain 8 1017 87 10000 4.1 180 09:46 10.01.2020
1042 Rain 7 1017 87 10000 3.6 180 09:26 10.01.2020
1043 Clouds 7 1017 87 10000 2.6 180 08:58 10.01.2020
1044 Clouds 7 1017 87 10000 2.6 180 08:38 10.01.2020
1045 Clouds 7 1016 93 10000 2.6 170 08:20 10.01.2020
1046 Clouds 7 1016 87 10000 2.1 180 07:41 10.01.2020
1047 Clouds 7 1016 87 10000 2.1 180 07:41 10.01.2020
1048 Clouds 7 1016 87 10000 2.1 180 07:22 10.01.2020
1049 Clouds 7 1016 87 10000 3.1 190 06:43 10.01.2020
1050 Clouds 7 1016 87 10000 3.1 200 06:24 10.01.2020
1051 Clouds 8 1015 87 10000 3.6 200 05:33 10.01.2020
1052 Clouds 8 1016 87 10000 4.1 230 05:33 10.01.2020
1053 Rain 8 1015 93 10000 7.2 200 03:34 10.01.2020
1054 Rain 8 1015 93 10000 7.2 200 03:34 10.01.2020
1055 Rain 8 1014 93 10000 6.2 200 02:57 10.01.2020
1056 Rain 8 1015 87 10000 5.1 210 02:36 10.01.2020
1057 Rain 9 1014 93 10000 1.5 240 01:38 10.01.2020
1058 Rain 9 1014 100 10000 2.1 170 00:57 10.01.2020
1059 Rain 9 1014 100 10000 2.1 170 00:38 10.01.2020
1060 Clouds 9 1014 100 10000 4.4 209 23:57 09.01.2020
1061 Clouds 9 1014 100 10000 4.4 209 23:38 09.01.2020
1062 Clouds 9 1014 100 10000 4.4 209 23:38 09.01.2020
1063 Clouds 9 1014 100 10000 4.4 209 23:38 09.01.2020
1064 Clouds 9 1014 100 10000 4.4 209 23:38 09.01.2020
1065 Clouds 9 1014 100 10000 4.4 209 23:38 09.01.2020
1066 Rain 9 1014 100 10000 3.05 195 23:19 09.01.2020
1067 Rain 9 1014 100 10000 3.05 195 22:57 09.01.2020
1068 Rain 9 1014 100 10000 3.05 195 22:37 09.01.2020
1069 Rain 9 1014 100 10000 2.1 180 22:18 09.01.2020
1070 Rain 9 1014 100 10000 1.5 180 21:56 09.01.2020
1071 Rain 9 1014 93 10000 1.5 180 21:37 09.01.2020
1072 Rain 9 1014 100 10000 3.05 195 21:37 09.01.2020
1073 Rain 9 1014 100 10000 3.05 195 21:37 09.01.2020
1074 Rain 9 1014 100 10000 3.05 195 21:37 09.01.2020
1075 Rain 9 1015 100 10000 3.05 195 21:18 09.01.2020
1076 Rain 9 1014 93 10000 2.6 210 20:56 09.01.2020
1077 Rain 9 1014 93 10000 2.6 210 20:38 09.01.2020
1078 Rain 9 1014 93 10000 2.6 210 20:19 09.01.2020
1079 Rain 10 1015 93 10000 2.6 200 19:55 09.01.2020
1080 Rain 10 1015 93 10000 2.6 200 19:36 09.01.2020
1081 Rain 10 1015 93 10000 2.6 190 19:18 09.01.2020
1082 Rain 10 1015 93 10000 4.1 200 18:54 09.01.2020
1083 Rain 10 1015 93 10000 4.1 200 18:36 09.01.2020
1084 Rain 10 1015 100 10000 3.6 200 18:18 09.01.2020
1085 Rain 10 1015 93 10000 3.1 180 17:41 09.01.2020
1086 Rain 10 1016 87 10000 3.1 190 17:18 09.01.2020
1087 Rain 10 1016 87 10000 5.7 200 16:47 09.01.2020
1088 Rain 10 1016 87 10000 5.7 200 16:23 09.01.2020
1089 Rain 10 1016 87 10000 5.7 200 16:23 09.01.2020
1090 Rain 10 1016 87 10000 5.7 200 16:23 09.01.2020
1091 Drizzle 11 1016 93 10000 3.6 180 15:57 09.01.2020
1092 Drizzle 11 1016 93 10000 3.6 180 15:39 09.01.2020
1093 Drizzle 10 1016 93 10000 4.1 170 15:18 09.01.2020
1094 Drizzle 10 1016 93 10000 3.6 180 14:42 09.01.2020
1095 Drizzle 10 1016 93 10000 4.6 180 14:22 09.01.2020
1096 Drizzle 10 1017 93 10000 4.1 190 13:57 09.01.2020
1097 Drizzle 10 1017 93 10000 4.1 190 13:39 09.01.2020
1098 Drizzle 10 1017 100 4800 3.6 190 13:20 09.01.2020
1099 Drizzle 10 1018 100 4400 4.1 190 12:58 09.01.2020
1100 Drizzle 10 1018 100 4400 4.1 190 12:39 09.01.2020
1101 Drizzle 10 1018 93 4100 4.1 190 12:19 09.01.2020
1102 Drizzle 10 1018 93 4100 4.1 190 11:57 09.01.2020
1103 Drizzle 10 1019 93 10000 5.1 190 11:38 09.01.2020
1104 Drizzle 9 1019 100 4600 4.1 190 11:20 09.01.2020
1105 Drizzle 9 1019 100 10000 4.1 190 10:43 09.01.2020
1106 Drizzle 9 1019 100 10000 3.6 180 10:22 09.01.2020
1107 Drizzle 9 1020 100 5000 2.1 180 09:58 09.01.2020
1108 Drizzle 9 1020 93 10000 4.1 180 09:38 09.01.2020
1109 Rain 8 1020 100 3200 1.5 170 09:19 09.01.2020
1110 Mist 8 1020 100 2600 1.5 160 08:55 09.01.2020
1111 Drizzle 8 1020 93 3200 4.1 180 08:37 09.01.2020
1112 Rain 8 1020 100 4000 2.1 170 08:19 09.01.2020
1113 Drizzle 8 1021 93 4400 4.6 180 07:42 09.01.2020
1114 Rain 8 1021 100 1800 1.5 170 07:23 09.01.2020
1115 Rain 8 1021 100 6000 4.6 180 06:39 09.01.2020
1116 Rain 8 1022 100 5000 3.6 180 06:20 09.01.2020
1117 Rain 8 1022 100 4500 4.1 180 05:49 09.01.2020
1118 Drizzle 7 1023 100 3800 3.6 180 04:44 09.01.2020
1119 Rain 7 1024 100 3200 1.5 110 03:38 09.01.2020
1120 Drizzle 7 1024 100 3200 2.6 200 02:54 09.01.2020
1121 Drizzle 7 1024 100 3200 2.6 200 02:28 09.01.2020
1122 Rain 7 1025 100 2800 2.47 201 01:39 09.01.2020
1123 Rain 7 1025 100 3000 2.27 193 00:43 09.01.2020
1124 Rain 7 1025 100 1800 2.27 193 00:21 09.01.2020
1125 Drizzle 7 1025 100 3200 2.1 200 23:44 08.01.2020
1126 Drizzle 7 1025 100 3200 2.1 200 23:25 08.01.2020
1127 Rain 7 1026 100 5000 2.6 220 22:59 08.01.2020
1128 Mist 6 1026 100 1800 2.42 201 22:39 08.01.2020
1129 Rain 6 1026 93 9000 2.1 200 22:21 08.01.2020
1130 Rain 6 1026 93 9000 2.1 200 21:57 08.01.2020
1131 Drizzle 6 1026 100 6000 2.42 201 21:38 08.01.2020
1132 Mist 6 1026 100 6000 2.42 201 21:20 08.01.2020
1133 Clouds 6 1027 93 10000 3.6 210 20:58 08.01.2020
1134 Clouds 6 1026 93 10000 3.1 200 20:39 08.01.2020
1135 Clouds 6 1027 93 10000 2.6 220 20:20 08.01.2020
1136 Clouds 6 1027 93 10000 2.6 220 19:56 08.01.2020
1137 Clouds 6 1027 100 10000 2.6 220 19:56 08.01.2020
1138 Clouds 6 1027 100 10000 2.6 220 19:37 08.01.2020
1139 Clouds 6 1027 100 10000 2.6 210 19:19 08.01.2020
1140 Clouds 6 1027 100 10000 2.6 210 18:56 08.01.2020
1141 Clouds 6 1027 100 10000 2.1 220 18:37 08.01.2020
1142 Mist 6 1027 100 5000 2.59 209 18:18 08.01.2020
1143 Mist 6 1027 100 5000 2.59 209 17:55 08.01.2020
1144 Clouds 6 1027 93 10000 2.6 210 17:36 08.01.2020
1145 Clouds 6 1026 93 10000 3.6 190 17:18 08.01.2020
1146 Mist 6 1027 100 2400 3.24 207 16:54 08.01.2020
1147 Clouds 6 1027 93 9000 4.1 190 16:36 08.01.2020
1148 Clouds 6 1027 100 9000 4.6 200 16:18 08.01.2020
1149 Clouds 6 1027 100 9000 3.6 190 15:41 08.01.2020
1150 Clouds 5 1027 100 9000 4.1 190 15:21 08.01.2020
1151 Drizzle 5 1027 100 8000 3.6 200 14:57 08.01.2020
1152 Drizzle 5 1027 100 8000 3.6 200 14:39 08.01.2020
1153 Drizzle 5 1027 100 7000 4.6 190 14:20 08.01.2020
1154 Drizzle 5 1027 100 3100 4.1 200 13:40 08.01.2020
1155 Drizzle 5 1027 93 3100 4.1 190 13:19 08.01.2020
1156 Drizzle 5 1027 93 2700 5.1 200 12:42 08.01.2020
1157 Drizzle 5 1028 93 4200 5.1 200 12:19 08.01.2020
1158 Drizzle 5 1028 93 4200 5.1 200 11:55 08.01.2020
1159 Rain 5 1028 86 10000 4.1 210 11:37 08.01.2020
1160 Rain 5 1028 93 10000 4.6 190 11:19 08.01.2020
1161 Rain 5 1028 93 10000 3.6 190 10:55 08.01.2020
1162 Rain 4 1028 93 10000 3.6 190 10:37 08.01.2020
1163 Rain 4 1028 93 10000 3.6 190 10:37 08.01.2020
1164 Clouds 4 1028 100 10000 2.1 180 10:19 08.01.2020
1165 Rain 4 1028 100 10000 1.5 180 09:42 08.01.2020
1166 Clouds 4 1028 100 10000 1.5 190 09:20 08.01.2020
1167 Drizzle 4 1027 86 10000 4.1 200 08:57 08.01.2020
1168 Drizzle 4 1027 86 10000 4.1 200 08:37 08.01.2020
1169 Rain 4 1027 100 10000 4.26 203 08:19 08.01.2020
1170 Drizzle 4 1027 86 10000 4.1 200 07:50 08.01.2020
1171 Drizzle 4 1027 86 10000 4.1 200 07:32 08.01.2020
1172 Clouds 3 1027 86 10000 3.6 210 06:49 08.01.2020
1173 Clouds 3 1027 86 10000 3.6 210 06:25 08.01.2020
1174 Clouds 3 1027 86 10000 4.1 190 05:54 08.01.2020
1175 Clouds 3 1027 93 10000 3.6 190 05:18 08.01.2020
1176 Clouds 3 1028 86 10000 3.1 190 04:27 08.01.2020
1177 Clouds 3 1028 100 10000 2.6 170 02:45 08.01.2020
1178 Clouds 3 1028 100 10000 2.6 170 02:27 08.01.2020
1179 Clouds 3 1028 100 10000 3.1 180 01:52 08.01.2020
1180 Clouds 3 1028 100 10000 3.1 180 01:26 08.01.2020
1181 Clouds 3 1028 93 10000 3.6 190 00:42 08.01.2020
1182 Clouds 3 1029 100 10000 3.1 200 00:21 08.01.2020
1183 Clouds 3 1029 93 10000 3.1 200 23:45 07.01.2020
1184 Clouds 3 1029 100 10000 2.6 200 23:20 07.01.2020
1185 Clouds 3 1029 93 10000 3.1 180 22:41 07.01.2020
1186 Clouds 3 1029 100 10000 3.1 190 22:21 07.01.2020
1187 Clouds 3 1029 93 10000 3.6 180 21:59 07.01.2020
1188 Clouds 3 1029 100 10000 3.1 190 21:59 07.01.2020
1189 Clouds 3 1029 93 10000 3.6 180 21:41 07.01.2020
1190 Clouds 3 1029 100 10000 2.1 240 21:21 07.01.2020
1191 Clouds 3 1029 100 10000 2.1 240 20:57 07.01.2020
1192 Clouds 3 1029 93 10000 2.6 180 20:39 07.01.2020
1193 Clouds 3 1029 93 10000 2.6 180 20:39 07.01.2020
1194 Clouds 3 1030 93 10000 2.1 240 20:21 07.01.2020
1195 Clouds 4 1030 93 10000 2.1 240 19:57 07.01.2020
1196 Clouds 4 1030 93 10000 2.1 180 19:37 07.01.2020
1197 Clouds 4 1030 86 10000 2.6 180 19:19 07.01.2020
1198 Clouds 4 1030 86 10000 2.6 180 18:56 07.01.2020
1199 Clouds 4 1030 93 10000 2.1 180 18:37 07.01.2020
1200 Clouds 5 1030 87 10000 1.5 200 18:18 07.01.2020
1201 Clouds 5 1030 87 10000 1.5 200 17:54 07.01.2020
1202 Clouds 5 1030 81 10000 2.6 200 17:36 07.01.2020
1203 Clouds 6 1030 81 10000 3.1 180 17:18 07.01.2020
1204 Clouds 6 1030 87 10000 2.6 160 16:54 07.01.2020
1205 Clouds 6 1030 87 10000 2.6 160 16:36 07.01.2020
1206 Clouds 6 1029 52 10000 1.5 290 16:18 07.01.2020
1207 Clouds 6 1029 87 10000 2.1 170 15:42 07.01.2020
1208 Clouds 6 1029 87 10000 3.1 190 15:23 07.01.2020
1209 Clouds 6 1029 87 10000 3.1 190 14:58 07.01.2020
1210 Clouds 6 1029 81 10000 3.1 190 14:38 07.01.2020
1211 Clouds 6 1029 81 10000 2.6 180 14:19 07.01.2020
1212 Clouds 6 1029 81 10000 2.6 180 14:19 07.01.2020
1213 Clouds 6 1029 75 10000 3.1 190 13:46 07.01.2020
1214 Clouds 6 1029 81 10000 3.1 170 13:20 07.01.2020
1215 Clouds 6 1029 81 10000 3.1 170 12:56 07.01.2020
1216 Rain 6 1029 81 10000 4.1 220 12:37 07.01.2020
1217 Rain 5 1029 87 10000 3.1 200 12:18 07.01.2020
1218 Clouds 5 1029 87 10000 4.1 230 11:41 07.01.2020
1219 Clouds 4 1029 93 10000 3.6 210 11:23 07.01.2020
1220 Clouds 4 1029 93 10000 3.6 210 10:57 07.01.2020
1221 Clouds 4 1029 93 10000 3.6 210 10:57 07.01.2020
1222 Clouds 3 1029 93 8000 3.1 210 10:39 07.01.2020
1223 Clouds 3 1029 100 7000 3.6 210 10:20 07.01.2020
1224 Clouds 3 1028 100 7000 3.1 210 09:39 07.01.2020
1225 Clouds 2 1028 93 6000 1 0 09:21 07.01.2020
1226 Clouds 2 1028 93 6000 1 0 09:21 07.01.2020
1227 Clouds 2 1028 93 6000 1 0 08:57 07.01.2020
1228 Mist 2 1028 100 6000 2 239 08:38 07.01.2020
1229 Drizzle 2 1027 100 4500 3.1 230 08:18 07.01.2020
1230 Mist 2 1027 100 5000 2.05 218 07:42 07.01.2020
1231 Mist 2 1026 100 5000 2.6 230 07:20 07.01.2020
1232 Mist 2 1026 93 4500 2.1 230 06:49 07.01.2020
1233 Mist 2 1026 93 4500 2.1 230 06:29 07.01.2020
1234 Drizzle 1 1025 100 3500 2.6 200 05:41 07.01.2020
1235 Rain 0 1025 87 5000 1.5 180 03:47 07.01.2020
1236 Fog 0 1025 87 800 2.1 180 03:25 07.01.2020
1237 Fog 0 1025 82 800 2.6 180 02:20 07.01.2020
1238 Mist 0 1025 82 1600 2.1 210 01:40 07.01.2020
1239 Mist 0 1025 82 1600 2.1 210 01:40 07.01.2020
1240 Mist 0 1025 82 1600 2.1 210 01:40 07.01.2020
1241 Fog 0 1025 83 500 2.6 210 00:59 07.01.2020
1242 Fog 0 1024 83 500 3.1 200 00:21 07.01.2020
1243 Fog 0 1024 83 500 3.1 200 23:57 06.01.2020
1244 Fog 0 1025 83 400 3.6 220 23:38 06.01.2020
1245 Fog 0 1024 81 800 2.1 180 23:20 06.01.2020
1246 Fog 0 1025 81 900 2.6 220 22:55 06.01.2020
1247 Fog 0 1025 81 900 2.6 220 22:37 06.01.2020
1248 Fog 0 1025 81 500 3.1 210 22:18 06.01.2020
1249 Fog 0 1026 81 500 3.1 230 21:54 06.01.2020
1250 Fog 0 1026 81 500 3.1 230 21:36 06.01.2020
1251 Fog 0 1025 81 500 3.6 210 21:18 06.01.2020
1252 Fog 0 1025 81 500 3.6 210 20:54 06.01.2020
1253 Fog 0 1025 100 400 3.6 190 20:36 06.01.2020
1254 Fog 0 1026 100 450 3.6 200 20:18 06.01.2020
1255 Mist 0 1026 77 1400 4.1 210 19:55 06.01.2020
1256 Mist 0 1026 77 1400 4.1 210 19:36 06.01.2020
1257 Fog 0 1026 77 400 2.6 190 19:18 06.01.2020
1258 Mist 1 1026 100 1600 2.6 230 18:43 06.01.2020
1259 Mist 1 1026 100 1600 3.1 230 18:20 06.01.2020
1260 Mist 1 1026 100 2800 2.6 230 17:39 06.01.2020
1261 Mist 1 1026 100 1600 1.66 199 17:20 06.01.2020
1262 Mist 1 1026 100 3500 2.1 170 16:57 06.01.2020
1263 Clouds 1 1027 100 6000 2.1 160 16:38 06.01.2020
1264 Clouds 1 1027 100 7000 1.5 190 16:19 06.01.2020
1265 Clouds 2 1027 93 8000 2.1 170 15:44 06.01.2020
1266 Clouds 2 1027 93 10000 2.6 190 15:22 06.01.2020
1267 Clouds 1 1027 93 10000 2.6 190 15:00 06.01.2020
1268 Clouds 2 1027 93 10000 2.1 210 14:41 06.01.2020
1269 Clouds 2 1027 100 10000 2.1 210 14:22 06.01.2020
1270 Clouds 2 1027 100 10000 2.1 210 13:59 06.01.2020
1271 Mist 2 1028 93 3200 2.6 210 13:39 06.01.2020
1272 Fog 2 1028 100 600 1.5 190 13:20 06.01.2020
1273 Mist 2 1028 100 1800 2.1 160 12:55 06.01.2020
1274 Fog 2 1029 100 500 2.6 190 12:37 06.01.2020
1275 Fog 2 1029 100 400 2.1 170 12:18 06.01.2020
1276 Fog 2 1030 100 400 2.1 150 11:42 06.01.2020
1277 Fog 1 1030 100 500 1.5 0 11:24 06.01.2020
1278 Fog 1 1030 100 500 1.5 0 10:59 06.01.2020
1279 Fog 1 1030 100 700 2.1 80 10:40 06.01.2020
1280 Fog 1 1030 91 400 0.44 98 10:20 06.01.2020
1281 Mist 0 1030 91 1400 0.44 98 09:39 06.01.2020
1282 Fog 0 1030 100 150 1.5 0 09:21 06.01.2020
1283 Fog 0 1030 100 150 1 0 08:52 06.01.2020
1284 Fog 0 1030 100 150 1 0 08:34 06.01.2020
1285 Fog 0 1030 100 50 0.5 0 07:57 06.01.2020
1286 Fog 0 1031 100 50 0.5 330 07:39 06.01.2020
1287 Fog 0 1031 95 50 0.5 0 06:53 06.01.2020
1288 Fog 0 1031 95 50 0.5 0 06:35 06.01.2020
1289 Fog 0 1031 95 600 1.5 300 05:48 06.01.2020
1290 Fog 1 1031 100 100 1 250 05:23 06.01.2020
1291 Fog 1 1031 95 50 0.5 190 04:23 06.01.2020
1292 Fog 2 1032 100 1200 0.5 210 03:51 06.01.2020
1293 Clouds 3 1032 100 10000 1 180 02:28 06.01.2020
1294 Clouds 3 1032 93 10000 1.5 210 01:53 06.01.2020
1295 Clouds 3 1033 93 10000 1.5 210 01:30 06.01.2020
1296 Clouds 3 1033 93 10000 1.5 200 00:46 06.01.2020
1297 Clouds 4 1033 93 10000 1.5 200 00:28 06.01.2020
1298 Clouds 4 1033 93 10000 1.5 200 23:58 05.01.2020
1299 Clouds 4 1034 93 10000 1.5 210 23:39 05.01.2020
1300 Clouds 4 1034 93 10000 2.1 200 23:21 05.01.2020
1301 Clouds 4 1034 93 10000 2.6 190 22:40 05.01.2020
1302 Clouds 4 1034 93 10000 2.6 190 22:40 05.01.2020
1303 Clouds 4 1034 93 10000 3.1 180 22:21 05.01.2020
1304 Clouds 4 1034 93 10000 3.1 180 21:59 05.01.2020
1305 Clouds 5 1034 93 10000 3.1 170 21:40 05.01.2020
1306 Clouds 4 1034 93 10000 3.1 170 21:20 05.01.2020
1307 Clouds 5 1035 93 10000 2.6 180 20:58 05.01.2020
1308 Clouds 5 1035 93 10000 2.6 180 20:39 05.01.2020
1309 Clouds 5 1035 93 10000 2.1 190 20:20 05.01.2020
1310 Clouds 5 1035 93 10000 2.1 190 19:59 05.01.2020
1311 Clouds 5 1035 93 10000 1.5 200 19:40 05.01.2020
1312 Clouds 5 1035 93 10000 2.1 190 19:21 05.01.2020
1313 Clouds 5 1035 93 10000 2.1 190 18:56 05.01.2020
1314 Clouds 5 1035 93 10000 2.1 190 18:38 05.01.2020
1315 Clouds 5 1035 93 10000 2.1 180 18:19 05.01.2020
1316 Clouds 5 1035 100 10000 1.5 210 17:59 05.01.2020
1317 Clouds 5 1035 93 10000 2.1 180 17:59 05.01.2020
1318 Clouds 5 1035 100 10000 1.5 210 17:39 05.01.2020
1319 Clouds 5 1035 100 10000 1.5 200 17:20 05.01.2020
1320 Clouds 5 1035 100 10000 1.5 200 16:57 05.01.2020
1321 Clouds 5 1035 93 10000 1.5 190 16:39 05.01.2020
1322 Clouds 5 1035 93 10000 1.5 190 16:39 05.01.2020
1323 Clouds 5 1035 93 10000 1.5 190 16:20 05.01.2020
1324 Clouds 6 1035 93 10000 1.5 180 15:40 05.01.2020
1325 Clouds 6 1035 93 10000 1.5 180 15:22 05.01.2020
1326 Clouds 6 1035 93 10000 1.5 180 15:22 05.01.2020
1327 Clouds 6 1035 93 10000 1.5 170 15:22 05.01.2020
1328 Clouds 6 1035 93 10000 1.5 170 14:57 05.01.2020
1329 Clouds 6 1035 93 10000 1.5 190 14:39 05.01.2020
1330 Clouds 6 1035 93 10000 1 180 14:21 05.01.2020
1331 Clouds 6 1035 93 10000 1 180 13:58 05.01.2020
1332 Clouds 6 1035 93 10000 2.1 190 13:38 05.01.2020
1333 Rain 6 1036 100 9000 1.5 200 13:20 05.01.2020
1334 Rain 5 1036 100 9000 1.5 200 12:57 05.01.2020
1335 Rain 5 1036 100 7000 2.1 210 12:38 05.01.2020
1336 Rain 5 1036 100 5000 2.1 180 12:20 05.01.2020
1337 Rain 5 1036 100 5000 2.1 180 12:20 05.01.2020
1338 Drizzle 5 1036 100 4800 1.5 170 11:55 05.01.2020
1339 Drizzle 5 1036 100 4800 1.5 170 11:36 05.01.2020
1340 Drizzle 5 1036 93 4800 1 0 11:18 05.01.2020
1341 Clouds 5 1036 93 6000 1 0 10:41 05.01.2020
1342 Mist 4 1036 100 5000 1.5 190 10:20 05.01.2020
1343 Mist 4 1036 100 5000 1.5 190 09:57 05.01.2020
1344 Drizzle 4 1036 100 3400 1 200 09:38 05.01.2020
1345 Mist 4 1036 100 5000 1.14 214 09:20 05.01.2020
1346 Rain 4 1036 100 4000 1.5 90 08:45 05.01.2020
1347 Drizzle 4 1036 100 10000 1.5 150 08:21 05.01.2020
1348 Drizzle 4 1035 93 10000 1.5 110 07:47 05.01.2020
1349 Rain 4 1035 100 8000 1.5 150 07:29 05.01.2020
1350 Clouds 4 1035 87 10000 2.1 280 06:55 05.01.2020
1351 Clouds 4 1034 93 10000 1 0 05:52 05.01.2020
1352 Rain 4 1034 86 10000 2.1 190 04:57 05.01.2020
1353 Clouds 4 1034 86 10000 1 0 04:19 05.01.2020
1354 Clouds 4 1034 86 10000 1 0 04:19 05.01.2020
1355 Clouds 4 1034 86 10000 1.57 259 03:40 05.01.2020
1356 Clouds 4 1034 86 10000 2.1 150 02:41 05.01.2020
1357 Clouds 5 1034 86 10000 1.99 264 02:19 05.01.2020
1358 Clouds 5 1033 80 10000 3.6 200 01:36 05.01.2020
1359 Clouds 5 1033 81 10000 3.1 230 01:18 05.01.2020
1360 Clouds 5 1033 81 10000 5.1 240 00:40 05.01.2020
1361 Clouds 5 1033 81 10000 3.6 200 00:21 05.01.2020
1362 Clouds 5 1033 81 10000 3.6 200 00:21 05.01.2020
1363 Clouds 5 1033 81 10000 4.6 320 23:59 04.01.2020
1364 Clouds 5 1033 81 10000 4.6 320 23:39 04.01.2020
1365 Clouds 5 1032 80 10000 3.6 190 23:18 04.01.2020
1366 Clouds 5 1032 75 10000 3.6 230 22:39 04.01.2020
1367 Clouds 5 1032 75 10000 3.6 230 22:39 04.01.2020
1368 Clouds 5 1031 75 10000 6.2 250 22:21 04.01.2020
1369 Clouds 5 1031 75 10000 6.2 250 21:57 04.01.2020
1370 Clouds 5 1032 75 10000 6.7 240 21:38 04.01.2020
1371 Clouds 5 1031 75 10000 4.6 220 21:19 04.01.2020
1372 Clouds 5 1031 75 10000 4.6 220 20:57 04.01.2020
1373 Clouds 5 1031 75 10000 3.1 230 20:38 04.01.2020
1374 Clouds 5 1031 75 10000 3.1 210 20:19 04.01.2020
1375 Clouds 5 1031 75 10000 5.1 280 19:42 04.01.2020
1376 Clouds 5 1031 75 10000 5.1 280 19:42 04.01.2020
1377 Clouds 5 1030 75 10000 5.1 240 19:24 04.01.2020
1378 Clouds 5 1031 75 10000 4.6 280 18:58 04.01.2020
1379 Clouds 5 1030 75 10000 3.6 230 18:39 04.01.2020
1380 Clouds 5 1030 70 10000 3.6 240 18:21 04.01.2020
1381 Drizzle 5 1030 75 10000 5.7 290 17:58 04.01.2020
1382 Drizzle 5 1030 75 10000 5.7 290 17:40 04.01.2020
1383 Clouds 5 1029 75 10000 7.2 280 17:22 04.01.2020
1384 Clouds 5 1029 70 10000 5.1 230 16:54 04.01.2020
1385 Clouds 5 1029 70 10000 5.1 230 16:36 04.01.2020
1386 Drizzle 6 1029 75 10000 5.7 290 16:18 04.01.2020
1387 Clouds 6 1029 70 10000 8.2 250 15:42 04.01.2020
1388 Clouds 6 1029 70 10000 8.2 250 15:42 04.01.2020
1389 Clouds 6 1029 70 10000 9.3 250 15:20 04.01.2020
1390 Clouds 6 1029 70 10000 9.3 250 15:20 04.01.2020
1391 Clouds 6 1029 70 10000 9.3 250 14:59 04.01.2020
1392 Clouds 6 1029 70 10000 9.3 250 14:59 04.01.2020
1393 Clouds 6 1029 70 10000 8.7 250 14:40 04.01.2020
1394 Clouds 6 1029 70 10000 8.7 250 14:40 04.01.2020
1395 Clouds 6 1029 75 10000 8.7 250 14:20 04.01.2020
1396 Rain 5 1029 70 10000 8.2 240 13:58 04.01.2020
1397 Rain 5 1029 70 10000 8.2 240 13:37 04.01.2020
1398 Rain 5 1029 75 10000 7.7 250 13:19 04.01.2020
1399 Rain 5 1029 75 10000 7.7 250 12:56 04.01.2020
1400 Clouds 5 1030 70 10000 7.2 230 12:38 04.01.2020
1401 Clouds 5 1030 70 10000 7.2 240 12:18 04.01.2020
1402 Clouds 5 1030 70 10000 7.2 240 11:55 04.01.2020
1403 Clouds 5 1030 75 10000 6.7 230 11:36 04.01.2020
1404 Clouds 4 1030 75 10000 4.6 210 11:18 04.01.2020
1405 Clouds 4 1030 80 10000 3.6 170 10:40 04.01.2020
1406 Clouds 4 1030 80 10000 3.6 180 10:21 04.01.2020
1407 Clouds 3 1030 86 10000 3.1 190 09:44 04.01.2020
1408 Clouds 3 1030 86 10000 3.1 190 09:25 04.01.2020
1409 Clouds 3 1030 86 10000 4.1 180 08:49 04.01.2020
1410 Clouds 3 1030 86 10000 4.1 180 08:29 04.01.2020
1411 Clouds 3 1030 80 10000 4.1 190 07:56 04.01.2020
1412 Clouds 3 1030 80 10000 4.1 190 07:55 04.01.2020
1413 Clouds 3 1029 80 10000 4.6 190 07:37 04.01.2020
1414 Clouds 3 1029 93 10000 3.1 190 06:43 04.01.2020
1415 Clouds 3 1029 80 10000 2.6 270 05:59 04.01.2020
1416 Clouds 3 1028 86 10000 2.6 310 04:51 04.01.2020
1417 Clouds 3 1028 86 10000 2.6 310 04:30 04.01.2020
1418 Rain 4 1028 80 10000 3.1 290 03:29 04.01.2020
1419 Rain 4 1028 81 10000 2.1 310 02:49 04.01.2020
1420 Rain 5 1028 81 10000 5.1 320 02:18 04.01.2020
1421 Rain 5 1028 81 10000 5.1 320 02:18 04.01.2020
1422 Clouds 5 1027 81 10000 1 0 01:45 04.01.2020
1423 Clouds 6 1027 75 10000 2.1 0 01:27 04.01.2020
1424 Clouds 7 1026 81 10000 5.7 310 00:29 04.01.2020
1425 Rain 7 1025 87 10000 5.7 290 23:59 03.01.2020
1426 Rain 7 1025 87 10000 5.7 290 23:59 03.01.2020
1427 Rain 7 1025 87 10000 5.7 290 23:37 03.01.2020
1428 Rain 8 1024 93 10000 5.7 250 23:19 03.01.2020
1429 Rain 8 1024 100 10000 4.1 270 22:41 03.01.2020
1430 Rain 8 1024 100 10000 2.6 290 22:19 03.01.2020
1431 Rain 8 1023 100 10000 2.6 270 21:58 03.01.2020
1432 Rain 8 1023 100 10000 2.6 270 21:38 03.01.2020
1433 Rain 8 1023 100 10000 2.6 270 21:38 03.01.2020
1434 Rain 8 1023 100 10000 2.6 270 21:38 03.01.2020
1435 Rain 8 1023 100 10000 3.6 260 21:19 03.01.2020
1436 Rain 8 1023 100 10000 3.6 260 21:19 03.01.2020
1437 Rain 8 1023 93 10000 3.6 210 20:57 03.01.2020
1438 Rain 8 1022 87 10000 6.2 210 20:39 03.01.2020
1439 Rain 8 1022 87 10000 5.1 190 20:18 03.01.2020
1440 Clouds 8 1022 87 10000 4.6 190 19:55 03.01.2020
1441 Clouds 8 1022 87 10000 4.6 190 19:37 03.01.2020
1442 Clouds 8 1022 93 10000 5.1 240 19:18 03.01.2020
1443 Clouds 8 1022 93 10000 4.6 240 18:41 03.01.2020
1444 Rain 8 1021 87 10000 5.1 240 18:23 03.01.2020
1445 Clouds 8 1021 87 10000 7.2 200 17:55 03.01.2020
1446 Clouds 7 1021 87 10000 7.2 200 17:36 03.01.2020
1447 Clouds 7 1021 87 10000 3.6 220 17:18 03.01.2020
1448 Clouds 7 1021 81 10000 6.2 210 16:42 03.01.2020
1449 Clouds 7 1021 81 10000 6.7 210 16:22 03.01.2020
1450 Clouds 7 1021 81 10000 7.2 210 15:44 03.01.2020
1451 Clouds 7 1021 81 10000 7.2 220 15:19 03.01.2020
1452 Clouds 7 1021 81 10000 7.2 220 14:59 03.01.2020
1453 Clouds 7 1021 81 10000 6.7 210 14:38 03.01.2020
1454 Clouds 7 1021 81 10000 6.7 210 14:19 03.01.2020
1455 Clouds 7 1021 75 10000 5.7 210 13:44 03.01.2020
1456 Clouds 6 1021 81 10000 5.7 190 13:24 03.01.2020
1457 Clouds 6 1021 81 10000 5.7 190 12:59 03.01.2020
1458 Clouds 6 1021 81 10000 5.7 200 12:39 03.01.2020
1459 Clouds 6 1021 81 10000 5.7 200 12:21 03.01.2020
1460 Clouds 5 1021 87 10000 5.1 190 11:44 03.01.2020
1461 Clouds 5 1022 87 10000 5.1 200 11:21 03.01.2020
1462 Clouds 4 1022 86 10000 3.6 200 10:45 03.01.2020
1463 Clouds 4 1022 86 10000 4.6 210 10:26 03.01.2020
1464 Clouds 4 1022 93 10000 3.1 200 09:58 03.01.2020
1465 Clouds 4 1022 93 10000 3.1 200 09:39 03.01.2020
1466 Clouds 4 1022 93 10000 3.6 230 09:21 03.01.2020
1467 Clouds 4 1022 93 10000 4.1 200 08:57 03.01.2020
1468 Clouds 3 1022 93 10000 4.1 200 08:38 03.01.2020
1469 Clouds 3 1022 93 10000 3.6 200 08:19 03.01.2020
1470 Clouds 3 1022 100 10000 3.82 205 07:40 03.01.2020
1471 Clouds 3 1022 93 9000 1.5 210 07:19 03.01.2020
1472 Mist 3 1023 100 8000 1.5 60 06:50 03.01.2020
1473 Clouds 3 1023 93 9000 2.1 230 06:32 03.01.2020
1474 Clouds 2 1023 100 7000 1.5 210 05:46 03.01.2020
1475 Clouds 2 1024 93 6000 2.6 200 04:24 03.01.2020
1476 Mist 2 1024 93 5000 2.1 210 02:59 03.01.2020
1477 Mist 2 1025 100 5000 1.5 60 02:41 03.01.2020
1478 Mist 2 1025 100 4500 2.6 250 01:45 03.01.2020
1479 Mist 2 1026 100 4500 2.1 230 00:53 03.01.2020
1480 Mist 1 1026 100 4500 1 0 00:31 03.01.2020
1481 Drizzle 1 1026 100 3500 1.5 180 23:57 02.01.2020
1482 Drizzle 1 1026 100 3500 1.5 180 23:38 02.01.2020
1483 Rain 1 1026 100 3000 2.88 195 23:19 02.01.2020
1484 Drizzle 1 1026 100 3500 2.1 250 22:57 02.01.2020
1485 Mist 1 1026 74 4500 1.5 200 22:39 02.01.2020
1486 Mist 1 1027 100 4000 2.88 195 22:18 02.01.2020
1487 Mist 1 1027 74 4500 1 250 21:42 02.01.2020
1488 Mist 1 1027 74 4500 1 250 21:23 02.01.2020
1489 Mist 1 1027 74 4000 0.5 0 21:00 02.01.2020
1490 Mist 1 1027 74 4000 0.5 0 21:00 02.01.2020
1491 Mist 1 1027 74 4000 0.5 200 20:40 02.01.2020
1492 Mist 1 1027 77 4000 0.5 0 20:21 02.01.2020
1493 Mist 1 1027 77 4000 0.5 0 19:56 02.01.2020
1494 Mist 1 1028 77 4000 1 0 19:38 02.01.2020
1495 Mist 1 1028 77 5000 2.13 193 19:19 02.01.2020
1496 Mist 1 1027 77 3800 1 0 18:58 02.01.2020
1497 Mist 1 1027 77 4400 2.13 193 18:40 02.01.2020
1498 Mist 0 1028 77 3500 0.5 0 18:22 02.01.2020
1499 Mist 0 1028 77 3500 0.5 0 18:22 02.01.2020
1500 Mist 0 1028 77 3500 0.5 0 17:57 02.01.2020
1501 Mist 0 1028 77 3200 0.5 0 17:37 02.01.2020
1502 Mist 0 1028 72 4000 2.02 199 17:19 02.01.2020
1503 Mist 1 1028 72 2400 2.02 199 16:57 02.01.2020
1504 Mist 0 1028 72 2400 2.02 199 16:38 02.01.2020
1505 Mist 0 1028 72 2400 2.02 199 16:38 02.01.2020
1506 Mist 0 1028 72 2400 1 0 16:20 02.01.2020
1507 Mist 0 1028 72 2400 1.5 190 15:56 02.01.2020
1508 Mist 1 1028 72 2400 1.5 190 15:37 02.01.2020
1509 Drizzle 0 1028 72 2200 1.5 200 15:19 02.01.2020
1510 Mist 0 1028 72 1800 2.02 199 14:54 02.01.2020
1511 Drizzle 0 1029 72 2800 2.1 200 14:36 02.01.2020
1512 Mist 0 1029 75 3000 1.94 187 14:18 02.01.2020
1513 Drizzle 0 1029 75 4400 1.5 190 13:47 02.01.2020
1514 Drizzle 0 1029 75 4400 1.5 190 13:47 02.01.2020
1515 Snow 0 1030 73 2300 2.6 190 13:29 02.01.2020
1516 Mist 0 1030 73 2800 1.5 190 12:44 02.01.2020
1517 Mist -1 1030 73 2400 2.6 190 12:25 02.01.2020
1518 Mist 0 1030 73 2400 2.6 190 12:25 02.01.2020
1519 Mist -1 1031 100 1500 2.1 180 11:44 02.01.2020
1520 Mist -1 1031 100 1000 2.1 180 11:26 02.01.2020
1521 Mist -1 1031 100 1500 2.1 180 10:58 02.01.2020
1522 Mist -1 1031 100 1500 2.6 190 10:39 02.01.2020
1523 Fog -1 1031 100 800 3.1 180 10:19 02.01.2020
1524 Fog -1 1030 100 400 2.6 180 09:42 02.01.2020
1525 Mist -1 1031 100 1300 2.6 170 09:24 02.01.2020
1526 Fog -2 1030 100 800 2.6 170 08:45 02.01.2020
1527 Mist -2 1030 92 1500 2.1 180 08:27 02.01.2020
1528 Mist -2 1030 100 2000 3.1 200 07:50 02.01.2020
1529 Mist -2 1030 100 2000 3.1 200 07:30 02.01.2020
1530 Mist -2 1030 100 3600 2.6 180 06:45 02.01.2020
1531 Mist -2 1030 92 1800 3.6 220 06:26 02.01.2020
1532 Fog -2 1030 100 250 1 0 05:21 02.01.2020
1533 Fog -2 1031 100 350 3.1 220 04:31 02.01.2020
1534 Fog -2 1031 100 150 1.5 190 02:37 02.01.2020
1535 Fog -2 1031 92 400 0.52 211 01:59 02.01.2020
1536 Fog -2 1031 100 150 2.6 180 01:33 02.01.2020
1537 Fog -2 1031 92 400 2.1 170 00:57 02.01.2020
1538 Mist -2 1031 92 5000 1 0 00:33 02.01.2020
1539 Clear -2 1031 92 7000 2.6 20 23:52 01.01.2020
1540 Clear -2 1031 92 7000 2.6 20 23:28 01.01.2020
1541 Clear -2 1031 100 8000 3.1 10 22:59 01.01.2020
1542 Clear -2 1031 100 8000 3.1 10 22:38 01.01.2020
1543 Clear -2 1032 92 8000 1.5 50 22:19 01.01.2020
1544 Clear -1 1032 92 9000 2.1 60 21:56 01.01.2020
1545 Clear -1 1032 92 9000 2.1 60 21:37 01.01.2020
1546 Clear -1 1032 92 10000 2.6 60 21:19 01.01.2020
1547 Clear -1 1033 84 10000 2.1 40 20:55 01.01.2020
1548 Clear -1 1033 84 10000 2.1 40 20:37 01.01.2020
1549 Clear -1 1032 83 10000 3.1 60 20:19 01.01.2020
1550 Clear -1 1032 86 10000 4.1 60 19:55 01.01.2020
1551 Clear -1 1032 86 10000 4.1 60 19:37 01.01.2020
1552 Clear -1 1032 83 10000 4.1 50 19:19 01.01.2020
1553 Clear -1 1032 83 10000 3.6 70 18:55 01.01.2020
1554 Clear 0 1032 83 10000 3.6 70 18:36 01.01.2020
1555 Clear 0 1032 86 10000 2.6 80 18:18 01.01.2020
1556 Clear 0 1032 86 10000 1.5 70 17:56 01.01.2020
1557 Clear 0 1032 86 10000 1.5 70 17:37 01.01.2020
1558 Clear 1 1032 80 10000 1.5 40 17:18 01.01.2020
1559 Clear 2 1032 74 10000 2.1 40 16:40 01.01.2020
1560 Clear 1 1032 74 10000 2.1 40 16:40 01.01.2020
1561 Clear 2 1032 77 10000 3.1 40 16:21 01.01.2020
1562 Clear 3 1032 77 10000 3.1 60 15:58 01.01.2020
1563 Clear 3 1032 77 10000 3.1 60 15:40 01.01.2020
1564 Clear 4 1032 77 10000 3.6 70 15:21 01.01.2020
1565 Clear 4 1032 77 10000 3.6 70 14:58 01.01.2020
1566 Clear 4 1032 77 10000 4.1 70 14:40 01.01.2020
1567 Clear 4 1033 76 10000 3.6 70 14:21 01.01.2020
1568 Clear 4 1033 76 10000 4.1 70 13:56 01.01.2020
1569 Clear 4 1033 73 10000 4.1 70 13:37 01.01.2020
1570 Clear 4 1033 76 10000 4.1 70 13:37 01.01.2020
1571 Clear 4 1033 76 10000 4.1 70 13:37 01.01.2020
1572 Clear 3 1033 73 10000 4.6 50 13:18 01.01.2020
1573 Clear 3 1033 73 10000 4.6 50 12:57 01.01.2020
1574 Clear 3 1034 73 10000 3.6 50 12:39 01.01.2020
1575 Clear 2 1034 74 10000 3.6 50 12:19 01.01.2020
1576 Clear 2 1035 86 10000 3.1 50 11:43 01.01.2020
1577 Clear 0 1035 86 9000 3.6 20 11:23 01.01.2020
1578 Clear 0 1035 86 9000 3.6 20 10:59 01.01.2020
1579 Clear 0 1035 85 8000 3.6 10 10:41 01.01.2020
1580 Clear -1 1035 85 7000 3.1 20 10:21 01.01.2020
1581 Clear -1 1035 85 7000 3.1 20 10:21 01.01.2020
1582 Clear -1 1035 85 7000 3.1 20 09:58 01.01.2020
1583 Mist -2 1035 92 5000 3.1 30 09:38 01.01.2020
1584 Mist -1 1035 92 5000 3.1 30 09:38 01.01.2020
1585 Mist -2 1034 92 4500 2.6 40 09:18 01.01.2020
1586 Mist -2 1034 92 4000 3.6 20 08:55 01.01.2020
1587 Mist -2 1034 92 4000 3.6 20 08:36 01.01.2020
1588 Mist -2 1034 92 4500 3.1 10 08:18 01.01.2020
1589 Mist -2 1034 92 4500 3.1 10 07:54 01.01.2020
1590 Mist -2 1034 92 4500 2.6 10 07:36 01.01.2020
1591 Mist -2 1034 92 4000 3.1 50 06:45 01.01.2020
1592 Mist -2 1034 92 3500 2.6 60 06:21 01.01.2020
1593 Mist -1 1034 91 3000 1.5 40 05:22 01.01.2020
1594 Mist -1 1035 91 1200 2.1 70 03:45 01.01.2020
1595 Mist -1 1035 92 1200 2.6 50 03:23 01.01.2020
1596 Mist -1 1035 92 1200 2.6 50 02:57 01.01.2020
1597 Mist -1 1035 91 1200 2.6 50 02:36 01.01.2020
1598 Mist 0 1035 90 1000 1.5 60 01:57 01.01.2020
1599 Mist 0 1035 85 2500 3.6 10 01:38 01.01.2020
1600 Clouds 0 1035 85 8000 3.1 10 01:20 01.01.2020
1601 Clouds 0 1035 85 10000 2.6 70 00:44 01.01.2020
1602 Clouds 0 1036 85 10000 2.1 70 00:25 01.01.2020
1603 Clouds 0 1036 86 10000 2.1 60 23:41 31.12.2019
1604 Clouds 0 1036 80 10000 2.1 80 23:21 31.12.2019
1605 Clouds 1 1036 86 10000 3.1 40 22:57 31.12.2019
1606 Clouds 1 1036 78 10000 3.1 50 22:39 31.12.2019
1607 Clouds 1 1036 78 10000 3.1 50 22:39 31.12.2019
1608 Clouds 1 1036 78 10000 4.1 50 22:20 31.12.2019
1609 Clouds 1 1036 78 10000 4.1 50 21:58 31.12.2019
1610 Clouds 1 1036 78 9000 2.6 30 21:39 31.12.2019
1611 Clouds 1 1036 78 10000 1 0 21:21 31.12.2019
1612 Clouds 1 1036 78 10000 1 0 20:56 31.12.2019
1613 Clouds 2 1036 78 10000 2.6 70 20:37 31.12.2019
1614 Clouds 2 1036 62 9000 2.1 40 20:19 31.12.2019
1615 Clouds 2 1036 62 9000 2.1 40 19:55 31.12.2019
1616 Clouds 2 1036 62 9000 2.6 40 19:36 31.12.2019
1617 Clouds 2 1036 62 9000 2.1 20 19:18 31.12.2019
1618 Clouds 2 1036 80 9000 2.6 20 18:54 31.12.2019
1619 Clouds 2 1036 80 9000 2.6 20 18:36 31.12.2019
1620 Clouds 2 1035 80 8000 2.6 10 18:18 31.12.2019
1621 Clouds 2 1035 62 9000 2.6 360 17:54 31.12.2019
1622 Clouds 2 1035 62 9000 2.6 360 17:36 31.12.2019
1623 Clouds 2 1034 46 10000 2.6 60 17:18 31.12.2019
1624 Clouds 2 1034 46 10000 2.6 60 16:55 31.12.2019
1625 Clouds 2 1034 46 10000 1 0 16:36 31.12.2019
1626 Clouds 2 1034 46 10000 3.1 80 16:18 31.12.2019
1627 Clouds 2 1034 46 10000 3.1 80 15:55 31.12.2019
1628 Clouds 2 1034 46 10000 3.6 50 15:55 31.12.2019
1629 Clouds 2 1034 46 10000 3.6 50 15:55 31.12.2019
1630 Clouds 2 1034 46 10000 3.6 50 15:37 31.12.2019
1631 Clouds 2 1034 46 10000 2.6 90 15:19 31.12.2019
1632 Clouds 2 1034 46 10000 2.6 90 14:55 31.12.2019
1633 Clouds 2 1034 80 10000 2.1 90 14:37 31.12.2019
1634 Clouds 2 1034 80 10000 1 0 14:18 31.12.2019
1635 Clouds 2 1034 86 10000 1 0 13:55 31.12.2019
1636 Clouds 2 1034 86 10000 1 0 13:37 31.12.2019
1637 Clouds 2 1034 43 10000 0.5 0 13:19 31.12.2019
1638 Clouds 2 1034 43 8000 1 0 12:55 31.12.2019
1639 Clouds 2 1034 43 8000 1 0 12:37 31.12.2019
1640 Clouds 2 1034 43 7000 0.5 220 12:18 31.12.2019
1641 Clouds 1 1034 43 6000 1.5 190 11:54 31.12.2019
1642 Clouds 1 1034 43 6000 1.5 190 11:36 31.12.2019
1643 Mist 0 1034 100 5000 1.5 220 11:18 31.12.2019
1644 Mist 0 1034 100 4300 1 0 10:54 31.12.2019
1645 Mist 0 1034 100 4300 1 0 10:36 31.12.2019
1646 Mist 0 1034 100 4300 1 0 10:36 31.12.2019
1647 Mist -1 1034 100 3300 1 240 10:18 31.12.2019
1648 Mist -1 1034 100 3300 1 240 09:55 31.12.2019
1649 Mist -1 1033 100 2800 1 230 09:37 31.12.2019
1650 Mist -1 1033 100 2800 1 230 09:37 31.12.2019
1651 Mist -1 1033 100 1000 1.03 226 09:18 31.12.2019
1652 Fog -2 1033 100 200 1.03 226 08:42 31.12.2019
1653 Mist -2 1032 100 2100 1.5 210 08:22 31.12.2019
1654 Mist -2 1032 100 2100 1.5 210 07:56 31.12.2019
1655 Mist -2 1032 100 2300 1 0 07:37 31.12.2019
1656 Mist -2 1031 100 2100 2.6 220 07:18 31.12.2019
1657 Mist -2 1031 100 1700 3.6 220 06:29 31.12.2019
1658 Fog -2 1031 100 400 1.5 290 04:55 31.12.2019
1659 Mist -1 1031 100 1200 4.6 220 04:25 31.12.2019
1660 Fog -2 1031 100 600 5.1 200 02:58 31.12.2019
1661 Fog -2 1031 100 350 3.6 200 02:21 31.12.2019
1662 Fog -2 1030 100 300 4.1 190 01:51 31.12.2019
1663 Fog -2 1030 100 300 4.1 190 01:32 31.12.2019
1664 Fog -2 1031 100 300 4.1 210 00:54 31.12.2019
1665 Fog -1 1031 100 300 4.1 210 00:36 31.12.2019
1666 Fog -2 1031 100 700 3.6 210 00:18 31.12.2019
1667 Mist -1 1031 100 1600 3.6 190 23:54 30.12.2019
1668 Mist -2 1031 100 1600 3.6 190 23:36 30.12.2019
1669 Mist -1 1031 92 3800 2.6 190 23:18 30.12.2019
1670 Clear -1 1031 92 9000 2.1 190 22:54 30.12.2019
1671 Clear -1 1031 92 9000 2.1 190 22:36 30.12.2019
1672 Clear -1 1031 86 10000 1.5 170 22:18 30.12.2019
1673 Clear -1 1031 86 10000 1.5 170 21:55 30.12.2019
1674 Clear -1 1031 92 10000 1.5 190 21:37 30.12.2019
1675 Clear -1 1032 92 10000 1 210 21:18 30.12.2019
1676 Clear 0 1032 51 10000 1.5 220 20:54 30.12.2019
1677 Clear 0 1032 51 10000 1.5 220 20:36 30.12.2019
1678 Clouds 0 1032 92 10000 2.1 200 20:18 30.12.2019
1679 Clouds 0 1032 92 10000 2.1 200 19:55 30.12.2019
1680 Clouds 0 1032 92 10000 2.1 210 19:36 30.12.2019
1681 Clouds 0 1032 86 10000 2.6 180 19:18 30.12.2019
1682 Clouds 0 1032 86 10000 1.5 210 18:41 30.12.2019
1683 Clouds 1 1032 42 10000 1 0 18:21 30.12.2019
1684 Clouds 1 1032 42 10000 1 0 17:59 30.12.2019
1685 Clouds 1 1032 42 10000 1.5 170 17:41 30.12.2019
1686 Clouds 1 1032 40 10000 2.1 170 17:20 30.12.2019
1687 Clouds 2 1032 80 10000 1.5 200 16:59 30.12.2019
1688 Clouds 2 1032 40 10000 2.1 170 16:59 30.12.2019
1689 Clouds 2 1032 80 10000 1.5 200 16:40 30.12.2019
1690 Clouds 2 1033 69 10000 1.5 210 16:20 30.12.2019
1691 Clouds 2 1033 69 10000 1.5 210 15:57 30.12.2019
1692 Clouds 3 1032 69 10000 1.5 200 15:39 30.12.2019
1693 Clouds 3 1033 64 10000 1.5 170 15:19 30.12.2019
1694 Clouds 3 1033 64 10000 1.5 170 15:19 30.12.2019
1695 Clouds 3 1033 64 10000 1.5 170 14:55 30.12.2019
1696 Clouds 3 1033 69 10000 1.5 180 14:37 30.12.2019
1697 Clouds 3 1033 69 10000 1.5 180 14:37 30.12.2019
1698 Clear 3 1033 64 10000 1.5 190 14:18 30.12.2019
1699 Clear 3 1034 69 10000 1.5 180 13:42 30.12.2019
1700 Clear 3 1034 69 10000 1.5 190 13:24 30.12.2019
1701 Clear 3 1034 69 10000 1.5 180 13:24 30.12.2019
1702 Clear 3 1034 69 10000 1.5 190 12:59 30.12.2019
1703 Clear 3 1034 74 10000 1.5 180 12:41 30.12.2019
1704 Clear 3 1035 74 10000 1.5 200 12:19 30.12.2019
1705 Clear 2 1035 74 10000 1.5 200 11:56 30.12.2019
1706 Clear 2 1035 74 10000 1.5 180 11:38 30.12.2019
1707 Clear 1 1035 80 10000 1 0 11:18 30.12.2019
1708 Clear -1 1035 50 10000 0.5 0 10:43 30.12.2019
1709 Clear -2 1035 92 10000 0.5 0 10:20 30.12.2019
1710 Clear -2 1035 92 10000 0.5 0 09:55 30.12.2019
1711 Clear -3 1035 92 10000 0.5 0 09:37 30.12.2019
1712 Clear -3 1035 92 10000 0.5 250 09:19 30.12.2019
1713 Clear -3 1035 92 10000 0.5 0 08:46 30.12.2019
1714 Clouds -4 1035 92 10000 1 0 08:23 30.12.2019
1715 Clouds -4 1035 92 10000 1 0 07:55 30.12.2019
1716 Clouds -4 1035 92 10000 0.5 360 07:33 30.12.2019
1717 Clouds -3 1035 86 10000 1 0 06:51 30.12.2019
1718 Clear -3 1036 92 10000 0.5 0 04:56 30.12.2019
1719 Clear -3 1036 92 10000 1 0 03:53 30.12.2019
1720 Clear -3 1036 92 10000 2.6 90 02:56 30.12.2019
1721 Clear -3 1037 86 10000 2.1 80 02:37 30.12.2019
1722 Clear -3 1037 86 10000 1 0 01:50 30.12.2019
1723 Clouds -3 1037 86 10000 2.6 80 01:21 30.12.2019
1724 Clouds -2 1037 86 10000 2.1 70 00:44 30.12.2019
1725 Clouds -2 1038 86 10000 2.6 70 00:19 30.12.2019
1726 Clouds -2 1037 61 10000 2.6 10 23:39 29.12.2019
1727 Clouds -2 1037 80 10000 2.6 50 23:21 29.12.2019
1728 Clouds -2 1038 64 10000 3.1 50 22:54 29.12.2019
1729 Clouds -1 1038 64 10000 3.1 50 22:36 29.12.2019
1730 Clouds -1 1038 64 10000 3.1 50 22:36 29.12.2019
1731 Clouds -1 1038 64 10000 3.1 60 22:18 29.12.2019
1732 Clouds -1 1038 64 10000 3.6 60 21:42 29.12.2019
1733 Clouds -1 1038 80 10000 4.1 60 21:21 29.12.2019
1734 Clouds -1 1038 80 10000 4.1 60 20:57 29.12.2019
1735 Clouds -1 1038 74 10000 2.6 80 20:39 29.12.2019
1736 Clouds -1 1038 64 10000 3.1 60 20:21 29.12.2019
1737 Clouds -1 1038 62 10000 3.1 60 19:59 29.12.2019
1738 Clouds -1 1038 74 10000 3.1 20 19:40 29.12.2019
1739 Clouds -1 1038 62 10000 3.1 40 19:21 29.12.2019
1740 Clouds -1 1038 62 10000 3.1 40 18:58 29.12.2019
1741 Clouds 0 1038 74 10000 3.6 360 18:39 29.12.2019
1742 Clouds 0 1038 74 10000 2.6 50 18:20 29.12.2019
1743 Clouds 0 1038 74 10000 2.6 50 17:58 29.12.2019
1744 Clouds 0 1038 74 10000 2.6 80 17:39 29.12.2019
1745 Clouds 1 1038 69 10000 2.1 70 17:20 29.12.2019
1746 Clouds 1 1038 69 10000 3.1 60 16:57 29.12.2019
1747 Clouds 1 1038 69 10000 3.1 60 16:39 29.12.2019
1748 Clouds 2 1038 64 10000 2.1 60 16:21 29.12.2019
1749 Clouds 2 1038 64 10000 2.1 60 15:58 29.12.2019
1750 Clouds 2 1038 64 10000 2.1 60 15:58 29.12.2019
1751 Clouds 2 1038 64 10000 2.1 50 15:39 29.12.2019
1752 Clouds 2 1038 64 10000 2.1 60 15:20 29.12.2019
1753 Clouds 2 1038 64 10000 2.6 40 14:58 29.12.2019
1754 Clouds 2 1038 64 10000 2.6 40 14:39 29.12.2019
1755 Clouds 2 1038 64 10000 3.1 60 14:18 29.12.2019
1756 Clouds 2 1039 69 10000 3.1 90 13:58 29.12.2019
1757 Clouds 2 1039 69 10000 3.1 90 13:39 29.12.2019
1758 Clouds 2 1039 64 10000 2.1 80 13:21 29.12.2019
1759 Clouds 2 1039 64 10000 2.6 70 12:56 29.12.2019
1760 Clouds 2 1039 64 10000 2.6 70 12:38 29.12.2019
1761 Clouds 1 1039 74 10000 3.1 80 12:20 29.12.2019
1762 Clouds 1 1040 69 10000 3.6 70 11:41 29.12.2019
1763 Clouds 0 1040 71 10000 3.1 60 11:21 29.12.2019
1764 Clouds -1 1040 71 10000 3.1 60 10:57 29.12.2019
1765 Clouds -1 1040 71 10000 2.6 30 10:38 29.12.2019
1766 Clouds -2 1040 86 10000 2.6 50 10:18 29.12.2019
1767 Clouds -3 1040 86 10000 3.1 60 09:45 29.12.2019
1768 Clouds -3 1040 86 10000 3.1 60 09:27 29.12.2019
1769 Clouds -4 1040 86 10000 3.1 40 08:55 29.12.2019
1770 Clouds -4 1040 86 10000 3.1 40 08:37 29.12.2019
1771 Clear -4 1040 86 10000 2.6 20 08:18 29.12.2019
1772 Clear -4 1040 86 10000 2.1 10 07:43 29.12.2019
1773 Clear -4 1040 86 10000 2.1 10 07:25 29.12.2019
1774 Clear -3 1040 86 10000 2.1 10 06:38 29.12.2019
1775 Clear -3 1040 86 10000 2.6 70 06:18 29.12.2019
1776 Clear -3 1040 86 10000 3.1 70 05:44 29.12.2019
1777 Clouds -3 1040 86 10000 2.6 80 04:32 29.12.2019
1778 Clouds -3 1040 86 10000 3.6 40 03:35 29.12.2019
1779 Clouds -2 1040 92 10000 3.1 60 02:27 29.12.2019
1780 Clouds -2 1040 92 10000 4.6 50 01:52 29.12.2019
1781 Clouds -2 1040 92 10000 4.6 50 01:29 29.12.2019
1782 Clouds -2 1040 86 10000 3.1 70 00:45 29.12.2019
1783 Clouds -2 1040 86 10000 3.1 70 00:25 29.12.2019
1784 Clouds -2 1040 86 10000 3.1 70 00:25 29.12.2019
1785 Clouds -1 1041 86 10000 3.6 50 23:55 28.12.2019
1786 Clouds -1 1041 86 10000 3.6 50 23:37 28.12.2019
1787 Clouds -1 1041 86 10000 3.1 60 23:18 28.12.2019
1788 Clouds -1 1041 86 10000 3.6 70 22:37 28.12.2019
1789 Clouds -1 1041 86 10000 3.1 60 22:18 28.12.2019
1790 Clouds -1 1041 86 10000 3.6 80 21:57 28.12.2019
1791 Clouds -1 1041 86 10000 3.6 80 21:38 28.12.2019
1792 Clouds -1 1041 71 10000 3.1 70 21:19 28.12.2019
1793 Clouds -1 1041 71 10000 3.1 70 20:54 28.12.2019
1794 Clouds -1 1041 71 10000 3.1 70 20:36 28.12.2019
1795 Clouds -1 1041 74 10000 2.6 70 20:18 28.12.2019
1796 Clouds -1 1041 69 10000 2.1 80 19:54 28.12.2019
1797 Clouds -1 1041 69 10000 2.1 80 19:36 28.12.2019
1798 Clouds 0 1041 69 10000 1 0 19:18 28.12.2019
1799 Clouds 0 1041 69 10000 1 0 18:42 28.12.2019
1800 Clouds 0 1041 74 10000 1.5 80 18:20 28.12.2019
1801 Clouds 0 1041 74 10000 1.5 80 17:59 28.12.2019
1802 Clouds 0 1041 64 10000 2.1 80 17:40 28.12.2019
1803 Clouds 1 1041 80 10000 2.1 60 17:21 28.12.2019
1804 Clouds 1 1040 64 10000 2.6 70 16:54 28.12.2019
1805 Clouds 2 1040 64 10000 2.6 70 16:36 28.12.2019
1806 Clouds 2 1040 64 10000 3.1 80 16:18 28.12.2019
1807 Clouds 2 1040 69 10000 3.6 80 15:41 28.12.2019
1808 Clouds 3 1040 60 10000 3.1 90 15:21 28.12.2019
1809 Clouds 3 1040 64 10000 3.6 80 14:48 28.12.2019
1810 Clouds 3 1041 60 10000 3.1 90 14:26 28.12.2019
1811 Clouds 3 1041 60 10000 3.1 90 13:58 28.12.2019
1812 Clouds 3 1041 64 10000 3.1 80 13:40 28.12.2019
1813 Clouds 3 1041 69 10000 3.6 80 13:21 28.12.2019
1814 Clouds 3 1041 69 10000 3.6 80 12:58 28.12.2019
1815 Clouds 3 1041 74 10000 2.6 80 12:40 28.12.2019
1816 Clouds 3 1041 74 10000 2.6 100 12:21 28.12.2019
1817 Clouds 2 1041 74 10000 2.6 100 11:40 28.12.2019
1818 Clouds 2 1041 74 10000 2.6 100 11:40 28.12.2019
1819 Clouds 1 1041 80 10000 2.1 50 11:21 28.12.2019
1820 Clouds 1 1041 86 10000 2.6 20 10:56 28.12.2019
1821 Clouds 1 1041 86 10000 2.6 20 10:38 28.12.2019
1822 Clouds 0 1040 80 10000 2.6 80 10:19 28.12.2019
1823 Clouds 0 1040 73 10000 2.6 80 09:54 28.12.2019
1824 Clouds -1 1040 73 10000 2.6 80 09:36 28.12.2019
1825 Clouds -1 1040 92 10000 2.6 10 09:18 28.12.2019
1826 Clouds -1 1040 100 10000 1.5 10 08:42 28.12.2019
1827 Clouds -1 1039 92 10000 1 0 08:23 28.12.2019
1828 Clouds -1 1039 86 10000 1.5 20 07:47 28.12.2019
1829 Clouds -1 1039 92 10000 2.6 70 07:22 28.12.2019
1830 Clouds -1 1039 92 10000 1.5 60 05:51 28.12.2019
1831 Clouds 0 1038 81 10000 4.1 10 03:48 28.12.2019
1832 Clouds 0 1037 81 10000 1.5 40 02:51 28.12.2019
1833 Clear 0 1037 79 10000 1.5 60 02:20 28.12.2019
1834 Clear 0 1037 79 10000 1.5 60 01:56 28.12.2019
1835 Clear 0 1037 74 10000 1.5 20 01:23 28.12.2019
1836 Clouds 0 1037 79 10000 1.5 60 00:50 28.12.2019
1837 Clouds 1 1037 79 10000 1.5 60 00:30 28.12.2019
1838 Clouds 1 1036 74 10000 4.1 40 23:58 27.12.2019
1839 Clouds 1 1036 80 10000 4.6 30 23:58 27.12.2019
1840 Clouds 1 1036 80 10000 4.6 30 23:39 27.12.2019
1841 Clouds 1 1036 74 10000 4.1 30 23:19 27.12.2019
1842 Clouds 2 1036 74 10000 4.1 30 22:57 27.12.2019
1843 Clouds 2 1036 69 10000 4.6 30 22:38 27.12.2019
1844 Clouds 2 1036 69 10000 4.6 30 22:38 27.12.2019
1845 Clouds 2 1035 69 10000 4.6 30 22:19 27.12.2019
1846 Clouds 3 1035 77 10000 5.7 20 21:43 27.12.2019
1847 Clouds 3 1035 77 10000 5.7 20 21:43 27.12.2019
1848 Clouds 2 1035 77 10000 5.7 20 21:25 27.12.2019
1849 Clouds 3 1035 77 10000 5.1 20 20:58 27.12.2019
1850 Clouds 3 1034 77 10000 4.6 20 20:40 27.12.2019
1851 Clouds 3 1034 75 10000 4.6 30 20:21 27.12.2019
1852 Clouds 4 1033 75 10000 3.6 30 19:42 27.12.2019
1853 Clouds 4 1033 75 10000 3.1 30 19:20 27.12.2019
1854 Clouds 4 1033 75 10000 3.1 30 19:20 27.12.2019
1855 Clouds 4 1032 75 10000 3.1 20 18:58 27.12.2019
1856 Clouds 4 1032 75 10000 3.1 20 18:37 27.12.2019
1857 Clouds 4 1032 75 10000 2.6 360 18:19 27.12.2019
1858 Clouds 4 1032 75 10000 2.6 360 17:57 27.12.2019
1859 Clouds 4 1032 75 10000 2.6 360 17:38 27.12.2019
1860 Clouds 5 1031 75 10000 3.1 360 17:19 27.12.2019
1861 Clouds 5 1030 81 10000 2.6 20 16:58 27.12.2019
1862 Clouds 5 1030 81 10000 2.6 20 16:38 27.12.2019
1863 Clouds 5 1030 81 10000 3.6 50 16:19 27.12.2019
1864 Clouds 6 1029 81 10000 3.6 60 15:43 27.12.2019
1865 Clouds 6 1029 81 10000 4.1 60 15:20 27.12.2019
1866 Clouds 6 1029 81 10000 4.1 60 14:57 27.12.2019
1867 Clouds 6 1028 81 10000 4.1 80 14:39 27.12.2019
1868 Clouds 6 1028 81 10000 5.1 30 14:20 27.12.2019
1869 Rain 6 1028 87 10000 3.1 70 13:48 27.12.2019
1870 Rain 6 1028 81 10000 4.6 30 13:25 27.12.2019
1871 Clouds 6 1027 93 10000 3.6 80 12:58 27.12.2019
1872 Clouds 6 1027 93 10000 3.6 80 12:40 27.12.2019
1873 Clouds 5 1027 93 10000 2.6 40 12:21 27.12.2019
1874 Clouds 5 1026 93 10000 4.6 20 11:46 27.12.2019
1875 Clouds 5 1026 93 10000 4.6 20 11:26 27.12.2019
1876 Clouds 5 1025 93 10000 5.1 30 10:58 27.12.2019
1877 Clouds 5 1025 93 10000 5.7 30 10:39 27.12.2019
1878 Clouds 5 1024 93 10000 4.6 30 10:21 27.12.2019
1879 Clouds 5 1024 93 10000 3.6 20 09:44 27.12.2019
1880 Clouds 4 1023 93 10000 4.1 50 09:22 27.12.2019
1881 Clouds 4 1023 93 10000 4.1 50 09:22 27.12.2019
1882 Clouds 4 1023 100 10000 2.6 80 08:59 27.12.2019
1883 Rain 4 1023 93 8000 3.6 50 08:37 27.12.2019
1884 Rain 4 1022 100 9000 2.6 80 07:53 27.12.2019
1885 Clouds 4 1022 93 7000 2.6 60 07:34 27.12.2019
1886 Drizzle 4 1022 100 6000 2.6 50 06:39 27.12.2019
1887 Drizzle 4 1021 100 4500 2.1 70 05:52 27.12.2019
1888 Rain 4 1021 100 3200 1.36 157 04:20 27.12.2019
1889 Clouds 4 1022 100 7000 1.5 140 02:26 27.12.2019
1890 Clouds 4 1022 93 8000 3.1 190 01:42 27.12.2019
1891 Clouds 4 1022 93 8000 2.1 180 01:20 27.12.2019
1892 Rain 4 1022 93 6000 2.6 190 00:46 27.12.2019
1893 Rain 4 1023 93 10000 3.1 180 00:25 27.12.2019
1894 Clouds 4 1023 93 10000 3.6 180 23:54 26.12.2019
1895 Clouds 4 1023 93 10000 3.6 180 23:36 26.12.2019
1896 Clouds 4 1023 93 10000 3.1 160 23:18 26.12.2019
1897 Clouds 4 1023 93 10000 2.6 170 22:38 26.12.2019
1898 Clouds 4 1023 93 10000 3.1 190 22:18 26.12.2019
1899 Clouds 4 1023 86 10000 3.6 190 21:40 26.12.2019
1900 Clouds 4 1023 86 10000 3.6 170 21:21 26.12.2019
1901 Clouds 4 1023 86 10000 3.6 170 20:58 26.12.2019
1902 Clouds 4 1023 86 10000 1.5 190 20:38 26.12.2019
1903 Clouds 4 1023 93 10000 1.5 180 20:20 26.12.2019
1904 Clouds 4 1023 93 10000 0.5 0 19:55 26.12.2019
1905 Clouds 4 1023 93 10000 0.5 0 19:37 26.12.2019
1906 Clouds 4 1023 93 10000 1.5 210 19:19 26.12.2019
1907 Clouds 4 1023 100 10000 2.1 210 18:56 26.12.2019
1908 Clouds 4 1023 100 10000 2.1 210 18:36 26.12.2019
1909 Clouds 4 1023 93 10000 1 0 18:18 26.12.2019
1910 Clouds 5 1023 93 10000 1 190 17:41 26.12.2019
1911 Clouds 5 1023 93 10000 1 220 17:22 26.12.2019
1912 Clouds 5 1023 93 10000 0.5 0 16:50 26.12.2019
1913 Clouds 5 1023 93 10000 0.5 0 16:28 26.12.2019
1914 Clouds 5 1023 87 10000 1.5 70 15:58 26.12.2019
1915 Clouds 5 1023 87 10000 2.1 90 15:40 26.12.2019
1916 Clouds 5 1023 81 10000 0.5 0 15:19 26.12.2019
1917 Clouds 6 1023 81 10000 1 0 14:42 26.12.2019
1918 Clouds 6 1024 81 10000 1.5 220 14:23 26.12.2019
1919 Clouds 6 1024 81 10000 1.5 220 13:58 26.12.2019
1920 Clouds 6 1024 81 10000 1.5 110 13:39 26.12.2019
1921 Clouds 6 1024 81 10000 1.5 90 13:18 26.12.2019
1922 Clouds 6 1025 87 10000 0.5 0 12:56 26.12.2019
1923 Clouds 6 1025 87 10000 0.5 0 12:36 26.12.2019
1924 Clouds 5 1025 87 10000 1.5 80 12:18 26.12.2019
1925 Clouds 5 1025 87 10000 2.1 100 11:42 26.12.2019
1926 Clouds 5 1025 87 10000 2.1 100 11:42 26.12.2019
1927 Clouds 5 1025 87 10000 1 0 11:23 26.12.2019
1928 Clouds 4 1026 93 10000 1 0 10:57 26.12.2019
1929 Clouds 4 1026 93 10000 1 0 10:39 26.12.2019
1930 Clouds 4 1026 93 10000 1 0 10:18 26.12.2019
1931 Clouds 3 1026 100 10000 1.38 84 09:42 26.12.2019
1932 Clouds 3 1026 100 10000 1.38 84 09:24 26.12.2019
1933 Clouds 3 1025 93 10000 0.5 0 08:42 26.12.2019
1934 Clouds 3 1025 100 10000 0.5 0 08:23 26.12.2019
1935 Clouds 3 1026 93 10000 1 230 07:52 26.12.2019
1936 Clouds 3 1026 93 10000 1 230 07:26 26.12.2019
1937 Clouds 3 1026 100 10000 1.5 140 06:52 26.12.2019
1938 Clouds 3 1026 100 10000 1.5 140 06:31 26.12.2019
1939 Clouds 3 1026 100 10000 0.5 0 05:45 26.12.2019
1940 Fog 3 1025 100 10000 1 190 04:48 26.12.2019
1941 Clouds 3 1025 93 10000 0.5 190 04:29 26.12.2019
1942 Rain 3 1026 93 10000 2.1 210 02:54 26.12.2019
1943 Rain 3 1025 93 10000 1.5 160 02:34 26.12.2019
1944 Clouds 4 1025 93 10000 1.5 230 01:46 26.12.2019
1945 Clouds 4 1025 93 10000 1.5 230 01:28 26.12.2019
1946 Clouds 5 1025 93 10000 3.6 260 00:49 26.12.2019
1947 Clouds 5 1025 93 10000 3.6 260 00:27 26.12.2019
1948 Clouds 5 1025 93 10000 2.1 240 23:58 25.12.2019
1949 Clouds 5 1026 93 10000 3.1 270 23:39 25.12.2019
1950 Rain 5 1025 87 10000 4.6 280 23:21 25.12.2019
1951 Rain 5 1025 87 10000 3.6 260 22:59 25.12.2019
1952 Rain 5 1025 87 10000 3.6 260 22:39 25.12.2019
1953 Rain 5 1025 81 10000 2.6 250 22:20 25.12.2019
1954 Rain 5 1025 81 10000 2.6 250 21:58 25.12.2019
1955 Clouds 5 1025 93 10000 1.5 270 21:39 25.12.2019
1956 Clouds 5 1025 87 10000 4.6 240 21:20 25.12.2019
1957 Clouds 5 1025 87 10000 4.6 240 20:56 25.12.2019
1958 Clouds 5 1025 87 10000 2.6 220 20:38 25.12.2019
1959 Clouds 5 1025 87 10000 2.6 220 20:38 25.12.2019
1960 Clouds 5 1025 81 10000 3.1 250 20:18 25.12.2019
1961 Clouds 5 1024 81 10000 3.6 250 19:43 25.12.2019
1962 Clouds 5 1024 81 10000 3.6 250 19:25 25.12.2019
1963 Clouds 5 1024 87 10000 2.6 290 18:58 25.12.2019
1964 Clouds 6 1024 87 10000 2.6 290 18:37 25.12.2019
1965 Clouds 6 1023 81 10000 4.1 250 18:19 25.12.2019
1966 Clouds 6 1023 81 10000 3.6 250 17:42 25.12.2019
1967 Clouds 6 1023 81 10000 3.1 310 17:20 25.12.2019
1968 Clouds 6 1023 81 10000 3.1 310 16:58 25.12.2019
1969 Clouds 7 1022 70 10000 3.1 300 16:38 25.12.2019
1970 Clouds 7 1022 70 10000 3.6 300 16:19 25.12.2019
1971 Clouds 7 1022 70 10000 3.6 300 15:57 25.12.2019
1972 Rain 7 1021 70 10000 4.1 310 15:39 25.12.2019
1973 Rain 7 1021 70 10000 4.1 290 15:20 25.12.2019
1974 Rain 7 1021 70 10000 4.1 290 14:58 25.12.2019
1975 Rain 7 1020 81 10000 4.6 290 14:39 25.12.2019
1976 Rain 7 1020 81 10000 4.6 290 14:39 25.12.2019
1977 Rain 7 1020 81 10000 4.6 290 14:39 25.12.2019
1978 Rain 7 1020 81 10000 4.6 290 14:39 25.12.2019
1979 Rain 8 1020 81 10000 5.1 260 14:21 25.12.2019
1980 Rain 7 1019 75 10000 5.1 260 13:55 25.12.2019
1981 Rain 8 1019 75 10000 5.1 260 13:36 25.12.2019
1982 Rain 8 1019 75 10000 5.7 260 13:18 25.12.2019
1983 Rain 8 1018 70 10000 6.2 260 12:39 25.12.2019
1984 Rain 8 1018 75 10000 6.2 260 12:20 25.12.2019
1985 Clouds 8 1018 75 10000 5.1 260 11:55 25.12.2019
1986 Clouds 8 1018 75 10000 5.1 260 11:37 25.12.2019
1987 Clouds 8 1017 70 10000 4.1 240 11:18 25.12.2019
1988 Clouds 7 1017 75 10000 3.1 270 10:38 25.12.2019
1989 Clouds 7 1017 75 10000 3.1 270 10:38 25.12.2019
1990 Rain 7 1016 75 10000 5.7 270 10:19 25.12.2019
1991 Rain 7 1015 70 10000 3.6 280 09:50 25.12.2019
1992 Rain 7 1015 70 10000 3.6 280 09:32 25.12.2019
1993 Rain 7 1015 76 10000 2.6 270 08:51 25.12.2019
1994 Rain 7 1015 87 10000 3.6 310 08:31 25.12.2019
1995 Clouds 7 1014 76 10000 4.6 230 07:50 25.12.2019
1996 Clouds 7 1014 76 10000 4.6 230 07:32 25.12.2019
1997 Rain 7 1013 93 10000 3.6 200 06:52 25.12.2019
1998 Rain 7 1013 93 10000 3.1 190 06:23 25.12.2019
1999 Clouds 7 1013 100 10000 3.1 270 05:18 25.12.2019
2000 Rain 7 1013 100 10000 2.1 250 04:39 25.12.2019
2001 Clouds 7 1014 93 10000 2.1 260 04:20 25.12.2019
2002 Clouds 7 1013 87 10000 4.6 190 03:42 25.12.2019
2003 Clouds 7 1013 81 10000 4.1 170 02:54 25.12.2019
2004 Rain 7 1013 87 10000 3.1 180 02:27 25.12.2019
2005 Clouds 7 1013 81 10000 4.6 190 01:26 25.12.2019
2006 Clouds 7 1013 81 10000 5.1 210 00:56 25.12.2019
2007 Clouds 7 1013 76 10000 6.7 220 00:33 25.12.2019
2008 Clouds 7 1013 81 10000 4.6 260 23:59 24.12.2019
2009 Clouds 7 1013 81 10000 4.6 260 23:39 24.12.2019
2010 Clouds 7 1012 70 10000 6.2 230 23:20 24.12.2019
2011 Clouds 7 1012 81 10000 5.1 220 22:42 24.12.2019
2012 Clouds 7 1012 81 10000 5.1 220 22:23 24.12.2019
2013 Clouds 7 1012 81 10000 7.2 220 21:57 24.12.2019
2014 Clouds 7 1012 81 10000 7.2 220 21:37 24.12.2019
2015 Clouds 7 1012 81 10000 7.2 210 21:19 24.12.2019
2016 Clouds 7 1012 75 10000 7.7 210 20:41 24.12.2019
2017 Clouds 7 1012 81 10000 6.2 270 20:20 24.12.2019
2018 Rain 8 1011 76 10000 7.7 230 19:47 24.12.2019
2019 Rain 8 1011 76 10000 6.7 210 19:22 24.12.2019
2020 Rain 8 1011 76 10000 6.7 210 19:22 24.12.2019
2021 Clouds 7 1011 70 10000 5.7 220 18:59 24.12.2019
2022 Clouds 7 1011 70 10000 5.7 220 18:40 24.12.2019
2023 Clouds 7 1011 71 10000 8.2 220 18:18 24.12.2019
2024 Clouds 8 1011 76 10000 5.7 220 17:43 24.12.2019
2025 Clouds 8 1011 76 10000 5.7 220 17:43 24.12.2019
2026 Clouds 8 1010 76 10000 4.6 200 17:22 24.12.2019
2027 Clouds 8 1010 76 10000 4.6 200 16:58 24.12.2019
2028 Clouds 7 1010 81 10000 5.1 210 16:39 24.12.2019
2029 Rain 7 1010 81 10000 7.2 220 16:20 24.12.2019
2030 Rain 7 1010 81 10000 7.2 220 15:57 24.12.2019
2031 Clouds 7 1010 93 10000 5.7 210 15:37 24.12.2019
2032 Rain 8 1010 93 10000 4.1 170 15:19 24.12.2019
2033 Rain 7 1010 93 10000 4.1 170 14:58 24.12.2019
2034 Rain 7 1010 93 10000 3.6 180 14:40 24.12.2019
2035 Rain 7 1009 93 10000 4.1 210 14:21 24.12.2019
2036 Clouds 7 1009 93 10000 4.1 210 14:21 24.12.2019
2037 Clouds 7 1009 93 10000 4.1 210 13:56 24.12.2019
2038 Drizzle 6 1009 100 10000 5.1 210 13:38 24.12.2019
2039 Drizzle 6 1010 93 6000 5.1 200 13:19 24.12.2019
2040 Drizzle 6 1011 100 9000 2.1 210 12:56 24.12.2019
2041 Drizzle 6 1011 100 9000 2.1 210 12:56 24.12.2019
2042 Rain 6 1010 93 10000 5.1 210 12:38 24.12.2019
2043 Rain 6 1011 100 10000 2.1 220 12:19 24.12.2019
2044 Drizzle 6 1011 100 10000 2.1 190 11:56 24.12.2019
2045 Rain 6 1011 93 9000 3.6 180 11:37 24.12.2019
2046 Rain 6 1012 93 7000 3.1 180 11:19 24.12.2019
2047 Rain 6 1012 93 7000 3.1 180 10:56 24.12.2019
2048 Drizzle 6 1012 93 4500 4.6 170 10:38 24.12.2019
2049 Rain 6 1013 100 10000 3.6 180 10:19 24.12.2019
2050 Rain 6 1013 87 10000 4.1 170 09:56 24.12.2019
2051 Rain 6 1013 87 10000 4.1 170 09:38 24.12.2019
2052 Rain 6 1014 87 10000 4.1 170 09:20 24.12.2019
2053 Rain 6 1014 93 10000 2.6 180 08:47 24.12.2019
2054 Clouds 5 1015 87 10000 3.6 180 08:24 24.12.2019
2055 Clouds 5 1015 87 10000 4.1 170 07:59 24.12.2019
2056 Clouds 5 1015 87 10000 2.6 200 07:39 24.12.2019
2057 Clouds 5 1015 93 10000 2.6 190 07:20 24.12.2019
2058 Clouds 5 1016 81 10000 5.1 190 06:40 24.12.2019
2059 Clouds 5 1016 87 10000 5.1 180 06:19 24.12.2019
2060 Clouds 5 1016 87 10000 5.1 180 05:51 24.12.2019
2061 Clouds 5 1017 87 10000 3.6 190 05:19 24.12.2019
2062 Clouds 5 1017 87 10000 4.6 210 04:21 24.12.2019
2063 Clouds 5 1017 87 10000 5.1 210 03:48 24.12.2019
2064 Clouds 6 1017 81 10000 4.6 220 02:29 24.12.2019
2065 Clouds 6 1017 81 10000 5.7 230 01:55 24.12.2019
2066 Clouds 6 1017 81 10000 5.7 230 01:26 24.12.2019
2067 Clouds 6 1017 81 10000 4.6 220 00:58 24.12.2019
2068 Clouds 6 1017 81 10000 4.1 210 00:40 24.12.2019
2069 Clouds 6 1016 81 10000 5.1 220 00:20 24.12.2019
2070 Rain 6 1016 81 10000 6.2 230 23:43 23.12.2019
2071 Rain 6 1016 81 10000 6.2 230 23:24 23.12.2019
2072 Rain 6 1016 81 10000 4.6 230 22:57 23.12.2019
2073 Rain 6 1016 81 10000 5.7 220 22:38 23.12.2019
2074 Rain 6 1016 81 10000 5.7 220 22:38 23.12.2019
2075 Rain 6 1015 81 10000 5.1 220 22:20 23.12.2019
2076 Rain 6 1015 81 10000 5.1 220 21:57 23.12.2019
2077 Clouds 6 1015 87 10000 5.1 220 21:37 23.12.2019
2078 Clouds 6 1014 81 10000 4.1 220 21:19 23.12.2019
2079 Clouds 6 1014 81 10000 4.1 220 20:59 23.12.2019
2080 Rain 6 1014 81 10000 5.1 220 20:41 23.12.2019
2081 Rain 6 1014 81 10000 5.1 220 20:19 23.12.2019
2082 Rain 6 1014 81 10000 5.1 220 19:59 23.12.2019
2083 Clouds 7 1014 81 10000 4.6 240 19:41 23.12.2019
2084 Clouds 7 1013 75 10000 6.7 220 19:22 23.12.2019
2085 Clouds 7 1013 75 10000 6.7 220 18:58 23.12.2019
2086 Clouds 7 1013 75 10000 6.7 220 18:58 23.12.2019
2087 Clouds 7 1013 75 10000 5.1 230 18:39 23.12.2019
2088 Clouds 7 1012 81 10000 5.7 230 18:21 23.12.2019
2089 Clouds 7 1012 81 10000 5.7 230 17:59 23.12.2019
2090 Clouds 7 1012 76 10000 4.1 220 17:41 23.12.2019
2091 Clouds 7 1011 76 10000 4.1 220 17:20 23.12.2019
2092 Clouds 8 1011 76 10000 5.7 240 16:59 23.12.2019
2093 Clouds 8 1011 76 10000 5.7 240 16:40 23.12.2019
2094 Rain 8 1010 76 10000 3.1 230 16:19 23.12.2019
2095 Rain 8 1010 76 10000 3.1 230 15:58 23.12.2019
2096 Rain 8 1010 76 10000 3.1 230 15:37 23.12.2019
2097 Rain 8 1009 76 10000 3.6 220 15:19 23.12.2019
2098 Rain 9 1009 81 10000 3.6 290 14:57 23.12.2019
2099 Rain 9 1009 76 10000 7.2 250 14:39 23.12.2019
2100 Rain 8 1009 66 10000 5.7 230 14:20 23.12.2019
2101 Rain 9 1009 66 10000 5.7 230 13:57 23.12.2019
2102 Rain 9 1008 71 10000 5.7 270 13:39 23.12.2019
2103 Rain 8 1008 66 10000 5.7 240 13:21 23.12.2019
2104 Rain 8 1008 66 10000 6.2 240 12:55 23.12.2019
2105 Rain 9 1008 66 10000 6.2 240 12:37 23.12.2019
2106 Rain 9 1007 70 10000 6.2 240 12:19 23.12.2019
2107 Rain 8 1007 76 10000 4.6 230 11:44 23.12.2019
2108 Rain 8 1007 76 10000 4.6 230 11:25 23.12.2019
2109 Rain 7 1007 76 10000 4.6 230 10:57 23.12.2019
2110 Rain 7 1006 81 10000 4.6 220 10:39 23.12.2019
2111 Rain 7 1006 93 10000 4.6 220 10:20 23.12.2019
2112 Rain 7 1005 87 10000 4.1 220 09:59 23.12.2019
2113 Rain 7 1005 87 10000 4.1 220 09:39 23.12.2019
2114 Drizzle 6 1005 87 10000 2.6 230 09:20 23.12.2019
2115 Rain 6 1005 87 10000 5.1 210 08:56 23.12.2019
2116 Clouds 6 1004 87 10000 3.6 250 08:38 23.12.2019
2117 Clouds 6 1004 81 10000 3.1 190 08:19 23.12.2019
2118 Rain 6 1003 87 10000 4.1 260 07:43 23.12.2019
2119 Clouds 6 1003 75 10000 3.6 200 07:20 23.12.2019
2120 Clouds 6 1002 81 10000 3.1 190 06:53 23.12.2019
2121 Clouds 6 1002 81 10000 3.6 200 06:25 23.12.2019
2122 Clouds 6 1001 81 10000 4.1 210 05:50 23.12.2019
2123 Clouds 6 1001 75 10000 8.2 230 05:27 23.12.2019
2124 Clouds 6 1001 81 10000 5.7 220 04:31 23.12.2019
2125 Clouds 7 999 75 10000 4.6 220 02:58 23.12.2019
2126 Clouds 7 999 75 10000 5.1 210 02:40 23.12.2019
2127 Clouds 7 998 75 10000 4.1 210 02:18 23.12.2019
2128 Clouds 7 997 75 10000 3.1 210 01:41 23.12.2019
2129 Clouds 7 997 75 10000 4.1 210 01:20 23.12.2019
2130 Clouds 7 997 75 10000 3.6 190 00:43 23.12.2019
2131 Clouds 7 996 75 10000 4.6 190 00:22 23.12.2019
2132 Clouds 7 996 75 10000 5.7 210 23:40 22.12.2019
2133 Clouds 7 995 75 10000 5.7 220 23:21 22.12.2019
2134 Clouds 7 994 70 10000 6.2 230 22:58 22.12.2019
2135 Clouds 7 994 70 10000 6.2 230 22:58 22.12.2019
2136 Clouds 7 994 70 10000 6.2 230 22:40 22.12.2019
2137 Clouds 7 994 75 10000 5.7 230 22:21 22.12.2019
2138 Rain 7 993 75 10000 6.2 230 21:58 22.12.2019
2139 Clouds 7 994 75 10000 5.7 230 21:58 22.12.2019
2140 Rain 7 993 75 10000 6.2 230 21:40 22.12.2019
2141 Rain 7 993 75 10000 7.2 230 21:21 22.12.2019
2142 Rain 7 992 81 10000 7.7 230 20:58 22.12.2019
2143 Rain 7 992 81 10000 7.7 230 20:39 22.12.2019
2144 Rain 7 992 93 10000 6.7 270 20:19 22.12.2019
2145 Rain 7 992 93 10000 6.7 270 20:19 22.12.2019
2146 Rain 7 992 93 10000 7.2 230 19:57 22.12.2019
2147 Rain 7 991 93 10000 6.2 220 19:38 22.12.2019
2148 Rain 7 991 87 10000 6.7 230 19:19 22.12.2019
2149 Rain 7 990 76 10000 7.2 220 18:42 22.12.2019
2150 Rain 8 989 76 10000 7.2 210 18:23 22.12.2019
2151 Rain 8 989 87 10000 6.7 250 17:56 22.12.2019
2152 Rain 8 989 87 10000 6.7 250 17:38 22.12.2019
2153 Clouds 8 988 76 10000 8.2 220 17:19 22.12.2019
2154 Clouds 8 988 76 10000 8.2 220 16:57 22.12.2019
2155 Clouds 8 988 76 10000 6.7 210 16:38 22.12.2019
2156 Clouds 8 987 87 10000 5.1 180 16:20 22.12.2019
2157 Clouds 8 987 87 10000 5.1 180 15:56 22.12.2019
2158 Clouds 8 987 87 10000 5.7 180 15:38 22.12.2019
2159 Clouds 9 987 87 10000 5.7 180 15:20 22.12.2019
2160 Clouds 9 987 87 10000 5.7 180 14:55 22.12.2019
2161 Clouds 9 987 87 10000 5.7 180 14:55 22.12.2019
2162 Clouds 8 987 87 10000 5.1 180 14:37 22.12.2019
2163 Clouds 8 986 87 10000 4.6 180 14:18 22.12.2019
2164 Clouds 8 986 87 10000 4.6 180 14:18 22.12.2019
2165 Clouds 8 986 87 10000 4.6 180 14:18 22.12.2019
2166 Clouds 8 986 87 10000 4.6 180 13:55 22.12.2019
2167 Clouds 8 986 87 10000 5.1 180 13:37 22.12.2019
2168 Clouds 8 987 87 10000 5.1 180 13:19 22.12.2019
2169 Clouds 8 986 87 10000 3.6 180 12:56 22.12.2019
2170 Clouds 8 986 87 10000 3.6 180 12:37 22.12.2019
2171 Rain 8 986 87 10000 4.1 180 12:19 22.12.2019
2172 Rain 7 986 87 10000 4.1 180 11:56 22.12.2019
2173 Rain 7 986 87 10000 4.1 180 11:38 22.12.2019
2174 Drizzle 7 987 100 10000 2.65 166 11:19 22.12.2019
2175 Rain 7 986 93 10000 0.5 0 10:55 22.12.2019
2176 Clouds 6 986 100 10000 1.5 100 10:37 22.12.2019
2177 Rain 6 986 100 10000 2.6 150 10:18 22.12.2019
2178 Clouds 6 986 100 10000 1 50 09:57 22.12.2019
2179 Rain 6 986 100 10000 1 0 09:39 22.12.2019
2180 Rain 6 986 100 10000 2.1 70 09:20 22.12.2019
2181 Clouds 5 986 100 10000 1.5 70 08:42 22.12.2019
2182 Clouds 6 986 100 10000 0.5 0 08:22 22.12.2019
2183 Clouds 5 985 100 10000 1 0 07:43 22.12.2019
2184 Clouds 5 985 100 10000 1 0 07:21 22.12.2019
2185 Clouds 5 985 100 10000 2.1 120 06:52 22.12.2019
2186 Clouds 5 985 100 10000 2.1 160 06:26 22.12.2019
2187 Clouds 5 985 100 10000 1 0 05:33 22.12.2019
2188 Rain 5 986 100 10000 1.5 350 04:46 22.12.2019
2189 Rain 5 986 100 10000 1 0 04:25 22.12.2019
2190 Rain 5 986 100 10000 3.6 100 02:46 22.12.2019
2191 Rain 5 986 100 10000 3.6 100 02:46 22.12.2019
2192 Rain 5 987 93 8000 1.5 80 02:23 22.12.2019
2193 Rain 5 987 100 10000 1 0 01:31 22.12.2019
2194 Clouds 5 987 93 10000 2.1 140 00:56 22.12.2019
2195 Rain 5 987 93 10000 2.1 80 00:56 22.12.2019
2196 Rain 4 987 93 10000 2.1 80 00:36 22.12.2019
2197 Rain 4 987 100 10000 1.5 80 00:18 22.12.2019
2198 Rain 4 987 100 10000 1.5 70 23:41 21.12.2019
2199 Clouds 4 987 93 10000 3.6 70 23:22 21.12.2019
2200 Clouds 4 988 93 10000 1.5 100 22:57 21.12.2019
2201 Clouds 4 988 93 10000 1.5 100 22:39 21.12.2019
2202 Clouds 4 988 93 10000 2.6 130 22:18 21.12.2019
2203 Clouds 4 988 93 10000 2.6 130 22:18 21.12.2019
2204 Clouds 5 989 93 10000 2.6 140 21:56 21.12.2019
2205 Clouds 5 989 93 10000 2.6 140 21:37 21.12.2019
2206 Clouds 5 989 100 10000 2.6 140 21:18 21.12.2019
2207 Clouds 5 989 100 10000 2.6 140 20:57 21.12.2019
2208 Clouds 5 990 93 10000 2.1 150 20:38 21.12.2019
2209 Clouds 5 990 93 10000 3.1 180 20:20 21.12.2019
2210 Clouds 6 990 93 10000 3.1 180 19:57 21.12.2019
2211 Clouds 6 990 93 10000 3.1 180 19:39 21.12.2019
2212 Clouds 6 991 93 10000 2.1 160 19:19 21.12.2019
2213 Clouds 6 991 93 10000 2.6 160 18:42 21.12.2019
2214 Clouds 6 992 100 10000 3.1 180 18:23 21.12.2019
2215 Rain 6 992 93 10000 5.1 180 17:57 21.12.2019
2216 Rain 6 992 93 10000 5.1 180 17:39 21.12.2019
2217 Rain 7 992 100 10000 2.6 200 17:21 21.12.2019
2218 Clouds 6 992 87 10000 4.1 170 16:58 21.12.2019
2219 Clouds 7 992 81 10000 3.6 160 16:39 21.12.2019
2220 Clouds 7 992 81 10000 4.1 170 16:18 21.12.2019
2221 Clouds 7 993 100 10000 4.1 170 15:56 21.12.2019
2222 Clouds 7 992 81 10000 3.1 170 15:38 21.12.2019
2223 Clouds 7 993 81 10000 3.6 170 15:19 21.12.2019
2224 Clouds 7 993 81 10000 3.6 170 14:54 21.12.2019
2225 Clouds 7 993 81 10000 3.6 170 14:54 21.12.2019
2226 Clouds 7 993 81 10000 2.6 180 14:36 21.12.2019
2227 Clouds 8 993 81 10000 3.1 160 14:18 21.12.2019
2228 Clouds 8 993 81 10000 3.1 160 13:54 21.12.2019
2229 Clouds 7 994 75 10000 2.6 170 13:36 21.12.2019
2230 Clouds 7 994 100 10000 1.5 140 13:18 21.12.2019
2231 Clouds 7 994 81 10000 2.6 180 12:54 21.12.2019
2232 Rain 7 994 87 10000 3.6 200 12:36 21.12.2019
2233 Rain 7 995 81 10000 2.1 190 12:18 21.12.2019
2234 Rain 6 995 100 10000 2.1 150 11:41 21.12.2019
2235 Rain 6 995 100 10000 2.1 150 11:41 21.12.2019
2236 Clouds 5 995 87 10000 1 0 11:23 21.12.2019
2237 Clouds 5 995 93 10000 1 0 10:54 21.12.2019
2238 Clouds 5 995 93 10000 1 0 10:36 21.12.2019
2239 Clouds 5 995 100 10000 1 0 10:18 21.12.2019
2240 Mist 4 995 100 8000 2.22 182 09:42 21.12.2019
2241 Mist 4 995 100 1600 2.1 130 09:20 21.12.2019
2242 Fog 4 995 100 10000 1 0 08:57 21.12.2019
2243 Fog 4 995 100 10000 0.5 0 08:37 21.12.2019
2244 Mist 4 995 100 1800 1.5 90 08:18 21.12.2019
2245 Mist 4 995 100 1200 1.5 130 07:41 21.12.2019
2246 Clouds 4 995 100 10000 1 220 07:22 21.12.2019
2247 Fog 4 995 100 600 2.1 70 06:44 21.12.2019
2248 Clouds 4 995 93 10000 2.6 180 06:25 21.12.2019
2249 Clouds 4 995 100 10000 4.1 180 05:49 21.12.2019
2250 Fog 5 995 100 400 1.5 120 04:58 21.12.2019
2251 Clouds 5 996 100 10000 1.85 216 03:57 21.12.2019
2252 Clouds 5 995 100 10000 4.1 190 02:52 21.12.2019
2253 Clouds 6 995 93 10000 3.6 190 01:59 21.12.2019
2254 Clouds 6 995 100 10000 1.5 160 01:28 21.12.2019
2255 Mist 6 995 100 3600 1.5 120 00:55 21.12.2019
2256 Mist 6 995 100 3600 1.5 120 00:37 21.12.2019
2257 Mist 6 994 100 4400 3.04 209 00:18 21.12.2019
2258 Clouds 6 994 93 10000 3.1 190 23:38 20.12.2019
2259 Mist 6 994 100 2600 3.6 214 23:19 20.12.2019
2260 Mist 6 994 100 2600 3.6 214 23:19 20.12.2019
2261 Clouds 7 993 93 10000 4.1 190 22:43 20.12.2019
2262 Clouds 7 993 93 10000 4.6 190 22:21 20.12.2019
2263 Clouds 7 993 93 10000 4.6 190 21:59 20.12.2019
2264 Clouds 7 993 93 10000 5.1 180 21:40 20.12.2019
2265 Clouds 7 993 100 10000 3.6 214 21:20 20.12.2019
2266 Clouds 7 992 93 10000 5.7 180 20:55 20.12.2019
2267 Clouds 7 992 93 10000 5.7 180 20:36 20.12.2019
2268 Rain 7 992 93 10000 5.7 180 20:18 20.12.2019
2269 Rain 7 992 100 10000 5.1 190 19:41 20.12.2019
2270 Rain 7 991 93 10000 4.6 170 19:20 20.12.2019
2271 Rain 7 991 93 10000 4.6 170 18:58 20.12.2019
2272 Rain 7 991 100 10000 4.6 160 18:38 20.12.2019
2273 Rain 7 991 100 3000 2.6 110 18:20 20.12.2019
2274 Rain 7 991 100 8000 3.69 203 17:54 20.12.2019
2275 Rain 7 991 100 8000 1.5 210 17:36 20.12.2019
2276 Rain 7 991 100 8000 1.5 210 17:18 20.12.2019
2277 Rain 6 991 100 3600 5.5 208 16:40 20.12.2019
2278 Rain 6 990 100 3600 2.6 250 16:20 20.12.2019
2279 Rain 6 990 100 10000 3.6 20 15:57 20.12.2019
2280 Rain 6 990 100 10000 4.1 40 15:39 20.12.2019
2281 Rain 6 990 100 10000 4.1 40 15:20 20.12.2019
2282 Rain 6 990 93 10000 4.6 50 14:59 20.12.2019
2283 Rain 6 990 93 10000 4.6 50 14:59 20.12.2019
2284 Rain 6 990 93 10000 4.6 50 14:40 20.12.2019
2285 Rain 6 991 93 10000 3.6 50 14:22 20.12.2019
2286 Rain 5 991 93 8000 5.7 70 13:56 20.12.2019
2287 Rain 5 992 93 5000 5.1 90 13:37 20.12.2019
2288 Rain 5 992 93 5000 5.1 90 13:18 20.12.2019
2289 Rain 5 994 93 5000 2.1 120 12:55 20.12.2019
2290 Rain 5 994 93 10000 2.1 140 12:36 20.12.2019
2291 Rain 5 994 93 10000 2.1 140 12:18 20.12.2019
2292 Rain 5 994 87 10000 1 0 11:56 20.12.2019
2293 Rain 5 995 87 10000 1 0 11:37 20.12.2019
2294 Clouds 5 995 87 10000 1 0 11:18 20.12.2019
2295 Clouds 5 994 81 10000 2.1 40 10:54 20.12.2019
2296 Clouds 4 993 81 10000 4.6 20 10:36 20.12.2019
2297 Clouds 4 993 81 10000 4.6 20 10:18 20.12.2019
2298 Clouds 4 993 86 10000 5.1 50 09:41 20.12.2019
2299 Clouds 4 993 86 10000 6.2 50 09:21 20.12.2019
2300 Clouds 4 994 86 10000 6.7 50 08:44 20.12.2019
2301 Clouds 3 995 93 10000 4.6 30 08:26 20.12.2019
2302 Clouds 2 995 93 10000 3.1 30 07:59 20.12.2019
2303 Clouds 2 996 93 10000 2.6 30 07:41 20.12.2019
2304 Clouds 2 996 93 10000 2.6 30 07:20 20.12.2019
2305 Clouds 2 997 93 10000 2.1 40 06:52 20.12.2019
2306 Clouds 2 997 100 10000 1.5 10 06:33 20.12.2019
2307 Clouds 2 998 93 10000 2.1 20 05:56 20.12.2019
2308 Mist 2 998 100 6000 2.8 65 05:38 20.12.2019
2309 Fog 2 999 100 8000 0.5 0 04:46 20.12.2019
2310 Clear 3 1002 93 10000 2.6 10 03:33 20.12.2019
2311 Clear 3 1003 100 10000 3.1 360 02:45 20.12.2019
2312 Clouds 3 1003 100 10000 4.1 60 01:55 20.12.2019
2313 Clouds 3 1004 100 10000 3.1 80 01:35 20.12.2019
2314 Clouds 2 1005 100 10000 1 0 00:53 20.12.2019
2315 Clouds 3 1005 93 10000 2.1 50 00:34 20.12.2019
2316 Clouds 3 1005 93 10000 2.1 30 23:57 19.12.2019
2317 Clouds 3 1005 87 10000 3.1 10 23:38 19.12.2019
2318 Clouds 3 1005 87 10000 3.1 10 23:38 19.12.2019
2319 Clouds 4 1005 87 10000 3.1 10 23:19 19.12.2019
2320 Clear 4 1006 100 10000 0.96 50 23:19 19.12.2019
2321 Fog 4 1006 100 10000 1 0 22:38 19.12.2019
2322 Fog 4 1006 100 10000 1 0 22:20 19.12.2019
2323 Fog 4 1007 93 10000 1.5 0 21:56 19.12.2019
2324 Fog 4 1007 93 10000 1.5 0 21:56 19.12.2019
2325 Fog 4 1008 100 10000 1 0 21:38 19.12.2019
2326 Fog 4 1008 100 10000 1 0 21:19 19.12.2019
2327 Fog 4 1008 100 10000 2.1 80 20:56 19.12.2019
2328 Mist 5 1008 100 9000 2.6 320 20:37 19.12.2019
2329 Fog 5 1009 100 10000 1 0 20:19 19.12.2019
2330 Mist 5 1009 100 2000 0.71 68 19:58 19.12.2019
2331 Mist 5 1009 100 2000 0.71 68 19:39 19.12.2019
2332 Fog 5 1010 93 10000 1 0 19:19 19.12.2019
2333 Fog 5 1010 100 800 3.6 250 18:57 19.12.2019
2334 Fog 5 1010 100 800 3.6 250 18:39 19.12.2019
2335 Rain 5 1010 100 600 1.5 100 18:19 19.12.2019
2336 Mist 6 1010 100 1400 2.1 120 17:55 19.12.2019
2337 Mist 6 1010 100 1400 2.1 120 17:37 19.12.2019
2338 Mist 6 1011 100 2800 1 0 17:18 19.12.2019
2339 Mist 6 1011 100 6000 0.74 108 16:55 19.12.2019
2340 Mist 6 1011 93 3600 1.5 200 16:37 19.12.2019
2341 Mist 6 1011 93 3600 1.5 200 16:19 19.12.2019
2342 Fog 6 1012 100 400 0.74 108 15:56 19.12.2019
2343 Fog 6 1012 100 400 0.74 108 15:37 19.12.2019
2344 Mist 7 1012 100 3600 1.5 180 15:18 19.12.2019
2345 Mist 7 1012 100 3600 1.5 180 15:18 19.12.2019
2346 Fog 7 1012 81 10000 2.1 70 14:43 19.12.2019
2347 Clouds 7 1012 81 10000 4.1 80 14:20 19.12.2019
2348 Clouds 7 1012 81 10000 3.6 60 13:59 19.12.2019
2349 Clouds 7 1012 87 10000 3.6 20 13:38 19.12.2019
2350 Clouds 7 1012 87 10000 3.6 20 13:19 19.12.2019
2351 Clouds 7 1013 87 10000 3.1 360 12:57 19.12.2019
2352 Clouds 7 1014 87 10000 4.6 60 12:39 19.12.2019
2353 Clouds 7 1014 87 10000 4.6 60 12:19 19.12.2019
2354 Clouds 7 1014 93 10000 3.1 20 11:58 19.12.2019
2355 Clouds 6 1014 100 10000 1.5 100 11:40 19.12.2019
2356 Fog 5 1015 100 400 1.11 76 11:18 19.12.2019
2357 Clear 5 1015 100 10000 2.6 70 10:58 19.12.2019
2358 Clear 5 1015 93 10000 3.1 70 10:38 19.12.2019
2359 Clear 4 1015 93 10000 3.1 70 10:20 19.12.2019
2360 Clear 5 1015 93 10000 3.6 70 09:55 19.12.2019
2361 Fog 4 1016 100 10000 0.5 0 09:37 19.12.2019
2362 Fog 4 1016 100 10000 0.5 0 09:18 19.12.2019
2363 Fog 4 1016 100 200 1.11 76 08:42 19.12.2019
2364 Clear 4 1016 100 10000 1 0 08:20 19.12.2019
2365 Clear 3 1016 100 10000 1 0 08:20 19.12.2019
2366 Mist 3 1016 100 1600 2.1 260 07:59 19.12.2019
2367 Mist 3 1016 100 1600 2.1 260 07:40 19.12.2019
2368 Clear 3 1016 100 10000 2.1 30 07:22 19.12.2019
2369 Clear 4 1016 100 10000 3.1 10 06:54 19.12.2019
2370 Clear 4 1016 100 10000 2.6 10 06:36 19.12.2019
2371 Clear 4 1016 100 10000 2.6 10 06:18 19.12.2019
2372 Mist 4 1016 100 8000 1.01 40 05:42 19.12.2019
2373 Mist 4 1016 100 3200 0.96 40 05:18 19.12.2019
2374 Clear 4 1017 100 10000 3.1 10 03:51 19.12.2019
2375 Clear 4 1017 93 10000 1.5 30 02:28 19.12.2019
2376 Clear 5 1017 93 10000 1.5 40 01:24 19.12.2019
2377 Clear 5 1018 100 10000 1 0 00:57 19.12.2019
2378 Clear 5 1018 100 10000 1 0 00:38 19.12.2019
2379 Clear 5 1018 100 10000 1 0 00:19 19.12.2019
2380 Clear 5 1018 100 10000 1 0 00:19 19.12.2019
2381 Clear 5 1018 93 10000 1 0 23:44 18.12.2019
2382 Clear 5 1018 93 10000 3.1 10 23:19 18.12.2019
2383 Clear 6 1018 100 10000 3.1 10 22:56 18.12.2019
2384 Clear 6 1018 93 10000 2.1 20 22:38 18.12.2019
2385 Clear 6 1018 93 10000 2.1 20 22:20 18.12.2019
2386 Clear 6 1018 93 10000 2.1 50 21:58 18.12.2019
2387 Clouds 6 1018 93 10000 2.6 20 21:40 18.12.2019
2388 Clouds 6 1018 93 10000 2.6 20 21:20 18.12.2019
2389 Clouds 6 1018 93 10000 2.1 30 20:57 18.12.2019
2390 Clouds 6 1018 87 10000 2.6 70 20:38 18.12.2019
2391 Clouds 6 1018 87 10000 2.6 70 20:20 18.12.2019
2392 Clouds 6 1019 87 10000 3.1 360 19:57 18.12.2019
2393 Clouds 6 1019 93 10000 2.6 70 19:39 18.12.2019
2394 Clouds 6 1019 93 10000 2.6 70 19:19 18.12.2019
2395 Clouds 7 1019 87 10000 3.1 70 18:56 18.12.2019
2396 Clouds 7 1019 93 10000 2.1 90 18:37 18.12.2019
2397 Clouds 7 1019 93 10000 2.1 90 18:18 18.12.2019
2398 Clouds 7 1019 93 10000 1.5 60 17:55 18.12.2019
2399 Clouds 7 1019 93 10000 0.5 0 17:37 18.12.2019
2400 Clouds 7 1019 93 10000 0.5 0 17:37 18.12.2019
2401 Clouds 7 1019 93 10000 0.5 0 17:18 18.12.2019
2402 Clouds 8 1019 93 10000 1 0 16:42 18.12.2019
2403 Clouds 9 1018 87 10000 0.5 200 16:24 18.12.2019
2404 Clouds 9 1018 87 10000 0.5 200 15:59 18.12.2019
2405 Clouds 10 1018 76 10000 0.5 0 15:39 18.12.2019
2406 Clouds 10 1018 76 10000 1 0 15:21 18.12.2019
2407 Clouds 10 1018 76 10000 1 0 14:58 18.12.2019
2408 Clouds 10 1018 76 10000 3.1 280 14:40 18.12.2019
2409 Clouds 10 1018 76 10000 2.1 270 14:19 18.12.2019
2410 Clouds 10 1018 76 10000 2.1 270 13:56 18.12.2019
2411 Clouds 10 1018 76 10000 2.1 270 13:56 18.12.2019
2412 Clouds 10 1018 76 10000 2.6 250 13:37 18.12.2019
2413 Clouds 10 1018 81 10000 2.1 240 13:19 18.12.2019
2414 Clouds 10 1018 76 10000 2.6 230 12:57 18.12.2019
2415 Clouds 10 1018 76 10000 2.6 230 12:37 18.12.2019
2416 Clouds 10 1018 76 10000 2.1 230 12:19 18.12.2019
2417 -273 0 0 0 0 0 11:54 18.12.2019
2418 Clouds 9 1018 76 10000 2.1 250 11:36 18.12.2019
2419 Clouds 9 1018 87 10000 1.5 220 11:18 18.12.2019
2420 Clouds 9 1017 87 10000 2.1 240 10:55 18.12.2019
2421 Clouds 9 1017 87 10000 2.1 240 10:36 18.12.2019
2422 Clouds 9 1017 87 10000 2.6 220 10:18 18.12.2019
2423 Clouds 8 1016 87 10000 2.1 190 09:21 18.12.2019
2424 Clouds 8 1016 87 10000 2.1 190 08:57 18.12.2019
2425 Clouds 8 1016 87 10000 1.5 180 08:39 18.12.2019
2426 Clouds 9 1015 93 10000 1 0 08:21 18.12.2019
2427 Clouds 9 1015 87 10000 2.6 210 07:43 18.12.2019
2428 Clouds 9 1014 81 10000 2.1 240 07:22 18.12.2019
2429 Clouds 9 1014 87 10000 3.6 200 06:53 18.12.2019
2430 Rain 9 1014 87 10000 3.1 220 06:26 18.12.2019
2431 Clouds 10 1013 81 10000 4.1 210 05:43 18.12.2019
2432 Rain 10 1012 81 10000 4.6 210 04:46 18.12.2019
2433 Rain 10 1011 81 10000 5.1 200 02:51 18.12.2019
2434 Rain 10 1011 81 10000 5.1 200 02:31 18.12.2019
2435 Rain 10 1010 87 10000 3.1 200 01:57 18.12.2019
2436 Rain 10 1010 87 10000 3.1 200 01:37 18.12.2019
2437 Rain 10 1010 87 10000 4.1 230 01:19 18.12.2019
2438 Clouds 10 1009 81 10000 3.1 190 00:40 18.12.2019
2439 Clouds 10 1009 81 10000 5.7 240 00:21 18.12.2019
2440 Clouds 10 1009 81 10000 2.1 310 23:54 17.12.2019
2441 Clouds 10 1009 81 10000 2.1 310 23:36 17.12.2019
2442 Clouds 10 1007 81 10000 2.6 220 23:18 17.12.2019
2443 Clouds 10 1007 81 10000 2.6 220 23:18 17.12.2019
2444 Clouds 10 1007 81 10000 2.6 220 22:55 17.12.2019
2445 Rain 9 1007 81 10000 2.6 190 22:37 17.12.2019
2446 Rain 9 1007 87 10000 1.5 150 22:18 17.12.2019
2447 Clouds 9 1007 93 10000 1.5 210 21:55 17.12.2019
2448 Clouds 9 1007 93 10000 1.5 210 21:55 17.12.2019
2449 Clouds 9 1007 93 10000 1.5 210 21:37 17.12.2019
2450 Clouds 9 1007 93 10000 1 0 21:18 17.12.2019
2451 Clouds 9 1007 93 10000 1 0 20:55 17.12.2019
2452 Clouds 9 1007 93 10000 0.5 0 20:37 17.12.2019
2453 Clouds 9 1007 87 10000 2.1 80 20:18 17.12.2019
2454 Clouds 9 1007 87 10000 0.5 0 19:54 17.12.2019
2455 Clouds 9 1007 87 10000 0.5 0 19:36 17.12.2019
2456 Clouds 10 1007 87 10000 1.5 150 19:18 17.12.2019
2457 Rain 10 1007 87 10000 1.5 180 18:41 17.12.2019
2458 Clouds 10 1007 81 10000 1.5 260 18:21 17.12.2019
2459 Rain 10 1007 81 10000 1 0 17:58 17.12.2019
2460 Rain 10 1007 81 10000 1 0 17:40 17.12.2019
2461 Clouds 10 1007 87 10000 1 0 17:19 17.12.2019
2462 Clouds 10 1007 87 10000 1 0 16:56 17.12.2019
2463 Clouds 10 1007 87 10000 1 0 16:37 17.12.2019
2464 Clouds 10 1007 87 10000 2.1 250 16:19 17.12.2019
2465 Clouds 11 1007 87 10000 2.1 250 15:56 17.12.2019
2466 Rain 11 1006 87 10000 0.5 0 15:37 17.12.2019
2467 Clouds 11 1006 76 10000 0.5 0 15:18 17.12.2019
2468 Clouds 11 1006 81 10000 1 0 14:55 17.12.2019
2469 Clouds 11 1006 81 10000 1 0 14:36 17.12.2019
2470 Clouds 12 1006 66 10000 1.5 200 14:18 17.12.2019
2471 Clouds 12 1006 66 10000 1.5 200 13:55 17.12.2019
2472 Clouds 12 1006 66 10000 1.5 200 13:55 17.12.2019
2473 Clouds 12 1006 71 10000 2.1 200 13:37 17.12.2019
2474 Clouds 12 1006 71 10000 2.1 210 13:18 17.12.2019
2475 Clouds 11 1006 71 10000 2.6 200 12:41 17.12.2019
2476 Clouds 11 1007 71 10000 1.5 170 12:19 17.12.2019
2477 Clouds 11 1007 71 10000 1.5 170 12:19 17.12.2019
2478 Clouds 10 1007 76 10000 1 0 11:59 17.12.2019
2479 Clouds 10 1007 76 10000 1 0 11:59 17.12.2019
2480 -273 0 0 0 0 0 11:38 17.12.2019
2481 Clouds 9 1006 81 10000 1.5 90 11:19 17.12.2019
2482 Clouds 9 1006 100 10000 0.5 0 10:59 17.12.2019
2483 Clouds 8 1006 100 10000 0.5 0 10:41 17.12.2019
2484 Clouds 8 1006 100 10000 1 0 10:23 17.12.2019
2485 Clouds 8 1006 100 10000 1 0 09:59 17.12.2019
2486 Clouds 7 1006 100 10000 1 0 09:59 17.12.2019
2487 Clouds 7 1006 100 10000 1 0 09:41 17.12.2019
2488 Clouds 7 1006 93 10000 0.5 0 09:20 17.12.2019
2489 Clouds 7 1006 100 10000 0.5 0 08:56 17.12.2019
2490 Clouds 7 1006 100 10000 0.5 0 08:38 17.12.2019
2491 Clouds 7 1006 100 10000 0.5 0 08:38 17.12.2019
2492 Clouds 7 1006 100 10000 0.5 0 08:38 17.12.2019
2493 Clouds 7 1006 100 10000 1 0 08:20 17.12.2019
2494 Clouds 7 1005 100 10000 1 0 07:55 17.12.2019
2495 Clouds 7 1005 100 10000 1 0 07:36 17.12.2019
2496 Clouds 7 1005 100 10000 1 0 07:18 17.12.2019
2497 Clouds 7 1005 100 10000 0.5 0 06:35 17.12.2019
2498 Clouds 7 1005 100 10000 1.5 60 05:57 17.12.2019
2499 Clouds 7 1005 100 10000 1.5 60 05:38 17.12.2019
2500 Rain 7 1005 100 10000 1.5 140 04:45 17.12.2019
2501 Clouds 7 1005 100 10000 1 0 02:47 17.12.2019
2502 Rain 7 1004 93 10000 2.6 0 01:56 17.12.2019
2503 Clouds 7 1004 93 10000 2.1 20 01:20 17.12.2019
2504 Clouds 7 1004 100 10000 0.5 0 00:38 17.12.2019
2505 Clouds 7 1005 93 10000 1.5 80 00:20 17.12.2019
2506 Clouds 7 1005 93 10000 1.5 20 23:43 16.12.2019
2507 Fog 7 1005 100 10000 0.5 0 23:19 16.12.2019
2508 Fog 7 1005 100 10000 0.5 0 22:58 16.12.2019
2509 Fog 7 1005 100 10000 0.5 0 22:38 16.12.2019
2510 Fog 7 1005 100 10000 1 0 22:20 16.12.2019
2511 Fog 7 1005 100 10000 0.5 0 21:57 16.12.2019
2512 Fog 7 1005 100 10000 0.5 0 21:39 16.12.2019
2513 Fog 7 1005 100 10000 1 0 21:20 16.12.2019
2514 Fog 7 1005 100 10000 1 0 20:58 16.12.2019
2515 Fog 7 1006 100 10000 1 0 20:39 16.12.2019
2516 Fog 8 1006 100 10000 1.5 80 20:19 16.12.2019
2517 Fog 8 1006 100 10000 1.5 80 20:19 16.12.2019
2518 Fog 8 1006 100 10000 0.5 0 19:57 16.12.2019
2519 Fog 8 1006 100 10000 0.5 0 19:37 16.12.2019
2520 Clouds 8 1006 100 10000 1 0 19:19 16.12.2019
2521 Fog 8 1006 100 10000 1.5 80 18:59 16.12.2019
2522 Fog 8 1006 100 10000 1.5 80 18:41 16.12.2019
2523 Fog 8 1006 100 10000 1 80 18:20 16.12.2019
2524 Fog 8 1006 100 10000 0.5 0 17:59 16.12.2019
2525 Fog 9 1006 100 10000 0.5 0 17:40 16.12.2019
2526 Fog 9 1007 100 10000 0.5 0 17:21 16.12.2019
2527 Fog 9 1007 100 10000 0.5 0 16:57 16.12.2019
2528 Fog 9 1007 100 10000 0.5 0 16:39 16.12.2019
2529 Clouds 10 1007 100 10000 1 0 16:20 16.12.2019
2530 Clouds 10 1007 93 10000 1.5 290 15:59 16.12.2019
2531 Clouds 10 1007 93 10000 1.5 290 15:39 16.12.2019
2532 Clouds 10 1007 93 10000 1.5 200 15:21 16.12.2019
2533 Clouds 10 1007 93 10000 1.5 200 14:58 16.12.2019
2534 Clouds 10 1007 93 10000 0.5 0 14:38 16.12.2019
2535 Clouds 10 1007 93 10000 1 0 14:20 16.12.2019
2536 Clouds 10 1007 93 10000 1 0 13:58 16.12.2019
2537 Clouds 10 1007 93 10000 0.5 0 13:38 16.12.2019
2538 Clouds 10 1008 93 10000 1 0 13:20 16.12.2019
2539 Clouds 10 1008 100 10000 1.5 270 12:58 16.12.2019
2540 Clouds 9 1008 100 10000 1.5 270 12:40 16.12.2019
2541 Clouds 9 1008 87 10000 0.5 0 12:20 16.12.2019
2542 Clouds 9 1008 93 10000 0.5 0 11:59 16.12.2019
2543 Clouds 9 1008 93 10000 0.5 0 11:41 16.12.2019
2544 Clouds 9 1009 93 10000 0.5 0 11:21 16.12.2019
2545 Clouds 8 1009 100 10000 2.33 186 10:59 16.12.2019
2546 Clouds 8 1009 100 10000 2.2 173 10:40 16.12.2019
2547 Clouds 8 1009 100 10000 0.5 0 10:40 16.12.2019
2548 Clouds 8 1009 93 10000 0.5 0 10:21 16.12.2019
2549 Rain 8 1009 100 10000 1 170 09:47 16.12.2019
2550 Rain 7 1009 100 9000 1.5 110 09:29 16.12.2019
2551 Rain 7 1009 100 10000 2.33 186 08:58 16.12.2019
2552 Rain 7 1009 100 10000 2.2 173 08:38 16.12.2019
2553 Rain 7 1009 100 10000 1 0 08:19 16.12.2019
2554 Rain 7 1008 100 10000 0.5 0 07:51 16.12.2019
2555 Rain 7 1008 100 10000 0.5 0 07:31 16.12.2019
2556 Clouds 7 1008 100 10000 1.5 70 07:31 16.12.2019
2557 Mist 7 1009 100 1800 1.5 100 06:48 16.12.2019
2558 Mist 7 1009 100 3200 1.5 110 06:27 16.12.2019
2559 Mist 7 1009 100 9000 2.52 195 05:58 16.12.2019
2560 Rain 7 1009 100 10000 1 110 05:39 16.12.2019
2561 Rain 7 1009 100 6000 1.5 50 05:21 16.12.2019
2562 Clouds 7 1010 93 10000 2.1 150 02:59 16.12.2019
2563 Rain 6 1010 93 10000 2.1 200 01:45 16.12.2019
2564 Rain 6 1010 93 10000 2.6 180 00:56 16.12.2019
2565 Rain 6 1010 87 10000 4.6 170 00:38 16.12.2019
2566 Rain 6 1010 81 10000 3.1 180 00:19 16.12.2019
2567 Clouds 6 1010 81 10000 3.6 180 23:43 15.12.2019
2568 Clouds 6 1010 81 10000 4.6 180 23:25 15.12.2019
2569 Clouds 6 1010 81 10000 4.1 180 22:57 15.12.2019
2570 Clouds 6 1010 81 10000 4.1 180 22:38 15.12.2019
2571 Clouds 6 1010 81 10000 4.1 190 22:19 15.12.2019
2572 Clouds 6 1010 81 10000 5.1 190 21:58 15.12.2019
2573 Clouds 6 1010 81 10000 5.1 190 21:38 15.12.2019
2574 Clouds 6 1009 81 10000 4.6 200 21:20 15.12.2019
2575 Clouds 6 1009 81 10000 4.6 200 20:58 15.12.2019
2576 Clouds 6 1009 87 10000 3.1 220 20:40 15.12.2019
2577 Clouds 7 1009 87 10000 3.1 220 20:21 15.12.2019
2578 Clouds 7 1009 87 10000 3.1 220 20:21 15.12.2019
2579 Clouds 6 1009 81 10000 5.1 210 19:58 15.12.2019
2580 Clouds 7 1009 81 10000 5.1 210 19:40 15.12.2019
2581 Clouds 7 1008 81 10000 5.1 200 19:20 15.12.2019
2582 Clouds 7 1008 75 10000 4.6 200 18:58 15.12.2019
2583 Clouds 7 1008 75 10000 4.6 200 18:39 15.12.2019
2584 Clouds 7 1008 75 10000 4.1 210 18:19 15.12.2019
2585 Clouds 7 1007 81 10000 3.6 200 17:57 15.12.2019
2586 Clouds 7 1007 81 10000 3.6 200 17:38 15.12.2019
2587 Clouds 7 1007 81 10000 3.6 200 17:38 15.12.2019
2588 Clouds 8 1007 76 10000 4.6 210 17:19 15.12.2019
2589 Clouds 8 1007 81 10000 4.1 210 16:58 15.12.2019
2590 Clouds 8 1007 81 10000 4.1 210 16:39 15.12.2019
2591 Clouds 8 1006 76 10000 4.6 220 16:21 15.12.2019
2592 Rain 8 1006 76 10000 3.1 200 15:56 15.12.2019
2593 Rain 9 1006 76 10000 3.1 200 15:38 15.12.2019
2594 Rain 9 1006 71 10000 2.6 190 15:19 15.12.2019
2595 Clouds 9 1005 66 10000 4.1 220 14:56 15.12.2019
2596 Clouds 9 1005 66 10000 4.1 220 14:37 15.12.2019
2597 Clouds 9 1005 71 10000 4.6 230 14:18 15.12.2019
2598 Clouds 9 1004 76 10000 4.1 220 13:58 15.12.2019
2599 Clouds 9 1004 76 10000 4.1 220 13:38 15.12.2019
2600 Clouds 9 1004 76 10000 5.1 240 13:19 15.12.2019
2601 Clouds 9 1004 76 10000 5.1 240 12:57 15.12.2019
2602 Clouds 9 1004 81 10000 3.6 210 12:39 15.12.2019
2603 Clouds 9 1004 81 10000 3.6 210 12:39 15.12.2019
2604 Clouds 9 1003 81 10000 4.1 220 12:20 15.12.2019
2605 Rain 9 1003 81 10000 4.1 220 11:56 15.12.2019
2606 Rain 9 1003 87 10000 5.1 250 11:37 15.12.2019
2607 Rain 9 1002 87 10000 5.7 260 11:18 15.12.2019
2608 Rain 9 1001 81 10000 4.6 230 10:55 15.12.2019
2609 Rain 9 1001 81 10000 4.6 230 10:37 15.12.2019
2610 Rain 9 1001 87 10000 5.7 270 10:19 15.12.2019
2611 Clouds 9 1000 87 10000 5.7 190 09:41 15.12.2019
2612 Clouds 9 1000 93 10000 4.6 260 09:20 15.12.2019
2613 Clouds 9 999 87 10000 5.7 190 08:59 15.12.2019
2614 Clouds 9 999 87 10000 5.7 180 08:41 15.12.2019
2615 Clouds 9 999 93 10000 5.1 190 08:22 15.12.2019
2616 Clouds 8 999 93 10000 5.1 190 07:56 15.12.2019
2617 Rain 8 999 93 10000 5.1 190 07:35 15.12.2019
2618 Rain 8 998 93 10000 6.2 180 06:56 15.12.2019
2619 Rain 7 998 100 10000 2.1 150 06:21 15.12.2019
2620 Rain 7 999 100 10000 3.1 190 05:37 15.12.2019
2621 Rain 7 999 100 10000 3.1 190 05:18 15.12.2019
2622 Rain 6 1000 93 10000 3.6 170 03:54 15.12.2019
2623 Rain 6 1000 87 10000 2.6 150 02:34 15.12.2019
2624 Rain 6 1001 81 10000 3.1 170 01:55 15.12.2019
2625 Clouds 6 1002 81 10000 3.1 180 01:37 15.12.2019
2626 Clouds 6 1003 81 10000 3.6 170 01:18 15.12.2019
2627 Clouds 6 1003 81 10000 3.6 160 00:42 15.12.2019
2628 Clouds 6 1003 81 10000 3.6 150 00:23 15.12.2019
2629 Clouds 6 1003 81 10000 4.1 170 23:40 14.12.2019
2630 Clouds 6 1003 75 10000 5.1 190 23:22 14.12.2019
2631 Clouds 6 1003 70 10000 5.1 200 22:59 14.12.2019
2632 Clouds 6 1003 70 10000 5.1 200 22:41 14.12.2019
2633 Clouds 6 1003 70 10000 7.7 230 22:22 14.12.2019
2634 Clouds 6 1003 70 10000 7.7 230 21:56 14.12.2019
2635 Clouds 6 1003 70 10000 6.2 230 21:38 14.12.2019
2636 Clouds 6 1002 70 10000 5.1 250 21:19 14.12.2019
2637 Clouds 7 1001 70 10000 6.7 240 20:57 14.12.2019
2638 Clouds 7 1001 70 10000 6.7 240 20:39 14.12.2019
2639 Clouds 7 1001 70 10000 9.3 230 20:20 14.12.2019
2640 Clouds 7 1001 70 10000 9.3 230 19:57 14.12.2019
2641 Clouds 7 1000 70 10000 8.7 220 19:37 14.12.2019
2642 Rain 7 1000 75 10000 8.7 260 19:19 14.12.2019
2643 Clouds 7 999 70 10000 9.3 220 18:56 14.12.2019
2644 Clouds 7 999 70 10000 9.3 220 18:37 14.12.2019
2645 Clouds 7 999 70 10000 8.2 210 18:19 14.12.2019
2646 Clouds 7 999 75 10000 8.7 250 17:44 14.12.2019
2647 Clouds 7 999 75 10000 8.2 260 17:24 14.12.2019
2648 Rain 7 999 75 10000 11.3 240 16:58 14.12.2019
2649 Rain 7 999 75 10000 11.3 240 16:39 14.12.2019
2650 Rain 7 998 75 10000 7.2 260 16:19 14.12.2019
2651 Rain 7 998 75 10000 7.2 260 16:19 14.12.2019
2652 Clouds 7 998 66 10000 10.8 230 15:43 14.12.2019
2653 Clouds 7 998 61 10000 8.2 230 15:22 14.12.2019
2654 Clouds 7 997 57 10000 9.3 250 14:59 14.12.2019
2655 Clouds 7 997 57 10000 9.3 250 14:39 14.12.2019
2656 Clouds 8 997 65 10000 9.8 240 14:20 14.12.2019
2657 Clouds 8 997 65 10000 9.8 240 13:57 14.12.2019
2658 Clouds 7 996 65 10000 10.8 250 13:39 14.12.2019
2659 Rain 7 995 65 10000 10.8 250 13:19 14.12.2019
2660 Rain 7 995 75 10000 11.3 240 12:55 14.12.2019
2661 Rain 6 995 75 10000 11.3 240 12:37 14.12.2019
2662 Rain 6 995 75 10000 11.8 240 12:18 14.12.2019
2663 Rain 7 994 75 10000 7.7 260 11:55 14.12.2019
2664 Clouds 7 994 70 10000 7.2 240 11:37 14.12.2019
2665 Clouds 7 993 65 10000 9.8 250 11:18 14.12.2019
2666 Rain 7 993 65 10000 7.7 250 10:55 14.12.2019
2667 Rain 7 993 65 10000 7.7 250 10:37 14.12.2019
2668 Rain 7 991 70 10000 10.3 260 10:19 14.12.2019
2669 Rain 7 990 75 10000 11.8 260 09:41 14.12.2019
2670 Rain 6 989 100 10000 11.3 290 09:21 14.12.2019
2671 Rain 5 987 100 10000 2.1 260 08:56 14.12.2019
2672 Rain 5 986 93 10000 7.7 200 08:37 14.12.2019
2673 Rain 5 985 93 10000 6.7 200 08:18 14.12.2019
2674 Rain 4 985 93 10000 6.2 200 07:40 14.12.2019
2675 Rain 4 985 100 10000 5.7 200 07:19 14.12.2019
2676 Rain 4 985 93 10000 3.1 190 06:42 14.12.2019
2677 Rain 3 985 93 10000 6.7 190 06:22 14.12.2019
2678 Rain 3 986 93 8000 7.2 190 05:35 14.12.2019
2679 Rain 5 988 75 10000 5.7 200 03:44 14.12.2019
2680 Rain 5 989 75 10000 6.7 200 02:23 14.12.2019
2681 Clouds 5 990 86 10000 5.1 220 01:44 14.12.2019
2682 Clouds 5 990 86 10000 6.2 240 01:20 14.12.2019
2683 Rain 5 990 75 10000 6.2 200 00:41 14.12.2019
2684 Clouds 5 990 86 10000 6.2 240 00:20 14.12.2019
2685 Clouds 5 989 80 10000 5.1 200 23:41 13.12.2019
2686 Clouds 5 989 75 10000 4.6 200 23:20 13.12.2019
2687 Clouds 5 989 75 10000 4.6 200 22:57 13.12.2019
2688 Clouds 5 989 81 10000 6.2 230 22:38 13.12.2019
2689 Clouds 5 988 81 10000 6.2 280 22:18 13.12.2019
2690 Clouds 5 988 81 10000 4.6 220 21:46 13.12.2019
2691 Clouds 4 987 81 10000 3.6 200 21:22 13.12.2019
2692 Clouds 4 987 81 10000 3.6 200 20:59 13.12.2019
2693 Rain 4 986 81 10000 4.6 220 20:40 13.12.2019
2694 Rain 4 986 81 10000 4.6 220 20:40 13.12.2019
2695 Rain 4 986 86 10000 5.1 280 20:21 13.12.2019
2696 Rain 4 985 86 10000 7.2 240 19:57 13.12.2019
2697 Rain 4 985 93 10000 5.7 280 19:39 13.12.2019
2698 Rain 4 984 86 10000 6.2 240 19:20 13.12.2019
2699 Rain 4 983 86 10000 5.7 230 18:56 13.12.2019
2700 Rain 4 982 86 10000 7.2 220 18:38 13.12.2019
2701 Rain 4 982 86 10000 7.2 220 18:18 13.12.2019
2702 Rain 4 982 81 10000 8.2 220 17:41 13.12.2019
2703 Rain 4 981 81 10000 8.7 210 17:19 13.12.2019
2704 Rain 4 980 81 10000 7.7 220 16:58 13.12.2019
2705 Clouds 4 980 87 10000 6.7 220 16:39 13.12.2019
2706 Clouds 4 980 87 10000 6.7 220 16:39 13.12.2019
2707 Clouds 4 980 87 10000 6.7 220 16:20 13.12.2019
2708 Clouds 4 980 93 10000 5.82 226 15:43 13.12.2019
2709 Clouds 4 979 100 10000 2.6 220 15:23 13.12.2019
2710 Clouds 4 979 100 10000 3.1 220 14:58 13.12.2019
2711 Clouds 3 979 100 10000 3.1 220 14:39 13.12.2019
2712 Rain 3 979 100 10000 3.6 210 14:20 13.12.2019
2713 Rain 3 979 100 10000 3.6 210 14:20 13.12.2019
2714 Rain 3 979 100 10000 3.6 210 14:20 13.12.2019
2715 Clouds 3 979 100 10000 1.5 280 13:56 13.12.2019
2716 Rain 2 979 100 10000 1.5 280 13:37 13.12.2019
2717 Rain 2 978 93 10000 3.6 210 13:19 13.12.2019
2718 Rain 2 978 100 9000 3.6 210 12:42 13.12.2019
2719 Rain 2 977 93 9000 3.6 200 12:20 13.12.2019
2720 Rain 2 977 93 9000 3.6 200 12:20 13.12.2019
2721 Rain 2 977 93 8000 2.1 170 11:57 13.12.2019
2722 Rain 2 977 93 10000 1 0 11:39 13.12.2019
2723 Rain 2 977 93 10000 1 0 11:19 13.12.2019
2724 Rain 2 977 100 8000 1.5 80 10:42 13.12.2019
2725 Rain 2 977 100 9000 1.5 70 10:22 13.12.2019
2726 Rain 2 977 100 6000 2.6 70 09:55 13.12.2019
2727 Rain 2 977 100 6000 2.6 70 09:36 13.12.2019
2728 Rain 2 977 100 9000 3.1 60 09:18 13.12.2019
2729 Rain 2 977 93 9000 3.6 50 08:41 13.12.2019
2730 -273 0 0 0 0 0 08:23 13.12.2019
2731 Rain 1 979 93 10000 3.1 80 07:45 13.12.2019
2732 Rain 1 979 93 10000 3.1 80 07:45 13.12.2019
2733 Rain 1 979 93 10000 3.1 80 07:21 13.12.2019
2734 Rain 1 979 93 10000 3.1 80 07:21 13.12.2019
2735 Snow 1 980 100 10000 3.1 70 06:54 13.12.2019
2736 Rain 1 981 87 10000 1.5 90 06:28 13.12.2019
2737 Snow 1 982 87 9000 1.5 140 05:46 13.12.2019
2738 Drizzle 1 982 100 10000 2.1 120 05:26 13.12.2019
2739 Rain 1 984 94 10000 3.6 130 04:35 13.12.2019
2740 Snow 1 985 94 10000 2.6 120 03:46 13.12.2019
2741 Snow 1 987 86 10000 3.6 130 02:34 13.12.2019
2742 Clouds 0 988 80 10000 4.1 110 01:47 13.12.2019
2743 Clouds 0 990 68 10000 3.1 100 00:57 13.12.2019
2744 Clouds 0 991 68 10000 4.1 110 00:37 13.12.2019
2745 Clouds 0 992 68 10000 3.6 110 23:59 12.12.2019
2746 Clouds 0 992 68 10000 3.6 110 23:59 12.12.2019
2747 Clouds 0 993 86 10000 3.6 110 23:39 12.12.2019
2748 Clouds 1 993 86 10000 3.6 110 23:21 12.12.2019
2749 Clouds 1 994 75 10000 2.1 110 22:56 12.12.2019
2750 Clouds 1 995 75 10000 2.1 110 22:37 12.12.2019
2751 Clouds 1 995 75 10000 2.1 110 22:19 12.12.2019
2752 Clouds 1 995 75 10000 2.1 110 21:55 12.12.2019
2753 Clouds 1 996 93 10000 2.1 120 21:37 12.12.2019
2754 Clouds 1 996 93 10000 2.1 120 21:37 12.12.2019
2755 Clouds 1 996 93 10000 2.1 120 21:18 12.12.2019
2756 Clouds 2 997 93 10000 2.1 140 20:56 12.12.2019
2757 Clouds 2 997 93 10000 2.6 150 20:38 12.12.2019
2758 Clouds 2 997 93 10000 2.6 150 20:20 12.12.2019
2759 Clouds 2 998 86 10000 2.6 170 19:43 12.12.2019
2760 Clouds 2 998 86 10000 2.6 170 19:43 12.12.2019
2761 Clouds 2 998 86 10000 3.1 160 19:23 12.12.2019
2762 Clouds 3 999 80 10000 3.6 160 18:58 12.12.2019
2763 Clouds 3 1000 86 10000 3.1 170 18:40 12.12.2019
2764 Clouds 3 1000 86 10000 3.1 170 18:21 12.12.2019
2765 Clouds 3 1000 86 10000 3.1 170 18:21 12.12.2019
2766 Clouds 3 1000 80 10000 4.6 210 17:59 12.12.2019
2767 Clouds 3 1000 80 10000 4.1 230 17:40 12.12.2019
2768 Clouds 3 1000 80 10000 4.1 230 17:21 12.12.2019
2769 Rain 4 1001 75 10000 4.6 220 16:59 12.12.2019
2770 Rain 4 1001 80 10000 5.7 230 16:41 12.12.2019
2771 Rain 4 1001 80 10000 5.7 230 16:21 12.12.2019
2772 Rain 4 1001 80 10000 6.2 210 15:59 12.12.2019
2773 Rain 4 1001 80 10000 6.2 210 15:41 12.12.2019
2774 Clouds 5 1001 86 10000 3.6 230 15:19 12.12.2019
2775 Clouds 5 1001 86 10000 3.6 230 15:19 12.12.2019
2776 Clouds 5 1002 86 10000 6.7 240 14:57 12.12.2019
2777 Clouds 5 1002 86 10000 6.7 240 14:36 12.12.2019
2778 Clouds 5 1002 81 10000 3.6 220 14:18 12.12.2019
2779 Clouds 4 1003 87 10000 3.1 230 13:54 12.12.2019
2780 Clouds 4 1003 100 10000 3.1 290 13:36 12.12.2019
2781 Clouds 4 1003 100 10000 3.1 290 13:18 12.12.2019
2782 Clouds 4 1003 100 10000 3.1 290 13:18 12.12.2019
2783 Clouds 4 1003 93 10000 4.1 180 12:42 12.12.2019
2784 Clouds 4 1004 93 10000 4.6 180 12:23 12.12.2019
2785 Clouds 4 1004 100 10000 4.6 180 11:59 12.12.2019
2786 Clouds 4 1004 100 10000 2.6 200 11:40 12.12.2019
2787 Clouds 4 1004 100 8000 4.1 180 11:22 12.12.2019
2788 Clouds 3 1004 93 8000 4.6 180 10:59 12.12.2019
2789 Mist 3 1005 100 9000 3.1 190 10:40 12.12.2019
2790 Drizzle 3 1004 93 7000 4.6 180 10:22 12.12.2019
2791 Rain 3 1005 93 7000 4.1 180 09:56 12.12.2019
2792 Clouds 3 1004 93 8000 4.1 170 09:38 12.12.2019
2793 Clouds 3 1004 93 8000 4.1 170 09:20 12.12.2019
2794 Clouds 2 1004 93 8000 3.6 170 08:48 12.12.2019
2795 Clouds 2 1004 100 8000 3.1 180 08:29 12.12.2019
2796 Clouds 2 1004 100 8000 3.6 180 07:56 12.12.2019
2797 Mist 2 1004 100 6000 2.6 150 07:37 12.12.2019
2798 Clouds 2 1004 100 7000 2.6 180 07:19 12.12.2019
2799 Mist 2 1004 100 3200 1.5 150 06:41 12.12.2019
2800 Rain 2 1004 100 8000 1.5 210 06:22 12.12.2019
2801 Rain 2 1005 100 6000 3.1 210 05:32 12.12.2019
2802 Rain 2 1005 100 2800 2.16 206 04:48 12.12.2019
2803 Rain 2 1006 93 7000 2.1 210 02:44 12.12.2019
2804 Rain 2 1006 100 7000 2.1 220 02:25 12.12.2019
2805 Rain 2 1006 100 7000 2.1 200 01:59 12.12.2019
2806 Rain 2 1006 100 7000 2.6 190 01:36 12.12.2019
2807 Clouds 1 1006 100 7000 1.5 190 00:58 12.12.2019
2808 Mist 1 1007 100 3600 2.57 234 00:38 12.12.2019
2809 Mist 1 1007 100 3600 2.57 234 00:18 12.12.2019
2810 Mist 1 1007 100 6000 2.57 234 23:40 11.12.2019
2811 Mist 1 1007 100 6000 2.77 205 23:19 11.12.2019
2812 Snow 1 1007 100 9000 3.1 190 22:57 11.12.2019
2813 Mist 1 1007 100 5000 2.77 205 22:38 11.12.2019
2814 Rain 1 1007 100 8000 3.6 190 22:19 11.12.2019
2815 Snow 1 1007 93 8000 4.1 190 21:55 11.12.2019
2816 Rain 1 1007 93 8000 3.6 190 21:37 11.12.2019
2817 Rain 1 1007 93 8000 3.6 190 21:19 11.12.2019
2818 Snow 1 1007 93 6000 3.1 190 20:55 11.12.2019
2819 Rain 1 1007 92 5000 3.6 190 20:37 11.12.2019
2820 Rain 1 1007 90 5000 3.6 190 20:18 11.12.2019
2821 Rain 1 1007 89 8000 3.6 190 19:57 11.12.2019
2822 Rain 1 1007 89 8000 3.6 190 19:38 11.12.2019
2823 Rain 1 1008 89 4400 3.37 181 19:18 11.12.2019
2824 Snow 1 1007 100 8000 3.1 200 18:40 11.12.2019
2825 Rain 1 1007 89 10000 2.6 190 18:21 11.12.2019
2826 Snow 1 1007 100 10000 2.1 190 17:57 11.12.2019
2827 Rain 1 1008 100 10000 0.5 0 17:38 11.12.2019
2828 Rain 1 1008 100 10000 0.5 0 17:18 11.12.2019
2829 Rain 1 1008 93 10000 0.5 0 16:57 11.12.2019
2830 Snow 1 1008 83 5000 3.32 175 16:38 11.12.2019
2831 Snow 1 1008 93 10000 1.5 200 16:38 11.12.2019
2832 Snow 1 1008 93 10000 1.5 200 16:20 11.12.2019
2833 Snow 1 1008 93 10000 2.6 170 15:59 11.12.2019
2834 Snow 1 1008 93 10000 2.6 170 15:39 11.12.2019
2835 Snow 1 1008 86 4000 1.5 140 15:21 11.12.2019
2836 Rain 2 1009 93 10000 1 0 14:56 11.12.2019
2837 Rain 2 1009 83 10000 2.6 160 14:37 11.12.2019
2838 Rain 2 1009 76 10000 2.6 160 14:19 11.12.2019
2839 Rain 2 1010 93 10000 1 180 13:55 11.12.2019
2840 Rain 2 1010 76 10000 3.1 190 13:36 11.12.2019
2841 Rain 2 1010 75 10000 3.1 190 13:18 11.12.2019
2842 Rain 2 1011 74 10000 3.1 180 12:55 11.12.2019
2843 Rain 2 1011 80 10000 1.5 180 12:37 11.12.2019
2844 Rain 2 1011 80 10000 1.5 180 12:18 11.12.2019
2845 Rain 2 1012 80 10000 2.6 180 11:56 11.12.2019
2846 Rain 2 1012 80 10000 1.5 170 11:37 11.12.2019
2847 Rain 2 1012 80 10000 1.5 170 11:18 11.12.2019
2848 Rain 2 1013 80 10000 2.6 180 10:44 11.12.2019
2849 Rain 2 1013 80 10000 2.6 180 10:44 11.12.2019
2850 Rain 2 1013 74 10000 3.1 190 10:26 11.12.2019
2851 Rain 2 1013 74 10000 1.5 180 09:59 11.12.2019
2852 Clouds 2 1013 74 10000 2.6 190 09:39 11.12.2019
2853 Rain 2 1013 74 10000 1.5 180 09:39 11.12.2019
2854 Clouds 2 1013 74 10000 2.6 190 09:20 11.12.2019
2855 Clouds 2 1014 69 10000 2.1 200 08:57 11.12.2019
2856 Rain 2 1014 69 10000 2.6 180 08:38 11.12.2019
2857 Clouds 2 1014 69 10000 2.6 180 08:19 11.12.2019
2858 Clouds 2 1014 69 10000 2.6 170 07:46 11.12.2019
2859 Clouds 2 1015 74 10000 2.6 190 07:26 11.12.2019
2860 Clouds 2 1015 74 10000 2.1 180 06:59 11.12.2019
2861 Clouds 2 1015 74 10000 2.1 180 06:40 11.12.2019
2862 Clouds 2 1016 74 10000 1.5 210 06:21 11.12.2019
2863 Clouds 2 1016 80 10000 2.1 190 05:41 11.12.2019
2864 Clouds 2 1016 80 10000 2.1 190 05:18 11.12.2019
2865 Clouds 2 1017 80 10000 1.5 170 04:26 11.12.2019
2866 Clouds 1 1018 86 10000 1.5 160 02:49 11.12.2019
2867 Clouds 1 1020 80 10000 1 0 01:25 11.12.2019
2868 Clouds 1 1020 80 10000 2.6 190 00:47 11.12.2019
2869 Clouds 1 1021 86 10000 2.1 180 00:21 11.12.2019
2870 Clouds 1 1021 80 10000 1.5 170 23:49 10.12.2019
2871 Clouds 1 1021 86 10000 1.5 170 23:30 10.12.2019
2872 Clouds 1 1021 73 10000 1.5 170 22:59 10.12.2019
2873 Clouds 1 1021 73 10000 1.5 170 22:40 10.12.2019
2874 Clouds 1 1022 73 10000 2.1 170 22:22 10.12.2019
2875 Clouds 1 1022 73 10000 1 0 21:57 10.12.2019
2876 Clouds 1 1022 73 10000 1 0 21:39 10.12.2019
2877 Clouds 1 1023 73 10000 2.1 180 21:21 10.12.2019
2878 Clouds 1 1023 86 10000 2.1 150 20:57 10.12.2019
2879 Clouds 1 1023 73 10000 2.6 150 20:38 10.12.2019
2880 Clouds 1 1023 73 10000 2.6 150 20:38 10.12.2019
2881 Clear 1 1023 73 10000 2.6 150 20:19 10.12.2019
2882 Clear 1 1024 73 10000 2.6 150 19:55 10.12.2019
2883 Clouds 1 1024 86 10000 1.5 160 19:37 10.12.2019
2884 Clouds 1 1024 86 10000 1.5 160 19:19 10.12.2019
2885 Clouds 2 1025 73 10000 2.1 180 18:41 10.12.2019
2886 Clouds 2 1025 73 10000 2.1 180 18:21 10.12.2019
2887 Clouds 2 1025 73 10000 3.1 220 17:58 10.12.2019
2888 Clouds 2 1025 73 10000 3.1 220 17:40 10.12.2019
2889 Clouds 3 1025 65 10000 4.6 220 17:22 10.12.2019
2890 Clouds 3 1025 74 10000 4.6 260 16:55 10.12.2019
2891 Clouds 3 1025 74 10000 4.6 260 16:36 10.12.2019
2892 Clouds 4 1025 75 10000 4.1 180 16:18 10.12.2019
2893 Clouds 5 1026 70 10000 4.6 190 15:38 10.12.2019
2894 Clouds 5 1026 70 10000 4.6 190 15:38 10.12.2019
2895 Clouds 5 1026 70 10000 4.6 190 15:18 10.12.2019
2896 Clouds 5 1026 70 10000 3.6 180 14:56 10.12.2019
2897 Clouds 5 1026 75 10000 4.1 180 14:38 10.12.2019
2898 Clouds 6 1026 75 10000 4.1 180 14:20 10.12.2019
2899 Clouds 6 1026 75 10000 4.1 180 14:20 10.12.2019
2900 Clouds 5 1027 70 10000 3.6 190 13:58 10.12.2019
2901 Clouds 6 1027 70 10000 4.6 200 13:40 10.12.2019
2902 Clouds 6 1027 70 10000 4.6 200 13:20 10.12.2019
2903 Clouds 5 1027 70 10000 4.1 190 12:48 10.12.2019
2904 Clouds 5 1027 70 10000 3.1 210 12:28 10.12.2019
2905 Clouds 5 1028 75 10000 3.6 230 11:56 10.12.2019
2906 Clouds 5 1028 75 10000 2.1 220 11:38 10.12.2019
2907 Clouds 4 1028 75 10000 2.1 220 11:19 10.12.2019
2908 Clouds 3 1027 80 10000 2.6 230 10:43 10.12.2019
2909 Clouds 2 1027 72 10000 2.1 230 10:24 10.12.2019
2910 Clouds 2 1027 72 10000 2.1 210 09:57 10.12.2019
2911 Clouds 2 1027 72 10000 2.1 210 09:57 10.12.2019
2912 Clouds 2 1027 72 10000 2.1 210 09:57 10.12.2019
2913 Clouds 1 1026 72 10000 3.1 250 09:39 10.12.2019
2914 Clouds 1 1026 72 10000 3.1 250 09:20 10.12.2019
2915 Clouds 1 1026 72 10000 4.1 250 08:58 10.12.2019
2916 Clouds 1 1026 72 10000 4.1 250 08:39 10.12.2019
2917 Clouds 1 1026 76 10000 3.6 230 08:20 10.12.2019
2918 Clouds 1 1026 74 10000 4.1 250 07:45 10.12.2019
2919 Clouds 1 1026 74 10000 3.6 250 07:27 10.12.2019
2920 Clouds 1 1025 74 10000 3.6 270 06:56 10.12.2019
2921 Clouds 1 1025 86 10000 2.1 310 06:38 10.12.2019
2922 Clouds 1 1025 86 10000 2.1 310 06:19 10.12.2019
2923 Clouds 2 1024 74 10000 6.7 290 05:51 10.12.2019
2924 Clouds 3 1022 75 10000 5.7 290 04:23 10.12.2019
2925 Clouds 3 1021 75 10000 6.2 290 03:27 10.12.2019
2926 Clouds 3 1020 75 10000 5.1 300 02:36 10.12.2019
2927 Clouds 4 1019 75 10000 2.6 270 01:40 10.12.2019
2928 Clouds 4 1019 75 10000 2.6 270 01:19 10.12.2019
2929 Clouds 4 1019 75 10000 4.1 320 00:38 10.12.2019
2930 Clouds 5 1018 70 10000 3.6 310 00:18 10.12.2019
2931 Clouds 5 1017 75 10000 4.1 300 23:39 09.12.2019
2932 Clouds 5 1016 75 10000 4.1 300 23:21 09.12.2019
2933 Rain 6 1014 70 10000 3.6 310 22:57 09.12.2019
2934 Rain 6 1014 75 10000 5.7 320 22:39 09.12.2019
2935 Rain 6 1014 75 10000 5.7 320 22:18 09.12.2019
2936 Clouds 6 1014 81 10000 4.1 350 21:56 09.12.2019
2937 Clouds 6 1014 81 10000 4.1 350 21:38 09.12.2019
2938 Rain 6 1011 87 10000 4.6 260 21:18 09.12.2019
2939 Rain 6 1010 87 10000 4.1 270 20:56 09.12.2019
2940 Clouds 6 1009 81 10000 2.6 270 20:38 09.12.2019
2941 Clouds 6 1009 81 10000 2.6 270 20:19 09.12.2019
2942 Rain 6 1008 87 10000 2.6 320 19:55 09.12.2019
2943 Rain 6 1007 87 10000 3.1 250 19:37 09.12.2019
2944 Rain 6 1007 87 10000 3.1 250 19:37 09.12.2019
2945 Rain 6 1007 87 10000 3.1 250 19:19 09.12.2019
2946 Rain 6 1007 81 10000 3.6 270 18:56 09.12.2019
2947 Clouds 6 1006 81 10000 3.1 240 18:37 09.12.2019
2948 Clouds 6 1006 81 10000 3.1 240 18:19 09.12.2019
2949 Rain 6 1005 87 10000 4.1 220 17:57 09.12.2019
2950 Rain 6 1004 87 10000 4.1 220 17:38 09.12.2019
2951 Rain 6 1004 87 10000 4.1 220 17:20 09.12.2019
2952 Rain 6 1004 81 10000 2.1 310 17:20 09.12.2019
2953 Rain 6 1003 87 10000 4.6 210 16:56 09.12.2019
2954 Rain 7 1003 87 10000 4.6 210 16:37 09.12.2019
2955 Clouds 7 1003 87 10000 4.6 210 16:18 09.12.2019
2956 Clouds 7 1002 93 10000 3.6 200 15:55 09.12.2019
2957 Rain 7 1002 93 10000 3.1 220 15:37 09.12.2019
2958 Rain 7 1002 93 10000 3.1 220 15:37 09.12.2019
2959 Rain 7 1002 93 10000 3.1 220 15:19 09.12.2019
2960 Clouds 7 1002 81 10000 4.6 260 14:42 09.12.2019
2961 Rain 8 1002 81 10000 5.7 250 14:19 09.12.2019
2962 Clouds 7 1001 81 10000 7.2 210 13:58 09.12.2019
2963 Rain 8 1001 87 10000 7.2 210 13:38 09.12.2019
2964 Rain 8 1001 87 10000 7.2 210 13:19 09.12.2019
2965 Rain 7 1001 93 10000 6.7 200 12:57 09.12.2019
2966 Clouds 7 1001 87 10000 6.2 240 12:38 09.12.2019
2967 Clouds 7 1001 87 10000 6.2 240 12:20 09.12.2019
2968 Clouds 7 1001 87 10000 4.6 240 11:58 09.12.2019
2969 Clouds 7 1001 87 10000 4.6 240 11:39 09.12.2019
2970 Rain 7 1001 81 10000 6.2 210 11:21 09.12.2019
2971 Rain 7 1001 87 10000 5.7 210 10:55 09.12.2019
2972 Rain 7 1001 81 10000 6.2 230 10:37 09.12.2019
2973 Rain 7 1001 75 10000 7.2 200 10:18 09.12.2019
2974 Rain 7 1001 75 10000 7.2 200 10:18 09.12.2019
2975 Rain 7 1001 70 10000 7.7 200 09:41 09.12.2019
2976 Rain 7 1001 70 10000 7.7 200 09:23 09.12.2019
2977 Clouds 7 1000 70 10000 8.2 200 08:55 09.12.2019
2978 Clouds 7 1001 70 10000 8.2 200 08:37 09.12.2019
2979 Clouds 7 1001 70 10000 8.2 200 08:19 09.12.2019
2980 Clouds 7 1001 75 10000 5.7 190 07:44 09.12.2019
2981 Clouds 7 1001 75 10000 5.1 190 07:25 09.12.2019
2982 Clouds 7 1001 70 10000 7.2 200 06:55 09.12.2019
2983 Clouds 7 1001 81 10000 5.7 190 06:27 09.12.2019
2984 Clouds 7 1001 87 10000 6.2 180 05:30 09.12.2019
2985 Clouds 7 1001 81 10000 4.6 190 04:54 09.12.2019
2986 Clouds 7 1002 75 10000 7.2 210 04:23 09.12.2019
2987 Clouds 7 1002 81 10000 8.2 220 02:27 09.12.2019
2988 Rain 7 1003 87 10000 7.7 230 01:45 09.12.2019
2989 Clouds 7 1003 81 10000 5.7 220 00:57 09.12.2019
2990 Clouds 7 1003 76 10000 7.2 220 00:32 09.12.2019
2991 Clouds 7 1003 81 10000 7.7 210 23:54 08.12.2019
2992 Clouds 8 1003 81 10000 6.7 210 23:36 08.12.2019
2993 Clouds 8 1003 81 10000 6.7 210 23:18 08.12.2019
2994 Clouds 7 1003 87 10000 5.7 220 22:56 08.12.2019
2995 Clouds 8 1003 87 10000 5.7 220 22:38 08.12.2019
2996 Clouds 7 1003 87 10000 6.2 200 22:18 08.12.2019
2997 Clouds 8 1003 93 10000 5.7 210 21:55 08.12.2019
2998 Rain 8 1003 87 10000 5.7 200 21:37 08.12.2019
2999 Rain 8 1003 87 10000 5.7 200 21:19 08.12.2019
3000 Rain 8 1003 87 10000 5.1 220 20:55 08.12.2019
3001 Rain 8 1003 87 10000 3.6 220 20:37 08.12.2019
3002 Rain 9 1003 87 10000 3.6 220 20:18 08.12.2019
3003 Rain 9 1003 87 10000 3.6 250 19:55 08.12.2019
3004 Drizzle 9 1003 87 4600 7.7 230 19:36 08.12.2019
3005 Drizzle 9 1003 87 4600 7.7 230 19:18 08.12.2019
3006 Rain 10 1003 81 10000 8.2 210 18:54 08.12.2019
3007 Rain 10 1003 81 10000 7.2 210 18:36 08.12.2019
3008 Rain 10 1003 81 10000 7.2 210 18:18 08.12.2019
3009 Rain 10 1003 81 10000 7.7 210 17:54 08.12.2019
3010 Rain 10 1004 93 10000 6.2 240 17:36 08.12.2019
3011 Clouds 10 1004 93 10000 7.2 230 17:18 08.12.2019
3012 Rain 10 1004 81 10000 8.7 210 16:55 08.12.2019
3013 Clouds 10 1004 93 10000 7.2 240 16:37 08.12.2019
3014 Rain 10 1004 81 10000 8.2 210 16:18 08.12.2019
3015 Rain 10 1005 81 10000 8.2 210 15:37 08.12.2019
3016 Rain 10 1005 81 10000 8.2 210 15:18 08.12.2019
3017 Clouds 10 1005 81 10000 7.2 240 14:57 08.12.2019
3018 Clouds 10 1005 81 10000 7.2 240 14:38 08.12.2019
3019 Rain 10 1006 81 10000 7.7 210 14:20 08.12.2019
3020 Rain 10 1006 87 10000 7.7 210 13:42 08.12.2019
3021 Rain 10 1007 81 10000 8.2 220 13:23 08.12.2019
3022 Rain 10 1007 87 10000 9.3 220 12:59 08.12.2019
3023 Clouds 10 1007 87 10000 6.7 240 12:41 08.12.2019
3024 Clouds 10 1007 76 10000 9.8 200 12:23 08.12.2019
3025 Clouds 10 1008 71 10000 8.7 200 11:59 08.12.2019
3026 Clouds 10 1009 76 10000 6.7 200 11:38 08.12.2019
3027 Clouds 10 1009 76 10000 6.7 200 11:19 08.12.2019
3028 Clouds 9 1009 76 10000 6.2 190 10:57 08.12.2019
3029 Clouds 10 1009 76 10000 7.2 190 10:38 08.12.2019
3030 Clouds 9 1009 76 10000 9.3 230 10:19 08.12.2019
3031 Clouds 9 1009 76 10000 7.2 190 10:19 08.12.2019
3032 Clouds 9 1010 71 10000 8.2 210 09:55 08.12.2019
3033 Clouds 9 1010 71 10000 8.2 200 09:37 08.12.2019
3034 Clouds 9 1010 71 10000 8.2 200 09:37 08.12.2019
3035 Clouds 9 1010 71 10000 8.2 200 09:19 08.12.2019
3036 Clouds 8 1010 76 10000 7.7 210 08:57 08.12.2019
3037 Clouds 8 1010 76 10000 6.2 200 08:36 08.12.2019
3038 Clouds 8 1010 76 10000 6.2 200 08:18 08.12.2019
3039 Clouds 8 1010 76 10000 5.1 190 07:42 08.12.2019
3040 Clouds 8 1011 76 10000 6.2 200 07:19 08.12.2019
3041 Clouds 8 1011 76 10000 6.7 200 06:47 08.12.2019
3042 Clouds 8 1011 76 10000 6.7 200 06:22 08.12.2019
3043 Clouds 8 1012 76 10000 7.2 200 05:43 08.12.2019
3044 Clouds 7 1013 76 10000 5.1 190 04:59 08.12.2019
3045 Clouds 7 1014 81 10000 6.2 190 03:49 08.12.2019
3046 Clouds 7 1014 81 10000 5.1 190 03:22 08.12.2019
3047 Clouds 7 1015 81 10000 5.7 190 02:38 08.12.2019
3048 Clouds 7 1016 81 10000 5.7 200 01:55 08.12.2019
3049 Clouds 7 1016 81 10000 5.7 200 01:19 08.12.2019
3050 Clouds 7 1017 87 10000 5.1 200 00:40 08.12.2019
3051 Clouds 7 1017 87 10000 5.1 200 00:20 08.12.2019
3052 Clouds 7 1017 87 10000 5.1 200 00:20 08.12.2019
3053 Clouds 7 1016 87 10000 4.1 200 23:41 07.12.2019
3054 Clouds 7 1017 87 10000 4.6 190 23:21 07.12.2019
3055 Clouds 7 1017 87 10000 4.6 190 23:21 07.12.2019
3056 Clouds 7 1017 87 10000 4.6 190 22:57 07.12.2019
3057 Clouds 6 1017 87 10000 3.6 190 22:39 07.12.2019
3058 Clouds 7 1017 87 10000 3.6 190 22:21 07.12.2019
3059 Clouds 7 1017 87 10000 3.6 190 21:56 07.12.2019
3060 Clouds 7 1017 93 10000 3.1 200 21:38 07.12.2019
3061 Clouds 7 1017 93 10000 3.1 200 21:19 07.12.2019
3062 Clouds 7 1017 100 10000 2.6 210 20:59 07.12.2019
3063 Clouds 7 1018 93 10000 2.1 230 20:37 07.12.2019
3064 Clouds 7 1018 93 10000 2.1 230 20:18 07.12.2019
3065 Rain 7 1017 93 10000 3.6 190 19:56 07.12.2019
3066 Clouds 7 1017 87 10000 4.1 250 19:38 07.12.2019
3067 Clouds 7 1017 93 10000 3.6 200 19:20 07.12.2019
3068 Clouds 7 1017 87 10000 4.1 200 18:44 07.12.2019
3069 Rain 7 1017 93 10000 4.6 220 18:21 07.12.2019
3070 Rain 8 1017 81 10000 5.7 240 17:59 07.12.2019
3071 Rain 8 1017 81 10000 5.7 240 17:41 07.12.2019
3072 Rain 8 1016 81 10000 5.1 220 17:23 07.12.2019
3073 Clouds 8 1016 87 10000 2.6 280 16:57 07.12.2019
3074 Clouds 8 1016 87 10000 2.6 280 16:39 07.12.2019
3075 Rain 9 1016 76 10000 4.1 250 16:20 07.12.2019
3076 Clouds 9 1015 66 10000 4.6 220 15:57 07.12.2019
3077 Clouds 9 1015 66 10000 4.6 230 15:38 07.12.2019
3078 Clouds 9 1015 66 10000 4.6 230 15:20 07.12.2019
3079 Clouds 9 1015 66 10000 4.6 230 15:20 07.12.2019
3080 Rain 9 1015 66 10000 7.2 250 14:42 07.12.2019
3081 Rain 9 1015 66 10000 7.2 250 14:19 07.12.2019
3082 Rain 9 1015 71 10000 6.7 240 13:58 07.12.2019
3083 Rain 9 1015 71 10000 6.7 240 13:58 07.12.2019
3084 Rain 9 1015 76 10000 6.2 230 13:39 07.12.2019
3085 Rain 9 1015 76 10000 6.2 230 13:19 07.12.2019
3086 Rain 9 1015 76 10000 4.6 210 12:54 07.12.2019
3087 Rain 9 1015 81 10000 5.7 230 12:36 07.12.2019
3088 Rain 9 1015 81 10000 5.7 230 12:18 07.12.2019
3089 Rain 8 1015 81 10000 6.2 230 11:41 07.12.2019
3090 Rain 8 1015 81 10000 6.7 230 11:23 07.12.2019
3091 Clouds 8 1015 81 10000 6.2 230 10:54 07.12.2019
3092 Rain 8 1014 87 10000 5.7 230 10:36 07.12.2019
3093 Rain 7 1014 87 10000 5.7 230 10:18 07.12.2019
3094 Rain 7 1014 87 10000 5.7 220 09:39 07.12.2019
3095 Rain 7 1014 87 10000 5.7 220 09:21 07.12.2019
3096 Rain 7 1014 93 10000 5.1 220 08:45 07.12.2019
3097 Rain 7 1013 87 10000 4.6 240 08:24 07.12.2019
3098 Clouds 6 1013 87 10000 3.6 200 07:52 07.12.2019
3099 Clouds 6 1013 87 10000 4.6 220 07:29 07.12.2019
3100 Rain 7 1012 87 10000 5.7 210 06:53 07.12.2019
3101 Rain 7 1012 93 10000 4.6 200 06:26 07.12.2019
3102 Clouds 7 1012 100 10000 2.6 230 05:47 07.12.2019
3103 Clouds 6 1011 93 10000 3.6 210 04:44 07.12.2019
3104 Rain 6 1011 100 8000 2.6 310 03:50 07.12.2019
3105 Rain 6 1010 93 10000 3.6 240 02:23 07.12.2019
3106 Rain 6 1010 93 10000 3.6 240 02:23 07.12.2019
3107 Clouds 5 1010 81 10000 8.7 230 01:51 07.12.2019
3108 Clouds 5 1010 87 10000 7.7 220 01:25 07.12.2019
3109 Clouds 5 1010 87 10000 7.7 220 01:25 07.12.2019
3110 Clouds 5 1011 87 10000 6.2 250 00:36 07.12.2019
3111 Rain 5 1011 87 10000 6.2 220 00:18 07.12.2019
3112 Rain 5 1011 87 10000 6.2 220 00:18 07.12.2019
3113 Rain 5 1011 87 10000 6.2 250 23:42 06.12.2019
3114 Clouds 5 1011 87 10000 6.2 210 23:23 06.12.2019
3115 Rain 5 1011 93 10000 6.7 200 22:57 06.12.2019
3116 Rain 5 1011 93 10000 6.7 200 22:36 06.12.2019
3117 Rain 4 1011 93 10000 6.7 200 22:18 06.12.2019
3118 Rain 4 1011 100 10000 5.7 220 21:41 06.12.2019
3119 Rain 4 1012 93 10000 6.7 200 21:21 06.12.2019
3120 Rain 4 1012 93 10000 6.7 200 21:21 06.12.2019
3121 Rain 4 1012 93 10000 6.7 200 20:59 06.12.2019
3122 Rain 4 1012 93 10000 6.7 200 20:41 06.12.2019
3123 Rain 4 1012 93 10000 6.7 200 20:41 06.12.2019
3124 Rain 4 1012 100 10000 5.1 210 20:20 06.12.2019
3125 Rain 4 1012 93 9000 3.1 200 19:54 06.12.2019
3126 Rain 4 1012 93 9000 3.1 200 19:36 06.12.2019
3127 Rain 3 1012 100 8000 4.6 190 19:18 06.12.2019
3128 Rain 3 1013 100 9000 2.6 190 18:44 06.12.2019
3129 Rain 3 1013 93 7000 4.6 180 18:23 06.12.2019
3130 Rain 3 1014 100 10000 3.6 220 17:58 06.12.2019
3131 Rain 3 1014 100 10000 3.6 220 17:40 06.12.2019
3132 Rain 3 1014 100 10000 3.6 220 17:40 06.12.2019
3133 Rain 3 1014 93 8000 5.1 200 17:22 06.12.2019
3134 Rain 3 1014 100 10000 5.7 240 16:59 06.12.2019
3135 Rain 3 1014 93 8000 3.6 190 16:40 06.12.2019
3136 Rain 3 1014 93 8000 3.6 190 16:21 06.12.2019
3137 Rain 3 1014 100 9000 2.1 200 15:42 06.12.2019
3138 Rain 3 1015 86 8000 5.1 190 15:24 06.12.2019
3139 Clouds 3 1015 93 8000 3.6 200 14:59 06.12.2019
3140 Clouds 3 1015 100 10000 2.6 190 14:41 06.12.2019
3141 Clouds 3 1016 93 8000 3.6 190 14:20 06.12.2019
3142 Clouds 3 1016 93 8000 3.6 190 13:58 06.12.2019
3143 Clouds 3 1017 59 8000 4.1 190 13:40 06.12.2019
3144 Clouds 3 1017 57 8000 4.1 190 13:21 06.12.2019
3145 Clouds 2 1018 57 8000 3.6 190 12:39 06.12.2019
3146 Clouds 2 1018 57 8000 3.6 190 12:21 06.12.2019
3147 Clouds 1 1018 57 8000 5.1 190 11:43 06.12.2019
3148 Clouds 1 1019 57 10000 3.1 200 11:23 06.12.2019
3149 Clouds 1 1019 62 7000 6.2 190 10:58 06.12.2019
3150 Clouds 1 1019 62 7000 3.6 180 10:40 06.12.2019
3151 Clouds 1 1019 62 7000 3.6 180 10:20 06.12.2019
3152 Clouds 0 1019 100 7000 5.1 180 09:56 06.12.2019
3153 Clouds 0 1019 100 10000 3.1 210 09:37 06.12.2019
3154 Clouds 0 1019 100 7000 4.6 200 09:19 06.12.2019
3155 Clouds 0 1019 100 6000 4.6 200 08:43 06.12.2019
3156 Clouds -1 1019 92 6000 3.6 200 08:25 06.12.2019
3157 Clouds -1 1019 92 6000 4.1 190 07:43 06.12.2019
3158 Mist -2 1019 92 5000 3.6 200 07:23 06.12.2019
3159 Mist -2 1019 92 5000 3.6 200 07:23 06.12.2019
3160 Mist -2 1019 100 3500 3.6 210 06:55 06.12.2019
3161 Mist -2 1019 100 2500 3.6 210 06:26 06.12.2019
3162 Mist -2 1019 100 2200 5.7 200 05:52 06.12.2019
3163 Mist -1 1020 100 1700 5.1 200 04:34 06.12.2019
3164 Mist -2 1021 100 1000 4.6 230 01:48 06.12.2019
3165 Mist -1 1021 100 1400 2.6 200 01:22 06.12.2019
3166 Mist -1 1021 100 1100 3.1 180 00:39 06.12.2019
3167 Fog -2 1022 100 900 3.1 200 00:19 06.12.2019
3168 Fog -2 1022 100 800 3.1 230 23:38 05.12.2019
3169 Fog -1 1022 100 800 3.1 230 23:18 05.12.2019
3170 Fog -1 1022 100 700 2.1 240 22:55 05.12.2019
3171 Fog -1 1022 100 600 2.6 250 22:37 05.12.2019
3172 Fog -1 1022 100 600 2.6 250 22:18 05.12.2019
3173 Fog -2 1022 100 500 3.1 270 21:42 05.12.2019
3174 Fog -2 1022 100 500 3.6 230 21:24 05.12.2019
3175 Fog -2 1022 100 400 4.1 200 20:59 05.12.2019
3176 Fog -1 1022 100 400 4.1 200 20:40 05.12.2019
3177 Fog -1 1022 100 200 2.6 210 20:20 05.12.2019
3178 Fog -1 1022 100 200 2.6 210 19:56 05.12.2019
3179 Fog -1 1023 100 400 3.1 220 19:38 05.12.2019
3180 Fog -1 1022 100 300 3.6 200 19:19 05.12.2019
3181 Fog -1 1022 100 300 3.6 200 18:54 05.12.2019
3182 Fog -1 1022 100 350 2.1 220 18:36 05.12.2019
3183 Fog -1 1022 100 250 2.6 230 18:18 05.12.2019
3184 Fog -1 1022 92 300 2.6 220 17:39 05.12.2019
3185 Fog -1 1022 92 300 2.6 200 17:19 05.12.2019
3186 Fog -1 1022 100 300 2.1 260 16:57 05.12.2019
3187 Fog -1 1022 100 300 2.1 260 16:39 05.12.2019
3188 Fog 0 1022 100 300 2.1 200 16:21 05.12.2019
3189 Fog -1 1022 100 300 2.1 200 15:56 05.12.2019
3190 Fog 0 1022 92 600 2.6 200 15:38 05.12.2019
3191 Fog 0 1022 92 400 1.5 190 15:19 05.12.2019
3192 Fog 0 1022 92 500 2.1 230 14:55 05.12.2019
3193 Fog 0 1022 92 500 2.1 230 14:37 05.12.2019
3194 Fog 1 1023 100 350 2.6 210 14:18 05.12.2019
3195 Fog 1 1023 100 350 2.6 210 13:56 05.12.2019
3196 Clear 2 1003 84 0 1.67 207 13:38 05.12.2019
3197 Clear 2 1016 89 0 1.58 204 13:19 05.12.2019
3198 Fog 1 1023 92 300 1.5 180 12:55 05.12.2019
3199 Fog 1 1023 100 500 2.1 200 12:37 05.12.2019
3200 Fog 1 1023 100 400 1.5 240 12:19 05.12.2019
3201 Fog 1 1023 100 400 2.1 210 11:39 05.12.2019
3202 Fog 0 1023 100 400 2.1 200 11:20 05.12.2019
3203 Fog -1 1023 100 400 2.6 200 10:57 05.12.2019
3204 Fog -1 1023 100 400 2.6 200 10:39 05.12.2019
3205 Fog -1 1023 100 400 2.6 220 10:18 05.12.2019
3206 Fog -1 1023 100 400 2.6 220 09:55 05.12.2019
3207 Fog -1 1022 92 200 2.6 170 09:36 05.12.2019
3208 Fog -1 1022 92 200 2.6 170 09:18 05.12.2019
3209 Fog -2 1022 92 200 1.57 190 08:39 05.12.2019
3210 Mist -3 1022 92 1600 1.34 180 08:20 05.12.2019
3211 Mist -3 1022 92 1600 1.34 180 08:20 05.12.2019
3212 Fog -3 1022 92 600 1.5 200 07:57 05.12.2019
3213 Mist -3 1022 100 8000 1.24 191 07:38 05.12.2019
3214 Mist -3 1022 100 1000 1.24 191 07:20 05.12.2019
3215 Clouds -3 1021 92 10000 1 210 06:45 05.12.2019
3216 Clouds -3 1021 100 10000 0.5 0 06:23 05.12.2019
3217 Clouds -3 1021 92 10000 1 0 05:48 05.12.2019
3218 Clear -3 1021 92 10000 1 160 05:24 05.12.2019
3219 Clear -2 1021 92 10000 1.5 60 04:27 05.12.2019
3220 Clear -3 1021 92 10000 1.5 150 04:27 05.12.2019
3221 Clear -2 1021 92 10000 1 0 03:31 05.12.2019
3222 Clear -2 1021 92 10000 2.1 70 02:40 05.12.2019
3223 Clear -2 1021 86 10000 2.6 60 02:21 05.12.2019
3224 Clear -2 1021 86 10000 3.1 80 01:49 05.12.2019
3225 Clear -1 1020 92 10000 3.6 80 01:21 05.12.2019
3226 Clear -2 1021 86 10000 3.1 80 00:38 05.12.2019
3227 Clear -2 1021 86 10000 3.6 70 00:19 05.12.2019
3228 Clear -1 1021 86 10000 2.6 80 23:45 04.12.2019
3229 Clear -1 1021 70 10000 1.5 80 23:22 04.12.2019
3230 Clear -1 1021 80 10000 2.1 80 22:57 04.12.2019
3231 Clear -1 1021 80 10000 2.1 80 22:57 04.12.2019
3232 Clear -1 1021 80 10000 2.1 80 22:37 04.12.2019
3233 Clear -1 1021 80 10000 2.6 80 22:19 04.12.2019
3234 Clear -1 1021 74 10000 2.6 80 21:56 04.12.2019
3235 Clear -1 1021 74 10000 2.6 80 21:37 04.12.2019
3236 Clear -1 1021 70 10000 4.1 80 21:18 04.12.2019
3237 Clear 0 1021 70 10000 4.1 80 20:56 04.12.2019
3238 Clear 0 1021 74 10000 2.1 80 20:38 04.12.2019
3239 Clear 0 1021 74 10000 1 0 20:19 04.12.2019
3240 Clear 0 1021 69 10000 1 0 19:42 04.12.2019
3241 Clear 1 1021 69 10000 1 0 19:24 04.12.2019
3242 Clear 1 1021 64 10000 2.6 80 18:59 04.12.2019
3243 Clear 1 1021 65 10000 4.1 60 18:41 04.12.2019
3244 Clear 1 1021 65 10000 4.1 60 18:22 04.12.2019
3245 Clear 1 1021 65 10000 4.1 60 18:22 04.12.2019
3246 Clear 1 1021 65 10000 2.6 60 17:58 04.12.2019
3247 Clear 1 1021 65 10000 2.6 60 17:39 04.12.2019
3248 Clear 3 1021 75 10000 4.1 40 17:19 04.12.2019
3249 Clear 3 1021 75 10000 4.1 30 16:56 04.12.2019
3250 Clear 3 1021 75 10000 4.1 30 16:38 04.12.2019
3251 Clear 3 1021 70 10000 4.6 30 16:18 04.12.2019
3252 Clear 4 1021 70 10000 4.1 40 15:54 04.12.2019
3253 Clear 4 1021 70 10000 4.1 40 15:36 04.12.2019
3254 Clear 4 1021 70 10000 4.1 40 15:18 04.12.2019
3255 Clear 5 1021 70 10000 4.1 50 14:41 04.12.2019
3256 Clear 5 1022 59 10000 4.1 60 14:23 04.12.2019
3257 Clear 5 1022 75 10000 3.1 40 13:57 04.12.2019
3258 Clear 5 1022 75 10000 3.1 40 13:37 04.12.2019
3259 Clear 5 1023 58 10000 3.6 60 13:19 04.12.2019
3260 Clouds 5 1023 80 10000 3.6 70 12:43 04.12.2019
3261 Clouds 5 1023 80 10000 3.6 70 12:24 04.12.2019
3262 Clouds 4 1024 80 10000 3.1 90 11:45 04.12.2019
3263 Clouds 3 1024 80 10000 3.1 90 11:27 04.12.2019
3264 Clouds 2 1024 86 10000 3.1 90 11:00 04.12.2019
3265 Fog 1 1024 93 6000 3.1 80 10:41 04.12.2019
3266 Mist 1 1024 75 1000 2.6 80 10:22 04.12.2019
3267 Mist 1 1024 75 1200 2.1 40 09:55 04.12.2019
3268 Mist 1 1024 75 1200 2.1 40 09:36 04.12.2019
3269 Fog 0 1024 75 700 3.6 20 09:18 04.12.2019
3270 Fog 0 1024 75 700 3.6 20 09:18 04.12.2019
3271 Fog 0 1024 75 500 2.6 20 08:39 04.12.2019
3272 Mist -1 1024 83 1100 3.1 10 08:19 04.12.2019
3273 Mist -1 1024 83 2800 3.1 20 07:47 04.12.2019
3274 Mist -1 1024 83 2800 3.1 20 07:47 04.12.2019
3275 Mist -1 1024 83 2800 3.1 20 07:29 04.12.2019
3276 Mist -1 1024 83 2000 1.5 70 06:34 04.12.2019
3277 Mist -1 1024 83 2700 2.1 60 05:48 04.12.2019
3278 Fog -1 1024 84 800 2.6 80 04:58 04.12.2019
3279 Mist 0 1025 100 9000 1.71 68 03:56 04.12.2019
3280 Fog 0 1026 100 600 1.71 68 02:47 04.12.2019
3281 Fog 0 1027 100 400 1.31 71 00:52 04.12.2019
3282 Fog 1 1027 100 200 1.31 71 00:27 04.12.2019
3283 Fog 1 1027 100 400 2.1 20 23:58 03.12.2019
3284 Fog 1 1027 100 600 1.31 71 23:40 03.12.2019
3285 Fog 1 1027 100 600 2.6 70 23:19 03.12.2019
3286 Fog 1 1027 100 600 2.6 70 23:19 03.12.2019
3287 Mist 1 1027 100 5000 3.1 90 22:41 03.12.2019
3288 Fog 1 1027 100 200 2.6 80 22:19 03.12.2019
3289 Fog 1 1028 100 600 3.1 100 21:59 03.12.2019
3290 Fog 1 1028 100 600 3.1 100 21:38 03.12.2019
3291 Clouds 1 1027 100 6000 2.1 70 21:19 03.12.2019
3292 Mist 1 1027 100 4000 1.5 100 20:58 03.12.2019
3293 Mist 1 1027 100 4000 1.5 100 20:39 03.12.2019
3294 Clouds 2 1028 93 8000 1 240 20:19 03.12.2019
3295 Clouds 2 1028 93 8000 1 240 19:55 03.12.2019
3296 Clouds 2 1028 93 8000 1 240 19:55 03.12.2019
3297 Clouds 2 1028 100 10000 1 200 19:37 03.12.2019
3298 Clouds 3 1028 93 10000 1.5 310 19:18 03.12.2019
3299 Clouds 3 1028 93 10000 1.5 310 19:18 03.12.2019
3300 Clouds 2 1028 93 10000 1 0 18:56 03.12.2019
3301 Clouds 3 1028 93 10000 1 0 18:38 03.12.2019
3302 Clouds 3 1028 86 10000 1 240 18:20 03.12.2019
3303 Clouds 3 1028 86 10000 1 200 17:56 03.12.2019
3304 Clouds 3 1028 86 10000 1 200 17:36 03.12.2019
3305 Clouds 4 1028 86 10000 1 190 17:18 03.12.2019
3306 Mist 4 1028 93 5000 1.5 110 16:56 03.12.2019
3307 Clouds 4 1028 86 10000 1 0 16:38 03.12.2019
3308 Clouds 4 1028 86 10000 1.5 150 16:19 03.12.2019
3309 Clouds 4 1028 86 10000 1.5 150 15:54 03.12.2019
3310 Clouds 5 1028 86 10000 2.1 150 15:36 03.12.2019
3311 Clouds 5 1028 86 10000 2.1 130 15:18 03.12.2019
3312 Clouds 5 1027 93 10000 0.68 123 14:42 03.12.2019
3313 Clouds 5 1028 100 10000 1.45 211 14:20 03.12.2019
3314 -273 0 0 0 0 0 13:56 03.12.2019
3315 Clouds 5 1028 93 10000 1 0 13:37 03.12.2019
3316 Clouds 5 1028 93 9000 1.5 190 13:18 03.12.2019
3317 Clouds 5 1029 100 8000 2.1 190 12:41 03.12.2019
3318 Clouds 4 1029 100 10000 1.53 210 12:19 03.12.2019
3319 Clouds 4 1029 93 8000 2.1 210 11:58 03.12.2019
3320 Clouds 4 1029 93 7000 2.1 200 11:39 03.12.2019
3321 Clouds 3 1029 100 7000 2.1 190 11:21 03.12.2019
3322 Clouds 3 1029 100 7000 2.1 190 10:59 03.12.2019
3323 Clouds 3 1029 100 6000 2.1 200 10:41 03.12.2019
3324 Mist 3 1029 100 5000 2.6 200 10:19 03.12.2019
3325 Mist 3 1029 100 8000 1.55 189 09:46 03.12.2019
3326 Mist 3 1029 100 8000 1.55 189 09:46 03.12.2019
3327 Mist 3 1029 93 5000 2.1 190 09:25 03.12.2019
3328 Drizzle 2 1029 93 5000 1.5 190 08:59 03.12.2019
3329 Drizzle 2 1029 93 5000 1.5 190 08:59 03.12.2019
3330 Drizzle 2 1029 100 4400 2.1 190 08:40 03.12.2019
3331 Mist 2 1029 100 6000 1.19 212 08:22 03.12.2019
3332 Drizzle 2 1029 100 7000 1.5 200 07:54 03.12.2019
3333 Drizzle 2 1029 100 9000 2.1 210 07:30 03.12.2019
3334 Drizzle 2 1029 100 8000 2.6 220 06:59 03.12.2019
3335 Clouds 1 1028 93 10000 1.5 170 06:21 03.12.2019
3336 Clouds 2 1028 93 10000 1.5 170 05:57 03.12.2019
3337 Clouds 1 1029 100 10000 1.5 190 04:48 03.12.2019
3338 Clouds 1 1029 93 10000 2.1 200 03:36 03.12.2019
3339 Clouds 1 1029 100 10000 1.5 190 03:18 03.12.2019
3340 Clouds 1 1029 100 10000 1.5 210 02:43 03.12.2019
3341 Clouds 1 1029 100 10000 1.5 210 02:24 03.12.2019
3342 Clouds 1 1028 85 10000 1.5 190 01:41 03.12.2019
3343 Clouds 1 1028 100 10000 1 0 01:21 03.12.2019
3344 Clouds 1 1029 100 10000 1 0 00:44 03.12.2019
3345 Clouds 1 1029 85 10000 1 180 00:26 03.12.2019
3346 Clouds 1 1028 85 10000 1 200 23:57 02.12.2019
3347 Clouds 1 1028 85 10000 1 200 23:39 02.12.2019
3348 -273 0 0 0 0 0 23:19 02.12.2019
3349 Clouds 1 1028 100 10000 0.5 0 23:19 02.12.2019
3350 Clouds 1 1028 83 10000 1.5 180 22:40 02.12.2019
3351 Clouds 1 1028 83 10000 1.5 180 22:21 02.12.2019
3352 Clouds 2 1028 83 10000 1.5 180 21:57 02.12.2019
3353 Clouds 1 1028 83 10000 2.1 180 21:37 02.12.2019
3354 Clear 1 1028 93 10000 1.33 279 21:18 02.12.2019
3355 Clouds 1 1028 83 10000 1.5 230 20:56 02.12.2019
3356 Clouds 1 1028 79 10000 1.5 230 20:38 02.12.2019
3357 Clouds 2 1028 86 10000 1.83 261 20:19 02.12.2019
3358 Clouds 2 1028 86 10000 1.83 261 20:19 02.12.2019
3359 Clouds 2 1028 86 10000 2.1 250 19:42 02.12.2019
3360 Clouds 2 1027 93 10000 2.1 230 19:22 02.12.2019
3361 Clouds 2 1027 93 10000 2.1 230 18:59 02.12.2019
3362 Clouds 2 1027 86 10000 2.1 260 18:59 02.12.2019
3363 Clouds 2 1027 86 10000 2.1 260 18:39 02.12.2019
3364 Clouds 2 1027 86 10000 2.1 220 18:19 02.12.2019
3365 Clouds 2 1027 86 10000 2.1 220 17:57 02.12.2019
3366 Drizzle 2 1027 86 10000 1.5 290 17:39 02.12.2019
3367 Rain 3 1027 86 10000 2.6 280 17:19 02.12.2019
3368 Clouds 3 1027 80 10000 3.6 300 16:40 02.12.2019
3369 Clouds 3 1026 65 10000 1.78 267 16:19 02.12.2019
3370 Clouds 3 1026 75 10000 6.2 300 15:59 02.12.2019
3371 Clouds 3 1026 75 10000 6.2 300 15:40 02.12.2019
3372 Clouds 3 1026 75 10000 4.1 290 15:22 02.12.2019
3373 Clouds 3 1026 75 10000 2.6 340 14:59 02.12.2019
3374 Clouds 3 1026 75 10000 2.6 340 14:38 02.12.2019
3375 Clouds 5 1026 70 10000 4.1 250 14:20 02.12.2019
3376 Clouds 5 1026 70 10000 4.1 250 14:20 02.12.2019
3377 Clouds 5 1026 70 10000 4.1 250 13:58 02.12.2019
3378 Clouds 5 1026 70 10000 3.6 290 13:39 02.12.2019
3379 Clouds 4 1026 60 10000 3.1 240 13:20 02.12.2019
3380 Clouds 4 1026 60 10000 3.1 200 12:57 02.12.2019
3381 Clouds 4 1026 60 10000 3.1 200 12:37 02.12.2019
3382 Clouds 4 1026 60 10000 3.6 220 12:19 02.12.2019
3383 Clouds 3 1026 60 10000 3.6 220 11:56 02.12.2019
3384 Clouds 3 1026 69 10000 2.1 200 11:37 02.12.2019
3385 Clouds 2 1026 74 10000 2.1 180 11:18 02.12.2019
3386 Clouds 2 1026 80 10000 2.1 200 10:55 02.12.2019
3387 Clouds 1 1026 80 10000 2.1 200 10:36 02.12.2019
3388 Clouds 1 1025 92 10000 1.5 180 10:18 02.12.2019
3389 Clouds 0 1025 86 10000 1 0 09:40 02.12.2019
3390 Clouds -1 1025 86 10000 1 0 09:19 02.12.2019
3391 Clouds -1 1025 86 10000 1 0 09:19 02.12.2019
3392 Clear -2 1024 92 10000 1.5 190 08:56 02.12.2019
3393 Clear -2 1024 92 10000 1.5 190 08:38 02.12.2019
3394 Clouds -2 1024 92 10000 1 0 08:20 02.12.2019
3395 Clouds -2 1024 100 10000 1 0 07:42 02.12.2019
3396 Clouds -1 1023 92 10000 1 190 07:21 02.12.2019
3397 Clouds -1 1023 92 10000 1 190 06:56 02.12.2019
3398 Clouds -1 1023 92 10000 1 0 06:37 02.12.2019
3399 Clouds -1 1022 69 10000 3.1 20 05:25 02.12.2019
3400 Clouds 0 1021 74 10000 3.1 10 04:20 02.12.2019
3401 Clouds 1 1021 74 10000 4.1 10 02:51 02.12.2019
3402 Clouds 1 1021 74 10000 3.6 10 02:26 02.12.2019
3403 Clouds 1 1020 74 10000 4.1 360 01:25 02.12.2019
3404 Clouds 1 1020 74 10000 3.6 10 00:55 02.12.2019
3405 Clouds 1 1019 69 10000 4.6 20 00:24 02.12.2019
3406 Clouds 1 1019 69 10000 2.6 20 23:54 01.12.2019
3407 Clouds 2 1019 69 10000 2.6 20 23:36 01.12.2019
3408 Clouds 2 1019 69 10000 3.1 10 23:18 01.12.2019
3409 Clouds 2 1019 74 10000 2.6 10 22:54 01.12.2019
3410 Clouds 2 1019 74 10000 2.6 10 22:36 01.12.2019
3411 Clouds 2 1019 74 10000 4.1 20 22:18 01.12.2019
3412 Clouds 2 1019 74 10000 4.1 20 21:54 01.12.2019
3413 Clouds 2 1019 74 10000 4.1 20 21:36 01.12.2019
3414 Clouds 2 1018 74 10000 4.6 30 21:18 01.12.2019
3415 Clouds 2 1018 69 10000 5.7 20 20:42 01.12.2019
3416 Clouds 2 1019 69 10000 4.6 20 20:24 01.12.2019
3417 Clouds 2 1019 69 10000 4.6 20 19:59 01.12.2019
3418 Clouds 2 1018 74 10000 4.1 30 19:40 01.12.2019
3419 Clouds 2 1018 69 10000 4.6 20 19:22 01.12.2019
3420 Clouds 2 1018 69 10000 4.6 20 18:58 01.12.2019
3421 Clouds 2 1018 74 10000 4.6 30 18:39 01.12.2019
3422 Clouds 2 1018 74 10000 4.6 20 18:20 01.12.2019
3423 Clouds 2 1017 74 10000 4.1 30 18:00 01.12.2019
3424 Clouds 2 1017 74 10000 4.1 30 17:41 01.12.2019
3425 Clouds 2 1018 74 10000 3.6 20 17:23 01.12.2019
3426 Clouds 2 1018 74 10000 3.6 20 17:23 01.12.2019
3427 Clouds 2 1018 74 10000 3.6 20 17:23 01.12.2019
3428 Clouds 2 1017 74 10000 4.6 20 16:57 01.12.2019
3429 Clouds 3 1017 74 10000 4.6 20 16:39 01.12.2019
3430 Clouds 3 1018 74 10000 4.1 30 16:20 01.12.2019
3431 Clouds 3 1018 74 10000 5.1 30 15:50 01.12.2019
3432 Clouds 3 1018 74 10000 5.1 30 15:31 01.12.2019
3433 Clouds 3 1018 64 10000 4.1 20 14:44 01.12.2019
3434 Clouds 3 1018 69 10000 5.1 30 14:20 01.12.2019
3435 Clouds 3 1018 69 10000 6.2 30 13:59 01.12.2019
3436 Clouds 3 1018 69 10000 6.2 30 13:39 01.12.2019
3437 Clouds 3 1019 69 10000 5.1 30 13:20 01.12.2019
3438 Clouds 3 1018 64 10000 5.7 30 12:44 01.12.2019
3439 Clouds 2 1019 69 10000 6.7 20 11:59 01.12.2019
3440 Clouds 2 1019 69 10000 6.7 20 11:40 01.12.2019
3441 Clouds 2 1019 69 10000 6.2 20 11:22 01.12.2019
3442 Clouds 2 1019 74 10000 4.6 20 10:44 01.12.2019
3443 Clouds 1 1019 74 10000 4.6 20 10:22 01.12.2019
3444 Clouds 1 1019 74 10000 4.6 20 09:59 01.12.2019
3445 Clouds 1 1019 80 10000 5.1 20 09:40 01.12.2019
3446 Clouds 1 1019 80 10000 4.1 20 09:20 01.12.2019
3447 Clouds 1 1018 80 10000 4.6 20 08:48 01.12.2019
3448 Clouds 0 1018 86 10000 4.6 30 08:20 01.12.2019
3449 Clouds 0 1019 86 10000 4.1 30 07:52 01.12.2019
3450 Clouds 0 1019 86 10000 4.1 30 07:31 01.12.2019
3451 Clouds 0 1019 86 10000 3.6 20 06:57 01.12.2019
3452 Clouds 0 1019 86 10000 3.1 10 06:35 01.12.2019
3453 Clouds 0 1020 69 10000 3.1 30 05:49 01.12.2019
3454 Clouds 0 1020 100 10000 2.6 60 04:52 01.12.2019
3455 Clouds 0 1021 69 10000 2.6 70 03:39 01.12.2019
3456 Clouds 0 1021 100 10000 3.6 70 02:38 01.12.2019
3457 Clouds 0 1021 92 10000 1 0 02:19 01.12.2019
3458 Clouds 0 1021 70 10000 2.6 10 01:52 01.12.2019
3459 Clouds 0 1022 70 10000 3.1 80 01:26 01.12.2019
3460 Clouds 0 1022 70 10000 3.1 80 00:43 01.12.2019
3461 Clouds 0 1022 100 10000 4.1 60 00:24 01.12.2019
3462 Clouds 0 1022 100 10000 2.6 70 23:44 30.11.2019
3463 Clear 0 1022 71 10000 3.1 60 23:24 30.11.2019
3464 Clear 0 1023 86 10000 3.1 80 22:57 30.11.2019
3465 Clear 0 1023 86 10000 3.1 80 22:38 30.11.2019
3466 Clear 0 1023 71 10000 2.6 70 22:20 30.11.2019
3467 Clear 0 1023 86 10000 2.6 70 21:47 30.11.2019
3468 Clear 0 1023 71 10000 2.6 60 21:28 30.11.2019
3469 Clear 0 1023 71 10000 2.6 60 20:58 30.11.2019
3470 Clear 0 1023 71 10000 2.1 70 20:39 30.11.2019
3471 Clear 1 1023 69 10000 2.1 70 20:19 30.11.2019
3472 Clear 1 1023 69 10000 2.1 70 19:56 30.11.2019
3473 Clear 1 1023 69 10000 2.1 60 19:38 30.11.2019
3474 Clear 1 1023 69 10000 1.5 60 19:20 30.11.2019
3475 Clear 1 1023 69 10000 3.1 100 18:58 30.11.2019
3476 Clear 1 1023 69 10000 3.1 100 18:38 30.11.2019
3477 Clouds 2 1023 69 10000 3.6 70 18:20 30.11.2019
3478 Clouds 2 1023 69 10000 3.6 70 17:58 30.11.2019
3479 Clouds 2 1023 69 10000 4.1 60 17:39 30.11.2019
3480 Clouds 3 1023 59 10000 3.1 60 17:21 30.11.2019
3481 Clouds 4 1023 59 10000 3.1 60 16:58 30.11.2019
3482 Clouds 4 1023 80 10000 3.1 70 16:40 30.11.2019
3483 Clouds 5 1023 70 10000 1 0 16:20 30.11.2019
3484 Clouds 6 1023 61 10000 1 0 15:42 30.11.2019
3485 Clouds 6 1023 65 10000 1 0 15:20 30.11.2019
3486 Clouds 6 1023 65 10000 1 0 14:58 30.11.2019
3487 Clouds 6 1023 65 10000 1 0 14:38 30.11.2019
3488 Clouds 6 1024 70 10000 0.5 0 14:20 30.11.2019
3489 Clouds 6 1024 70 10000 0.5 0 13:58 30.11.2019
3490 Clouds 6 1024 65 10000 0.5 0 13:40 30.11.2019
3491 Clouds 6 1024 70 10000 1.5 180 13:22 30.11.2019
3492 Clouds 6 1024 75 10000 1 0 12:47 30.11.2019
3493 Clouds 6 1024 75 10000 1 0 12:29 30.11.2019
3494 Clouds 5 1024 75 10000 1 0 11:59 30.11.2019
3495 Clouds 5 1024 75 10000 1 0 11:40 30.11.2019
3496 Clouds 5 1024 75 10000 1.5 200 11:18 30.11.2019
3497 Clear 4 1024 86 10000 1.5 170 10:54 30.11.2019
3498 Clear 4 1024 86 10000 1.5 170 10:36 30.11.2019
3499 Clear 3 1024 93 10000 1 0 10:18 30.11.2019
3500 Clear 2 1023 100 10000 1.5 190 09:42 30.11.2019
3501 Clouds 2 1023 69 10000 1.5 220 09:20 30.11.2019
3502 Clouds 2 1023 69 10000 1 210 08:42 30.11.2019
3503 Clouds 2 1023 75 10000 0.5 0 08:19 30.11.2019
3504 Clouds 2 1023 75 10000 1 0 07:44 30.11.2019
3505 Clouds 2 1022 93 10000 2.1 130 07:26 30.11.2019
3506 Clouds 3 1022 80 10000 2.6 250 06:49 30.11.2019
3507 Clouds 3 1022 80 10000 2.6 250 06:28 30.11.2019
3508 Clouds 3 1022 80 10000 2.6 250 06:28 30.11.2019
3509 Clouds 3 1022 86 10000 3.1 250 05:33 30.11.2019
3510 Clouds 3 1021 80 10000 4.1 250 03:42 30.11.2019
3511 Clouds 3 1021 80 10000 3.1 250 02:39 30.11.2019
3512 Clouds 3 1021 80 10000 3.6 250 02:20 30.11.2019
3513 Clouds 3 1020 80 10000 4.6 240 01:25 30.11.2019
3514 Clouds 3 1020 80 10000 4.1 260 00:49 30.11.2019
3515 Clouds 3 1020 75 10000 3.6 260 00:30 30.11.2019
3516 Clouds 3 1020 75 10000 3.6 260 23:58 29.11.2019
3517 Clouds 4 1019 75 10000 3.1 260 23:40 29.11.2019
3518 Clouds 4 1019 75 10000 2.6 270 23:20 29.11.2019
3519 Clouds 3 1018 75 10000 3.1 250 22:42 29.11.2019
3520 Clouds 3 1018 75 10000 3.6 240 22:23 29.11.2019
3521 Clouds 3 1018 75 10000 3.6 240 21:44 29.11.2019
3522 Clouds 3 1018 75 10000 3.6 240 21:24 29.11.2019
3523 Clouds 3 1018 75 10000 3.6 240 20:57 29.11.2019
3524 Clouds 3 1017 75 10000 3.6 240 20:38 29.11.2019
3525 Clouds 3 1017 80 10000 3.1 230 20:19 29.11.2019
3526 Clouds 4 1016 86 10000 3.1 240 19:57 29.11.2019
3527 Clouds 4 1016 86 10000 3.1 240 19:39 29.11.2019
3528 Clouds 4 1016 80 10000 3.1 240 19:19 29.11.2019
3529 Clouds 4 1015 80 10000 2.6 230 18:57 29.11.2019
3530 Clouds 4 1015 80 10000 2.6 230 18:38 29.11.2019
3531 Clouds 4 1015 80 10000 2.1 210 18:19 29.11.2019
3532 Clouds 4 1014 86 10000 3.1 220 17:43 29.11.2019
3533 Clouds 4 1014 86 10000 2.1 200 17:24 29.11.2019
3534 Clouds 5 1013 70 10000 3.1 240 16:57 29.11.2019
3535 Clouds 5 1014 86 10000 2.1 200 16:57 29.11.2019
3536 Clouds 5 1013 70 10000 3.1 240 16:39 29.11.2019
3537 Clouds 6 1013 49 10000 3.6 260 16:19 29.11.2019
3538 Clouds 7 1012 49 10000 3.6 310 15:41 29.11.2019
3539 Clouds 7 1012 49 10000 3.6 310 15:41 29.11.2019
3540 Clouds 7 1012 52 10000 4.6 0 15:23 29.11.2019
3541 Clouds 7 1011 61 10000 4.1 290 14:56 29.11.2019
3542 Clouds 7 1011 61 10000 4.1 290 14:38 29.11.2019
3543 Clouds 7 1011 61 10000 4.1 0 14:20 29.11.2019
3544 Clouds 7 1011 65 10000 3.6 0 13:41 29.11.2019
3545 Clouds 7 1010 70 10000 3.6 290 13:21 29.11.2019
3546 Clouds 7 1010 70 10000 3.6 290 12:58 29.11.2019
3547 Clouds 7 1010 75 10000 3.6 300 12:58 29.11.2019
3548 Clouds 7 1010 75 10000 3.6 300 12:39 29.11.2019
3549 Clouds 7 1010 75 10000 3.1 300 12:21 29.11.2019
3550 Rain 6 1010 75 10000 3.6 300 11:55 29.11.2019
3551 Rain 6 1010 75 10000 3.6 300 11:36 29.11.2019
3552 Rain 6 1009 75 10000 4.1 310 11:18 29.11.2019
3553 Clouds 6 1009 75 10000 4.1 310 10:56 29.11.2019
3554 Clouds 6 1009 75 10000 2.6 0 10:37 29.11.2019
3555 Clouds 6 1008 81 10000 3.1 0 10:19 29.11.2019
3556 Clouds 6 1008 81 10000 3.1 0 09:56 29.11.2019
3557 Clouds 6 1007 81 10000 3.1 320 09:37 29.11.2019
3558 Clouds 6 1007 81 10000 3.6 320 09:19 29.11.2019
3559 Rain 7 1006 87 10000 3.1 320 08:40 29.11.2019
3560 Rain 7 1005 87 10000 4.1 310 08:22 29.11.2019
3561 Rain 7 1005 87 10000 4.1 310 07:58 29.11.2019
3562 Rain 7 1005 87 10000 3.6 310 07:40 29.11.2019
3563 Rain 7 1004 93 10000 3.1 260 07:22 29.11.2019
3564 Rain 8 1003 93 10000 3.1 240 06:43 29.11.2019
3565 Rain 8 1002 87 10000 3.6 260 05:48 29.11.2019
3566 Clouds 8 1002 87 10000 3.1 270 05:26 29.11.2019
3567 Rain 8 1002 87 10000 2.6 270 04:35 29.11.2019
3568 Rain 8 1001 87 10000 4.6 230 03:23 29.11.2019
3569 Clouds 8 1000 93 10000 5.1 220 02:42 29.11.2019
3570 Rain 9 1000 93 10000 5.1 220 02:20 29.11.2019
3571 Rain 9 1000 93 10000 4.6 250 01:27 29.11.2019
3572 Rain 9 1000 87 10000 5.7 220 00:51 29.11.2019
3573 Rain 9 1000 87 10000 5.7 210 00:22 29.11.2019
3574 Rain 9 999 93 10000 4.6 200 23:57 28.11.2019
3575 Rain 9 999 93 10000 4.6 200 23:39 28.11.2019
3576 Rain 9 999 93 10000 3.6 200 23:20 28.11.2019
3577 Rain 9 999 93 10000 3.6 200 23:20 28.11.2019
3578 Rain 9 999 93 9000 3.6 220 22:55 28.11.2019
3579 Rain 9 999 93 9000 3.6 220 22:36 28.11.2019
3580 Rain 9 999 93 10000 5.7 210 22:18 28.11.2019
3581 Rain 9 999 93 10000 4.6 210 21:42 28.11.2019
3582 Rain 9 998 93 10000 6.7 210 21:21 28.11.2019
3583 Rain 9 998 93 10000 5.1 220 20:59 28.11.2019
3584 Rain 9 998 93 10000 5.1 220 20:41 28.11.2019
3585 Rain 9 998 93 10000 3.6 250 20:21 28.11.2019
3586 Rain 9 998 87 10000 5.1 220 19:57 28.11.2019
3587 Rain 9 998 81 10000 6.2 220 19:38 28.11.2019
3588 Rain 9 997 81 10000 6.7 220 19:19 28.11.2019
3589 Rain 9 997 71 10000 8.7 210 18:58 28.11.2019
3590 Rain 9 997 71 10000 8.7 210 18:39 28.11.2019
3591 Rain 9 997 81 10000 7.2 210 18:18 28.11.2019
3592 Rain 9 997 81 10000 7.2 210 17:58 28.11.2019
3593 Rain 9 997 81 10000 7.2 210 17:58 28.11.2019
3594 Rain 9 997 81 10000 7.2 210 17:58 28.11.2019
3595 Rain 10 997 76 10000 7.7 220 17:40 28.11.2019
3596 Rain 10 996 76 10000 7.7 210 17:20 28.11.2019
3597 Rain 10 996 76 10000 7.7 210 17:20 28.11.2019
3598 Clouds 10 996 71 10000 8.7 210 16:41 28.11.2019
3599 Clouds 10 996 71 10000 9.3 220 16:19 28.11.2019
3600 Rain 10 996 66 10000 10.8 220 15:58 28.11.2019
3601 Rain 10 996 66 10000 10.8 220 15:40 28.11.2019
3602 Rain 11 995 66 10000 10.3 210 15:20 28.11.2019
3603 Rain 11 995 66 10000 10.3 210 15:20 28.11.2019
3604 Clouds 11 995 66 10000 9.8 210 14:58 28.11.2019
3605 Clouds 11 995 66 10000 9.8 210 14:39 28.11.2019
3606 Clouds 11 995 66 10000 10.3 210 14:20 28.11.2019
3607 Clouds 11 995 66 10000 10.3 210 13:55 28.11.2019
3608 Clouds 11 996 71 10000 9.8 210 13:37 28.11.2019
3609 Clouds 11 996 71 10000 9.3 200 13:19 28.11.2019
3610 Clouds 11 995 66 10000 9.3 210 12:41 28.11.2019
3611 Clouds 11 996 66 10000 9.3 200 12:23 28.11.2019
3612 Clouds 10 996 71 10000 8.2 200 11:56 28.11.2019
3613 Clouds 10 996 71 10000 8.2 200 11:38 28.11.2019
3614 Clouds 10 996 76 10000 7.7 200 11:20 28.11.2019
3615 Clouds 10 996 76 10000 6.7 190 10:42 28.11.2019
3616 Clouds 10 996 76 10000 6.7 190 10:42 28.11.2019
3617 Clouds 10 995 81 10000 6.2 190 10:22 28.11.2019
3618 Clouds 9 995 81 10000 6.2 190 09:59 28.11.2019
3619 Clouds 9 995 81 10000 6.2 200 09:40 28.11.2019
3620 Rain 9 995 81 10000 6.2 200 09:20 28.11.2019
3621 Rain 9 995 81 10000 6.2 200 09:20 28.11.2019
3622 Rain 9 995 81 10000 6.2 200 08:54 28.11.2019
3623 Rain 9 995 81 10000 6.2 200 08:36 28.11.2019
3624 Rain 9 995 76 10000 6.7 220 08:18 28.11.2019
3625 Clouds 9 994 76 10000 5.7 200 07:41 28.11.2019
3626 Rain 9 994 81 10000 7.7 200 07:23 28.11.2019
3627 Clouds 9 995 87 10000 3.1 240 06:43 28.11.2019
3628 Clouds 9 994 81 10000 5.7 200 06:22 28.11.2019
3629 Rain 9 994 81 10000 4.1 210 05:44 28.11.2019
3630 Clouds 9 994 71 10000 6.7 210 04:57 28.11.2019
3631 Rain 10 994 76 10000 10.3 210 02:36 28.11.2019
3632 Rain 10 994 81 10000 8.2 220 01:35 28.11.2019
3633 Rain 10 994 81 10000 7.7 200 00:43 28.11.2019
3634 Rain 10 994 87 10000 6.7 200 00:20 28.11.2019
3635 Rain 10 995 81 10000 6.2 210 23:41 27.11.2019
3636 Rain 10 994 81 10000 7.7 200 23:22 27.11.2019
3637 Clouds 10 994 81 10000 6.7 200 22:59 27.11.2019
3638 Clouds 10 994 81 10000 6.7 200 22:38 27.11.2019
3639 Clouds 10 994 93 10000 5.7 250 22:20 27.11.2019
3640 Rain 10 994 81 10000 6.7 190 21:56 27.11.2019
3641 Rain 10 994 81 10000 6.7 190 21:37 27.11.2019
3642 Rain 10 994 81 10000 6.7 190 21:37 27.11.2019
3643 Rain 10 994 87 10000 7.2 230 21:19 27.11.2019
3644 Rain 10 994 87 10000 7.2 230 20:58 27.11.2019
3645 Clouds 10 994 87 10000 6.2 180 20:58 27.11.2019
3646 Rain 10 994 87 10000 7.2 230 20:39 27.11.2019
3647 Clouds 10 994 81 10000 7.7 190 20:20 27.11.2019
3648 Clouds 10 994 81 10000 7.7 190 19:57 27.11.2019
3649 Clouds 10 993 81 10000 7.7 200 19:57 27.11.2019
3650 Clouds 10 993 81 10000 7.7 200 19:39 27.11.2019
3651 Clouds 10 993 81 10000 7.7 190 19:19 27.11.2019
3652 Clouds 10 993 81 10000 7.7 190 18:58 27.11.2019
3653 Clouds 10 993 81 10000 7.7 190 18:58 27.11.2019
3654 Rain 10 993 76 10000 7.2 190 18:37 27.11.2019
3655 Clouds 10 994 87 10000 5.1 210 18:19 27.11.2019
3656 Clouds 10 994 93 10000 5.7 200 17:56 27.11.2019
3657 Rain 10 994 81 10000 5.1 190 17:38 27.11.2019
3658 Rain 10 994 76 10000 5.7 190 17:20 27.11.2019
3659 Rain 10 994 76 10000 5.7 190 17:20 27.11.2019
3660 Rain 11 994 76 10000 7.2 190 16:56 27.11.2019
3661 Rain 11 994 76 10000 7.2 190 16:37 27.11.2019
3662 Rain 11 994 87 10000 5.7 210 16:18 27.11.2019
3663 Rain 11 994 71 10000 5.7 170 15:57 27.11.2019
3664 Clouds 11 994 71 10000 5.1 180 15:38 27.11.2019
3665 Clouds 11 994 71 10000 5.1 180 15:38 27.11.2019
3666 Clouds 11 994 76 10000 5.1 180 15:20 27.11.2019
3667 Clouds 11 994 81 10000 4.6 180 14:56 27.11.2019
3668 Clouds 11 994 81 10000 4.6 180 14:38 27.11.2019
3669 Clouds 11 994 81 10000 5.1 170 14:20 27.11.2019
3670 Clouds 11 995 81 10000 4.6 180 13:56 27.11.2019
3671 Clouds 10 995 81 10000 4.6 180 13:38 27.11.2019
3672 Clouds 10 995 81 10000 4.6 180 13:38 27.11.2019
3673 Clouds 10 995 81 10000 4.6 170 13:19 27.11.2019
3674 Clouds 10 995 87 10000 3.6 170 12:42 27.11.2019
3675 Clouds 9 996 93 10000 5.1 170 12:22 27.11.2019
3676 Clouds 9 996 93 10000 3.6 180 11:59 27.11.2019
3677 Clouds 9 996 93 10000 3.6 180 11:37 27.11.2019
3678 Clouds 9 996 93 10000 4.1 180 11:19 27.11.2019
3679 Clouds 9 996 93 10000 5.1 170 10:55 27.11.2019
3680 Clouds 8 996 93 10000 5.1 170 10:37 27.11.2019
3681 Clouds 8 996 87 10000 5.1 170 10:19 27.11.2019
3682 Rain 8 996 93 10000 5.1 180 09:41 27.11.2019
3683 Rain 7 996 93 10000 3.6 190 09:23 27.11.2019
3684 Rain 7 996 100 6000 2.1 170 08:43 27.11.2019
3685 Rain 7 996 93 4000 1.5 150 08:23 27.11.2019
3686 Rain 7 995 93 8000 1.5 140 07:59 27.11.2019
3687 Rain 7 995 93 8000 1.5 140 07:40 27.11.2019
3688 Rain 7 996 100 9000 1 0 07:21 27.11.2019
3689 Rain 7 996 93 10000 1.5 130 06:45 27.11.2019
3690 Clouds 7 996 93 10000 2.1 40 06:25 27.11.2019
3691 Clouds 6 996 93 10000 1.5 40 05:27 27.11.2019
3692 Clouds 7 996 93 10000 2.6 50 04:57 27.11.2019
3693 Clouds 7 996 93 10000 2.6 50 04:37 27.11.2019
3694 Clouds 7 997 93 10000 2.1 100 03:50 27.11.2019
3695 Rain 7 997 100 10000 5.1 70 03:21 27.11.2019
3696 Rain 7 999 100 10000 1 0 02:54 27.11.2019
3697 Fog 7 999 100 10000 1.5 40 01:35 27.11.2019
3698 Clouds 7 1001 100 10000 0.5 0 00:44 27.11.2019
3699 Clouds 8 1001 100 10000 2.1 80 00:25 27.11.2019
3700 Clouds 8 1001 100 10000 1 100 23:47 26.11.2019
3701 Clouds 8 1002 100 10000 2.1 110 23:26 26.11.2019
3702 Clouds 8 1003 100 10000 1 240 22:57 26.11.2019
3703 Clouds 8 1003 100 10000 1 240 22:38 26.11.2019
3704 Clouds 8 1003 100 10000 1.39 175 22:19 26.11.2019
3705 Clouds 8 1003 93 10000 1.5 130 21:58 26.11.2019
3706 Clouds 8 1003 93 10000 1.5 130 21:37 26.11.2019
3707 Rain 8 1004 93 10000 1.5 160 21:19 26.11.2019
3708 Rain 9 1004 87 10000 2.6 170 20:54 26.11.2019
3709 Rain 9 1004 87 10000 2.6 170 20:36 26.11.2019
3710 Clouds 9 1004 87 10000 3.1 180 20:18 26.11.2019
3711 Clouds 9 1004 87 10000 3.1 190 19:54 26.11.2019
3712 Clouds 9 1004 87 10000 3.1 190 19:36 26.11.2019
3713 Clouds 9 1004 87 10000 3.1 170 19:18 26.11.2019
3714 Clouds 9 1005 87 10000 3.6 180 18:56 26.11.2019
3715 Clouds 9 1005 87 10000 3.6 180 18:37 26.11.2019
3716 Clouds 9 1005 87 10000 3.1 160 18:19 26.11.2019
3717 Clouds 9 1005 87 10000 3.1 180 17:54 26.11.2019
3718 Clouds 9 1005 87 10000 3.1 180 17:36 26.11.2019
3719 Clouds 9 1005 87 10000 2.6 180 17:18 26.11.2019
3720 Clouds 9 1005 87 10000 3.1 170 16:54 26.11.2019
3721 Clouds 9 1005 87 10000 3.1 170 16:36 26.11.2019
3722 Clouds 9 1005 87 10000 2.1 170 16:18 26.11.2019
3723 Clouds 9 1005 87 10000 2.1 170 15:56 26.11.2019
3724 Clouds 10 1006 87 10000 1.5 190 15:37 26.11.2019
3725 Mist 9 1006 100 4400 2.1 170 15:18 26.11.2019
3726 Clouds 9 1006 93 10000 2.6 160 14:43 26.11.2019
3727 Clouds 9 1006 87 10000 2.1 170 14:23 26.11.2019
3728 Clouds 9 1006 93 10000 2.6 180 13:43 26.11.2019
3729 Clouds 9 1007 100 7000 3.1 190 13:24 26.11.2019
3730 Clouds 9 1007 93 7000 3.1 190 12:57 26.11.2019
3731 Clouds 9 1007 93 7000 3.1 190 12:36 26.11.2019
3732 Clouds 8 1007 93 7000 3.6 190 12:18 26.11.2019
3733 Clouds 8 1008 100 7000 3.1 180 11:55 26.11.2019
3734 Clouds 8 1008 100 7000 3.1 180 11:36 26.11.2019
3735 Clouds 8 1008 93 7000 2.6 180 11:18 26.11.2019
3736 Clouds 8 1008 93 6000 2.1 190 10:56 26.11.2019
3737 Clouds 7 1008 93 6000 2.1 190 10:37 26.11.2019
3738 Mist 7 1008 93 3500 1 0 10:19 26.11.2019
3739 Drizzle 7 1008 100 2500 1 170 09:42 26.11.2019
3740 Drizzle 7 1008 100 1800 0.5 0 09:23 26.11.2019
3741 Drizzle 6 1009 93 2000 1 0 08:50 26.11.2019
3742 -273 0 0 0 0 0 08:31 26.11.2019
3743 Mist 6 1009 100 3000 0.5 0 07:58 26.11.2019
3744 Mist 6 1008 100 3000 1 0 07:40 26.11.2019
3745 Drizzle 6 1009 100 1800 1 0 07:21 26.11.2019
3746 Drizzle 6 1008 100 1500 0.5 0 06:50 26.11.2019
3747 Mist 6 1009 100 2300 0.5 0 05:59 26.11.2019
3748 Mist 6 1009 100 2500 1 130 05:26 26.11.2019
3749 Mist 5 1010 100 2900 1 220 03:22 26.11.2019
3750 Mist 6 1010 100 2900 1 220 03:22 26.11.2019
3751 Mist 5 1010 100 2900 1 0 01:42 26.11.2019
3752 Mist 6 1010 100 2800 1 60 01:22 26.11.2019
3753 Mist 6 1010 100 2800 1 50 00:41 26.11.2019
3754 Mist 6 1011 100 2400 1 60 00:18 26.11.2019
3755 Mist 5 1011 100 2700 0.5 60 23:39 25.11.2019
3756 Mist 5 1011 100 2700 0.5 70 23:19 25.11.2019
3757 Rain 5 1011 100 1900 0.5 60 22:54 25.11.2019
3758 Rain 5 1011 100 1900 0.5 60 22:36 25.11.2019
3759 Rain 5 1011 100 1900 0.5 60 22:36 25.11.2019
3760 Rain 5 1011 100 1200 0.5 0 22:18 25.11.2019
3761 Rain 5 1011 100 1200 0.5 0 22:18 25.11.2019
3762 Rain 5 1011 93 1300 1 0 21:55 25.11.2019
3763 Rain 5 1011 93 1300 1 0 21:36 25.11.2019
3764 Rain 5 1011 93 1800 1 0 21:18 25.11.2019
3765 Rain 5 1011 93 1800 1 0 21:18 25.11.2019
3766 Rain 5 1011 93 2000 1.5 130 20:54 25.11.2019
3767 Rain 5 1011 93 2000 1.5 130 20:36 25.11.2019
3768 Rain 5 1011 100 1800 1 0 20:18 25.11.2019
3769 Rain 5 1011 93 2800 1.5 130 19:54 25.11.2019
3770 Rain 5 1011 93 2800 1.5 130 19:36 25.11.2019
3771 Mist 5 1011 100 3200 1.5 180 19:18 25.11.2019
3772 Mist 5 1011 100 4000 1 0 18:55 25.11.2019
3773 Mist 5 1011 100 4000 1 0 18:37 25.11.2019
3774 Mist 5 1011 100 3800 1.28 195 18:18 25.11.2019
3775 Mist 5 1011 100 3700 0.5 0 17:55 25.11.2019
3776 Mist 5 1011 100 3700 0.5 0 17:36 25.11.2019
3777 Mist 5 1011 100 3700 0.5 0 17:36 25.11.2019
3778 Mist 5 1011 100 3500 0.5 0 17:18 25.11.2019
3779 Mist 5 1011 100 800 1.5 160 16:42 25.11.2019
3780 Mist 5 1010 100 4700 1 0 16:23 25.11.2019
3781 Mist 5 1010 100 4700 1 0 15:58 25.11.2019
3782 Mist 5 1010 93 5000 1.5 130 15:58 25.11.2019
3783 Mist 5 1010 93 5000 1.5 130 15:39 25.11.2019
3784 Mist 5 1010 93 5000 1 0 15:20 25.11.2019
3785 Mist 5 1010 100 5000 1 0 14:56 25.11.2019
3786 Mist 5 1010 100 5000 1 0 14:38 25.11.2019
3787 Mist 5 1010 93 5000 1 0 14:20 25.11.2019
3788 Clouds 5 1010 93 6000 2.1 180 13:40 25.11.2019
3789 Mist 5 1011 100 800 1.07 182 13:21 25.11.2019
3790 Drizzle 5 1011 100 5000 1.5 170 12:59 25.11.2019
3791 Drizzle 5 1011 100 5000 1.5 170 12:59 25.11.2019
3792 Drizzle 5 1011 100 5000 1.5 170 12:40 25.11.2019
3793 Mist 5 1011 100 3800 1 160 12:21 25.11.2019
3794 Mist 5 1011 100 3200 0.5 0 11:57 25.11.2019
3795 Mist 5 1011 100 3200 0.5 0 11:38 25.11.2019
3796 Mist 4 1011 93 2500 1 0 11:20 25.11.2019
3797 Mist 4 1011 93 1400 1 0 10:45 25.11.2019
3798 Mist 4 1011 93 1400 1 0 10:27 25.11.2019
3799 Mist 4 1011 100 1200 2.1 100 09:58 25.11.2019
3800 Mist 4 1011 100 1400 2.1 100 09:40 25.11.2019
3801 Mist 4 1011 100 1300 2.1 120 09:22 25.11.2019
3802 Mist 3 1011 100 1000 2.1 60 08:41 25.11.2019
3803 Mist 3 1010 100 1100 2.1 0 08:22 25.11.2019
3804 Mist 3 1011 100 1200 1.5 120 07:45 25.11.2019
3805 Mist 3 1010 100 1200 1 0 07:24 25.11.2019
3806 Fog 3 1010 100 900 1 0 06:51 25.11.2019
3807 Fog 3 1010 100 800 1 0 06:22 25.11.2019
3808 Fog 3 1010 100 500 1.5 0 05:49 25.11.2019
3809 Fog 3 1010 100 200 0.87 165 05:28 25.11.2019
3810 Mist 3 1010 100 1200 1.08 229 03:49 25.11.2019
3811 Fog 2 1010 100 1200 0.5 0 02:32 25.11.2019
3812 Fog 2 1010 100 400 1.5 50 01:42 25.11.2019
3813 Mist 2 1010 100 4000 1.5 70 01:23 25.11.2019
3814 Fog 2 1010 100 200 1 0 00:37 25.11.2019
3815 Mist 2 1010 100 4400 0.64 195 00:18 25.11.2019
3816 Mist 2 1010 100 4400 0.64 195 00:18 25.11.2019
3817 Fog 2 1010 93 400 0.64 195 23:43 24.11.2019
3818 Mist 3 1010 100 1200 1 140 23:20 24.11.2019
3819 Mist 3 1009 93 4000 0.5 0 22:57 24.11.2019
3820 Mist 3 1009 93 4000 0.5 0 22:37 24.11.2019
3821 Mist 3 1010 93 4000 0.83 234 22:19 24.11.2019
3822 Mist 3 1010 100 5000 1 190 21:56 24.11.2019
3823 Mist 3 1010 100 5000 1 190 21:37 24.11.2019
3824 Mist 3 1010 100 5000 1 0 21:19 24.11.2019
3825 Mist 3 1010 100 5000 1 0 20:56 24.11.2019
3826 Clouds 3 1009 100 7000 1 160 20:37 24.11.2019
3827 Clouds 3 1009 100 7000 1 160 20:37 24.11.2019
3828 Clouds 3 1009 100 7000 0.5 0 20:18 24.11.2019
3829 Fog 3 1009 93 8000 1 180 19:55 24.11.2019
3830 Fog 3 1009 93 8000 1 180 19:55 24.11.2019
3831 Fog 3 1009 93 8000 1 180 19:37 24.11.2019
3832 Clouds 3 1009 100 9000 0.5 220 19:19 24.11.2019
3833 Clouds 4 1009 100 9000 1.5 230 18:56 24.11.2019
3834 Clouds 4 1009 93 10000 0.5 210 18:36 24.11.2019
3835 Clouds 4 1009 93 10000 0.5 210 18:18 24.11.2019
3836 Clouds 4 1008 100 10000 1 220 17:55 24.11.2019
3837 Clouds 5 1008 100 10000 1 220 17:37 24.11.2019
3838 Clouds 5 1008 100 10000 1 220 17:37 24.11.2019
3839 Clouds 5 1008 93 10000 2.1 180 17:18 24.11.2019
3840 Clouds 5 1008 93 10000 2.1 180 17:18 24.11.2019
3841 Clouds 6 1008 93 10000 1 210 16:54 24.11.2019
3842 Clouds 6 1008 93 10000 1 210 16:36 24.11.2019
3843 Clouds 7 1008 87 10000 1.5 210 16:18 24.11.2019
3844 Clouds 8 1008 81 10000 2.1 270 15:43 24.11.2019
3845 Clouds 8 1008 81 10000 2.1 270 15:25 24.11.2019
3846 Clouds 8 1008 76 10000 1 0 14:57 24.11.2019
3847 Clouds 8 1007 76 10000 0.5 0 14:38 24.11.2019
3848 Clouds 8 1007 76 10000 0.5 0 14:38 24.11.2019
3849 Clouds 8 1007 76 10000 1 0 14:18 24.11.2019
3850 Clouds 8 1007 76 10000 1 0 13:41 24.11.2019
3851 Clouds 7 1007 81 10000 0.5 0 13:22 24.11.2019
3852 Clouds 7 1007 81 10000 0.5 0 12:59 24.11.2019
3853 Clouds 7 1007 81 10000 1 0 12:41 24.11.2019
3854 Clouds 7 1007 81 10000 0.5 0 12:19 24.11.2019
3855 Clouds 6 1007 87 10000 1 0 11:56 24.11.2019
3856 Clouds 6 1007 87 10000 1 0 11:37 24.11.2019
3857 Clouds 5 1007 87 10000 1.5 30 11:18 24.11.2019
3858 Clouds 5 1007 87 10000 0.5 0 10:47 24.11.2019
3859 Clouds 5 1007 87 10000 0.5 0 10:29 24.11.2019
3860 Clouds 4 1006 93 10000 1 0 09:57 24.11.2019
3861 Clouds 3 1006 86 10000 0.5 0 09:37 24.11.2019
3862 Clouds 3 1006 93 10000 2.6 210 09:18 24.11.2019
3863 Clouds 3 1006 86 10000 2.6 80 08:44 24.11.2019
3864 Clouds 3 1005 93 10000 1 0 08:22 24.11.2019
3865 Clouds 3 1005 93 10000 1 0 07:58 24.11.2019
3866 Clouds 3 1005 93 10000 1 90 07:38 24.11.2019
3867 Clouds 3 1005 93 10000 0.5 0 07:19 24.11.2019
3868 Clouds 3 1004 93 10000 1.5 70 06:20 24.11.2019
3869 Clouds 3 1004 93 10000 1.5 70 06:20 24.11.2019
3870 Clouds 3 1004 93 10000 1.5 70 06:20 24.11.2019
3871 Clouds 4 1003 93 10000 2.6 70 04:49 24.11.2019
3872 Clouds 4 1003 86 10000 3.6 20 03:38 24.11.2019
3873 Clouds 4 1002 86 10000 5.1 20 02:26 24.11.2019
3874 Clouds 5 1002 87 10000 3.6 20 01:41 24.11.2019
3875 Clouds 5 1002 81 10000 2.6 50 01:22 24.11.2019
3876 Clouds 5 1001 87 10000 3.6 30 00:47 24.11.2019
3877 Clouds 5 1001 81 10000 5.7 20 00:24 24.11.2019
3878 Clouds 5 1001 81 10000 5.1 20 23:54 23.11.2019
3879 Clouds 5 1001 81 10000 5.1 20 23:36 23.11.2019
3880 Clouds 6 1001 75 10000 5.1 20 23:18 23.11.2019
3881 Clouds 6 1000 70 10000 6.2 20 22:54 23.11.2019
3882 Clouds 6 1000 70 10000 6.2 20 22:36 23.11.2019
3883 Clouds 6 1000 70 10000 6.2 20 22:18 23.11.2019
3884 Clouds 6 1000 70 10000 6.2 30 21:42 23.11.2019
3885 Clouds 6 1000 70 10000 6.7 30 21:23 23.11.2019
3886 Clouds 6 999 70 10000 6.7 20 20:59 23.11.2019
3887 Clouds 6 999 70 10000 6.7 20 20:37 23.11.2019
3888 Clouds 7 999 70 10000 6.2 20 20:19 23.11.2019
3889 Clouds 7 999 70 10000 6.7 20 19:56 23.11.2019
3890 Clouds 7 999 70 10000 6.7 20 19:38 23.11.2019
3891 Clouds 7 999 70 10000 6.2 20 19:18 23.11.2019
3892 Clouds 7 998 70 10000 7.2 20 18:55 23.11.2019
3893 Clouds 7 998 70 10000 7.2 20 18:36 23.11.2019
3894 Clouds 8 998 66 10000 6.7 20 18:18 23.11.2019
3895 Clouds 8 998 66 10000 6.7 20 17:41 23.11.2019
3896 Clouds 8 998 66 10000 6.2 20 17:21 23.11.2019
3897 Clouds 8 998 66 10000 6.2 20 16:56 23.11.2019
3898 Clouds 9 998 66 10000 6.2 20 16:38 23.11.2019
3899 Clouds 9 998 66 10000 5.7 20 16:20 23.11.2019
3900 Clouds 9 998 66 10000 5.7 20 15:58 23.11.2019
3901 Clouds 9 998 66 10000 6.2 20 15:39 23.11.2019
3902 Clouds 9 998 66 10000 5.1 30 15:19 23.11.2019
3903 Clouds 10 998 71 10000 5.1 30 14:56 23.11.2019
3904 Clouds 10 998 71 10000 5.1 30 14:38 23.11.2019
3905 Clouds 10 998 66 10000 5.1 10 14:20 23.11.2019
3906 Clouds 10 998 66 10000 5.7 30 13:43 23.11.2019
3907 Clouds 10 998 66 10000 6.7 30 13:20 23.11.2019
3908 Clouds 10 998 66 10000 5.7 40 12:58 23.11.2019
3909 Clouds 9 998 66 10000 5.7 40 12:40 23.11.2019
3910 Clouds 9 999 66 10000 6.7 40 12:22 23.11.2019
3911 Clouds 9 999 75 10000 6.2 30 11:43 23.11.2019
3912 Clouds 7 999 75 10000 5.7 40 11:21 23.11.2019
3913 Clouds 6 999 75 10000 6.2 30 10:45 23.11.2019
3914 Clouds 6 999 81 10000 6.2 30 10:22 23.11.2019
3915 Clouds 5 1000 81 10000 5.7 20 09:43 23.11.2019
3916 Clouds 4 1000 86 10000 5.7 20 09:21 23.11.2019
3917 Clouds 4 1000 86 10000 6.2 20 08:56 23.11.2019
3918 Clouds 4 1000 86 10000 6.2 20 08:37 23.11.2019
3919 Clouds 4 1000 80 10000 5.7 20 08:18 23.11.2019
3920 Clouds 3 1000 86 10000 6.2 20 07:39 23.11.2019
3921 Clouds 3 1000 86 10000 6.2 20 06:50 23.11.2019
3922 Clouds 3 1000 86 10000 6.2 20 06:23 23.11.2019
3923 Clouds 3 1001 86 10000 5.7 20 05:56 23.11.2019
3924 Clouds 3 1001 86 10000 5.1 10 05:31 23.11.2019
3925 Clouds 3 1001 93 10000 6.2 30 04:50 23.11.2019
3926 Clouds 3 1001 93 10000 6.2 30 04:31 23.11.2019
3927 Clouds 3 1002 86 10000 4.6 20 03:21 23.11.2019
3928 Clouds 3 1003 86 10000 2.1 40 02:31 23.11.2019
3929 Clouds 3 1003 80 10000 5.7 40 01:39 23.11.2019
3930 Clouds 3 1004 80 10000 6.2 50 00:45 23.11.2019
3931 Clouds 3 1004 80 10000 4.1 60 00:19 23.11.2019
3932 Clouds 3 1004 80 10000 5.1 50 23:54 22.11.2019
3933 Clouds 3 1004 80 10000 5.1 50 23:36 22.11.2019
3934 Clouds 3 1005 80 10000 5.1 60 23:18 22.11.2019
3935 Clouds 3 1005 80 10000 5.7 70 22:42 22.11.2019
3936 Clouds 3 1005 80 10000 6.2 60 22:23 22.11.2019
3937 Clouds 3 1005 80 10000 6.2 60 21:59 22.11.2019
3938 Clouds 4 1005 80 10000 6.2 60 21:40 22.11.2019
3939 Clouds 4 1005 80 10000 6.2 70 21:21 22.11.2019
3940 Clouds 4 1006 80 10000 5.1 60 20:55 22.11.2019
3941 Clouds 4 1006 80 10000 5.1 60 20:37 22.11.2019
3942 Clouds 4 1006 80 10000 5.1 60 20:19 22.11.2019
3943 Clouds 4 1006 80 10000 5.7 60 19:39 22.11.2019
3944 Clouds 4 1007 80 10000 5.7 60 19:20 22.11.2019
3945 Clouds 4 1007 86 10000 5.1 70 18:59 22.11.2019
3946 Clouds 4 1007 86 10000 5.1 70 18:38 22.11.2019
3947 Clouds 4 1007 86 10000 4.6 70 18:20 22.11.2019
3948 Clouds 4 1007 86 10000 5.7 70 17:42 22.11.2019
3949 Clouds 5 1007 86 10000 4.6 70 17:23 22.11.2019
3950 Clouds 5 1007 86 10000 4.6 70 16:55 22.11.2019
3951 Clouds 5 1007 86 10000 4.6 80 16:37 22.11.2019
3952 Clouds 5 1007 86 10000 5.1 100 16:18 22.11.2019
3953 Clouds 5 1007 86 9000 5.7 100 15:39 22.11.2019
3954 Clouds 5 1007 86 9000 5.1 80 15:20 22.11.2019
3955 Clouds 5 1008 81 8000 4.6 70 14:55 22.11.2019
3956 Clouds 5 1008 81 8000 4.6 70 14:55 22.11.2019
3957 Clouds 5 1008 81 8000 4.6 70 14:37 22.11.2019
3958 Mist 5 1008 93 8000 2.1 60 14:18 22.11.2019
3959 Clouds 5 1008 81 7000 4.1 100 13:39 22.11.2019
3960 Mist 5 1008 93 6000 4.1 70 13:20 22.11.2019
3961 Mist 5 1008 93 6000 4.1 70 13:20 22.11.2019
3962 Mist 5 1008 93 6000 4.6 70 12:59 22.11.2019
3963 Mist 5 1008 93 6000 4.6 70 12:40 22.11.2019
3964 Clouds 5 1008 86 8000 2.6 70 12:40 22.11.2019
3965 Mist 5 1008 93 6000 4.6 70 12:40 22.11.2019
3966 Clouds 4 1009 86 7000 2.6 70 12:20 22.11.2019
3967 Clouds 4 1009 86 7000 2.6 70 12:20 22.11.2019
3968 Clouds 4 1009 86 7000 2.6 70 11:58 22.11.2019
3969 Clouds 4 1009 86 7000 2.6 70 11:38 22.11.2019
3970 Clouds 4 1010 93 6000 3.6 80 11:19 22.11.2019
3971 Clouds 4 1010 93 6000 3.6 80 11:19 22.11.2019
3972 Clouds 3 1010 93 6000 3.6 80 10:57 22.11.2019
3973 Clouds 3 1009 93 6000 4.6 70 10:39 22.11.2019
3974 Mist 3 1009 93 5000 3.1 70 10:20 22.11.2019
3975 Mist 3 1010 100 6000 3.6 70 09:55 22.11.2019
3976 Clouds 3 1010 93 6000 3.6 60 09:37 22.11.2019
3977 Mist 2 1009 100 5000 4.1 90 09:18 22.11.2019
3978 Mist 2 1009 93 4400 4.1 70 08:42 22.11.2019
3979 Mist 2 1010 100 1600 2.6 60 08:22 22.11.2019
3980 Fog 2 1010 80 900 1 170 07:44 22.11.2019
3981 Mist 2 1010 93 1200 2.1 180 07:22 22.11.2019
3982 Mist 1 1009 100 1000 1.16 82 06:49 22.11.2019
3983 Mist 1 1009 80 2600 2.1 100 06:29 22.11.2019
3984 Mist 1 1009 100 4000 2.1 80 05:45 22.11.2019
3985 Clouds 1 1008 80 7000 2.1 0 04:19 22.11.2019
3986 Clouds 1 1008 100 7000 2.1 70 02:52 22.11.2019
3987 Clouds 1 1008 100 7000 2.1 70 02:29 22.11.2019
3988 Clouds 1 1008 92 6000 0.5 0 01:45 22.11.2019
3989 Clouds 1 1009 100 6000 0.5 270 01:19 22.11.2019
3990 Clouds 1 1008 100 6000 0.5 80 00:50 22.11.2019
3991 Mist 1 1009 80 8000 0.67 61 00:24 22.11.2019
3992 Clouds 1 1009 80 6000 0.5 0 23:49 21.11.2019
3993 Clouds 2 1009 80 6000 0.5 0 23:30 21.11.2019
3994 Clouds 2 1009 74 7000 1 0 22:59 21.11.2019
3995 Clouds 2 1009 100 7000 1.5 220 22:39 21.11.2019
3996 Clouds 2 1009 93 7000 0.5 160 22:21 21.11.2019
3997 Clouds 3 1009 93 7000 0.5 160 21:57 21.11.2019
3998 Clouds 3 1009 93 8000 1 0 21:38 21.11.2019
3999 Clouds 3 1009 93 8000 1.5 220 21:19 21.11.2019
4000 Clouds 3 1009 93 8000 1.5 220 20:58 21.11.2019
4001 Clouds 3 1009 93 9000 1 180 20:39 21.11.2019
4002 Clouds 3 1009 93 9000 1.5 210 20:19 21.11.2019
4003 Clouds 3 1009 93 9000 1.5 210 20:19 21.11.2019
4004 Rain 4 1009 86 10000 1 170 19:59 21.11.2019
4005 Clouds 4 1009 93 9000 1.5 210 19:59 21.11.2019
4006 Rain 4 1009 86 10000 1 170 19:41 21.11.2019
4007 Rain 4 1009 86 10000 1.5 210 19:22 21.11.2019
4008 Rain 4 1009 86 10000 1.5 210 18:58 21.11.2019
4009 Clouds 4 1009 86 9000 1.5 220 18:40 21.11.2019
4010 Clouds 4 1009 86 10000 2.1 220 18:19 21.11.2019
4011 Clouds 4 1009 86 10000 2.1 210 17:57 21.11.2019
4012 Clouds 4 1009 86 10000 2.1 210 17:39 21.11.2019
4013 Rain 4 1009 86 10000 1.5 220 17:19 21.11.2019
4014 Clouds 4 1009 80 10000 1 0 16:55 21.11.2019
4015 Clouds 5 1009 80 10000 1 0 16:36 21.11.2019
4016 Clouds 5 1009 80 10000 2.6 200 16:18 21.11.2019
4017 Clouds 5 1009 75 10000 2.6 220 15:42 21.11.2019
4018 Clouds 5 1009 75 10000 1 0 15:20 21.11.2019
4019 Clouds 5 1009 75 10000 1 0 14:57 21.11.2019
4020 Clouds 5 1009 75 10000 1 0 14:37 21.11.2019
4021 Clouds 5 1009 75 10000 1 0 14:19 21.11.2019
4022 Clouds 5 1009 75 10000 1 0 13:40 21.11.2019
4023 Clouds 5 1009 80 10000 0.5 0 13:21 21.11.2019
4024 Clouds 5 1009 80 10000 0.5 0 12:59 21.11.2019
4025 Clouds 5 1010 80 10000 1.5 170 12:39 21.11.2019
4026 Clouds 4 1010 86 10000 1.5 130 12:21 21.11.2019
4027 Clouds 4 1010 86 10000 1.5 80 11:55 21.11.2019
4028 Clouds 4 1010 86 10000 1.5 80 11:36 21.11.2019
4029 Clouds 3 1011 93 10000 3.1 80 11:18 21.11.2019
4030 Clouds 3 1011 86 10000 2.6 90 10:42 21.11.2019
4031 Clouds 2 1011 93 10000 2.1 90 10:23 21.11.2019
4032 Clouds 2 1011 93 10000 2.1 90 10:23 21.11.2019
4033 Clouds 2 1011 78 10000 1.5 50 09:57 21.11.2019
4034 Clouds 1 1011 78 10000 1.5 50 09:39 21.11.2019
4035 Clouds 1 1011 78 10000 2.1 80 09:21 21.11.2019
4036 Clouds 1 1011 78 10000 1.5 60 08:44 21.11.2019
4037 Clouds 0 1011 86 10000 2.1 40 08:24 21.11.2019
4038 Clouds 0 1011 86 10000 3.1 20 07:46 21.11.2019
4039 Clouds 0 1011 83 10000 2.6 10 07:20 21.11.2019
4040 Clouds 0 1011 83 10000 2.6 10 06:58 21.11.2019
4041 Clouds 0 1011 83 10000 2.6 10 06:37 21.11.2019
4042 Clouds 0 1011 83 10000 3.1 20 06:19 21.11.2019
4043 Clouds 0 1011 80 10000 2.6 30 04:34 21.11.2019
4044 Clouds 0 1012 80 10000 2.6 70 02:42 21.11.2019
4045 Clouds 0 1012 76 10000 3.1 80 02:24 21.11.2019
4046 Clouds 0 1012 76 10000 3.1 80 02:24 21.11.2019
4047 Clouds 0 1013 76 10000 3.1 80 01:52 21.11.2019
4048 Clouds 0 1013 93 10000 2.6 40 01:21 21.11.2019
4049 Clouds 1 1013 100 10000 3.1 70 00:41 21.11.2019
4050 Clouds 1 1013 79 10000 3.1 70 00:20 21.11.2019
4051 Clouds 1 1013 79 10000 3.1 70 23:51 20.11.2019
4052 Clouds 1 1014 93 10000 3.6 70 23:22 20.11.2019
4053 Clouds 1 1014 93 10000 3.6 80 22:58 20.11.2019
4054 Clouds 1 1014 93 10000 3.6 80 22:40 20.11.2019
4055 Clouds 1 1014 93 10000 3.1 70 22:20 20.11.2019
4056 Clouds 1 1014 93 10000 3.1 70 21:58 20.11.2019
4057 Clouds 1 1014 76 10000 3.6 70 21:39 20.11.2019
4058 Clouds 1 1014 76 10000 3.6 80 21:21 20.11.2019
4059 Clouds 1 1015 76 10000 4.1 70 20:57 20.11.2019
4060 Clouds 1 1015 76 10000 4.1 70 20:39 20.11.2019
4061 Clouds 1 1015 73 10000 2.6 60 20:21 20.11.2019
4062 Clouds 1 1015 72 10000 3.1 70 19:57 20.11.2019
4063 Clouds 1 1015 72 10000 3.1 70 19:37 20.11.2019
4064 Clouds 2 1015 72 10000 2.6 80 19:19 20.11.2019
4065 Clouds 2 1015 72 10000 1.5 80 18:59 20.11.2019
4066 Clouds 2 1015 72 10000 1.5 80 18:40 20.11.2019
4067 Clouds 2 1015 80 10000 1.5 90 18:21 20.11.2019
4068 Clouds 2 1015 80 10000 1.5 90 17:57 20.11.2019
4069 Clouds 2 1015 80 10000 2.1 120 17:39 20.11.2019
4070 Clouds 3 1015 80 10000 3.1 90 17:20 20.11.2019
4071 Clouds 3 1015 86 10000 3.1 100 16:57 20.11.2019
4072 Clouds 3 1015 86 10000 3.1 100 16:39 20.11.2019
4073 Clouds 3 1015 80 10000 2.1 110 16:19 20.11.2019
4074 Clouds 3 1015 80 10000 2.1 110 15:56 20.11.2019
4075 Clouds 4 1016 80 10000 3.1 100 15:56 20.11.2019
4076 Clouds 4 1016 80 10000 3.1 100 15:38 20.11.2019
4077 Clouds 4 1016 80 10000 2.1 70 15:18 20.11.2019
4078 Clouds 4 1016 80 10000 4.6 70 14:40 20.11.2019
4079 Clouds 4 1016 80 10000 4.1 80 14:22 20.11.2019
4080 Clouds 4 1016 80 10000 4.1 80 14:22 20.11.2019
4081 Clouds 4 1016 80 10000 4.1 80 14:22 20.11.2019
4082 Clouds 4 1016 80 10000 4.1 80 14:22 20.11.2019
4083 Clouds 4 1016 80 10000 4.1 80 14:22 20.11.2019
4084 Clouds 4 1016 80 10000 4.1 80 13:58 20.11.2019
4085 Clouds 4 1016 80 10000 4.1 80 13:58 20.11.2019
4086 Clouds 4 1016 86 10000 2.6 60 13:39 20.11.2019
4087 Clouds 4 1017 86 10000 1.5 70 13:20 20.11.2019
4088 Clouds 4 1017 86 10000 1.5 70 12:58 20.11.2019
4089 Clouds 4 1017 86 10000 2.6 90 12:37 20.11.2019
4090 Clouds 4 1017 86 10000 3.6 90 12:19 20.11.2019
4091 Clouds 4 1017 86 10000 3.6 90 12:19 20.11.2019
4092 Clouds 3 1018 86 8000 4.1 90 11:45 20.11.2019
4093 Clouds 3 1018 93 6000 3.6 80 11:23 20.11.2019
4094 Mist 3 1018 93 3500 4.1 80 10:57 20.11.2019
4095 Mist 3 1018 93 3500 4.1 80 10:57 20.11.2019
4096 Mist 2 1018 93 3500 4.1 80 10:39 20.11.2019
4097 Fog 2 1018 86 6000 3.6 90 10:20 20.11.2019
4098 Fog 2 1018 86 6000 3.6 90 09:56 20.11.2019
4099 Clouds 2 1018 86 10000 3.1 40 09:37 20.11.2019
4100 Clouds 2 1018 93 10000 3.1 10 09:19 20.11.2019
4101 Clouds 1 1018 93 10000 3.1 10 08:42 20.11.2019
4102 Clouds 1 1018 93 10000 3.1 10 08:24 20.11.2019
4103 Clouds 1 1018 93 10000 1 0 07:50 20.11.2019
4104 Clouds 1 1018 93 10000 1 0 07:30 20.11.2019
4105 Clouds 1 1018 100 10000 2.1 330 06:55 20.11.2019
4106 Clouds 1 1018 100 10000 1 0 06:37 20.11.2019
4107 Clouds 1 1019 93 10000 1.22 24 06:18 20.11.2019
4108 Clouds 1 1019 85 10000 1.5 70 04:40 20.11.2019
4109 Clouds 1 1019 100 10000 1 0 02:28 20.11.2019
4110 Clouds 1 1019 93 10000 0.5 0 01:37 20.11.2019
4111 Clouds 1 1019 100 10000 0.5 130 00:46 20.11.2019
4112 Clouds 1 1019 83 10000 1.5 80 00:18 20.11.2019
4113 Clouds 1 1019 83 10000 1 0 23:41 19.11.2019
4114 Clouds 1 1019 83 10000 1 0 23:41 19.11.2019
4115 Clouds 1 1019 78 10000 1 0 23:22 19.11.2019
4116 Clouds 1 1019 78 10000 1 200 22:56 19.11.2019
4117 Clouds 1 1019 78 10000 1 200 22:37 19.11.2019
4118 Clouds 1 1019 100 10000 1 190 22:18 19.11.2019
4119 Clouds 2 1019 100 10000 1 0 21:54 19.11.2019
4120 Clouds 2 1019 100 10000 1 0 21:36 19.11.2019
4121 Clouds 2 1019 93 10000 3.1 280 21:18 19.11.2019
4122 Clouds 2 1019 93 10000 3.1 280 20:54 19.11.2019
4123 Rain 3 1019 100 10000 1.5 250 20:36 19.11.2019
4124 Rain 3 1019 100 10000 0.5 0 20:18 19.11.2019
4125 Clouds 3 1019 93 10000 1 0 19:41 19.11.2019
4126 Clouds 3 1018 100 10000 1 0 19:20 19.11.2019
4127 Clouds 3 1018 100 10000 1 0 18:58 19.11.2019
4128 Clouds 3 1018 93 10000 1.5 300 18:40 19.11.2019
4129 Clouds 4 1018 93 10000 2.6 0 18:20 19.11.2019
4130 Clouds 4 1018 93 10000 2.6 0 17:58 19.11.2019
4131 Clouds 4 1018 93 10000 2.6 260 17:39 19.11.2019
4132 Clouds 4 1018 93 10000 1.5 210 17:20 19.11.2019
4133 Clouds 5 1018 93 10000 1.5 210 16:59 19.11.2019
4134 Clouds 5 1017 93 10000 3.1 150 16:40 19.11.2019
4135 Rain 6 1017 81 10000 1.5 210 16:20 19.11.2019
4136 Clouds 6 1017 75 10000 2.1 190 15:47 19.11.2019
4137 Clouds 7 1017 75 10000 2.1 190 15:26 19.11.2019
4138 Clouds 7 1017 70 10000 1.5 180 14:58 19.11.2019
4139 Clouds 7 1017 70 10000 1.5 180 14:39 19.11.2019
4140 Clouds 7 1017 75 10000 2.1 240 14:20 19.11.2019
4141 Clouds 7 1017 75 10000 2.1 230 13:42 19.11.2019
4142 Clouds 7 1017 81 10000 2.1 240 13:21 19.11.2019
4143 Clouds 6 1017 81 10000 2.1 240 12:57 19.11.2019
4144 Clouds 6 1017 81 10000 2.6 270 12:39 19.11.2019
4145 Clouds 6 1017 93 10000 2.1 280 12:20 19.11.2019
4146 Clouds 6 1017 93 10000 2.1 280 11:55 19.11.2019
4147 Clouds 6 1017 93 10000 1.5 230 11:36 19.11.2019
4148 Clouds 6 1017 93 10000 1.5 220 11:18 19.11.2019
4149 Rain 5 1017 100 10000 2.1 220 10:44 19.11.2019
4150 Clouds 5 1017 100 9000 2.1 200 10:21 19.11.2019
4151 Rain 5 1017 100 9000 1 0 09:45 19.11.2019
4152 Clouds 5 1016 93 9000 1 190 09:21 19.11.2019
4153 Clouds 4 1016 93 9000 1 200 08:58 19.11.2019
4154 Clouds 4 1016 93 9000 1 200 08:40 19.11.2019
4155 Clouds 4 1016 93 9000 1 0 08:21 19.11.2019
4156 Clouds 4 1015 93 9000 1 220 07:56 19.11.2019
4157 Clouds 4 1015 93 9000 1 220 07:37 19.11.2019
4158 Clouds 4 1015 93 8000 2.6 170 07:18 19.11.2019
4159 Clouds 4 1015 93 7000 2.1 190 06:42 19.11.2019
4160 Drizzle 4 1015 93 6000 1.5 180 06:19 19.11.2019
4161 Drizzle 4 1015 93 6000 2.6 210 05:19 19.11.2019
4162 Rain 4 1014 93 10000 3.1 200 03:41 19.11.2019
4163 Clouds 4 1014 100 10000 3.1 210 03:19 19.11.2019
4164 Clouds 4 1014 93 10000 3.6 210 02:50 19.11.2019
4165 Clouds 4 1013 93 10000 3.6 210 01:49 19.11.2019
4166 Clouds 3 1013 93 10000 4.1 200 00:51 19.11.2019
4167 Rain 3 1013 93 10000 4.1 190 00:21 19.11.2019
4168 Rain 3 1013 93 10000 5.7 200 23:41 18.11.2019
4169 Rain 3 1012 93 10000 6.2 200 23:20 18.11.2019
4170 Rain 3 1012 93 10000 6.2 200 23:20 18.11.2019
4171 Rain 3 1012 93 10000 6.2 190 22:59 18.11.2019
4172 Rain 3 1012 93 10000 6.2 190 22:41 18.11.2019
4173 Rain 3 1011 93 10000 6.2 200 22:23 18.11.2019
4174 Rain 3 1011 93 10000 6.2 200 21:54 18.11.2019
4175 Rain 4 1011 86 10000 6.7 200 21:36 18.11.2019
4176 Rain 4 1011 86 10000 6.2 190 21:18 18.11.2019
4177 Clouds 4 1011 86 10000 5.1 190 20:41 18.11.2019
4178 Clouds 4 1011 86 10000 6.2 190 20:20 18.11.2019
4179 Clouds 4 1010 86 10000 5.1 190 19:58 18.11.2019
4180 Clouds 4 1010 86 10000 5.1 190 19:39 18.11.2019
4181 Clouds 4 1011 86 10000 5.7 180 19:21 18.11.2019
4182 Clouds 4 1011 86 10000 5.7 180 18:57 18.11.2019
4183 Drizzle 4 1010 86 10000 4.6 190 18:38 18.11.2019
4184 Drizzle 4 1010 86 10000 4.6 190 18:38 18.11.2019
4185 Drizzle 4 1010 86 10000 6.2 190 18:20 18.11.2019
4186 Drizzle 4 1010 86 10000 6.2 190 18:20 18.11.2019
4187 Drizzle 4 1010 86 10000 6.2 190 17:59 18.11.2019
4188 Clouds 4 1010 86 10000 5.7 190 17:38 18.11.2019
4189 Clouds 4 1009 93 10000 4.6 190 17:19 18.11.2019
4190 Clouds 4 1009 93 10000 3.6 190 16:54 18.11.2019
4191 Rain 4 1009 93 10000 4.6 190 16:36 18.11.2019
4192 Drizzle 4 1009 93 10000 5.1 190 16:18 18.11.2019
4193 Drizzle 4 1009 93 10000 5.1 180 15:54 18.11.2019
4194 Drizzle 4 1009 93 10000 5.1 180 15:36 18.11.2019
4195 Drizzle 4 1008 93 10000 4.6 180 15:18 18.11.2019
4196 Clouds 4 1008 93 10000 4.6 170 14:41 18.11.2019
4197 Clouds 4 1008 93 10000 3.6 170 14:22 18.11.2019
4198 Clouds 4 1007 100 10000 4.1 160 13:46 18.11.2019
4199 Clouds 4 1007 93 10000 4.1 180 13:28 18.11.2019
4200 Drizzle 4 1007 93 10000 4.6 180 12:58 18.11.2019
4201 Drizzle 5 1007 93 10000 3.6 180 12:38 18.11.2019
4202 Drizzle 4 1007 100 10000 5.1 190 12:19 18.11.2019
4203 Clouds 5 1007 93 10000 3.6 180 11:44 18.11.2019
4204 Clouds 5 1007 93 10000 3.1 180 11:25 18.11.2019
4205 Clouds 4 1007 93 10000 3.1 180 10:56 18.11.2019
4206 Clouds 4 1007 93 8000 3.1 180 10:38 18.11.2019
4207 Drizzle 4 1007 100 3500 3.6 170 10:18 18.11.2019
4208 Rain 4 1007 100 4500 3.6 170 09:54 18.11.2019
4209 Rain 4 1007 100 4500 3.6 170 09:36 18.11.2019
4210 Rain 4 1006 100 5000 3.6 170 09:18 18.11.2019
4211 Mist 4 1006 100 3600 3.6 170 08:43 18.11.2019
4212 Mist 4 1006 100 3600 3.1 180 08:20 18.11.2019
4213 Drizzle 4 1005 100 3000 3.1 180 07:48 18.11.2019
4214 Drizzle 4 1005 100 3000 3.1 180 07:48 18.11.2019
4215 Drizzle 4 1005 100 3000 3.1 180 07:29 18.11.2019
4216 Drizzle 4 1005 100 2800 3.6 180 06:56 18.11.2019
4217 Drizzle 4 1005 100 2800 3.6 180 06:33 18.11.2019
4218 Drizzle 4 1005 100 3100 2.6 180 05:51 18.11.2019
4219 Drizzle 5 1004 100 3500 2.1 210 04:57 18.11.2019
4220 Drizzle 5 1004 93 3800 3.1 180 02:59 18.11.2019
4221 Drizzle 5 1003 93 3400 2.1 160 01:31 18.11.2019
4222 Drizzle 5 1003 93 2500 1.5 160 00:35 18.11.2019
4223 Drizzle 5 1003 100 2400 1 180 23:45 17.11.2019
4224 Drizzle 5 1003 100 2400 1 180 23:25 17.11.2019
4225 Drizzle 5 1003 100 3600 0.5 0 22:59 17.11.2019
4226 Drizzle 5 1003 100 3600 0.5 0 22:41 17.11.2019
4227 Drizzle 5 1003 93 9000 1 0 22:23 17.11.2019
4228 Drizzle 5 1003 93 9000 1 0 21:59 17.11.2019
4229 Clouds 5 1003 93 10000 1.77 344 21:41 17.11.2019
4230 Clouds 5 1003 93 10000 2.1 40 21:19 17.11.2019
4231 Clouds 5 1003 93 10000 2.1 20 20:57 17.11.2019
4232 Clouds 6 1003 93 10000 2.1 20 20:38 17.11.2019
4233 Clouds 5 1003 93 10000 3.1 20 20:20 17.11.2019
4234 Clouds 5 1003 93 10000 3.1 20 20:20 17.11.2019
4235 Clouds 5 1003 93 10000 3.1 20 20:20 17.11.2019
4236 Clouds 5 1003 93 10000 4.1 20 19:56 17.11.2019
4237 Rain 5 1003 93 10000 4.1 20 19:38 17.11.2019
4238 Rain 5 1003 93 10000 4.1 20 19:38 17.11.2019
4239 Rain 5 1003 93 10000 4.1 30 19:20 17.11.2019
4240 Clouds 5 1003 93 10000 5.1 20 18:56 17.11.2019
4241 Clouds 5 1003 93 10000 5.1 20 18:38 17.11.2019
4242 Rain 5 1003 93 10000 4.6 30 18:19 17.11.2019
4243 Rain 5 1003 93 10000 5.1 20 17:57 17.11.2019
4244 Rain 5 1003 93 10000 5.1 20 17:39 17.11.2019
4245 Rain 5 1003 93 10000 5.1 20 17:20 17.11.2019
4246 Rain 5 1003 93 10000 5.1 20 16:59 17.11.2019
4247 Rain 5 1004 93 10000 4.6 20 16:40 17.11.2019
4248 Rain 5 1004 87 10000 4.6 20 16:21 17.11.2019
4249 Rain 5 1004 87 10000 4.6 20 15:56 17.11.2019
4250 Rain 5 1004 81 10000 5.1 20 15:38 17.11.2019
4251 Rain 5 1005 87 10000 4.6 20 15:18 17.11.2019
4252 Rain 5 1005 87 10000 4.6 20 14:56 17.11.2019
4253 Rain 5 1005 87 10000 5.1 20 14:37 17.11.2019
4254 Rain 5 1005 87 10000 6.2 10 14:19 17.11.2019
4255 Rain 5 1005 87 10000 6.2 10 13:57 17.11.2019
4256 Rain 5 1006 81 10000 4.6 10 13:39 17.11.2019
4257 Rain 5 1006 81 10000 3.1 10 13:19 17.11.2019
4258 Rain 5 1006 81 10000 5.7 30 12:44 17.11.2019
4259 Clouds 5 1007 81 10000 4.6 30 12:23 17.11.2019
4260 Clouds 5 1007 81 10000 4.6 30 11:57 17.11.2019
4261 Clouds 5 1007 75 10000 5.7 20 11:39 17.11.2019
4262 Clouds 4 1008 81 10000 7.2 30 11:20 17.11.2019
4263 Clouds 4 1009 81 10000 6.2 40 10:44 17.11.2019
4264 Clouds 4 1009 86 10000 4.6 30 10:23 17.11.2019
4265 Clouds 3 1009 86 10000 4.6 30 09:58 17.11.2019
4266 Clouds 3 1009 86 10000 3.6 40 09:40 17.11.2019
4267 Clouds 3 1010 100 10000 3.6 40 09:22 17.11.2019
4268 Clouds 2 1010 100 9000 2.1 360 08:41 17.11.2019
4269 Clouds 2 1010 93 8000 2.1 30 08:23 17.11.2019
4270 Clouds 2 1010 93 8000 2.1 30 07:56 17.11.2019
4271 Clouds 2 1010 93 7000 2.1 30 07:37 17.11.2019
4272 Clouds 2 1011 93 7000 2.6 20 07:19 17.11.2019
4273 Clouds 2 1011 100 7000 4.1 20 06:46 17.11.2019
4274 Clouds 2 1011 100 7000 2.6 360 06:27 17.11.2019
4275 Clouds 2 1011 93 7000 3.1 80 04:48 17.11.2019
4276 Clouds 2 1011 100 7000 3.1 30 03:58 17.11.2019
4277 Clouds 2 1012 100 6000 2.6 30 03:33 17.11.2019
4278 Clouds 2 1013 93 7000 3.1 40 02:40 17.11.2019
4279 Clouds 2 1013 93 6000 2.6 60 01:45 17.11.2019
4280 Mist 1 1013 100 8000 1.49 65 00:56 17.11.2019
4281 -273 0 0 0 0 0 00:23 17.11.2019
4282 Clouds 1 1013 100 9000 1.5 50 23:54 16.11.2019
4283 Clouds 1 1013 100 9000 1.5 50 23:36 16.11.2019
4284 Clouds 1 1013 79 9000 1.5 350 23:18 16.11.2019
4285 Clouds 1 1013 100 9000 0.5 0 22:41 16.11.2019
4286 Clouds 1 1013 79 9000 0.5 0 22:20 16.11.2019
4287 Clouds 1 1013 79 9000 0.5 0 22:20 16.11.2019
4288 Clouds 1 1013 79 9000 1.5 100 21:57 16.11.2019
4289 Clouds 2 1013 79 9000 1.5 100 21:38 16.11.2019
4290 Clouds 2 1012 79 9000 1 0 21:20 16.11.2019
4291 Clouds 2 1012 79 9000 1 0 20:57 16.11.2019
4292 Clouds 2 1012 79 10000 0.5 0 20:38 16.11.2019
4293 Clear 3 1012 100 10000 0.5 0 20:18 16.11.2019
4294 Clouds 3 1012 100 10000 1 240 19:41 16.11.2019
4295 Clouds 3 1012 100 10000 1 0 19:22 16.11.2019
4296 Clouds 4 1012 100 10000 1 0 18:56 16.11.2019
4297 Clouds 4 1012 93 10000 1 0 18:38 16.11.2019
4298 Clouds 4 1012 93 10000 2.1 80 18:20 16.11.2019
4299 Clouds 4 1011 100 10000 1.5 140 17:55 16.11.2019
4300 Clouds 4 1011 100 10000 1.5 140 17:36 16.11.2019
4301 Clouds 4 1011 93 10000 0.5 0 17:18 16.11.2019
4302 Clouds 5 1010 81 10000 0.5 280 16:43 16.11.2019
4303 Clouds 6 1010 75 10000 1.5 270 16:25 16.11.2019
4304 Clouds 6 1010 75 10000 1 0 15:54 16.11.2019
4305 Clouds 6 1010 75 10000 1 0 15:36 16.11.2019
4306 Clouds 7 1010 75 10000 2.1 170 15:18 16.11.2019
4307 Clouds 7 1010 75 10000 1.5 180 14:40 16.11.2019
4308 Clouds 7 1010 75 10000 2.6 190 14:21 16.11.2019
4309 Clouds 6 1010 75 10000 2.6 190 13:56 16.11.2019
4310 Clouds 6 1010 75 10000 2.6 200 13:38 16.11.2019
4311 Clouds 6 1010 80 10000 2.6 200 13:19 16.11.2019
4312 Clouds 6 1010 80 10000 3.1 180 12:58 16.11.2019
4313 Clouds 6 1010 80 10000 3.1 180 12:40 16.11.2019
4314 Clouds 5 1010 80 10000 2.6 200 12:20 16.11.2019
4315 Clouds 5 1009 75 10000 2.1 200 11:45 16.11.2019
4316 Clouds 4 1009 75 10000 2.1 200 11:26 16.11.2019
4317 Clouds 4 1009 93 10000 2.6 190 10:57 16.11.2019
4318 Clouds 3 1009 93 10000 3.1 200 10:39 16.11.2019
4319 Clouds 3 1008 100 10000 3.1 220 10:21 16.11.2019
4320 Clouds 2 1008 100 8000 2.6 200 09:44 16.11.2019
4321 Clouds 2 1008 68 6000 2.6 190 09:21 16.11.2019
4322 Clouds 1 1008 68 6000 2.6 190 08:59 16.11.2019
4323 Mist 1 1008 100 4600 2.1 210 08:39 16.11.2019
4324 Mist 1 1007 80 4300 2.1 200 08:19 16.11.2019
4325 Mist 1 1007 80 4600 2.1 180 07:43 16.11.2019
4326 Clouds 1 1006 80 8000 1.5 170 07:21 16.11.2019
4327 Clouds 2 1006 80 8000 1.5 170 06:55 16.11.2019
4328 Clouds 2 1005 93 10000 1.5 180 06:34 16.11.2019
4329 Clouds 3 1005 100 10000 1 140 05:40 16.11.2019
4330 Clouds 3 1005 93 10000 1.5 180 04:20 16.11.2019
4331 Clouds 4 1005 93 10000 1 0 03:26 16.11.2019
4332 Clouds 4 1004 93 10000 1.5 190 02:21 16.11.2019
4333 Clouds 4 1004 93 10000 1 0 01:27 16.11.2019
4334 Clouds 4 1004 93 10000 2.1 240 00:46 16.11.2019
4335 Rain 4 1005 93 10000 1.5 280 00:27 16.11.2019
4336 Rain 4 1005 93 10000 0.5 0 23:43 15.11.2019
4337 Rain 3 1005 93 10000 1.5 210 23:22 15.11.2019
4338 Clouds 3 1004 93 10000 2.6 310 22:59 15.11.2019
4339 Clouds 3 1004 93 10000 2.6 310 22:39 15.11.2019
4340 Clouds 3 1005 86 10000 1.5 70 22:19 15.11.2019
4341 Rain 3 1005 93 10000 2.1 70 21:55 15.11.2019
4342 Rain 3 1005 93 10000 2.1 70 21:36 15.11.2019
4343 Rain 3 1004 86 10000 2.1 60 21:18 15.11.2019
4344 Rain 3 1004 86 10000 2.1 60 20:56 15.11.2019
4345 Rain 3 1004 93 10000 2.1 60 20:37 15.11.2019
4346 Clouds 4 1004 86 10000 2.6 90 20:19 15.11.2019
4347 Clouds 4 1003 93 10000 2.1 70 19:56 15.11.2019
4348 Clouds 4 1003 93 10000 2.1 70 19:37 15.11.2019
4349 Clouds 4 1003 93 10000 0.5 0 19:19 15.11.2019
4350 Clouds 4 1003 93 10000 1 0 18:43 15.11.2019
4351 Clouds 4 1003 86 10000 1 0 18:24 15.11.2019
4352 Clouds 4 1003 86 10000 1 0 17:58 15.11.2019
4353 Clouds 4 1003 86 10000 2.1 190 17:39 15.11.2019
4354 Clouds 4 1002 86 10000 1.5 190 17:21 15.11.2019
4355 Clouds 5 1003 80 10000 1.5 200 16:55 15.11.2019
4356 Clouds 5 1003 80 10000 1.5 200 16:37 15.11.2019
4357 Clouds 6 1002 75 10000 2.6 210 16:18 15.11.2019
4358 Clouds 6 1001 70 10000 3.1 200 15:38 15.11.2019
4359 Clouds 6 1001 70 10000 3.1 200 15:38 15.11.2019
4360 Clouds 6 1001 75 10000 2.6 160 15:19 15.11.2019
4361 Clouds 7 1001 75 10000 2.6 160 14:56 15.11.2019
4362 Clouds 6 1001 75 10000 2.6 160 14:38 15.11.2019
4363 Clouds 6 1002 75 10000 3.1 160 14:19 15.11.2019
4364 Clouds 6 1002 75 10000 3.1 160 14:19 15.11.2019
4365 Clouds 6 1002 75 10000 3.1 160 13:57 15.11.2019
4366 Clouds 6 1001 75 10000 3.6 180 13:39 15.11.2019
4367 Clouds 6 1001 75 10000 2.6 190 13:20 15.11.2019
4368 Clouds 6 1001 75 10000 2.6 190 12:57 15.11.2019
4369 Clouds 6 1001 70 10000 2.6 160 12:39 15.11.2019
4370 Clouds 6 1000 75 10000 1 0 12:19 15.11.2019
4371 Clouds 6 999 70 10000 3.1 70 11:56 15.11.2019
4372 Clouds 6 999 70 10000 3.1 70 11:37 15.11.2019
4373 Clouds 5 999 70 10000 1.5 50 11:19 15.11.2019
4374 Clouds 5 999 70 10000 2.1 110 10:40 15.11.2019
4375 Clouds 5 999 70 10000 3.6 70 10:22 15.11.2019
4376 Clouds 4 997 75 10000 5.1 40 09:58 15.11.2019
4377 Clouds 4 997 75 10000 5.1 40 09:40 15.11.2019
4378 Clouds 4 996 80 10000 6.2 30 09:19 15.11.2019
4379 Clouds 3 996 69 10000 7.7 20 08:43 15.11.2019
4380 Clouds 3 996 73 10000 7.7 20 08:22 15.11.2019
4381 Clouds 3 997 73 10000 6.7 30 07:47 15.11.2019
4382 Clouds 3 996 73 10000 7.2 20 07:28 15.11.2019
4383 Clouds 3 997 73 10000 6.7 30 06:44 15.11.2019
4384 Clouds 3 997 73 10000 8.2 20 06:25 15.11.2019
4385 Clouds 3 997 73 10000 6.2 30 05:40 15.11.2019
4386 Clouds 3 998 69 10000 7.7 20 05:20 15.11.2019
4387 Clouds 3 999 69 10000 7.2 20 03:50 15.11.2019
4388 Clouds 3 1000 69 10000 6.2 30 03:22 15.11.2019
4389 Clouds 3 1000 71 10000 5.7 20 02:19 15.11.2019
4390 Clouds 3 1000 71 10000 5.1 20 01:33 15.11.2019
4391 Clouds 3 1000 71 10000 5.1 20 01:33 15.11.2019
4392 Clouds 3 1001 70 10000 5.1 20 00:51 15.11.2019
4393 Clouds 3 1001 80 10000 4.6 30 00:32 15.11.2019
4394 Clouds 3 1001 75 10000 4.6 30 23:52 14.11.2019
4395 Clouds 3 1001 70 10000 5.7 30 23:28 14.11.2019
4396 Clouds 4 1001 75 10000 5.1 20 22:59 14.11.2019
4397 Clouds 4 1001 75 10000 5.1 20 22:39 14.11.2019
4398 Clouds 4 1001 75 10000 5.1 20 22:21 14.11.2019
4399 Clouds 4 1001 70 10000 6.2 20 21:55 14.11.2019
4400 Clouds 4 1001 70 10000 6.2 20 21:37 14.11.2019
4401 Clouds 4 1002 70 10000 6.2 20 21:19 14.11.2019
4402 Clouds 4 1002 75 10000 5.7 20 20:42 14.11.2019
4403 Clouds 4 1002 70 10000 6.2 30 20:23 14.11.2019
4404 Clouds 4 1002 70 10000 5.7 30 19:59 14.11.2019
4405 Clouds 4 1002 70 10000 5.7 30 19:59 14.11.2019
4406 Clouds 4 1002 70 10000 5.7 30 19:41 14.11.2019
4407 Clouds 4 1002 70 10000 4.1 20 19:18 14.11.2019
4408 Clouds 4 1002 70 10000 5.1 40 18:56 14.11.2019
4409 Clouds 4 1002 70 10000 5.1 40 18:38 14.11.2019
4410 Clouds 5 1002 75 10000 3.6 100 18:20 14.11.2019
4411 Clouds 5 1003 65 10000 3.1 70 17:55 14.11.2019
4412 Clouds 5 1002 65 10000 5.1 60 17:37 14.11.2019
4413 Clouds 5 1002 65 10000 5.1 60 17:18 14.11.2019
4414 Clouds 6 1002 65 10000 3.6 60 16:57 14.11.2019
4415 Clouds 6 1002 65 10000 3.6 60 16:36 14.11.2019
4416 Clouds 7 1003 61 10000 3.6 100 16:18 14.11.2019
4417 Clouds 7 1002 61 10000 5.1 80 15:54 14.11.2019
4418 Clouds 7 1002 61 10000 5.1 80 15:36 14.11.2019
4419 Clouds 8 1002 57 10000 4.6 90 15:18 14.11.2019
4420 Clouds 8 1003 61 10000 4.6 90 14:43 14.11.2019
4421 Clouds 8 1003 61 10000 4.6 90 14:22 14.11.2019
4422 Clouds 8 1003 61 10000 5.7 90 13:56 14.11.2019
4423 Clouds 8 1003 61 10000 5.7 90 13:37 14.11.2019
4424 Clouds 8 1003 53 10000 4.6 100 13:19 14.11.2019
4425 Clouds 7 1003 53 10000 5.1 100 12:46 14.11.2019
4426 Clouds 7 1003 53 10000 5.1 100 12:26 14.11.2019
4427 Clouds 7 1004 65 10000 5.1 70 11:58 14.11.2019
4428 Clouds 7 1004 65 10000 5.1 70 11:38 14.11.2019
4429 Clouds 6 1004 70 10000 5.1 70 11:20 14.11.2019
4430 Clouds 6 1004 75 10000 4.6 70 10:58 14.11.2019
4431 Clouds 5 1004 75 10000 4.6 70 10:39 14.11.2019
4432 Clouds 5 1004 75 10000 4.1 60 10:20 14.11.2019
4433 Clouds 4 1004 75 10000 4.1 60 09:56 14.11.2019
4434 Clouds 4 1004 80 10000 3.6 80 09:38 14.11.2019
4435 Clear 3 1004 80 10000 5.1 100 09:19 14.11.2019
4436 Clouds 3 1004 86 10000 3.6 60 08:47 14.11.2019
4437 Clouds 3 1004 86 10000 3.6 60 08:25 14.11.2019
4438 Clouds 3 1003 86 10000 3.6 60 07:56 14.11.2019
4439 Clouds 3 1003 86 10000 3.6 60 07:37 14.11.2019
4440 Clouds 3 1003 93 10000 3.6 60 07:19 14.11.2019
4441 Clouds 4 1003 93 10000 2.6 80 06:41 14.11.2019
4442 Clouds 4 1002 86 10000 3.6 80 06:18 14.11.2019
4443 Clouds 5 1003 86 10000 3.1 110 04:41 14.11.2019
4444 Clouds 5 1003 86 10000 1.5 120 04:19 14.11.2019
4445 Clouds 5 1003 86 10000 2.6 140 02:45 14.11.2019
4446 Clouds 5 1004 86 10000 2.6 130 01:51 14.11.2019
4447 Clouds 5 1004 86 10000 2.6 130 01:32 14.11.2019
4448 Clouds 5 1004 86 10000 3.1 140 00:49 14.11.2019
4449 Clouds 5 1004 86 10000 3.1 140 00:29 14.11.2019
4450 Clouds 5 1004 86 10000 3.1 170 23:41 13.11.2019
4451 Clouds 5 1004 86 10000 3.1 170 23:22 13.11.2019
4452 Clouds 5 1004 86 10000 3.1 170 22:57 13.11.2019
4453 Clouds 5 1004 86 10000 3.1 170 22:39 13.11.2019
4454 Clouds 4 1004 86 10000 3.1 160 22:21 13.11.2019
4455 Clouds 5 1004 86 10000 3.1 160 21:56 13.11.2019
4456 Clouds 5 1005 86 10000 3.1 180 21:37 13.11.2019
4457 Clouds 5 1005 86 10000 3.6 190 21:19 13.11.2019
4458 Clouds 5 1005 86 10000 3.6 190 20:56 13.11.2019
4459 Clouds 5 1005 86 10000 3.6 190 20:37 13.11.2019
4460 Clouds 5 1005 86 10000 3.6 190 20:19 13.11.2019
4461 Clouds 5 1005 86 10000 3.1 190 19:56 13.11.2019
4462 Clouds 5 1005 86 10000 3.1 190 19:37 13.11.2019
4463 Clouds 5 1004 86 10000 3.1 190 19:18 13.11.2019
4464 Clouds 5 1004 86 10000 3.6 190 18:54 13.11.2019
4465 Clouds 5 1004 86 10000 3.6 190 18:36 13.11.2019
4466 Clouds 5 1004 86 10000 4.1 190 18:18 13.11.2019
4467 Clouds 5 1004 86 10000 4.1 190 18:18 13.11.2019
4468 Clouds 5 1004 86 10000 3.6 190 17:40 13.11.2019
4469 Clouds 5 1004 86 10000 3.1 190 17:22 13.11.2019
4470 Clouds 5 1004 86 10000 3.1 190 17:00 13.11.2019
4471 Clouds 5 1004 86 10000 3.6 200 16:40 13.11.2019
4472 Clouds 5 1004 86 10000 3.6 190 16:22 13.11.2019
4473 -273 0 0 0 0 0 15:59 13.11.2019
4474 Clouds 5 1004 81 10000 4.6 210 15:41 13.11.2019
4475 Clouds 5 1004 75 10000 3.6 200 15:23 13.11.2019
4476 Clouds 5 1004 86 10000 4.1 210 14:59 13.11.2019
4477 Clouds 5 1004 86 10000 4.1 210 14:59 13.11.2019
4478 Clouds 5 1004 86 10000 4.1 210 14:37 13.11.2019
4479 Clouds 5 1004 75 10000 4.1 220 14:19 13.11.2019
4480 Clouds 5 1004 86 10000 4.1 190 13:38 13.11.2019
4481 Clouds 5 1004 80 10000 4.6 200 13:19 13.11.2019
4482 Clouds 5 1004 80 10000 4.6 200 12:58 13.11.2019
4483 Clouds 5 1004 86 10000 4.1 190 12:38 13.11.2019
4484 Clouds 5 1004 80 10000 4.1 200 12:20 13.11.2019
4485 Clouds 5 1004 86 10000 4.1 190 11:55 13.11.2019
4486 Clouds 4 1004 86 10000 4.1 190 11:36 13.11.2019
4487 Clouds 4 1004 86 10000 4.1 200 11:18 13.11.2019
4488 Clouds 4 1004 93 10000 3.1 180 10:54 13.11.2019
4489 Clouds 4 1004 93 10000 3.1 180 10:36 13.11.2019
4490 Clouds 3 1004 93 10000 4.1 180 10:18 13.11.2019
4491 Clouds 3 1003 93 10000 3.6 190 09:40 13.11.2019
4492 Clouds 3 1003 93 10000 3.6 190 09:40 13.11.2019
4493 Clouds 3 1003 100 10000 2.1 210 09:20 13.11.2019
4494 Clouds 3 1003 100 10000 2.1 210 09:20 13.11.2019
4495 Clouds 2 1003 93 10000 2.6 170 08:41 13.11.2019
4496 Clouds 2 1003 100 10000 2.1 150 08:22 13.11.2019
4497 -273 0 0 0 0 0 07:58 13.11.2019
4498 Clouds 1 1003 100 10000 4.1 170 07:39 13.11.2019
4499 Clouds 1 1003 100 10000 3.6 190 07:18 13.11.2019
4500 Clouds 1 1003 100 10000 2.6 180 06:41 13.11.2019
4501 Clouds 1 1003 85 10000 2.6 160 06:19 13.11.2019
4502 Clouds 1 1003 85 10000 1.5 220 05:47 13.11.2019
4503 Fog 1 1002 84 9000 2.1 170 05:19 13.11.2019
4504 Fog 1 1002 84 10000 1 0 03:56 13.11.2019
4505 Clouds 2 1002 100 10000 2.6 270 01:52 13.11.2019
4506 Clouds 2 1002 100 10000 2.6 270 01:27 13.11.2019
4507 Clouds 2 1002 100 10000 2.6 270 01:27 13.11.2019
4508 Rain 3 1003 93 10000 1.5 230 00:43 13.11.2019
4509 Clouds 3 1003 93 10000 2.1 160 23:57 12.11.2019
4510 Clouds 3 1003 93 10000 2.1 160 23:39 12.11.2019
4511 Clouds 3 1003 93 10000 3.1 170 23:19 12.11.2019
4512 Clouds 3 1003 86 10000 2.1 190 22:43 12.11.2019
4513 Clouds 3 1003 86 10000 2.6 190 22:19 12.11.2019
4514 Clouds 3 1003 86 10000 3.6 180 21:58 12.11.2019
4515 Clouds 3 1003 86 10000 3.6 180 21:39 12.11.2019
4516 Clouds 3 1003 93 10000 4.1 160 21:21 12.11.2019
4517 Clouds 3 1003 93 10000 3.1 150 20:56 12.11.2019
4518 Clouds 3 1003 93 10000 3.1 150 20:37 12.11.2019
4519 Clouds 3 1003 93 10000 3.1 170 20:18 12.11.2019
4520 Clouds 3 1003 93 10000 3.1 170 20:18 12.11.2019
4521 Clouds 4 1003 93 10000 3.1 170 19:56 12.11.2019
4522 Clouds 4 1003 93 10000 2.6 190 19:38 12.11.2019
4523 Clouds 4 1003 93 10000 4.1 190 19:19 12.11.2019
4524 Rain 4 1004 86 10000 2.6 180 18:57 12.11.2019
4525 Rain 4 1004 86 10000 2.6 180 18:39 12.11.2019
4526 Rain 5 1004 86 10000 4.1 200 18:21 12.11.2019
4527 Rain 5 1004 87 10000 5.1 180 17:55 12.11.2019
4528 Rain 5 1004 87 10000 5.1 180 17:37 12.11.2019
4529 Rain 5 1004 93 10000 4.1 180 17:19 12.11.2019
4530 Rain 6 1004 87 10000 5.1 180 16:44 12.11.2019
4531 Rain 6 1004 87 10000 5.1 180 16:25 12.11.2019
4532 Rain 6 1004 75 10000 4.6 190 15:57 12.11.2019
4533 Rain 6 1004 75 10000 4.6 190 15:57 12.11.2019
4534 Rain 6 1004 75 10000 6.2 190 15:39 12.11.2019
4535 Rain 6 1003 70 10000 5.7 200 15:20 12.11.2019
4536 Rain 7 1004 70 10000 5.7 200 14:55 12.11.2019
4537 Rain 7 1004 70 10000 5.7 200 14:36 12.11.2019
4538 Rain 7 1004 70 10000 5.7 200 14:36 12.11.2019
4539 Rain 7 1003 65 10000 5.7 190 14:18 12.11.2019
4540 Clouds 7 1003 70 10000 4.6 180 13:54 12.11.2019
4541 Clouds 7 1003 70 10000 4.6 180 13:36 12.11.2019
4542 Clouds 7 1004 70 10000 4.6 180 13:18 12.11.2019
4543 Clouds 7 1004 70 10000 5.1 180 12:40 12.11.2019
4544 Clouds 7 1005 75 10000 5.7 180 12:19 12.11.2019
4545 Clouds 7 1005 75 10000 5.7 180 12:19 12.11.2019
4546 Clouds 7 1005 75 10000 5.7 180 11:56 12.11.2019
4547 Clouds 7 1005 75 10000 5.7 180 11:38 12.11.2019
4548 Clouds 7 1005 75 10000 5.7 180 11:38 12.11.2019
4549 Clouds 6 1005 81 10000 4.1 180 11:20 12.11.2019
4550 Clouds 6 1006 81 10000 4.6 190 10:55 12.11.2019
4551 Clouds 6 1006 81 10000 4.6 190 10:36 12.11.2019
4552 Clouds 5 1006 87 10000 5.1 180 10:18 12.11.2019
4553 Clouds 5 1006 93 10000 4.1 180 09:40 12.11.2019
4554 Clouds 5 1006 93 10000 3.6 200 09:20 12.11.2019
4555 Clouds 4 1006 100 10000 3.6 180 08:50 12.11.2019
4556 Clouds 4 1006 93 10000 4.6 170 08:30 12.11.2019
4557 Clouds 4 1006 93 10000 3.6 170 07:44 12.11.2019
4558 Clouds 4 1006 93 10000 3.6 180 07:25 12.11.2019
4559 Clouds 4 1006 100 10000 3.1 180 06:56 12.11.2019
4560 Clouds 4 1006 100 10000 3.1 180 06:30 12.11.2019
4561 Clouds 3 1006 93 10000 4.1 190 05:57 12.11.2019
4562 Clouds 4 1006 93 10000 4.1 190 05:29 12.11.2019
4563 Clouds 3 1007 93 10000 3.6 190 04:41 12.11.2019
4564 Clouds 4 1006 100 8000 3.1 200 02:51 12.11.2019
4565 Clouds 3 1006 93 8000 3.1 180 01:42 12.11.2019
4566 Clouds 3 1006 93 8000 2.1 190 01:20 12.11.2019
4567 Rain 3 1006 93 8000 2.6 200 00:46 12.11.2019
4568 Rain 3 1006 93 7000 3.6 190 00:22 12.11.2019
4569 Rain 3 1006 100 7000 3.1 190 23:43 11.11.2019
4570 Rain 3 1006 100 7000 2.1 180 23:22 11.11.2019
4571 Rain 3 1006 93 7000 1.5 170 22:56 11.11.2019
4572 Rain 3 1006 93 7000 1.5 170 22:36 11.11.2019
4573 Rain 3 1006 93 7000 0.5 0 22:18 11.11.2019
4574 Rain 3 1006 93 7000 0.5 0 21:56 11.11.2019
4575 Rain 3 1006 93 7000 1.5 140 21:37 11.11.2019
4576 Rain 3 1006 86 8000 1.5 140 21:19 11.11.2019
4577 Rain 3 1006 86 10000 2.1 160 20:42 11.11.2019
4578 Clouds 3 1006 86 10000 2.1 150 20:20 11.11.2019
4579 Clouds 3 1006 86 10000 2.1 150 19:56 11.11.2019
4580 Clouds 3 1006 67 10000 2.6 180 19:38 11.11.2019
4581 Clouds 3 1006 67 10000 2.6 180 19:38 11.11.2019
4582 Clouds 3 1006 67 10000 2.6 170 19:18 11.11.2019
4583 Clouds 3 1006 67 10000 2.6 170 19:18 11.11.2019
4584 Clouds 3 1006 67 10000 2.6 170 18:54 11.11.2019
4585 Clouds 3 1007 86 10000 3.1 170 18:36 11.11.2019
4586 Clouds 3 1006 86 10000 1.5 170 18:18 11.11.2019
4587 Clouds 3 1007 86 10000 3.1 180 17:41 11.11.2019
4588 Clouds 3 1007 86 10000 3.6 170 17:23 11.11.2019
4589 Clouds 3 1007 86 10000 3.1 170 16:41 11.11.2019
4590 Clouds 3 1007 86 10000 4.1 160 16:21 11.11.2019
4591 Clouds 3 1007 86 10000 4.1 160 15:57 11.11.2019
4592 Clouds 3 1007 86 10000 3.1 180 15:39 11.11.2019
4593 Clouds 3 1008 86 10000 3.1 190 15:19 11.11.2019
4594 Clouds 3 1008 86 10000 3.1 190 15:19 11.11.2019
4595 Clouds 3 1008 86 10000 3.6 160 14:43 11.11.2019
4596 Clouds 3 1009 86 10000 3.1 170 14:25 11.11.2019
4597 Clouds 3 1009 86 10000 3.1 170 13:58 11.11.2019
4598 Clouds 3 1009 86 10000 4.6 160 13:38 11.11.2019
4599 Clouds 3 1010 86 10000 4.1 180 13:19 11.11.2019
4600 Clouds 3 1010 86 10000 4.1 180 13:19 11.11.2019
4601 Clouds 3 1010 86 10000 4.6 160 12:57 11.11.2019
4602 Clouds 3 1010 86 10000 4.6 160 12:39 11.11.2019
4603 Clouds 3 1010 86 10000 4.6 160 12:39 11.11.2019
4604 Clouds 3 1011 86 9000 2.6 180 12:21 11.11.2019
4605 Clouds 3 1011 93 9000 4.1 200 11:42 11.11.2019
4606 Clouds 3 1012 86 9000 3.6 190 11:22 11.11.2019
4607 Clouds 2 1012 86 9000 3.6 190 10:57 11.11.2019
4608 Clouds 2 1012 93 10000 3.1 190 10:38 11.11.2019
4609 Clouds 2 1012 93 10000 2.6 120 10:18 11.11.2019
4610 Drizzle 2 1013 86 9000 2.6 140 09:55 11.11.2019
4611 Drizzle 2 1013 86 9000 2.6 140 09:36 11.11.2019
4612 Drizzle 2 1013 100 7000 3.1 140 09:18 11.11.2019
4613 Drizzle 2 1013 100 6000 2.6 130 08:39 11.11.2019
4614 Drizzle 2 1013 93 4000 3.1 130 08:20 11.11.2019
4615 Drizzle 2 1013 93 4000 3.1 130 07:55 11.11.2019
4616 Drizzle 2 1014 93 5000 2.6 200 07:36 11.11.2019
4617 Drizzle 2 1014 93 5000 1.5 190 07:18 11.11.2019
4618 Drizzle 2 1014 93 5000 2.6 180 06:44 11.11.2019
4619 Drizzle 2 1014 93 5000 2.1 200 06:21 11.11.2019
4620 Clouds 2 1014 93 6000 1.5 160 05:50 11.11.2019
4621 Clouds 2 1015 93 6000 1 0 04:29 11.11.2019
4622 Drizzle 2 1015 93 5000 1 0 03:23 11.11.2019
4623 Drizzle 2 1016 93 5000 1.5 230 02:22 11.11.2019
4624 Drizzle 2 1016 93 5000 1.5 230 01:55 11.11.2019
4625 Drizzle 3 1016 100 2500 2.6 200 01:34 11.11.2019
4626 Haze 3 1016 73 3200 0.66 183 00:47 11.11.2019
4627 Drizzle 3 1016 100 5000 2.6 200 00:19 11.11.2019
4628 Drizzle 3 1016 100 5000 2.6 200 00:19 11.11.2019
4629 Clouds 3 1016 100 7000 2.1 160 23:39 10.11.2019
4630 Clouds 3 1016 93 8000 2.1 170 23:20 10.11.2019
4631 Clouds 3 1016 93 8000 2.1 170 22:57 10.11.2019
4632 Clouds 3 1016 93 10000 2.1 160 22:38 10.11.2019
4633 Clouds 3 1016 93 10000 1.5 150 22:20 10.11.2019
4634 Clouds 3 1016 93 10000 1.5 150 22:20 10.11.2019
4635 Clouds 3 1016 93 10000 1.5 150 21:58 10.11.2019
4636 Clouds 3 1016 93 10000 1.5 150 21:58 10.11.2019
4637 Clouds 3 1016 93 10000 1.5 140 21:39 10.11.2019
4638 Clouds 3 1016 93 10000 1.5 230 21:21 10.11.2019
4639 Clouds 3 1016 93 10000 2.1 360 20:56 10.11.2019
4640 Clouds 3 1016 93 10000 2.1 360 20:38 10.11.2019
4641 Clouds 3 1016 93 10000 1 0 20:20 10.11.2019
4642 Clouds 3 1016 93 10000 2.1 320 19:54 10.11.2019
4643 Clouds 3 1016 93 10000 2.1 320 19:36 10.11.2019
4644 Clouds 3 1016 93 9000 1 0 19:18 10.11.2019
4645 Clouds 3 1016 100 9000 2.1 360 18:54 10.11.2019
4646 Clouds 3 1016 100 9000 2.1 360 18:54 10.11.2019
4647 Clouds 3 1016 100 9000 2.1 360 18:54 10.11.2019
4648 Clouds 3 1016 100 9000 2.1 360 18:36 10.11.2019
4649 Clouds 3 1016 86 10000 3.1 10 18:18 10.11.2019
4650 Clouds 3 1015 93 10000 2.6 360 17:55 10.11.2019
4651 Clouds 3 1015 93 10000 2.6 360 17:37 10.11.2019
4652 Clouds 4 1015 93 10000 2.6 360 17:18 10.11.2019
4653 Clouds 4 1015 93 10000 2.6 360 16:43 10.11.2019
4654 Clouds 4 1015 93 10000 2.6 360 16:25 10.11.2019
4655 Clouds 4 1014 86 10000 2.6 350 15:56 10.11.2019
4656 Clouds 4 1014 86 10000 2.1 90 15:38 10.11.2019
4657 Clouds 4 1014 86 10000 2.1 120 15:19 10.11.2019
4658 Clouds 4 1013 86 10000 3.1 50 14:58 10.11.2019
4659 Clouds 4 1013 86 10000 3.1 50 14:38 10.11.2019
4660 Clouds 4 1013 86 9000 3.6 60 14:20 10.11.2019
4661 Clouds 4 1013 86 8000 3.6 90 13:55 10.11.2019
4662 Clouds 4 1013 86 8000 3.6 90 13:37 10.11.2019
4663 Clouds 4 1013 93 8000 3.1 70 13:19 10.11.2019
4664 Clouds 6 1013 93 8000 3.6 90 12:41 10.11.2019
4665 Clouds 5 1013 93 8000 3.1 40 12:20 10.11.2019
4666 Clouds 5 1013 93 8000 3.1 40 12:19 10.11.2019
4667 Clouds 5 1013 93 6000 3.6 70 11:56 10.11.2019
4668 Clouds 5 1013 93 6000 3.6 70 11:38 10.11.2019
4669 Mist 3 1013 100 5000 3.6 80 11:19 10.11.2019
4670 Mist 3 1013 100 3500 3.6 60 10:42 10.11.2019
4671 Mist 2 1013 100 3500 3.6 60 10:22 10.11.2019
4672 Mist 2 1012 100 2800 4.1 70 09:59 10.11.2019
4673 Mist 2 1012 100 1800 4.6 80 09:40 10.11.2019
4674 Mist 2 1012 100 2200 3.6 70 09:21 10.11.2019
4675 Fog 1 1011 100 700 4.1 70 08:40 10.11.2019
4676 Fog 1 1011 100 700 3.6 30 08:21 10.11.2019
4677 Fog 1 1011 100 500 4.1 40 07:53 10.11.2019
4678 Fog 1 1011 100 500 4.1 40 07:34 10.11.2019
4679 Fog 1 1010 100 400 2.6 70 06:59 10.11.2019
4680 Fog 1 1010 83 400 5.1 60 06:22 10.11.2019
4681 Mist 1 1009 92 1800 0.88 46 04:45 10.11.2019
4682 Clouds 1 1009 84 10000 1.5 90 02:51 10.11.2019
4683 Clear 1 1009 100 10000 1.5 80 01:41 10.11.2019
4684 Clouds 1 1009 82 10000 1 0 01:18 10.11.2019
4685 Clouds 2 1009 100 10000 2.1 60 00:37 10.11.2019
4686 Clouds 2 1009 100 10000 0.5 0 23:43 09.11.2019
4687 Clouds 2 1009 100 10000 2.1 160 23:20 09.11.2019
4688 Clouds 3 1009 100 10000 1 0 22:55 09.11.2019
4689 Clouds 3 1009 100 10000 1 0 22:37 09.11.2019
4690 Clouds 3 1009 100 10000 1.5 170 22:18 09.11.2019
4691 Rain 4 1009 93 10000 1.5 150 21:55 09.11.2019
4692 Rain 4 1009 93 10000 1.5 150 21:37 09.11.2019
4693 Rain 4 1009 86 10000 4.1 170 21:19 09.11.2019
4694 Rain 4 1009 86 10000 2.6 150 20:41 09.11.2019
4695 Rain 4 1009 86 10000 2.6 150 20:41 09.11.2019
4696 Clouds 4 1009 100 10000 0.5 0 20:22 09.11.2019
4697 Clouds 4 1009 93 10000 1.5 130 19:57 09.11.2019
4698 Clouds 4 1009 93 10000 1.5 130 19:37 09.11.2019
4699 Clouds 4 1009 93 10000 0.5 0 19:19 09.11.2019
4700 Clouds 4 1009 93 10000 1 0 18:40 09.11.2019
4701 Clouds 4 1009 93 10000 1 0 18:19 09.11.2019
4702 Clouds 5 1009 93 10000 1 0 17:58 09.11.2019
4703 Clouds 5 1009 86 10000 1.5 190 17:58 09.11.2019
4704 Clouds 5 1009 86 10000 1.5 190 17:40 09.11.2019
4705 Clouds 6 1009 81 10000 2.6 220 17:22 09.11.2019
4706 Clouds 7 1009 75 10000 3.6 220 16:42 09.11.2019
4707 Clouds 7 1009 75 10000 3.1 200 16:21 09.11.2019
4708 Clouds 7 1009 75 10000 3.1 200 15:58 09.11.2019
4709 Clouds 7 1009 70 10000 5.7 220 15:39 09.11.2019
4710 Clouds 8 1009 70 10000 5.1 230 15:21 09.11.2019
4711 Clouds 8 1009 66 10000 6.2 230 14:43 09.11.2019
4712 Clouds 8 1009 70 10000 6.2 230 14:22 09.11.2019
4713 Clouds 8 1009 66 10000 6.7 210 13:57 09.11.2019
4714 Clouds 8 1009 66 10000 6.7 210 13:38 09.11.2019
4715 Clouds 8 1009 66 10000 5.7 200 13:19 09.11.2019
4716 Clouds 8 1010 70 10000 5.1 220 12:55 09.11.2019
4717 Clouds 8 1010 70 10000 5.1 220 12:37 09.11.2019
4718 Clouds 8 1010 81 10000 5.1 230 12:18 09.11.2019
4719 Clouds 8 1010 76 10000 4.6 210 11:47 09.11.2019
4720 Clouds 7 1010 81 10000 3.1 170 11:20 09.11.2019
4721 Clouds 7 1010 81 10000 3.1 170 10:56 09.11.2019
4722 Clouds 7 1010 87 10000 2.6 190 10:38 09.11.2019
4723 Clouds 6 1010 87 10000 3.1 210 10:18 09.11.2019
4724 Clouds 6 1010 100 8000 3.6 210 09:43 09.11.2019
4725 Mist 5 1010 93 3000 4.1 210 09:21 09.11.2019
4726 Mist 5 1010 100 2500 2.1 190 08:52 09.11.2019
4727 Mist 5 1010 100 2500 2.1 190 08:26 09.11.2019
4728 Mist 5 1010 100 3000 1.5 180 07:57 09.11.2019
4729 Mist 5 1009 100 4000 2.6 190 07:39 09.11.2019
4730 Fog 5 1009 100 5000 2.1 200 07:20 09.11.2019
4731 Clouds 5 1009 100 6000 0.5 0 06:46 09.11.2019
4732 Clouds 5 1009 100 8000 2.1 200 06:28 09.11.2019
4733 Clouds 5 1009 93 9000 2.6 200 05:40 09.11.2019
4734 Rain 5 1008 100 9000 3.1 210 04:30 09.11.2019
4735 Rain 5 1009 100 10000 1.5 140 02:57 09.11.2019
4736 Rain 5 1009 100 10000 1.5 140 02:38 09.11.2019
4737 Rain 5 1008 100 10000 1.5 230 01:40 09.11.2019
4738 Rain 5 1008 100 10000 1.5 180 00:46 09.11.2019
4739 Rain 5 1008 100 10000 1.5 180 00:27 09.11.2019
4740 Clouds 5 1008 100 10000 1 0 23:42 08.11.2019
4741 Rain 5 1008 100 10000 2.1 360 23:23 08.11.2019
4742 Rain 5 1008 93 10000 1 0 22:59 08.11.2019
4743 Rain 5 1008 93 10000 1 0 22:40 08.11.2019
4744 Rain 5 1008 93 10000 2.6 50 22:21 08.11.2019
4745 Rain 5 1008 93 10000 3.6 50 21:55 08.11.2019
4746 Rain 5 1008 93 10000 3.6 50 21:36 08.11.2019
4747 Rain 5 1007 93 10000 1.5 30 21:18 08.11.2019
4748 Rain 6 1007 93 10000 2.1 350 20:41 08.11.2019
4749 Rain 6 1007 93 10000 2.6 350 20:21 08.11.2019
4750 Rain 6 1007 93 10000 2.1 310 19:58 08.11.2019
4751 Rain 6 1007 93 10000 2.1 310 19:38 08.11.2019
4752 Rain 6 1007 93 10000 2.1 300 19:18 08.11.2019
4753 Rain 6 1007 93 10000 2.1 360 18:55 08.11.2019
4754 Rain 6 1007 93 10000 2.1 360 18:37 08.11.2019
4755 Clear 6 1006 81 10000 1.6 39 18:19 08.11.2019
4756 Rain 6 1006 81 10000 4.1 20 17:55 08.11.2019
4757 Rain 6 1006 81 10000 4.1 20 17:37 08.11.2019
4758 Rain 6 1006 81 10000 4.1 30 17:18 08.11.2019
4759 Rain 6 1006 87 10000 4.1 10 16:57 08.11.2019
4760 Rain 7 1006 87 10000 4.1 10 16:39 08.11.2019
4761 Rain 7 1006 81 10000 5.1 10 16:19 08.11.2019
4762 Rain 7 1006 81 10000 5.1 10 15:56 08.11.2019
4763 Rain 7 1006 87 10000 5.1 30 15:38 08.11.2019
4764 Rain 7 1006 87 10000 4.1 30 15:19 08.11.2019
4765 Rain 7 1005 81 10000 3.1 30 14:55 08.11.2019
4766 Rain 7 1005 81 10000 3.1 30 14:36 08.11.2019
4767 Rain 7 1005 87 10000 2.6 20 14:18 08.11.2019
4768 Clear 7 1005 81 10000 1.5 20 13:43 08.11.2019
4769 Clouds 7 1005 81 10000 2.1 360 13:23 08.11.2019
4770 Clouds 7 1005 81 10000 2.1 360 12:59 08.11.2019
4771 Clouds 7 1005 81 10000 2.1 10 12:41 08.11.2019
4772 Clouds 7 1005 81 10000 3.1 20 12:23 08.11.2019
4773 Clouds 7 1005 87 10000 3.6 40 11:56 08.11.2019
4774 Clouds 7 1005 87 10000 3.6 40 11:37 08.11.2019
4775 Clouds 7 1006 87 10000 3.1 30 11:19 08.11.2019
4776 Rain 6 1006 87 10000 3.6 30 10:54 08.11.2019
4777 Rain 6 1006 87 10000 3.6 30 10:36 08.11.2019
4778 Rain 7 1006 87 10000 3.1 20 10:18 08.11.2019
4779 Clouds 6 1006 93 10000 3.1 30 09:41 08.11.2019
4780 Clouds 6 1006 93 10000 3.1 10 09:20 08.11.2019
4781 Clouds 5 1006 93 10000 3.1 10 08:58 08.11.2019
4782 Clouds 5 1006 93 10000 1.5 0 08:37 08.11.2019
4783 Clouds 5 1006 100 10000 1 0 08:18 08.11.2019
4784 Clouds 4 1005 93 10000 3.1 10 07:40 08.11.2019
4785 Clouds 5 1005 93 10000 2.1 10 07:22 08.11.2019
4786 Clouds 4 1005 100 10000 2.1 10 06:41 08.11.2019
4787 Clouds 4 1005 100 10000 1.5 30 06:22 08.11.2019
4788 Clouds 4 1005 100 10000 1.5 30 05:55 08.11.2019
4789 Clouds 4 1005 100 10000 1 0 05:22 08.11.2019
4790 Clouds 3 1005 93 10000 1 0 03:46 08.11.2019
4791 Clouds 3 1005 100 10000 0.5 240 03:24 08.11.2019
4792 Clouds 4 1005 100 10000 0.5 0 02:47 08.11.2019
4793 Clouds 4 1005 100 10000 1.48 240 01:48 08.11.2019
4794 Clouds 4 1005 100 10000 1.42 218 01:30 08.11.2019
4795 Clouds 6 1006 100 10000 1 0 00:37 08.11.2019
4796 Clouds 6 1005 93 10000 1.5 310 00:18 08.11.2019
4797 Clouds 6 1005 93 10000 1 0 23:43 07.11.2019
4798 Clouds 6 1005 100 10000 2.1 190 23:24 07.11.2019
4799 Clouds 6 1005 93 10000 1.5 190 22:43 07.11.2019
4800 Clouds 6 1005 93 10000 2.1 190 22:22 07.11.2019
4801 Clouds 6 1005 93 10000 2.1 190 21:58 07.11.2019
4802 Clouds 6 1005 93 10000 2.6 220 21:38 07.11.2019
4803 Clouds 6 1004 93 10000 1.5 190 21:20 07.11.2019
4804 Clouds 7 1004 93 10000 1.5 190 20:58 07.11.2019
4805 Clouds 7 1004 93 10000 2.1 180 20:40 07.11.2019
4806 Clouds 7 1004 93 10000 2.1 180 20:40 07.11.2019
4807 Clouds 7 1003 93 10000 3.6 210 20:21 07.11.2019
4808 Rain 7 1003 81 10000 2.1 200 19:56 07.11.2019
4809 Rain 7 1003 81 10000 2.1 200 19:37 07.11.2019
4810 Clouds 8 1003 81 10000 4.6 210 19:19 07.11.2019
4811 Clouds 8 1003 81 10000 5.7 200 18:56 07.11.2019
4812 Clouds 8 1003 81 10000 5.7 200 18:38 07.11.2019
4813 Clouds 8 1002 81 10000 5.7 190 18:19 07.11.2019
4814 Clouds 8 1001 81 10000 3.1 210 17:54 07.11.2019
4815 Rain 8 1001 81 10000 4.1 210 17:36 07.11.2019
4816 Rain 8 1001 81 10000 4.1 210 17:18 07.11.2019
4817 Clouds 9 1000 81 10000 6.2 190 16:54 07.11.2019
4818 Clouds 9 1000 81 10000 6.2 190 16:36 07.11.2019
4819 Clouds 9 1000 81 10000 6.7 180 16:18 07.11.2019
4820 Clouds 8 1000 81 10000 6.2 190 15:40 07.11.2019
4821 Clouds 8 1000 81 10000 6.2 190 15:20 07.11.2019
4822 Rain 8 1000 87 10000 5.7 170 14:56 07.11.2019
4823 Clouds 8 1000 76 10000 6.7 170 14:37 07.11.2019
4824 Clouds 9 1000 76 10000 6.7 170 14:19 07.11.2019
4825 Rain 9 1000 81 10000 5.1 150 13:54 07.11.2019
4826 Rain 9 1000 81 10000 4.1 190 13:36 07.11.2019
4827 Rain 9 1000 81 10000 4.1 190 13:18 07.11.2019
4828 Rain 10 1000 76 10000 6.7 180 12:55 07.11.2019
4829 Rain 10 1000 71 10000 4.6 150 12:36 07.11.2019
4830 Rain 10 1000 71 10000 4.6 150 12:36 07.11.2019
4831 Rain 10 1000 71 10000 4.6 150 12:18 07.11.2019
4832 Rain 10 1000 71 10000 4.6 150 12:18 07.11.2019
4833 Clouds 10 1000 76 10000 3.6 130 11:41 07.11.2019
4834 Clouds 10 1000 76 10000 3.6 130 11:22 07.11.2019
4835 Clouds 9 1000 76 10000 3.6 150 10:42 07.11.2019
4836 Clouds 9 1000 76 10000 3.6 150 10:19 07.11.2019
4837 Clouds 9 1000 76 10000 3.6 150 10:19 07.11.2019
4838 Clouds 9 1000 87 10000 3.1 150 09:55 07.11.2019
4839 Clouds 9 1001 87 10000 3.1 150 09:36 07.11.2019
4840 Clouds 8 1001 87 10000 3.1 150 09:18 07.11.2019
4841 Clouds 8 1001 93 10000 4.1 170 08:41 07.11.2019
4842 Clouds 8 1001 93 10000 4.1 170 08:22 07.11.2019
4843 Clouds 8 1001 87 10000 3.1 140 07:57 07.11.2019
4844 Clouds 8 1001 93 10000 2.6 130 07:39 07.11.2019
4845 Clouds 8 1001 93 10000 2.6 130 07:20 07.11.2019
4846 Clouds 8 1001 87 10000 3.1 170 06:46 07.11.2019
4847 Clouds 8 1001 87 10000 3.1 170 06:46 07.11.2019
4848 Clouds 8 1001 100 10000 3.6 170 06:25 07.11.2019
4849 Clouds 8 1001 100 10000 4.1 180 05:50 07.11.2019
4850 Clouds 8 1002 93 10000 3.1 190 05:31 07.11.2019
4851 Clouds 8 1002 93 10000 3.1 180 04:52 07.11.2019
4852 -273 0 0 0 0 0 04:30 07.11.2019
4853 Clouds 8 1002 100 10000 2.6 180 04:30 07.11.2019
4854 Clouds 8 1003 93 10000 4.1 180 01:32 07.11.2019
4855 Clouds 9 1003 93 10000 4.1 190 00:41 07.11.2019
4856 Clouds 8 1003 93 10000 4.1 190 00:18 07.11.2019
4857 Clouds 8 1003 81 10000 2.6 160 23:43 06.11.2019
4858 Rain 9 1003 93 10000 4.1 180 23:20 06.11.2019
4859 Clouds 9 1004 81 10000 2.6 150 22:41 06.11.2019
4860 Rain 9 1004 93 10000 3.6 180 22:22 06.11.2019
4861 Rain 8 1004 81 10000 2.6 180 21:59 06.11.2019
4862 Rain 9 1004 81 10000 2.6 180 21:41 06.11.2019
4863 Rain 9 1004 93 10000 4.1 180 21:20 06.11.2019
4864 Clouds 9 1003 93 10000 3.1 180 20:58 06.11.2019
4865 Rain 9 1003 93 10000 3.1 190 20:39 06.11.2019
4866 Rain 9 1003 93 10000 3.1 190 20:20 06.11.2019
4867 Clouds 9 1003 93 10000 3.6 190 19:58 06.11.2019
4868 Clouds 9 1003 93 10000 3.6 180 19:39 06.11.2019
4869 Clouds 9 1003 93 10000 3.6 180 19:21 06.11.2019
4870 Clouds 9 1003 93 10000 3.6 180 18:57 06.11.2019
4871 Clouds 9 1003 87 10000 4.1 190 18:38 06.11.2019
4872 Rain 9 1003 87 10000 3.6 180 18:19 06.11.2019
4873 Rain 9 1003 87 10000 3.1 190 17:55 06.11.2019
4874 Rain 9 1003 87 10000 3.1 190 17:37 06.11.2019
4875 Clouds 9 1003 76 10000 2.6 220 17:18 06.11.2019
4876 Rain 10 1003 71 10000 2.6 220 16:54 06.11.2019
4877 Rain 10 1003 81 10000 3.6 190 16:36 06.11.2019
4878 Clouds 10 1003 76 10000 3.6 200 16:18 06.11.2019
4879 Rain 10 1003 76 10000 3.6 220 15:54 06.11.2019
4880 Rain 10 1003 76 10000 3.6 220 15:36 06.11.2019
4881 Rain 10 1003 71 10000 4.1 220 15:18 06.11.2019
4882 Rain 10 1003 66 10000 3.6 220 14:55 06.11.2019
4883 Rain 10 1003 66 10000 3.6 220 14:36 06.11.2019
4884 Clouds 10 1003 76 10000 3.6 210 14:18 06.11.2019
4885 Rain 10 1003 81 10000 3.6 190 13:39 06.11.2019
4886 Rain 10 1003 81 10000 3.6 190 13:39 06.11.2019
4887 Rain 10 1003 87 10000 3.6 200 13:21 06.11.2019
4888 Rain 10 1003 87 10000 3.6 200 12:58 06.11.2019
4889 Clouds 10 1003 76 10000 2.1 220 12:39 06.11.2019
4890 Rain 10 1003 76 10000 2.6 240 12:20 06.11.2019
4891 Clouds 10 1003 87 10000 5.1 230 11:58 06.11.2019
4892 Clouds 9 1003 87 10000 5.1 230 11:37 06.11.2019
4893 Clouds 9 1003 87 10000 3.6 210 11:18 06.11.2019
4894 Clouds 9 1003 87 10000 3.6 210 11:18 06.11.2019
4895 Clouds 9 1003 93 10000 3.6 210 10:56 06.11.2019
4896 Clouds 9 1003 93 10000 3.6 210 10:38 06.11.2019
4897 Clouds 9 1003 93 10000 2.6 230 10:19 06.11.2019
4898 Rain 8 1002 100 10000 4.1 190 09:44 06.11.2019
4899 Rain 8 1002 93 10000 2.6 180 09:24 06.11.2019
4900 Clouds 8 1002 93 10000 2.6 210 08:59 06.11.2019
4901 Clouds 8 1002 93 10000 2.6 210 08:39 06.11.2019
4902 Clouds 7 1002 100 10000 2.1 200 08:20 06.11.2019
4903 Clouds 7 1002 100 10000 2.1 200 07:59 06.11.2019
4904 Clouds 7 1001 100 10000 2.6 190 07:40 06.11.2019
4905 Clouds 7 1001 100 10000 2.1 190 07:20 06.11.2019
4906 Rain 7 1001 100 9000 1.5 150 06:44 06.11.2019
4907 Rain 7 1001 100 9000 1.5 150 06:24 06.11.2019
4908 Rain 7 1001 87 10000 1.5 240 04:52 06.11.2019
4909 Clouds 7 1000 87 10000 0.83 228 02:22 06.11.2019
4910 Clouds 7 1000 93 10000 2.1 200 01:37 06.11.2019
4911 Clouds 7 1000 93 10000 1.5 190 00:39 06.11.2019
4912 Clouds 7 1000 93 10000 2.1 190 23:58 05.11.2019
4913 Clouds 7 999 93 10000 1.34 221 23:38 05.11.2019
4914 Clouds 7 999 100 10000 2.1 170 23:20 05.11.2019
4915 Clouds 7 999 93 10000 1 0 22:45 05.11.2019
4916 Clouds 8 999 100 10000 1.5 200 22:20 05.11.2019
4917 Clouds 8 999 100 10000 1.5 200 21:59 05.11.2019
4918 Clouds 8 999 100 10000 1.5 150 21:41 05.11.2019
4919 Rain 8 999 93 10000 1.5 160 21:21 05.11.2019
4920 Rain 8 999 93 10000 1.5 160 20:58 05.11.2019
4921 Rain 8 999 93 10000 1 160 20:39 05.11.2019
4922 Rain 8 999 93 10000 0.5 0 20:20 05.11.2019
4923 Clouds 8 999 100 10000 1.5 290 19:57 05.11.2019
4924 Clouds 8 999 100 10000 1.5 290 19:38 05.11.2019
4925 Clouds 8 999 100 10000 1.5 290 19:38 05.11.2019
4926 Clouds 8 998 100 10000 1.5 200 19:20 05.11.2019
4927 Clouds 8 998 100 10000 1.5 200 18:57 05.11.2019
4928 Clouds 8 998 87 10000 2.6 190 18:39 05.11.2019
4929 Clouds 8 998 87 10000 2.1 160 18:20 05.11.2019
4930 Clouds 9 998 93 10000 0.5 0 17:57 05.11.2019
4931 Clouds 9 998 93 10000 0.5 0 17:38 05.11.2019
4932 Rain 9 998 87 10000 1.5 170 17:18 05.11.2019
4933 Rain 10 998 81 10000 2.6 180 16:54 05.11.2019
4934 Rain 10 998 81 10000 2.6 180 16:36 05.11.2019
4935 Rain 10 998 66 10000 1.5 170 16:18 05.11.2019
4936 Rain 11 998 71 10000 2.6 190 15:37 05.11.2019
4937 Rain 11 998 66 10000 3.1 180 15:19 05.11.2019
4938 Clouds 11 998 66 10000 4.1 210 14:58 05.11.2019
4939 Clouds 11 998 66 10000 4.1 210 14:39 05.11.2019
4940 Clouds 11 997 66 10000 4.1 220 14:21 05.11.2019
4941 Clouds 11 997 66 10000 4.6 210 13:44 05.11.2019
4942 Clouds 11 998 66 10000 4.6 210 13:25 05.11.2019
4943 Clouds 11 998 66 10000 4.6 210 12:59 05.11.2019
4944 Clouds 11 998 71 10000 4.1 200 12:39 05.11.2019
4945 Clouds 11 998 57 10000 2.6 200 12:20 05.11.2019
4946 Clouds 11 998 71 10000 4.1 210 11:55 05.11.2019
4947 Clouds 11 998 71 10000 4.1 210 11:37 05.11.2019
4948 Clouds 10 998 76 10000 4.1 200 11:19 05.11.2019
4949 Clouds 9 999 62 10000 3.6 180 10:42 05.11.2019
4950 Clouds 9 998 71 10000 5.1 200 10:24 05.11.2019
4951 Clouds 9 998 71 10000 5.1 200 10:24 05.11.2019
4952 Clouds 9 998 81 10000 4.6 190 09:58 05.11.2019
4953 Clouds 8 998 81 10000 3.1 190 09:40 05.11.2019
4954 Clouds 8 998 87 10000 3.6 180 09:19 05.11.2019
4955 Clouds 7 997 93 10000 3.1 180 08:55 05.11.2019
4956 Clouds 7 997 93 10000 3.1 180 08:55 05.11.2019
4957 Clouds 7 997 93 10000 3.1 180 08:37 05.11.2019
4958 Clouds 7 997 93 10000 3.6 180 08:18 05.11.2019
4959 Clouds 7 997 75 10000 2.6 110 07:43 05.11.2019
4960 Clouds 7 996 93 10000 4.1 180 07:24 05.11.2019
4961 Clouds 7 996 93 10000 3.6 170 06:51 05.11.2019
4962 Clouds 7 996 87 10000 2.6 170 06:26 05.11.2019
4963 Clouds 7 996 93 10000 4.1 190 05:39 05.11.2019
4964 Clouds 7 996 93 10000 4.1 210 05:19 05.11.2019
4965 Clouds 8 996 93 10000 3.6 170 04:20 05.11.2019
4966 Clouds 8 995 93 10000 3.6 190 03:24 05.11.2019
4967 Rain 8 996 70 10000 5.1 200 02:42 05.11.2019
4968 Rain 8 996 70 10000 5.1 200 02:42 05.11.2019
4969 Clouds 8 996 66 10000 3.6 200 01:52 05.11.2019
4970 Clouds 8 996 66 10000 3.6 200 01:52 05.11.2019
4971 Rain 9 995 93 10000 5.1 190 00:46 05.11.2019
4972 Clouds 9 995 66 10000 4.1 200 00:25 05.11.2019
4973 Clouds 9 994 93 10000 4.6 190 23:42 04.11.2019
4974 Rain 9 994 93 10000 4.6 180 23:19 04.11.2019
4975 Rain 9 994 71 10000 2.6 190 22:56 04.11.2019
4976 Rain 9 994 93 10000 4.6 180 22:56 04.11.2019
4977 Rain 9 994 71 10000 2.6 190 22:37 04.11.2019
4978 Rain 9 993 93 10000 4.1 220 22:19 04.11.2019
4979 Rain 9 993 93 10000 2.1 180 21:55 04.11.2019
4980 Rain 9 993 93 10000 2.1 180 21:37 04.11.2019
4981 Rain 9 993 76 10000 4.33 215 21:18 04.11.2019
4982 Rain 9 993 76 10000 4.33 215 21:18 04.11.2019
4983 Clouds 9 993 93 10000 3.1 180 20:55 04.11.2019
4984 Clouds 9 993 93 10000 2.6 190 20:37 04.11.2019
4985 Rain 9 993 76 10000 1.5 80 20:18 04.11.2019
4986 Rain 9 993 87 10000 3.1 190 19:56 04.11.2019
4987 Rain 9 993 87 10000 3.1 190 19:38 04.11.2019
4988 Rain 10 993 87 10000 3.6 210 19:20 04.11.2019
4989 Rain 10 993 66 10000 2.6 190 18:54 04.11.2019
4990 Clouds 10 992 81 10000 3.6 190 18:36 04.11.2019
4991 Clouds 10 992 81 10000 2.6 210 18:18 04.11.2019
4992 Clouds 10 992 81 10000 2.6 210 18:18 04.11.2019
4993 Clouds 10 992 81 10000 2.6 190 17:38 04.11.2019
4994 Clouds 10 992 81 10000 3.6 210 17:19 04.11.2019
4995 Clouds 11 992 81 10000 3.6 210 16:55 04.11.2019
4996 Clouds 11 991 81 10000 4.6 200 16:55 04.11.2019
4997 Clouds 11 992 81 10000 3.6 210 16:55 04.11.2019
4998 Clouds 11 991 81 10000 4.6 200 16:36 04.11.2019
4999 Clouds 11 991 81 10000 5.7 220 16:18 04.11.2019
5000 Clouds 11 991 76 10000 7.7 230 15:41 04.11.2019
5001 Clouds 11 991 93 10000 4.1 210 15:22 04.11.2019
5002 Clouds 11 991 93 10000 4.1 210 14:59 04.11.2019
5003 Clouds 11 991 76 10000 3.1 240 14:41 04.11.2019
5004 Rain 11 991 76 10000 1.5 200 14:21 04.11.2019
5005 Rain 10 990 100 10000 5.7 180 13:58 04.11.2019
5006 Rain 10 990 76 10000 4.6 180 13:40 04.11.2019
5007 Rain 10 990 76 10000 5.7 160 13:21 04.11.2019
5008 Rain 10 990 76 10000 5.7 160 13:21 04.11.2019
5009 Rain 10 990 76 10000 5.7 160 13:21 04.11.2019
5010 Rain 10 990 76 10000 5.7 160 13:21 04.11.2019
5011 Rain 10 990 93 10000 6.2 160 12:57 04.11.2019
5012 Rain 10 990 76 10000 4.6 160 12:39 04.11.2019
5013 Rain 10 991 93 10000 4.1 170 12:21 04.11.2019
5014 Clouds 10 991 76 10000 4.1 150 11:55 04.11.2019
5015 Clouds 10 991 87 10000 2.6 160 11:37 04.11.2019
5016 Drizzle 11 991 93 10000 4.1 190 11:19 04.11.2019
5017 Clouds 11 991 81 10000 5.7 200 10:42 04.11.2019
5018 Rain 10 992 76 10000 3.6 190 10:24 04.11.2019
5019 Rain 10 992 81 10000 4.1 190 09:46 04.11.2019
5020 Rain 10 992 81 10000 4.1 190 09:28 04.11.2019
5021 Rain 10 992 81 10000 4.1 190 09:28 04.11.2019
5022 Clouds 10 992 81 10000 5.7 190 08:59 04.11.2019
5023 Clouds 10 991 87 10000 4.6 190 08:38 04.11.2019
5024 Clouds 10 991 87 10000 4.6 190 08:38 04.11.2019
5025 Clouds 10 992 76 10000 3.6 210 08:20 04.11.2019
5026 Clouds 9 992 81 10000 3.6 190 07:44 04.11.2019
5027 Clouds 10 991 81 10000 2.1 180 07:24 04.11.2019
5028 Clouds 10 991 93 10000 4.6 180 06:57 04.11.2019
5029 Clouds 10 991 93 10000 4.6 180 06:35 04.11.2019
5030 Clouds 10 991 93 10000 4.1 180 05:57 04.11.2019
5031 Clouds 10 991 87 10000 4.1 180 04:45 04.11.2019
5032 Clouds 10 991 93 10000 4.6 200 04:23 04.11.2019
5033 Rain 10 991 81 10000 3.6 230 02:44 04.11.2019
5034 Rain 11 990 93 10000 7.7 210 01:22 04.11.2019
5035 Drizzle 11 990 81 10000 7.2 220 00:49 04.11.2019
5036 Clouds 11 989 93 10000 4.6 200 00:21 04.11.2019
5037 Clouds 11 989 87 10000 4.6 190 23:56 03.11.2019
5038 Clouds 11 989 87 10000 4.6 190 23:36 03.11.2019
5039 Rain 11 988 87 10000 4.6 210 23:18 03.11.2019
5040 Rain 11 988 87 10000 4.6 210 22:54 03.11.2019
5041 Rain 11 988 87 10000 4.6 190 22:36 03.11.2019
5042 Clouds 11 988 81 10000 2.6 210 22:18 03.11.2019
5043 Rain 11 988 81 9000 3.6 270 21:41 03.11.2019
5044 Clouds 11 988 87 10000 4.6 170 21:21 03.11.2019
5045 Clouds 11 988 87 10000 4.6 170 21:21 03.11.2019
5046 Rain 12 987 87 10000 3.6 180 20:56 03.11.2019
5047 Rain 12 987 87 10000 3.6 180 20:37 03.11.2019
5048 Rain 12 987 87 10000 4.1 180 20:18 03.11.2019
5049 Rain 12 987 87 10000 4.1 180 19:57 03.11.2019
5050 Clouds 12 987 81 10000 2.6 170 19:38 03.11.2019
5051 Rain 12 987 87 10000 4.6 180 19:20 03.11.2019
5052 Rain 12 987 87 10000 3.6 170 18:39 03.11.2019
5053 Rain 13 987 71 10000 1.5 150 18:19 03.11.2019
5054 Rain 13 987 71 10000 2.1 140 17:59 03.11.2019
5055 Rain 13 986 82 10000 2.1 140 17:41 03.11.2019
5056 Rain 13 986 82 10000 2.1 140 17:41 03.11.2019
5057 Clouds 13 986 66 10000 2.1 120 17:20 03.11.2019
5058 Clouds 13 986 82 10000 2.1 130 16:56 03.11.2019
5059 Rain 14 986 82 10000 2.1 140 16:38 03.11.2019
5060 Rain 14 986 82 10000 2.6 130 16:20 03.11.2019
5061 Rain 14 986 82 10000 2.6 130 15:57 03.11.2019
5062 Rain 14 986 77 10000 2.6 110 15:39 03.11.2019
5063 Rain 14 986 77 10000 1.5 110 15:21 03.11.2019
5064 Rain 14 986 72 10000 1.5 150 14:42 03.11.2019
5065 Rain 14 986 77 10000 2.6 130 14:19 03.11.2019
5066 Rain 14 986 72 10000 3.6 150 13:58 03.11.2019
5067 Rain 14 986 72 10000 3.6 150 13:40 03.11.2019
5068 Rain 14 987 72 10000 3.6 170 13:18 03.11.2019
5069 Rain 14 987 72 10000 2.6 170 12:39 03.11.2019
5070 Clouds 14 987 76 10000 3.1 180 12:20 03.11.2019
5071 Clouds 13 987 76 10000 3.1 180 11:59 03.11.2019
5072 Clouds 13 988 82 10000 3.6 180 11:41 03.11.2019
5073 Clouds 13 988 82 10000 3.6 180 11:41 03.11.2019
5074 Rain 13 988 87 10000 3.1 170 11:20 03.11.2019
5075 Rain 12 988 93 10000 3.1 170 10:55 03.11.2019
5076 Rain 12 988 93 10000 3.1 170 10:37 03.11.2019
5077 Rain 12 988 93 10000 4.1 170 10:18 03.11.2019
5078 Rain 12 988 93 10000 4.1 170 10:18 03.11.2019
5079 Clouds 11 988 71 10000 3.1 150 09:42 03.11.2019
5080 Clouds 11 988 76 10000 2.58 177 09:24 03.11.2019
5081 Rain 11 988 93 10000 3.6 170 08:56 03.11.2019
5082 Drizzle 11 988 93 10000 4.6 180 08:36 03.11.2019
5083 Drizzle 10 988 93 10000 2.1 180 08:18 03.11.2019
5084 Rain 10 988 71 10000 2.6 170 07:44 03.11.2019
5085 Clouds 10 988 76 10000 3.6 180 07:20 03.11.2019
5086 Clouds 10 988 93 10000 3.1 170 06:39 03.11.2019
5087 Clouds 10 989 93 10000 4.6 180 05:54 03.11.2019
5088 Clouds 10 989 93 10000 4.6 180 05:34 03.11.2019
5089 Clouds 10 989 81 10000 4.1 140 04:52 03.11.2019
5090 Clouds 10 990 93 10000 4.6 170 03:58 03.11.2019
5091 Rain 10 991 76 10000 3.1 140 03:21 03.11.2019
5092 Rain 10 992 76 10000 2.6 170 02:23 03.11.2019
5093 Rain 10 992 71 10000 3.1 160 01:49 03.11.2019
5094 Rain 10 992 100 10000 4.1 180 01:27 03.11.2019
5095 Rain 10 992 93 10000 4.6 190 00:59 03.11.2019
5096 Rain 10 992 93 10000 5.1 180 00:38 03.11.2019
5097 Clouds 10 992 93 10000 4.1 170 00:20 03.11.2019
5098 Rain 11 992 100 10000 3.1 160 23:55 02.11.2019
5099 Rain 11 992 100 10000 3.1 160 23:36 02.11.2019
5100 Rain 11 992 93 10000 3.1 200 23:18 02.11.2019
5101 Rain 11 993 66 10000 3.1 220 22:54 02.11.2019
5102 Rain 11 993 93 10000 4.1 210 22:36 02.11.2019
5103 Rain 11 993 93 10000 5.1 250 22:18 02.11.2019
5104 Rain 12 993 62 10000 4.1 240 21:55 02.11.2019
5105 Rain 12 993 62 10000 4.1 240 21:36 02.11.2019
5106 Clouds 12 993 76 10000 3.1 190 21:18 02.11.2019
5107 Clouds 12 993 76 10000 3.1 190 20:55 02.11.2019
5108 Clouds 12 993 71 10000 4.1 200 20:37 02.11.2019
5109 Clouds 12 993 71 10000 5.1 190 20:18 02.11.2019
5110 Clouds 12 993 71 10000 5.7 190 19:39 02.11.2019
5111 Clouds 13 994 71 10000 5.1 200 19:20 02.11.2019
5112 Clouds 13 994 71 10000 5.1 200 18:55 02.11.2019
5113 Clouds 13 994 71 10000 5.1 190 18:55 02.11.2019
5114 Clouds 13 994 71 10000 5.1 190 18:37 02.11.2019
5115 Clouds 13 994 76 10000 4.1 190 18:18 02.11.2019
5116 Clouds 13 994 82 10000 4.6 180 17:56 02.11.2019
5117 Clouds 13 994 82 10000 4.6 180 17:56 02.11.2019
5118 Clouds 14 994 82 10000 4.6 180 17:37 02.11.2019
5119 Rain 14 994 87 10000 3.1 210 17:18 02.11.2019
5120 Rain 14 994 87 10000 3.6 200 16:56 02.11.2019
5121 Rain 14 994 87 10000 3.6 200 16:36 02.11.2019
5122 Rain 15 994 87 10000 4.1 210 16:18 02.11.2019
5123 Rain 15 994 77 10000 5.1 210 15:41 02.11.2019
5124 Rain 15 994 72 10000 5.1 210 15:19 02.11.2019
5125 Rain 15 994 67 10000 8.2 220 14:42 02.11.2019
5126 Clouds 16 994 72 10000 7.7 220 14:23 02.11.2019
5127 Clouds 16 994 72 10000 7.7 220 13:57 02.11.2019
5128 Clouds 15 994 77 10000 6.7 210 13:38 02.11.2019
5129 Rain 15 994 77 10000 6.7 210 13:19 02.11.2019
5130 Clouds 15 995 82 10000 6.2 210 12:41 02.11.2019
5131 Rain 15 995 62 10000 6.2 210 12:23 02.11.2019
5132 Rain 15 995 87 10000 5.1 180 11:58 02.11.2019
5133 Rain 15 995 87 10000 5.1 180 11:39 02.11.2019
5134 Haze 15 995 67 10000 6.7 220 11:21 02.11.2019
5135 Clouds 14 995 93 10000 7.2 190 10:50 02.11.2019
5136 Clouds 14 995 93 10000 7.2 190 10:29 02.11.2019
5137 Clouds 14 995 93 10000 6.2 190 09:59 02.11.2019
5138 Clouds 13 995 93 10000 6.2 190 09:40 02.11.2019
5139 Clouds 13 995 93 10000 5.7 190 09:20 02.11.2019
5140 Clouds 13 995 100 10000 6.2 180 08:47 02.11.2019
5141 Clouds 13 995 100 10000 5.7 180 08:22 02.11.2019
5142 Clouds 12 995 87 10000 3.1 160 07:51 02.11.2019
5143 Clouds 12 995 93 10000 5.1 180 07:33 02.11.2019
5144 Rain 12 995 87 10000 3.6 170 06:58 02.11.2019
5145 Rain 12 995 87 10000 3.6 170 06:39 02.11.2019
5146 Rain 12 996 87 10000 4.1 170 06:18 02.11.2019
5147 Drizzle 12 996 93 7000 5.7 180 05:29 02.11.2019
5148 Rain 12 996 81 9000 3.1 170 04:23 02.11.2019
5149 Clouds 12 997 81 10000 3.6 180 03:50 02.11.2019
5150 Haze 11 998 87 9000 4.78 201 02:49 02.11.2019
5151 Clouds 11 998 93 10000 6.7 180 01:57 02.11.2019
5152 Haze 11 999 81 9000 2.1 140 01:27 02.11.2019
5153 Haze 11 999 81 9000 4.73 209 00:55 02.11.2019
5154 Clouds 10 999 93 10000 4.6 190 00:28 02.11.2019
5155 Rain 10 1000 100 10000 4.6 180 23:55 01.11.2019
5156 Rain 10 1000 100 10000 4.6 180 23:37 01.11.2019
5157 Rain 10 1000 100 4000 5.1 180 23:18 01.11.2019
5158 Rain 10 1001 81 6000 2.6 170 22:41 01.11.2019
5159 Rain 10 1001 100 4800 5.1 180 22:41 01.11.2019
5160 Rain 10 1001 81 6000 2.6 160 22:20 01.11.2019
5161 Rain 10 1002 100 10000 4.6 180 21:42 01.11.2019
5162 Rain 9 1002 87 5000 2.6 150 21:24 01.11.2019
5163 Rain 9 1002 93 10000 5.1 170 20:59 01.11.2019
5164 Rain 9 1002 81 8000 2.6 160 20:41 01.11.2019
5165 Rain 9 1003 93 8000 5.1 180 20:22 01.11.2019
5166 Rain 9 1003 93 8000 5.1 180 19:59 01.11.2019
5167 Clouds 9 1004 93 8000 4.1 170 19:40 01.11.2019
5168 Haze 8 1004 81 1600 2.1 110 19:21 01.11.2019
5169 Rain 8 1005 100 5000 0.5 0 18:41 01.11.2019
5170 Rain 8 1005 100 5000 1 0 18:21 01.11.2019
5171 Rain 8 1005 100 5000 1 0 17:58 01.11.2019
5172 Rain 8 1006 100 5000 0.5 0 17:40 01.11.2019
5173 Rain 7 1006 81 5000 1.5 60 17:22 01.11.2019
5174 Rain 7 1007 100 6000 1.5 60 16:40 01.11.2019
5175 Rain 7 1007 100 6000 1 0 16:20 01.11.2019
5176 Rain 7 1007 100 6000 1 0 15:58 01.11.2019
5177 Rain 7 1007 81 3200 1.61 158 15:40 01.11.2019
5178 Drizzle 7 1008 93 4500 2.1 30 15:22 01.11.2019
5179 Drizzle 7 1009 93 2800 3.1 30 14:44 01.11.2019
5180 Rain 7 1009 81 2400 1.5 50 14:25 01.11.2019
5181 Rain 6 1009 81 4000 2.1 60 13:59 01.11.2019
5182 Rain 6 1009 81 4000 2.1 60 13:40 01.11.2019
5183 Haze 6 1010 81 2400 2.1 60 13:22 01.11.2019
5184 Drizzle 6 1010 100 2500 2.6 60 12:56 01.11.2019
5185 Drizzle 6 1011 93 2800 2.6 60 12:37 01.11.2019
5186 Drizzle 6 1011 93 2800 2.6 60 12:37 01.11.2019
5187 Rain 6 1012 75 2200 2.6 80 12:19 01.11.2019
5188 Rain 5 1012 80 1800 3.1 70 11:42 01.11.2019
5189 Drizzle 5 1013 100 1800 2.6 70 11:24 01.11.2019
5190 Drizzle 5 1013 100 1800 2.6 70 10:56 01.11.2019
5191 Drizzle 4 1013 100 2000 2.6 60 10:37 01.11.2019
5192 Rain 5 1013 75 1600 3.6 60 10:18 01.11.2019
5193 Drizzle 4 1014 93 3200 2.6 70 09:42 01.11.2019
5194 Haze 4 1014 74 2200 3.6 70 09:23 01.11.2019
5195 Drizzle 4 1015 93 4700 2.6 60 08:57 01.11.2019
5196 Haze 4 1015 74 3600 3.1 70 08:39 01.11.2019
5197 Drizzle 4 1015 86 7000 2.6 80 08:20 01.11.2019
5198 Rain 4 1015 69 4400 3.6 70 07:46 01.11.2019
5199 Clouds 4 1016 80 10000 3.1 70 07:23 01.11.2019
5200 Clouds 4 1016 64 10000 3.1 70 06:55 01.11.2019
5201 Clouds 3 1016 80 10000 3.1 60 06:23 01.11.2019
5202 Clouds 3 1016 64 10000 4.6 70 05:58 01.11.2019
5203 Clouds 3 1016 64 10000 4.6 70 05:38 01.11.2019
5204 Clouds 2 1018 69 10000 3.1 50 03:32 01.11.2019
5205 Clear 2 1019 64 10000 4.6 50 01:48 01.11.2019
5206 Clear 2 1020 80 10000 4.1 40 01:22 01.11.2019
5207 Clear 2 1020 74 10000 3.6 50 00:20 01.11.2019
5208 Clear 2 1020 74 10000 3.1 10 23:55 31.10.2019
5209 Clear 2 1020 74 10000 3.1 10 23:36 31.10.2019
5210 Clear 2 1020 69 10000 4.1 40 23:18 31.10.2019
5211 Clear 2 1020 59 10000 4.1 40 22:42 31.10.2019
5212 Clear 3 1020 59 10000 4.1 40 22:23 31.10.2019
5213 Clear 3 1021 59 10000 4.1 20 21:56 31.10.2019
5214 Clear 3 1021 59 10000 3.6 20 21:38 31.10.2019
5215 Clear 3 1021 59 10000 4.1 30 21:18 31.10.2019
5216 Clear 3 1021 59 10000 4.6 50 20:41 31.10.2019
5217 Clear 3 1021 59 10000 4.6 50 20:41 31.10.2019
5218 Clear 3 1021 52 10000 4.1 60 20:22 31.10.2019
5219 Clear 4 1021 52 10000 3.6 70 19:58 31.10.2019
5220 Clear 4 1021 52 10000 3.6 70 19:38 31.10.2019
5221 Clear 4 1021 52 10000 4.6 60 19:19 31.10.2019
5222 Clear 4 1021 52 10000 4.6 70 18:44 31.10.2019
5223 Clear 5 1021 52 10000 4.6 70 18:25 31.10.2019
5224 Clear 5 1021 52 10000 4.1 70 17:58 31.10.2019
5225 Clear 6 1021 52 10000 4.1 60 17:40 31.10.2019
5226 Clear 6 1021 45 10000 4.1 60 17:20 31.10.2019
5227 Clear 7 1021 45 10000 4.6 60 16:55 31.10.2019
5228 Clear 8 1021 45 10000 4.6 60 16:37 31.10.2019
5229 Clear 8 1021 45 10000 5.7 60 16:18 31.10.2019
5230 Clear 8 1021 45 10000 4.6 60 15:40 31.10.2019
5231 Clear 8 1021 45 10000 4.6 60 15:40 31.10.2019
5232 Clear 9 1021 45 10000 4.6 60 15:21 31.10.2019
5233 Clear 9 1021 45 10000 4.6 60 14:58 31.10.2019
5234 Clear 9 1021 53 10000 5.1 70 14:40 31.10.2019
5235 Clear 9 1021 53 10000 5.1 60 14:22 31.10.2019
5236 Clear 9 1022 45 10000 4.1 50 13:59 31.10.2019
5237 Clear 8 1022 44 10000 4.1 50 13:39 31.10.2019
5238 Clear 8 1022 57 10000 3.6 60 13:19 31.10.2019
5239 Clear 8 1022 57 10000 3.6 60 12:57 31.10.2019
5240 Clear 8 1023 61 10000 3.6 60 12:38 31.10.2019
5241 Clear 7 1023 61 10000 4.1 40 12:18 31.10.2019
5242 Clear 7 1023 44 10000 3.6 60 11:45 31.10.2019
5243 Clear 6 1024 56 10000 4.6 60 11:21 31.10.2019
5244 Clear 6 1024 56 10000 4.6 60 10:58 31.10.2019
5245 Clear 5 1024 56 10000 4.6 50 10:39 31.10.2019
5246 Clear 5 1024 56 10000 4.6 50 10:20 31.10.2019
5247 -273 0 0 0 0 0 09:54 31.10.2019
5248 Clear 2 1024 56 10000 3.6 40 09:36 31.10.2019
5249 Clear 2 1024 56 10000 3.6 20 09:18 31.10.2019
5250 Clear 2 1024 80 10000 3.6 20 08:43 31.10.2019
5251 Clear 1 1024 80 10000 3.6 20 08:24 31.10.2019
5252 Clear 0 1024 86 10000 3.6 20 07:48 31.10.2019
5253 Clear 0 1024 86 10000 3.6 20 07:26 31.10.2019
5254 Clear 0 1023 86 10000 3.1 20 06:53 31.10.2019
5255 Clear 1 1023 86 10000 3.1 20 06:32 31.10.2019
5256 Clear 1 1024 80 10000 4.1 20 05:27 31.10.2019
5257 Clear 1 1024 66 10000 5.7 10 03:20 31.10.2019
5258 Clouds 2 1025 63 10000 2.6 10 02:30 31.10.2019
5259 Clouds 2 1025 63 10000 3.6 20 01:24 31.10.2019
5260 Clouds 3 1025 64 10000 3.1 20 00:27 31.10.2019
5261 Clouds 3 1025 80 10000 3.1 40 23:53 30.10.2019
5262 Clouds 3 1025 80 10000 3.1 40 23:27 30.10.2019
5263 Clouds 4 1025 80 10000 3.6 20 22:43 30.10.2019
5264 Clouds 4 1025 80 10000 5.1 50 22:20 30.10.2019
5265 Clouds 4 1025 75 10000 4.6 30 21:55 30.10.2019
5266 Clouds 4 1025 75 10000 4.6 30 21:37 30.10.2019
5267 Clouds 4 1025 75 10000 4.6 30 21:37 30.10.2019
5268 Clouds 4 1025 75 10000 4.1 30 21:18 30.10.2019
5269 Clouds 5 1025 75 10000 4.1 30 20:58 30.10.2019
5270 Clouds 5 1025 75 10000 4.1 30 20:39 30.10.2019
5271 Clouds 5 1025 75 10000 4.6 20 20:21 30.10.2019
5272 Clouds 5 1025 65 10000 5.7 40 19:57 30.10.2019
5273 Clouds 5 1025 65 10000 5.7 40 19:57 30.10.2019
5274 Clouds 5 1025 65 10000 5.7 40 19:38 30.10.2019
5275 Clouds 6 1025 65 10000 4.6 30 19:19 30.10.2019
5276 Clouds 6 1025 65 10000 5.7 40 18:39 30.10.2019
5277 Clouds 6 1025 65 10000 5.7 40 18:39 30.10.2019
5278 Clouds 6 1025 61 10000 5.7 50 18:20 30.10.2019
5279 Clouds 6 1025 61 10000 5.7 60 17:59 30.10.2019
5280 Clouds 6 1025 61 10000 5.7 60 17:41 30.10.2019
5281 Clouds 7 1025 65 10000 5.1 60 17:19 30.10.2019
5282 Clouds 7 1025 65 10000 5.1 60 17:19 30.10.2019
5283 Clouds 7 1025 65 10000 5.1 60 16:55 30.10.2019
5284 Clouds 8 1025 65 10000 5.1 50 16:37 30.10.2019
5285 Clouds 8 1025 57 10000 5.1 60 16:19 30.10.2019
5286 Clouds 8 1025 57 10000 5.1 60 15:56 30.10.2019
5287 Clouds 8 1025 61 10000 5.1 60 15:37 30.10.2019
5288 Clouds 8 1025 61 10000 4.6 60 15:19 30.10.2019
5289 Clouds 8 1025 61 10000 4.6 60 14:55 30.10.2019
5290 Clouds 9 1025 57 10000 4.6 70 14:36 30.10.2019
5291 Clouds 9 1026 61 10000 5.7 80 14:18 30.10.2019
5292 Clouds 8 1026 61 10000 5.7 80 13:42 30.10.2019
5293 Clouds 8 1026 61 10000 4.6 50 13:20 30.10.2019
5294 Clouds 9 1026 61 10000 4.6 50 12:59 30.10.2019
5295 Clouds 9 1027 66 10000 4.1 60 12:41 30.10.2019
5296 Clouds 8 1027 65 10000 5.1 70 12:22 30.10.2019
5297 Clouds 8 1027 65 10000 4.6 60 11:43 30.10.2019
5298 Clouds 7 1027 70 10000 5.1 60 11:25 30.10.2019
5299 Clouds 6 1027 70 10000 5.1 60 10:58 30.10.2019
5300 Clouds 6 1027 75 10000 4.6 60 10:39 30.10.2019
5301 Clouds 6 1027 75 10000 4.6 50 10:20 30.10.2019
5302 Clouds 5 1027 80 10000 5.1 50 09:40 30.10.2019
5303 Clouds 4 1027 80 10000 4.1 30 09:22 30.10.2019
5304 Clouds 4 1027 80 10000 4.1 30 08:56 30.10.2019
5305 Clouds 3 1027 80 10000 4.1 30 08:38 30.10.2019
5306 Clear 2 1027 86 10000 3.6 30 08:18 30.10.2019
5307 Clear 1 1027 93 10000 3.6 20 07:43 30.10.2019
5308 Clear 1 1026 93 10000 3.1 10 06:59 30.10.2019
5309 Clear 1 1026 86 10000 3.1 20 06:40 30.10.2019
5310 Clear 2 1026 86 10000 4.6 20 05:58 30.10.2019
5311 Clear 2 1026 86 10000 4.6 20 05:39 30.10.2019
5312 Clear 2 1026 86 10000 3.1 20 04:26 30.10.2019
5313 Clear 2 1026 80 10000 3.1 30 03:39 30.10.2019
5314 Clear 3 1026 80 10000 3.6 20 02:49 30.10.2019
5315 Clouds 3 1026 86 10000 4.1 30 01:49 30.10.2019
5316 Clouds 3 1026 86 10000 4.6 20 00:49 30.10.2019
5317 Clouds 3 1026 86 10000 4.6 20 00:28 30.10.2019
5318 Clouds 4 1026 86 10000 4.1 20 23:41 29.10.2019
5319 Clouds 4 1026 80 10000 4.1 10 23:22 29.10.2019
5320 Clouds 4 1026 86 10000 4.1 20 22:46 29.10.2019
5321 Clouds 4 1026 86 10000 3.1 40 22:20 29.10.2019
5322 Clouds 5 1026 81 10000 5.1 50 21:58 29.10.2019
5323 Clouds 5 1026 81 10000 5.1 50 21:40 29.10.2019
5324 Clouds 5 1026 81 10000 4.6 50 21:20 29.10.2019
5325 Clouds 5 1026 75 10000 4.6 50 20:56 29.10.2019
5326 Clouds 5 1026 75 10000 4.6 50 20:38 29.10.2019
5327 Clouds 5 1026 75 10000 4.6 50 20:38 29.10.2019
5328 Clouds 6 1026 75 10000 3.6 80 20:20 29.10.2019
5329 Clouds 6 1025 70 10000 4.1 60 19:56 29.10.2019
5330 Clouds 6 1025 70 10000 4.1 60 19:38 29.10.2019
5331 Clouds 6 1025 70 10000 4.6 40 19:19 29.10.2019
5332 Clouds 6 1025 75 10000 3.6 20 18:55 29.10.2019
5333 Clouds 6 1025 75 10000 3.6 20 18:37 29.10.2019
5334 Clouds 6 1025 75 10000 3.6 20 18:37 29.10.2019
5335 Clouds 7 1025 75 10000 3.6 20 18:18 29.10.2019
5336 Clouds 7 1024 70 10000 3.1 40 17:54 29.10.2019
5337 Clouds 8 1024 70 10000 3.1 40 17:36 29.10.2019
5338 Clouds 8 1024 70 10000 4.6 40 17:18 29.10.2019
5339 Clouds 9 1024 66 10000 4.6 30 16:39 29.10.2019
5340 Clouds 9 1024 66 10000 4.6 20 16:20 29.10.2019
5341 Clouds 9 1024 71 10000 4.6 40 15:56 29.10.2019
5342 Clouds 10 1024 71 10000 4.6 40 15:38 29.10.2019
5343 Clouds 10 1023 71 10000 5.7 30 15:20 29.10.2019
5344 Clouds 10 1023 71 10000 6.2 20 14:55 29.10.2019
5345 Clouds 10 1023 71 10000 6.2 20 14:37 29.10.2019
5346 Clouds 10 1023 71 10000 4.6 30 14:18 29.10.2019
5347 Clouds 9 1023 76 10000 4.6 30 13:40 29.10.2019
5348 Clouds 10 1023 76 10000 4.1 30 13:22 29.10.2019
5349 Clouds 9 1024 76 10000 4.1 30 12:46 29.10.2019
5350 Clouds 9 1023 76 10000 4.6 30 12:26 29.10.2019
5351 Clouds 9 1023 76 10000 4.6 30 12:26 29.10.2019
5352 Clouds 9 1023 76 10000 5.1 30 11:59 29.10.2019
5353 Clouds 9 1023 76 10000 5.1 30 11:41 29.10.2019
5354 Clouds 8 1023 81 10000 5.7 20 11:20 29.10.2019
5355 Clouds 8 1023 81 10000 5.7 20 10:57 29.10.2019
5356 Clouds 8 1023 87 10000 5.1 30 10:38 29.10.2019
5357 Clouds 7 1023 81 10000 5.7 30 10:20 29.10.2019
5358 Clouds 7 1023 81 10000 5.7 40 09:57 29.10.2019
5359 Clouds 7 1023 81 10000 5.7 40 09:39 29.10.2019
5360 Clouds 6 1022 87 10000 4.6 30 09:21 29.10.2019
5361 Clouds 6 1022 87 10000 4.6 30 08:45 29.10.2019
5362 Clouds 5 1022 93 10000 5.1 30 08:25 29.10.2019
5363 Clouds 5 1021 93 10000 5.1 30 07:55 29.10.2019
5364 Clouds 5 1021 93 10000 5.1 30 07:37 29.10.2019
5365 Clouds 5 1021 93 10000 4.6 20 07:18 29.10.2019
5366 Clouds 5 1021 93 10000 2.6 30 06:45 29.10.2019
5367 Clouds 5 1021 100 10000 3.1 60 06:25 29.10.2019
5368 Clouds 4 1021 93 10000 2.6 50 05:50 29.10.2019
5369 Clouds 5 1021 100 7000 2.1 10 05:26 29.10.2019
5370 Clouds 4 1021 100 7000 1.5 70 04:32 29.10.2019
5371 Rain 4 1021 93 7000 2.6 10 02:33 29.10.2019
5372 Clouds 4 1021 100 6000 2.1 10 01:47 29.10.2019
5373 Mist 5 1021 100 5000 2.6 20 01:21 29.10.2019
5374 Mist 5 1021 93 4000 2.1 30 00:48 29.10.2019
5375 Mist 5 1022 93 3200 2.6 10 23:44 28.10.2019
5376 Fog 5 1022 100 2200 1.5 60 23:21 28.10.2019
5377 Fog 5 1022 100 1600 2.1 80 22:59 28.10.2019
5378 Fog 5 1022 100 1600 2.1 80 22:39 28.10.2019
5379 Fog 5 1022 100 900 2.1 90 22:18 28.10.2019
5380 Fog 5 1022 100 900 2.1 90 21:56 28.10.2019
5381 Fog 5 1022 100 1800 2.6 80 21:38 28.10.2019
5382 Fog 5 1022 100 900 1.5 20 21:20 28.10.2019
5383 Fog 5 1022 100 400 2.1 20 20:57 28.10.2019
5384 Fog 5 1022 100 400 2.1 20 20:38 28.10.2019
5385 Fog 5 1022 100 300 2.1 20 20:20 28.10.2019
5386 Clouds 5 1022 100 7000 2.1 30 19:54 28.10.2019
5387 Clouds 5 1022 100 7000 2.1 30 19:36 28.10.2019
5388 Clouds 5 1022 100 10000 1.5 10 19:18 28.10.2019
5389 Clouds 5 1022 100 10000 1.5 10 19:18 28.10.2019
5390 Clouds 5 1022 93 10000 1.5 10 18:54 28.10.2019
5391 Clouds 5 1022 93 10000 1.5 10 18:36 28.10.2019
5392 Clouds 5 1022 100 10000 2.1 10 18:18 28.10.2019
5393 Clouds 6 1022 93 10000 2.6 20 17:54 28.10.2019
5394 Clouds 6 1022 93 10000 2.6 20 17:36 28.10.2019
5395 Clouds 7 1022 93 10000 3.1 10 17:18 28.10.2019
5396 Clouds 7 1022 87 10000 3.1 360 16:43 28.10.2019
5397 Clouds 8 1022 93 10000 2.6 350 16:24 28.10.2019
5398 Clouds 8 1022 93 10000 2.6 350 15:59 28.10.2019
5399 Clouds 8 1022 93 8000 3.1 10 15:40 28.10.2019
5400 Clouds 8 1022 93 8000 3.1 360 15:21 28.10.2019
5401 Clouds 8 1022 93 8000 3.1 360 14:58 28.10.2019
5402 Clouds 8 1023 93 7000 3.1 360 14:40 28.10.2019
5403 Clouds 8 1023 93 10000 1.5 110 14:19 28.10.2019
5404 Clouds 8 1023 93 7000 2.6 20 13:58 28.10.2019
5405 Clouds 8 1023 93 7000 3.6 10 13:40 28.10.2019
5406 Mist 8 1023 93 2400 2.6 90 13:18 28.10.2019
5407 Mist 8 1024 93 1800 3.1 90 12:43 28.10.2019
5408 Mist 8 1024 93 1800 1.5 100 12:22 28.10.2019
5409 Mist 8 1024 100 3500 2.1 0 11:58 28.10.2019
5410 Mist 7 1024 100 3500 2.1 0 11:37 28.10.2019
5411 Fog 6 1024 93 1200 1.5 90 11:19 28.10.2019
5412 Mist 6 1024 93 1800 2.1 100 10:41 28.10.2019
5413 Mist 6 1024 93 10000 1.5 130 10:22 28.10.2019
5414 Fog 6 1024 100 200 2.6 90 09:58 28.10.2019
5415 Fog 6 1024 100 200 2.6 90 09:39 28.10.2019
5416 Fog 5 1024 100 200 2.6 70 09:19 28.10.2019
5417 Fog 5 1024 100 200 2.6 70 08:57 28.10.2019
5418 Fog 4 1024 100 300 3.1 80 08:39 28.10.2019
5419 Fog 3 1024 100 400 3.1 80 08:19 28.10.2019
5420 Fog 3 1023 100 900 2.1 80 07:57 28.10.2019
5421 Fog 3 1023 100 900 2.1 80 07:38 28.10.2019
5422 Mist 3 1023 100 4000 1 0 07:19 28.10.2019
5423 Mist 3 1023 93 5000 1 0 06:40 28.10.2019
5424 Mist 3 1023 100 3500 1 0 05:53 28.10.2019
5425 Mist 3 1023 100 3500 1 220 04:25 28.10.2019
5426 Mist 4 1023 100 3500 1 230 03:40 28.10.2019
5427 Mist 4 1023 100 3500 1 0 02:45 28.10.2019
5428 Fog 5 1023 100 8000 2.1 330 01:27 28.10.2019
5429 Clouds 6 1023 100 8000 1 0 00:46 28.10.2019
5430 Clouds 6 1023 100 8000 2.1 320 00:22 28.10.2019
5431 Clouds 7 1023 100 8000 2.1 270 23:43 27.10.2019
5432 Clouds 7 1023 100 8000 2.1 260 23:20 27.10.2019
5433 Clouds 7 1023 100 10000 1.43 337 22:55 27.10.2019
5434 Clouds 7 1023 100 8000 1.5 200 22:36 27.10.2019
5435 Clouds 7 1023 100 8000 1.5 200 22:36 27.10.2019
5436 Clouds 7 1023 93 10000 2.1 220 22:18 27.10.2019
5437 Clouds 8 1023 93 10000 2.1 220 21:40 27.10.2019
5438 Clouds 7 1023 93 10000 1.43 337 21:22 27.10.2019
5439 Clouds 8 1023 100 10000 2.1 220 20:59 27.10.2019
5440 Clouds 8 1023 93 10000 1.5 260 20:40 27.10.2019
5441 Rain 8 1023 93 10000 1.5 220 20:22 27.10.2019
5442 Rain 8 1022 93 10000 2.1 190 19:57 27.10.2019
5443 Rain 8 1022 93 10000 2.1 190 19:37 27.10.2019
5444 Rain 8 1022 93 10000 2.1 190 19:37 27.10.2019
5445 Rain 8 1022 93 10000 1.5 250 19:19 27.10.2019
5446 Rain 8 1022 93 10000 1 0 18:56 27.10.2019
5447 Rain 8 1022 93 10000 1 0 18:38 27.10.2019
5448 Rain 8 1022 87 10000 1 0 18:20 27.10.2019
5449 Rain 8 1022 93 10000 1.5 20 17:55 27.10.2019
5450 Rain 8 1022 93 10000 1.5 20 17:36 27.10.2019
5451 Rain 8 1021 87 10000 3.6 30 17:18 27.10.2019
5452 Rain 8 1021 87 10000 3.6 30 16:55 27.10.2019
5453 Rain 9 1021 93 10000 2.6 30 16:37 27.10.2019
5454 Rain 8 1021 93 10000 2.6 30 16:19 27.10.2019
5455 Rain 8 1021 87 10000 3.1 330 15:55 27.10.2019
5456 Rain 9 1021 87 10000 3.1 330 15:37 27.10.2019
5457 Rain 9 1021 87 10000 3.1 320 15:18 27.10.2019
5458 Rain 10 1021 87 10000 3.1 320 14:41 27.10.2019
5459 Rain 11 1020 81 10000 3.6 320 14:20 27.10.2019
5460 Rain 11 1020 81 10000 4.1 310 13:56 27.10.2019
5461 Rain 11 1020 81 10000 4.1 310 13:37 27.10.2019
5462 Clouds 11 1021 71 10000 1.5 340 13:19 27.10.2019
5463 Rain 12 1021 71 10000 2.1 340 12:42 27.10.2019
5464 Clouds 12 1021 76 10000 2.6 310 12:23 27.10.2019
5465 Rain 13 1020 82 10000 4.1 310 11:55 27.10.2019
5466 Clouds 13 1020 82 10000 4.6 0 11:37 27.10.2019
5467 Clouds 13 1020 82 10000 4.6 300 11:18 27.10.2019
5468 Clouds 14 1019 87 10000 3.6 260 10:42 27.10.2019
5469 Clouds 13 1019 82 10000 2.92 240 10:23 27.10.2019
5470 Clouds 13 1018 82 10000 2.6 220 09:44 27.10.2019
5471 Clouds 13 1018 87 10000 3.1 210 09:20 27.10.2019
5472 Clouds 13 1018 87 10000 3.1 210 09:20 27.10.2019
5473 Clouds 12 1018 87 10000 3.1 210 08:59 27.10.2019
5474 Clouds 12 1018 93 10000 1.5 250 08:40 27.10.2019
5475 Clouds 12 1017 100 10000 1.5 260 08:20 27.10.2019
5476 Clouds 11 1017 100 10000 2.1 230 07:50 27.10.2019
5477 Clouds 11 1017 100 10000 2.1 230 07:29 27.10.2019
5478 Clouds 12 1016 100 10000 2.1 210 06:59 27.10.2019
5479 Clouds 12 1016 100 10000 2.1 210 06:40 27.10.2019
5480 Clouds 11 1017 100 10000 2.1 210 06:21 27.10.2019
5481 Clouds 11 1016 93 10000 2.1 230 05:38 27.10.2019
5482 Clouds 11 1016 100 10000 1 230 04:49 27.10.2019
5483 Clouds 11 1017 100 0 1 0 02:52 27.10.2019
5484 Clouds 12 1017 100 10000 1 0 02:19 27.10.2019
5485 Fog 12 1017 100 10000 1.5 220 01:24 27.10.2019
5486 Clouds 12 1017 100 10000 1.5 210 00:51 27.10.2019
5487 Clouds 12 1017 100 10000 1.5 210 00:29 27.10.2019
5488 Fog 12 1017 93 10000 1.5 210 23:57 26.10.2019
5489 Clouds 12 1017 100 10000 2.1 240 23:39 26.10.2019
5490 Clouds 12 1017 100 10000 1.5 220 23:21 26.10.2019
5491 Clouds 12 1017 100 10000 1 0 22:56 26.10.2019
5492 Clouds 13 1017 100 10000 1 0 22:38 26.10.2019
5493 Clouds 13 1017 93 10000 2.6 230 22:19 26.10.2019
5494 Clouds 13 1017 93 10000 3.1 190 21:44 26.10.2019
5495 Clouds 13 1017 93 10000 2.1 200 21:23 26.10.2019
5496 Clouds 13 1017 93 10000 2.1 200 20:59 26.10.2019
5497 Clear 13 1017 82 10000 3.52 208 20:40 26.10.2019
5498 Clouds 13 1017 93 10000 1.5 220 20:19 26.10.2019
5499 Clouds 14 1017 87 10000 3.6 170 19:42 26.10.2019
5500 Clouds 14 1016 87 10000 3.6 160 19:21 26.10.2019
5501 Clouds 14 1016 87 10000 3.6 160 18:58 26.10.2019
5502 Clouds 14 1017 87 10000 2.1 170 18:39 26.10.2019
5503 Clear 15 1017 77 10000 2.1 160 18:20 26.10.2019
5504 Clear 16 1017 72 10000 2.6 160 17:58 26.10.2019
5505 Clear 17 1017 72 10000 2.6 160 17:39 26.10.2019
5506 Clear 17 1017 72 10000 2.6 160 17:39 26.10.2019
5507 Clear 17 1017 68 10000 3.1 180 17:20 26.10.2019
5508 Clear 17 1017 68 10000 4.1 170 16:47 26.10.2019
5509 Clear 17 1017 68 10000 4.1 190 16:25 26.10.2019
5510 Clear 17 1017 68 10000 4.1 190 15:59 26.10.2019
5511 Clear 17 1017 68 10000 3.6 180 15:40 26.10.2019
5512 Clouds 17 1018 72 10000 2.6 230 15:18 26.10.2019
5513 Clouds 16 1018 72 10000 3.6 220 14:40 26.10.2019
5514 Clouds 16 1019 77 10000 3.6 210 14:20 26.10.2019
5515 Clouds 17 1018 57 0 3.16 204 13:59 26.10.2019
5516 Clouds 17 1018 57 0 3.16 204 13:39 26.10.2019
5517 Clouds 17 1018 57 0 3.16 204 13:20 26.10.2019
5518 Clouds 13 1013 91 0 3.16 204 12:46 26.10.2019
5519 Fog 12 1020 100 400 2.85 197 12:23 26.10.2019
5520 Fog 12 1020 100 400 2.85 197 11:48 26.10.2019
5521 Fog 12 1020 100 400 2.85 197 11:48 26.10.2019
5522 Fog 12 1020 100 400 2.85 197 11:27 26.10.2019
5523 Fog 12 1020 100 400 2.85 197 11:27 26.10.2019
5524 Mist 9 1020 100 2000 3.1 210 10:47 26.10.2019
5525 Mist 9 1020 100 2000 3.1 210 10:27 26.10.2019
5526 Fog 9 1020 93 650 2.6 190 09:59 26.10.2019
5527 Fog 9 1020 93 650 2.6 190 09:41 26.10.2019
5528 Fog 8 1021 93 600 2.45 192 09:23 26.10.2019
5529 Fog 8 1020 100 650 2.1 190 08:43 26.10.2019
5530 Fog 8 1020 100 650 2.1 190 08:25 26.10.2019
5531 Mist 8 1020 100 1200 2.1 250 07:46 26.10.2019
5532 Mist 7 1020 100 1800 1.5 260 07:28 26.10.2019
5533 Mist 8 1020 100 3800 1.5 200 06:43 26.10.2019
5534 Clouds 8 1020 93 10000 1.5 150 06:24 26.10.2019
5535 Mist 7 1020 93 2200 2.19 190 05:19 26.10.2019
5536 Clouds 8 1020 100 10000 0.5 0 04:24 26.10.2019
5537 Clouds 9 1021 100 10000 0.5 0 02:46 26.10.2019
5538 Clouds 10 1021 93 10000 0.5 0 01:54 26.10.2019
5539 Clouds 10 1021 93 10000 1 0 01:22 26.10.2019
5540 Clouds 10 1021 100 10000 1.5 250 00:24 26.10.2019
5541 Clouds 11 1022 100 10000 1.5 240 23:43 25.10.2019
5542 Clouds 11 1022 93 10000 2.6 220 23:20 25.10.2019
5543 Clouds 11 1022 87 10000 3.1 190 22:41 25.10.2019
5544 Clouds 11 1022 87 10000 3.1 190 22:23 25.10.2019
5545 Clouds 11 1022 87 10000 3.1 190 21:58 25.10.2019
5546 Clouds 11 1022 87 10000 2.1 170 21:40 25.10.2019
5547 Clouds 11 1022 81 10000 3.1 140 21:19 25.10.2019
5548 Clouds 12 1022 93 10000 2.6 180 20:56 25.10.2019
5549 Clouds 12 1022 93 10000 2.6 180 20:38 25.10.2019
5550 Clouds 12 1022 87 10000 2.1 170 20:18 25.10.2019
5551 Clouds 12 1022 82 10000 2.1 150 19:43 25.10.2019
5552 Clouds 13 1022 76 10000 2.6 160 19:25 25.10.2019
5553 Clouds 13 1022 76 10000 2.6 180 18:45 25.10.2019
5554 Clouds 14 1022 72 10000 2.6 190 18:23 25.10.2019
5555 Clouds 16 1022 67 10000 4.1 200 17:42 25.10.2019
5556 Clouds 15 1022 67 10000 4.1 200 17:42 25.10.2019
5557 Clouds 16 1022 63 10000 4.6 210 17:22 25.10.2019
5558 Clouds 16 1022 63 10000 5.1 210 16:58 25.10.2019
5559 Clouds 16 1022 63 10000 5.1 210 16:40 25.10.2019
5560 Clouds 16 1022 63 10000 6.2 220 16:19 25.10.2019
5561 Clouds 16 1022 63 10000 5.7 200 15:41 25.10.2019
5562 Clouds 17 1022 63 10000 7.2 220 15:23 25.10.2019
5563 Clouds 17 1022 63 10000 6.7 230 14:59 25.10.2019
5564 Clouds 17 1022 63 10000 6.7 230 14:40 25.10.2019
5565 Clouds 17 1022 63 10000 6.7 220 14:21 25.10.2019
5566 Clouds 16 1022 59 10000 6.2 210 13:44 25.10.2019
5567 Clouds 16 1022 59 10000 6.2 210 13:44 25.10.2019
5568 Clouds 16 1022 67 10000 6.2 210 13:25 25.10.2019
5569 Clouds 16 1022 67 10000 6.2 210 12:58 25.10.2019
5570 Clouds 15 1022 72 10000 4.6 210 12:39 25.10.2019
5571 Clouds 15 1022 77 10000 5.1 200 12:20 25.10.2019
5572 Clouds 15 1022 77 10000 5.1 200 11:42 25.10.2019
5573 Clouds 14 1022 82 10000 4.1 200 11:24 25.10.2019
5574 Clouds 13 1022 82 10000 4.1 200 10:59 25.10.2019
5575 Clouds 13 1022 82 10000 4.1 210 10:39 25.10.2019
5576 Clouds 13 1021 82 10000 5.1 200 10:21 25.10.2019
5577 Clouds 13 1021 82 10000 5.1 200 09:57 25.10.2019
5578 Clouds 12 1021 82 10000 5.1 210 09:38 25.10.2019
5579 Clouds 12 1020 82 10000 4.1 200 09:19 25.10.2019
5580 Clouds 11 1020 87 10000 4.1 200 08:45 25.10.2019
5581 Clouds 11 1019 87 10000 3.1 190 08:27 25.10.2019
5582 Clouds 11 1019 87 10000 3.6 180 07:53 25.10.2019
5583 Clouds 11 1019 87 10000 3.6 180 07:34 25.10.2019
5584 Clouds 11 1019 93 10000 1 0 06:42 25.10.2019
5585 Clouds 11 1018 93 10000 3.1 200 05:51 25.10.2019
5586 Clouds 11 1018 93 10000 3.1 200 05:33 25.10.2019
5587 Clouds 11 1017 100 10000 2.1 190 04:52 25.10.2019
5588 Clouds 12 1017 100 10000 2.1 200 03:36 25.10.2019
5589 Clouds 13 1016 93 10000 2.1 190 01:54 25.10.2019
5590 Fog 13 1015 93 10000 1.5 190 00:57 25.10.2019
5591 Clouds 13 1015 100 10000 2.1 200 00:20 25.10.2019
5592 Clouds 13 1015 93 10000 2.1 190 23:40 24.10.2019
5593 Clouds 14 1014 93 10000 3.1 190 23:22 24.10.2019
5594 Clouds 14 1014 93 10000 3.1 190 22:56 24.10.2019
5595 Clouds 14 1014 93 10000 2.6 180 22:37 24.10.2019
5596 Clouds 14 1014 93 10000 2.6 200 22:18 24.10.2019
5597 Clouds 14 1014 93 10000 2.6 200 21:56 24.10.2019
5598 Clouds 14 1013 87 10000 2.1 200 21:37 24.10.2019
5599 Clouds 14 1013 87 10000 2.1 200 21:37 24.10.2019
5600 Clouds 14 1013 87 10000 3.1 190 21:19 24.10.2019
5601 Clouds 15 1013 82 10000 3.1 190 20:56 24.10.2019
5602 Clouds 15 1013 82 10000 3.1 190 20:38 24.10.2019
5603 Clouds 15 1012 82 10000 3.1 190 20:19 24.10.2019
5604 Clouds 15 1012 93 10000 2.6 190 19:44 24.10.2019
5605 Clouds 15 1012 82 10000 2.6 180 19:24 24.10.2019
5606 Clouds 15 1012 82 10000 2.1 160 18:59 24.10.2019
5607 Clouds 15 1012 82 10000 2.1 160 18:40 24.10.2019
5608 Clouds 15 1012 82 10000 2.1 160 18:40 24.10.2019
5609 Clouds 16 1011 82 10000 2.1 160 18:21 24.10.2019
5610 Clouds 16 1011 82 10000 2.1 160 17:59 24.10.2019
5611 Clouds 17 1011 82 10000 1.5 160 17:39 24.10.2019
5612 Clouds 17 1011 77 10000 1.5 170 17:19 24.10.2019
5613 Clouds 17 1011 72 10000 2.1 180 16:55 24.10.2019
5614 Clouds 18 1011 72 10000 2.1 180 16:37 24.10.2019
5615 Clouds 18 1011 77 10000 1.5 180 16:18 24.10.2019
5616 Haze 18 1011 72 3200 2.6 100 15:55 24.10.2019
5617 Clouds 18 1011 77 10000 1.5 180 15:37 24.10.2019
5618 Clouds 18 1011 72 10000 1 0 15:18 24.10.2019
5619 Haze 17 1011 72 2400 1.96 218 14:44 24.10.2019
5620 Haze 17 1011 72 2400 1.96 218 14:44 24.10.2019
5621 Clouds 17 1011 77 10000 2.6 230 14:26 24.10.2019
5622 Clouds 17 1011 77 10000 2.6 230 14:26 24.10.2019
5623 Clouds 17 1011 77 10000 3.1 240 13:59 24.10.2019
5624 Haze 16 1012 77 1800 1.96 218 13:38 24.10.2019
5625 Haze 16 1012 77 1600 1.96 218 13:19 24.10.2019
5626 Haze 15 1012 77 2400 1.96 218 12:56 24.10.2019
5627 Clouds 15 1011 82 10000 2.6 190 12:38 24.10.2019
5628 Clouds 14 1011 93 8000 1.5 0 12:19 24.10.2019
5629 Clouds 14 1011 93 8000 3.1 220 11:56 24.10.2019
5630 Clouds 13 1011 93 8000 3.1 220 11:36 24.10.2019
5631 Clouds 13 1011 93 8000 3.1 220 11:36 24.10.2019
5632 Clouds 13 1011 93 8000 3.6 210 11:18 24.10.2019
5633 Clouds 13 1010 93 6000 2.1 170 10:42 24.10.2019
5634 Mist 12 1010 100 5000 0.5 0 10:23 24.10.2019
5635 Mist 12 1010 100 5000 0.5 0 09:58 24.10.2019
5636 Mist 12 1010 100 4500 1.5 150 09:37 24.10.2019
5637 Mist 12 1010 93 4200 3.6 180 09:18 24.10.2019
5638 Mist 12 1010 93 4200 3.6 180 09:18 24.10.2019
5639 Mist 11 1010 100 1800 1.32 178 08:42 24.10.2019
5640 Mist 11 1011 100 3200 1.32 178 08:20 24.10.2019
5641 Mist 11 1011 100 5000 1.5 160 07:48 24.10.2019
5642 Mist 11 1010 100 3000 3.6 200 07:24 24.10.2019
5643 Mist 10 1011 100 6000 2.6 160 06:59 24.10.2019
5644 Mist 10 1010 100 2000 2.6 180 06:37 24.10.2019
5645 Mist 10 1010 100 3500 1.5 200 05:56 24.10.2019
5646 Mist 10 1010 100 3500 1.5 200 05:36 24.10.2019
5647 Fog 10 1009 93 9000 1.5 90 04:44 24.10.2019
5648 Clouds 11 1010 100 9000 1.5 20 03:36 24.10.2019
5649 Clouds 11 1010 93 10000 2.6 20 02:50 24.10.2019
5650 Clouds 11 1010 100 10000 1 0 02:21 24.10.2019
5651 Clouds 11 1010 93 10000 2.6 80 01:32 24.10.2019
5652 Clouds 11 1010 87 10000 3.6 20 00:57 24.10.2019
5653 Clouds 12 1010 87 10000 3.6 20 00:37 24.10.2019
5654 Clouds 12 1011 93 10000 3.1 30 00:18 24.10.2019
5655 Clouds 12 1011 93 10000 4.1 20 23:42 23.10.2019
5656 Clouds 12 1011 93 10000 3.6 20 23:21 23.10.2019
5657 Clouds 12 1011 93 10000 3.6 20 22:57 23.10.2019
5658 Clouds 12 1011 87 10000 3.6 50 22:38 23.10.2019
5659 Clouds 12 1011 87 10000 3.6 40 22:18 23.10.2019
5660 Clouds 12 1011 87 10000 3.6 40 21:57 23.10.2019
5661 Clouds 13 1011 87 10000 4.6 60 21:38 23.10.2019
5662 Clouds 13 1012 87 10000 5.7 50 21:19 23.10.2019
5663 Clouds 13 1012 87 10000 5.7 50 20:56 23.10.2019
5664 Clouds 13 1012 87 10000 5.1 50 20:38 23.10.2019
5665 Clouds 13 1013 87 10000 4.1 50 20:20 23.10.2019
5666 Clouds 13 1013 87 10000 4.1 50 19:55 23.10.2019
5667 Clouds 14 1013 82 10000 3.6 60 19:36 23.10.2019
5668 Clouds 14 1013 82 10000 3.1 70 19:18 23.10.2019
5669 Clouds 14 1013 82 10000 3.1 70 18:54 23.10.2019
5670 Clouds 14 1013 82 10000 3.1 70 18:36 23.10.2019
5671 Clouds 14 1013 82 10000 3.6 80 18:18 23.10.2019
5672 Clouds 15 1013 82 10000 4.1 80 17:41 23.10.2019
5673 Clouds 15 1013 82 10000 5.1 60 17:20 23.10.2019
5674 Clouds 15 1014 82 10000 4.1 60 16:56 23.10.2019
5675 Clouds 15 1014 82 10000 4.1 60 16:37 23.10.2019
5676 Rain 15 1014 82 10000 3.1 80 16:19 23.10.2019
5677 Clouds 15 1015 82 10000 2.6 90 15:41 23.10.2019
5678 Rain 15 1015 82 10000 3.6 60 15:22 23.10.2019
5679 Clouds 15 1015 82 10000 4.1 80 14:58 23.10.2019
5680 Clouds 15 1015 82 10000 5.1 70 14:38 23.10.2019
5681 Clouds 15 1016 87 10000 3.6 70 14:19 23.10.2019
5682 Clouds 14 1016 82 10000 2.6 50 13:57 23.10.2019
5683 Clouds 14 1016 82 10000 2.6 50 13:39 23.10.2019
5684 Clouds 14 1016 82 10000 4.1 50 13:21 23.10.2019
5685 Clouds 14 1017 87 10000 4.1 30 12:55 23.10.2019
5686 Clouds 14 1017 87 10000 4.1 30 12:36 23.10.2019
5687 Clouds 13 1017 82 10000 4.1 20 12:18 23.10.2019
5688 Clouds 13 1017 82 10000 3.6 10 11:55 23.10.2019
5689 Clouds 12 1017 82 10000 3.6 10 11:37 23.10.2019
5690 Clouds 12 1017 82 10000 2.6 50 11:19 23.10.2019
5691 Clouds 12 1017 87 10000 4.6 50 10:42 23.10.2019
5692 Clouds 11 1018 87 10000 5.7 20 10:24 23.10.2019
5693 Clouds 11 1018 81 10000 4.6 20 09:42 23.10.2019
5694 Clouds 11 1018 81 10000 4.6 20 09:24 23.10.2019
5695 Clouds 10 1018 87 10000 3.1 30 08:59 23.10.2019
5696 Clouds 10 1018 87 10000 3.1 30 08:41 23.10.2019
5697 Clouds 10 1018 87 10000 2.6 100 08:23 23.10.2019
5698 Clouds 9 1018 93 10000 3.1 70 07:46 23.10.2019
5699 Clouds 9 1018 93 10000 4.1 40 07:22 23.10.2019
5700 Clouds 9 1018 87 10000 4.1 30 06:47 23.10.2019
5701 Clear 9 1018 87 10000 4.1 30 06:22 23.10.2019
5702 Clear 9 1019 87 10000 3.1 60 05:45 23.10.2019
5703 Clear 9 1019 87 10000 3.1 70 04:54 23.10.2019
5704 Clear 9 1020 87 10000 2.1 60 03:35 23.10.2019
5705 Clear 9 1021 81 10000 4.1 30 02:40 23.10.2019
5706 Clear 10 1021 81 10000 4.1 40 01:33 23.10.2019
5707 Clear 10 1022 81 10000 3.1 30 00:56 23.10.2019
5708 Clear 10 1022 81 10000 3.1 30 00:28 23.10.2019
5709 Clear 11 1022 81 10000 1.5 70 23:40 22.10.2019
5710 Clear 11 1022 76 10000 2.6 70 23:18 22.10.2019
5711 Clear 11 1022 76 10000 2.6 70 22:57 22.10.2019
5712 Clear 11 1022 82 10000 3.1 30 22:39 22.10.2019
5713 Clear 11 1022 82 10000 3.1 20 22:20 22.10.2019
5714 Clear 11 1022 82 10000 3.1 20 21:56 22.10.2019
5715 Clear 11 1022 87 10000 2.6 30 21:37 22.10.2019
5716 Clouds 12 1023 87 10000 2.6 30 21:18 22.10.2019
5717 Clouds 12 1023 87 10000 2.6 30 20:56 22.10.2019
5718 Clouds 12 1023 82 10000 2.6 360 20:56 22.10.2019
5719 Clouds 12 1023 82 10000 2.6 360 20:38 22.10.2019
5720 Clouds 12 1023 82 10000 3.1 360 20:20 22.10.2019
5721 Clouds 12 1023 87 10000 2.6 20 19:55 22.10.2019
5722 Clouds 12 1023 87 10000 2.6 20 19:37 22.10.2019
5723 Clouds 13 1023 76 10000 2.6 80 19:19 22.10.2019
5724 Clouds 14 1023 72 10000 3.6 80 18:41 22.10.2019
5725 Clouds 15 1023 77 10000 1.5 80 18:22 22.10.2019
5726 Clouds 16 1023 77 10000 1.5 80 17:59 22.10.2019
5727 Clouds 16 1023 59 10000 1.5 100 17:39 22.10.2019
5728 Clouds 16 1023 55 10000 1.5 150 17:20 22.10.2019
5729 Clouds 16 1023 55 10000 1.5 150 17:20 22.10.2019
5730 Clouds 16 1023 55 10000 1.5 150 17:20 22.10.2019
5731 Clouds 16 1023 59 10000 2.1 150 16:57 22.10.2019
5732 Clouds 16 1023 59 10000 2.1 150 16:39 22.10.2019
5733 Clouds 17 1023 59 10000 1 0 16:19 22.10.2019
5734 Clouds 17 1023 59 10000 1 0 15:58 22.10.2019
5735 Clouds 17 1023 55 10000 1 0 15:40 22.10.2019
5736 Clouds 17 1024 59 10000 2.1 160 15:18 22.10.2019
5737 Clouds 17 1024 59 10000 1.5 310 14:44 22.10.2019
5738 Clouds 16 1024 59 10000 1 0 14:21 22.10.2019
5739 Clouds 16 1025 59 10000 1 0 13:43 22.10.2019
5740 Clouds 16 1025 63 10000 2.1 100 13:23 22.10.2019
5741 Clouds 15 1025 63 10000 2.1 100 12:59 22.10.2019
5742 Clouds 15 1025 59 10000 1 0 12:41 22.10.2019
5743 Clouds 14 1025 62 10000 0.5 0 12:21 22.10.2019
5744 Clouds 14 1025 62 10000 0.5 0 11:57 22.10.2019
5745 Clouds 14 1025 71 10000 1.5 180 11:39 22.10.2019
5746 Clouds 14 1025 71 10000 1.5 180 11:39 22.10.2019
5747 Clouds 14 1025 71 10000 1.5 340 11:20 22.10.2019
5748 Clouds 13 1025 76 10000 1 0 10:58 22.10.2019
5749 Clouds 13 1025 76 10000 1 0 10:37 22.10.2019
5750 Clouds 13 1025 76 10000 1 0 10:37 22.10.2019
5751 Clouds 12 1025 87 10000 1 0 10:19 22.10.2019
5752 Clouds 12 1025 87 10000 1 0 09:55 22.10.2019
5753 Clouds 12 1024 87 10000 0.5 0 09:37 22.10.2019
5754 Clouds 11 1024 100 10000 1.5 260 09:19 22.10.2019
5755 Clouds 11 1023 100 10000 1 210 08:42 22.10.2019
5756 Clouds 10 1024 93 10000 2.1 280 08:22 22.10.2019
5757 Clouds 10 1023 100 10000 1.5 230 07:49 22.10.2019
5758 Clouds 10 1023 93 10000 1.5 130 07:29 22.10.2019
5759 Clouds 10 1023 100 10000 1 230 06:52 22.10.2019
5760 Clouds 10 1023 100 10000 1 230 06:31 22.10.2019
5761 Clouds 11 1023 93 10000 1 0 05:59 22.10.2019
5762 Clouds 11 1023 93 10000 1 0 05:24 22.10.2019
5763 Clouds 11 1023 100 10000 1 210 03:19 22.10.2019
5764 Clouds 12 1023 93 10000 1 190 02:28 22.10.2019
5765 Clouds 12 1023 93 10000 1.5 190 01:31 22.10.2019
5766 Clouds 12 1023 93 10000 2.1 210 00:59 22.10.2019
5767 Clouds 13 1023 82 10000 1 0 00:40 22.10.2019
5768 Rain 13 1023 82 10000 1.5 240 00:21 22.10.2019
5769 Rain 13 1023 82 10000 2.1 230 23:57 21.10.2019
5770 Rain 13 1023 82 10000 2.1 230 23:37 21.10.2019
5771 Clouds 13 1022 82 10000 4.1 250 23:19 21.10.2019
5772 Clouds 13 1022 82 10000 4.1 250 22:57 21.10.2019
5773 Clouds 14 1022 82 10000 3.1 250 22:38 21.10.2019
5774 Clouds 14 1022 87 10000 3.1 240 22:19 21.10.2019
5775 Clouds 14 1022 87 10000 3.1 240 21:56 21.10.2019
5776 Clouds 14 1022 87 10000 2.6 220 21:37 21.10.2019
5777 Clouds 14 1022 87 10000 2.6 220 21:19 21.10.2019
5778 Clouds 14 1022 87 10000 2.6 220 20:56 21.10.2019
5779 Clouds 14 1021 87 10000 2.1 180 20:37 21.10.2019
5780 Clouds 14 1021 87 10000 2.6 180 20:19 21.10.2019
5781 Clouds 14 1021 87 10000 1 160 19:54 21.10.2019
5782 Clouds 14 1021 87 10000 1 160 19:36 21.10.2019
5783 Clouds 14 1021 77 10000 2.37 225 19:18 21.10.2019
5784 Clouds 15 1020 82 10000 2.6 200 18:54 21.10.2019
5785 Clouds 15 1020 82 10000 2.6 200 18:36 21.10.2019
5786 Clouds 15 1020 82 10000 3.6 190 18:18 21.10.2019
5787 Clouds 16 1020 77 10000 4.1 190 17:38 21.10.2019
5788 Clouds 16 1020 77 10000 3.1 210 17:19 21.10.2019
5789 Clouds 16 1019 77 10000 3.1 200 16:58 21.10.2019
5790 Clouds 16 1019 77 10000 3.1 200 16:40 21.10.2019
5791 Clouds 16 1019 77 10000 4.6 200 16:21 21.10.2019
5792 Clouds 16 1019 77 10000 4.6 200 15:57 21.10.2019
5793 Clouds 16 1019 77 10000 3.6 190 15:38 21.10.2019
5794 Rain 16 1019 77 10000 4.1 200 15:18 21.10.2019
5795 Clouds 17 1019 72 10000 3.6 210 14:40 21.10.2019
5796 Rain 17 1019 77 10000 3.6 220 14:21 21.10.2019
5797 Clouds 17 1019 68 10000 5.7 230 13:59 21.10.2019
5798 Clouds 17 1019 68 10000 5.7 230 13:40 21.10.2019
5799 Clouds 17 1019 72 10000 7.7 240 13:20 21.10.2019
5800 Clouds 17 1019 72 10000 7.7 240 12:58 21.10.2019
5801 Clouds 17 1018 72 10000 4.1 270 12:40 21.10.2019
5802 Clouds 17 1018 82 10000 2.1 220 12:20 21.10.2019
5803 Clouds 16 1018 82 10000 2.1 220 12:20 21.10.2019
5804 Clouds 16 1018 88 10000 2.6 210 11:42 21.10.2019
5805 Rain 16 1017 87 10000 3.1 190 11:23 21.10.2019
5806 Rain 15 1017 87 10000 3.1 190 10:59 21.10.2019
5807 Clouds 15 1017 93 10000 3.1 210 10:40 21.10.2019
5808 Clouds 14 1016 93 10000 2.6 240 10:20 21.10.2019
5809 Rain 14 1016 93 10000 2.6 260 09:58 21.10.2019
5810 Rain 14 1016 93 10000 2.6 260 09:39 21.10.2019
5811 Rain 14 1016 93 10000 1.89 152.268 09:21 21.10.2019
5812 Rain 13 1015 87 10000 2.6 190 08:41 21.10.2019
5813 Rain 13 1015 93 10000 3.1 190 08:23 21.10.2019
5814 Rain 13 1015 93 10000 3.1 190 08:23 21.10.2019
5815 Clouds 13 1015 93 10000 3.1 190 07:55 21.10.2019
5816 Clouds 13 1014 93 10000 3.6 180 07:36 21.10.2019
5817 Clouds 13 1014 93 10000 2.6 190 07:18 21.10.2019
5818 Clouds 13 1013 93 10000 1 0 06:42 21.10.2019
5819 Rain 13 1013 93 10000 1 0 06:24 21.10.2019
5820 Rain 13 1013 100 10000 1.5 320 05:33 21.10.2019
5821 Clear 13 1012 100 10000 1.5 310 03:41 21.10.2019
5822 Rain 14 1010 93 10000 2.1 0 02:40 21.10.2019
5823 Rain 14 1010 93 10000 4.1 90 02:20 21.10.2019
5824 Rain 14 1011 93 10000 5.1 110 01:45 21.10.2019
5825 Rain 14 1012 93 10000 1.5 240 01:20 21.10.2019
5826 Rain 14 1013 93 10000 3.6 240 00:40 21.10.2019
5827 Rain 14 1013 87 10000 4.6 260 00:22 21.10.2019
5828 Clear 14 1010 93 10000 2.6 350 23:40 20.10.2019
5829 Clear 14 1009 93 10000 2.6 10 23:21 20.10.2019
5830 Clear 14 1009 93 10000 2.6 10 22:54 20.10.2019
5831 Clear 14 1008 93 10000 3.1 60 22:36 20.10.2019
5832 Clear 14 1008 93 10000 3.1 50 22:18 20.10.2019
5833 Clear 14 1009 87 10000 3.6 60 21:40 20.10.2019
5834 Clear 14 1009 87 10000 3.6 60 21:40 20.10.2019
5835 Clear 14 1009 87 10000 3.6 60 21:22 20.10.2019
5836 Clear 14 1009 87 10000 3.6 60 20:57 20.10.2019
5837 Clear 14 1009 87 10000 3.1 10 20:39 20.10.2019
5838 Clear 15 1009 87 10000 2.1 10 20:18 20.10.2019
5839 Clear 15 1009 87 10000 2.1 10 20:18 20.10.2019
5840 Clear 15 1009 87 10000 2.1 10 19:55 20.10.2019
5841 Clear 15 1009 93 10000 3.6 30 19:37 20.10.2019
5842 Clouds 15 1009 87 10000 2.6 360 19:19 20.10.2019
5843 Clear 15 1008 87 10000 3.1 50 18:41 20.10.2019
5844 Rain 16 1008 82 10000 4.1 60 18:22 20.10.2019
5845 Rain 16 1008 82 10000 4.1 60 17:58 20.10.2019
5846 Clear 16 1007 82 10000 4.1 60 17:39 20.10.2019
5847 Rain 17 1007 82 10000 2.6 40 17:21 20.10.2019
5848 Rain 17 1007 82 10000 2.6 40 16:56 20.10.2019
5849 Clouds 17 1008 82 10000 2.6 330 16:37 20.10.2019
5850 Drizzle 17 1008 82 10000 2.1 330 16:18 20.10.2019
5851 Clouds 17 1007 82 10000 1.5 20 15:54 20.10.2019
5852 Clouds 17 1007 82 10000 1.5 20 15:36 20.10.2019
5853 Clear 17 1008 82 10000 1.5 0 15:18 20.10.2019
5854 Clouds 17 1008 82 10000 1 0 14:39 20.10.2019
5855 Clouds 17 1008 77 10000 2.1 60 14:21 20.10.2019
5856 Clouds 16 1007 87 10000 2.6 40 13:56 20.10.2019
5857 Clouds 16 1007 87 10000 2.6 40 13:37 20.10.2019
5858 Rain 16 1008 87 10000 2.1 60 13:19 20.10.2019
5859 Rain 15 1008 82 10000 2.6 60 12:58 20.10.2019
5860 Rain 15 1008 82 10000 2.6 60 12:39 20.10.2019
5861 Rain 15 1008 93 10000 3.1 30 12:21 20.10.2019
5862 Clouds 15 1008 93 10000 3.1 30 11:59 20.10.2019
5863 Rain 15 1008 93 10000 1.5 90 11:40 20.10.2019
5864 Rain 14 1008 100 10000 2.1 100 11:22 20.10.2019
5865 Rain 14 1008 87 10000 2.6 20 10:58 20.10.2019
5866 Rain 14 1008 100 10000 1.5 90 10:39 20.10.2019
5867 Rain 14 1009 93 10000 1 0 10:20 20.10.2019
5868 Rain 13 1009 93 10000 1 0 09:55 20.10.2019
5869 Rain 13 1008 93 10000 1 0 09:37 20.10.2019
5870 Rain 13 1008 100 10000 0.5 0 09:18 20.10.2019
5871 Rain 13 1008 100 10000 1.5 80 08:40 20.10.2019
5872 Rain 13 1008 100 8000 2.1 110 08:21 20.10.2019
5873 Rain 13 1009 100 10000 1.5 140 07:47 20.10.2019
5874 Rain 13 1009 100 10000 1.5 140 07:26 20.10.2019
5875 Rain 13 1008 100 10000 0.5 0 06:30 20.10.2019
5876 Clouds 13 1007 100 10000 1.62 155.609 04:30 20.10.2019
5877 Rain 13 1008 100 10000 1.62 155.609 03:51 20.10.2019
5878 Clouds 13 1008 100 10000 2.1 160 03:22 20.10.2019
5879 Rain 13 1008 93 10000 1.5 180 02:49 20.10.2019
5880 Rain 13 1008 93 10000 1.5 180 02:22 20.10.2019
5881 Rain 13 1008 100 10000 3.6 160 01:50 20.10.2019
5882 Rain 13 1008 100 10000 3.6 170 01:22 20.10.2019
5883 Rain 13 1008 100 10000 4.1 180 00:49 20.10.2019
5884 Rain 13 1009 87 10000 4.1 180 00:21 20.10.2019
5885 Rain 13 1009 87 10000 4.1 180 00:21 20.10.2019
5886 Clouds 13 1008 87 10000 4.6 170 23:55 19.10.2019
5887 Clouds 13 1008 87 10000 4.6 170 23:36 19.10.2019
5888 Rain 14 1008 87 10000 4.1 180 23:18 19.10.2019
5889 Rain 14 1008 82 10000 5.1 180 22:41 19.10.2019
5890 Clouds 14 1008 82 10000 4.6 180 22:22 19.10.2019
5891 Clouds 14 1008 82 10000 4.6 180 21:57 19.10.2019
5892 Rain 14 1008 82 10000 4.6 180 21:39 19.10.2019
5893 Clouds 14 1008 82 10000 5.7 180 21:20 19.10.2019
5894 Clouds 14 1007 82 10000 4.6 180 20:42 19.10.2019
5895 Clouds 14 1007 82 10000 3.6 170 20:21 19.10.2019
5896 Clouds 14 1007 87 10000 2.6 150 19:45 19.10.2019
5897 Clouds 14 1007 82 10000 2.1 170 19:27 19.10.2019
5898 Clouds 14 1007 82 10000 2.6 180 18:59 19.10.2019
5899 Clouds 14 1007 82 10000 2.6 180 18:41 19.10.2019
5900 Clouds 15 1007 82 10000 2.6 160 18:22 19.10.2019
5901 Clouds 15 1007 82 10000 3.6 170 17:42 19.10.2019
5902 Clouds 15 1007 82 10000 4.1 170 17:23 19.10.2019
5903 Clouds 15 1007 82 10000 4.1 170 16:59 19.10.2019
5904 Clouds 15 1007 77 10000 4.1 170 16:38 19.10.2019
5905 Clouds 15 1007 82 10000 4.6 170 16:19 19.10.2019
5906 Rain 15 1007 82 10000 5.1 170 15:44 19.10.2019
5907 Rain 15 1007 82 10000 5.1 170 15:26 19.10.2019
5908 Clouds 15 1008 77 10000 4.6 180 14:40 19.10.2019
5909 Clouds 15 1008 77 10000 4.6 180 14:40 19.10.2019
5910 Clouds 15 1008 77 10000 5.1 180 14:21 19.10.2019
5911 Clouds 15 1008 77 10000 5.1 180 13:59 19.10.2019
5912 Clouds 15 1008 82 10000 4.1 170 13:41 19.10.2019
5913 Clouds 15 1008 82 10000 4.1 180 13:23 19.10.2019
5914 Clouds 14 1009 82 10000 4.6 180 12:59 19.10.2019
5915 Clouds 14 1009 82 10000 4.6 180 12:39 19.10.2019
5916 Rain 14 1009 82 10000 4.1 200 12:21 19.10.2019
5917 Rain 13 1009 82 10000 4.1 200 11:56 19.10.2019
5918 Clouds 13 1009 82 10000 3.6 170 11:36 19.10.2019
5919 Clouds 13 1009 87 10000 2.1 170 11:18 19.10.2019
5920 Clouds 13 1009 87 10000 3.1 190 10:40 19.10.2019
5921 Clouds 12 1009 93 10000 2.1 150 10:22 19.10.2019
5922 Clouds 12 1009 93 10000 1.5 80 09:57 19.10.2019
5923 Rain 12 1009 87 10000 4.56 172.387 09:39 19.10.2019
5924 Rain 11 1009 87 10000 1.92 163.172 09:20 19.10.2019
5925 Clouds 11 1009 93 10000 0.5 250 08:41 19.10.2019
5926 Clouds 11 1009 93 10000 0.5 250 08:22 19.10.2019
5927 Clouds 11 1009 93 10000 1 0 07:46 19.10.2019
5928 Clouds 11 1009 93 10000 1 0 07:26 19.10.2019
5929 Clouds 11 1009 93 10000 1 0 06:52 19.10.2019
5930 Clouds 11 1009 87 10000 1.5 80 06:32 19.10.2019
5931 Clouds 10 1010 100 10000 1 0 05:36 19.10.2019
5932 Clouds 10 1010 93 10000 1 0 04:26 19.10.2019
5933 Clouds 10 1010 93 10000 1 0 04:26 19.10.2019
5934 Clouds 10 1010 93 10000 1 0 04:26 19.10.2019
5935 Clouds 9 1011 100 10000 1 90 03:18 19.10.2019
5936 Clear 9 1011 100 10000 1 0 02:21 19.10.2019
5937 Clear 10 1011 100 10000 0.5 0 01:49 19.10.2019
5938 Clear 10 1011 93 10000 1 260 00:52 19.10.2019
5939 Clear 10 1011 93 10000 1 260 00:29 19.10.2019
5940 Clear 10 1011 93 10000 1 260 23:59 18.10.2019
5941 Clear 10 1012 87 10000 0.5 0 23:38 18.10.2019
5942 Clear 10 1011 87 10000 1 0 23:20 18.10.2019
5943 Clear 10 1011 87 10000 1 0 22:55 18.10.2019
5944 Clear 10 1011 87 10000 3.1 170 22:36 18.10.2019
5945 Clear 10 1012 76 10000 5.1 180 22:18 18.10.2019
5946 Clear 10 1012 76 10000 5.1 180 21:55 18.10.2019
5947 Clear 10 1012 76 10000 4.1 180 21:36 18.10.2019
5948 Clouds 10 1011 76 10000 4.6 170 21:18 18.10.2019
5949 Clouds 11 1011 76 10000 2.6 160 20:43 18.10.2019
5950 Clear 11 1011 71 10000 3.1 230 20:24 18.10.2019
5951 Clear 11 1011 71 10000 3.1 230 19:58 18.10.2019
5952 Clouds 11 1011 66 10000 4.6 230 19:40 18.10.2019
5953 Clouds 12 1011 66 10000 4.1 230 19:22 18.10.2019
5954 Clouds 12 1011 62 10000 6.2 220 18:59 18.10.2019
5955 Clouds 13 1011 62 10000 6.2 220 18:41 18.10.2019
5956 Clouds 14 1010 54 10000 7.7 220 18:23 18.10.2019
5957 Clouds 14 1010 48 10000 9.3 230 17:56 18.10.2019
5958 Clouds 14 1010 48 10000 9.3 230 17:37 18.10.2019
5959 Clouds 15 1010 55 10000 7.2 230 17:19 18.10.2019
5960 Clouds 15 1009 58 10000 9.3 230 16:43 18.10.2019
5961 Rain 15 1009 72 10000 5.1 210 16:21 18.10.2019
5962 Rain 15 1009 82 9000 7.2 230 15:58 18.10.2019
5963 Rain 15 1009 82 9000 7.2 230 15:39 18.10.2019
5964 Rain 15 1009 76 10000 6.2 250 15:20 18.10.2019
5965 Clouds 16 1009 77 10000 6.2 180 14:57 18.10.2019
5966 Clouds 16 1009 77 10000 6.2 180 14:38 18.10.2019
5967 Clouds 15 1009 82 10000 5.7 190 14:19 18.10.2019
5968 Clouds 15 1009 82 10000 5.7 190 13:57 18.10.2019
5969 Rain 15 1009 93 10000 4.6 180 13:39 18.10.2019
5970 Rain 15 1010 87 10000 5.7 190 13:20 18.10.2019
5971 Rain 15 1010 87 10000 5.7 190 12:55 18.10.2019
5972 Rain 16 1010 82 10000 4.1 200 12:37 18.10.2019
5973 Clouds 15 1010 93 10000 3.1 190 12:19 18.10.2019
5974 Clouds 15 1010 87 10000 5.1 180 11:42 18.10.2019
5975 Clouds 15 1010 93 10000 4.1 180 11:21 18.10.2019
5976 Clouds 15 1010 93 10000 4.1 180 11:21 18.10.2019
5977 Clouds 14 1010 87 10000 4.6 190 10:59 18.10.2019
5978 Clouds 14 1010 87 10000 4.6 190 10:59 18.10.2019
5979 Clouds 14 1010 87 10000 4.6 190 10:59 18.10.2019
5980 Clouds 14 1010 87 10000 4.6 190 10:41 18.10.2019
5981 Clouds 14 1010 93 10000 2.1 180 10:22 18.10.2019
5982 Clouds 14 1010 93 10000 2.6 170 09:58 18.10.2019
5983 Clouds 14 1010 93 10000 2.6 170 09:39 18.10.2019
5984 Rain 14 1010 93 10000 3.6 160 09:20 18.10.2019
5985 Rain 13 1011 93 10000 4.6 170 08:45 18.10.2019
5986 Rain 13 1011 93 10000 4.6 170 08:26 18.10.2019
5987 Rain 13 1011 93 9000 4.1 160 07:59 18.10.2019
5988 Clouds 13 1011 100 9000 4.6 170 07:41 18.10.2019
5989 Clouds 13 1011 100 10000 2.54 174.384 07:18 18.10.2019
5990 Clouds 13 1012 100 10000 2.54 174.384 06:38 18.10.2019
5991 Rain 13 1011 93 10000 4.1 190 06:19 18.10.2019
5992 Clouds 13 1011 93 10000 3.6 170 05:54 18.10.2019
5993 Mist 13 1012 93 10000 3.1 180 05:20 18.10.2019
5994 Clouds 13 1012 93 10000 4.1 180 03:42 18.10.2019
5995 Clouds 13 1012 100 10000 2.6 180 03:19 18.10.2019
5996 Clouds 14 1012 93 10000 4.6 190 02:32 18.10.2019
5997 Clouds 14 1012 100 10000 4.1 180 01:42 18.10.2019
5998 Clouds 14 1013 100 10000 4.1 190 01:23 18.10.2019
5999 Drizzle 14 1012 100 10000 4.1 180 00:43 18.10.2019
6000 Drizzle 14 1012 100 9000 4.6 180 00:20 18.10.2019
6001 Drizzle 14 1012 100 9000 4.6 180 00:20 18.10.2019
6002 Rain 14 1013 100 10000 4.6 180 23:41 17.10.2019
6003 Clouds 14 1013 100 10000 3.6 190 23:21 17.10.2019
6004 Rain 14 1013 100 10000 3.1 180 22:58 17.10.2019
6005 Rain 14 1013 100 10000 3.1 180 22:39 17.10.2019
6006 Rain 14 1013 100 8000 3.6 180 22:20 17.10.2019
6007 Rain 14 1013 100 8000 3.6 180 21:58 17.10.2019
6008 Rain 14 1013 93 10000 4.1 180 21:39 17.10.2019
6009 Rain 14 1013 100 10000 3.1 170 21:21 17.10.2019
6010 Rain 14 1013 100 10000 3.1 170 21:21 17.10.2019
6011 Rain 14 1013 100 9000 3.6 180 20:58 17.10.2019
6012 Rain 14 1013 100 9000 3.6 180 20:40 17.10.2019
6013 Rain 14 1013 93 9000 1.5 200 20:20 17.10.2019
6014 Rain 14 1013 100 9000 3.6 190 19:59 17.10.2019
6015 Rain 14 1013 100 9000 4.1 180 19:59 17.10.2019
6016 Rain 14 1013 100 9000 4.1 180 19:40 17.10.2019
6017 Rain 14 1013 100 8000 3.1 190 19:20 17.10.2019
6018 Rain 14 1013 100 8000 3.1 190 19:20 17.10.2019
6019 Rain 14 1013 100 8000 3.1 190 19:20 17.10.2019
6020 Rain 14 1013 93 9000 1.5 160 18:58 17.10.2019
6021 Rain 14 1013 93 9000 1.5 160 18:38 17.10.2019
6022 Rain 15 1013 93 6000 3.1 250 18:20 17.10.2019
6023 Rain 15 1012 87 10000 1.5 220 17:43 17.10.2019
6024 Rain 16 1012 87 10000 1.5 220 17:24 17.10.2019
6025 Rain 16 1013 77 10000 1.5 200 16:58 17.10.2019
6026 Drizzle 16 1013 77 10000 3.858 217 16:39 17.10.2019
6027 Clouds 17 1013 72 10000 3.1 180 16:18 17.10.2019
6028 Clouds 16 1013 72 10000 3.1 180 15:56 17.10.2019
6029 Clouds 16 1013 72 10000 3.1 190 15:38 17.10.2019
6030 Clouds 17 1013 77 10000 3.6 190 15:20 17.10.2019
6031 Clouds 16 1013 77 10000 3.6 190 14:56 17.10.2019
6032 Clouds 16 1014 72 10000 4.1 180 14:37 17.10.2019
6033 Clouds 16 1013 77 10000 4.6 180 14:19 17.10.2019
6034 Clouds 16 1014 77 10000 4.6 240 13:39 17.10.2019
6035 Clouds 16 1014 77 10000 5.1 190 13:39 17.10.2019
6036 Clouds 16 1014 77 10000 5.1 200 13:20 17.10.2019
6037 Clouds 16 1014 77 10000 5.1 200 12:57 17.10.2019
6038 Clouds 15 1014 72 10000 4.6 200 12:37 17.10.2019
6039 Clouds 15 1014 72 10000 5.7 200 12:19 17.10.2019
6040 Clouds 15 1014 77 10000 5.7 180 11:42 17.10.2019
6041 Clouds 14 1014 77 10000 5.7 180 11:42 17.10.2019
6042 Clouds 14 1014 77 10000 5.1 190 11:22 17.10.2019
6043 Clouds 14 1014 77 10000 5.1 190 10:59 17.10.2019
6044 Clouds 14 1014 82 10000 5.1 180 10:41 17.10.2019
6045 Clouds 14 1014 82 10000 5.1 180 10:41 17.10.2019
6046 Clouds 13 1014 76 10000 5.1 190 10:19 17.10.2019
6047 Clouds 13 1014 76 10000 5.1 190 09:56 17.10.2019
6048 Clouds 13 1013 82 10000 4.6 180 09:38 17.10.2019
6049 Clouds 13 1013 82 10000 4.1 180 09:19 17.10.2019
6050 Clouds 13 1013 76 10000 3.6 180 08:49 17.10.2019
6051 Clouds 12 1013 76 10000 3.6 190 08:27 17.10.2019
6052 Clouds 12 1013 76 10000 3.6 190 07:59 17.10.2019
6053 Clouds 12 1012 76 10000 4.6 180 07:41 17.10.2019
6054 Clouds 12 1012 76 10000 5.7 190 07:21 17.10.2019
6055 Rain 12 1012 76 10000 5.1 190 06:51 17.10.2019
6056 Rain 12 1012 76 10000 5.1 190 06:31 17.10.2019
6057 Clouds 12 1012 71 10000 4.6 190 05:59 17.10.2019
6058 Clouds 12 1012 71 10000 4.6 190 05:40 17.10.2019
6059 Clouds 12 1012 71 10000 5.1 190 05:19 17.10.2019
6060 Clouds 12 1012 76 10000 4.6 180 04:48 17.10.2019
6061 Rain 12 1012 76 10000 4.1 180 03:46 17.10.2019
6062 Clouds 12 1012 76 10000 2.1 200 01:57 17.10.2019
6063 Clouds 12 1012 76 10000 2.1 200 01:57 17.10.2019
6064 Clouds 12 1012 93 10000 1 0 00:42 17.10.2019
6065 Clouds 12 1012 93 10000 1 250 00:21 17.10.2019
6066 Clouds 13 1012 93 10000 1 250 23:59 16.10.2019
6067 Clouds 13 1012 93 10000 1.5 240 23:40 16.10.2019
6068 Clouds 13 1012 87 10000 3.1 200 23:19 16.10.2019
6069 -273 0 0 0 0 0 22:54 16.10.2019
6070 Clouds 13 1012 76 10000 3.6 160 22:36 16.10.2019
6071 Clouds 13 1012 76 10000 3.6 170 22:18 16.10.2019
6072 Clouds 13 1012 72 10000 3.6 170 21:54 16.10.2019
6073 Clouds 13 1012 72 10000 3.6 170 21:36 16.10.2019
6074 Clouds 13 1012 72 10000 3.6 190 21:18 16.10.2019
6075 Clouds 13 1012 72 10000 3.6 190 20:56 16.10.2019
6076 Clouds 14 1012 76 10000 3.6 190 20:37 16.10.2019
6077 Clouds 14 1012 76 10000 3.6 190 20:37 16.10.2019
6078 Rain 13 1012 82 10000 3.1 180 20:19 16.10.2019
6079 Clouds 13 1012 82 10000 3.1 180 19:41 16.10.2019
6080 Clouds 13 1012 87 10000 2.1 180 19:21 16.10.2019
6081 Clouds 13 1012 87 10000 2.1 180 18:58 16.10.2019
6082 Rain 13 1012 87 10000 2.1 180 18:39 16.10.2019
6083 Rain 14 1012 87 10000 2.1 180 18:19 16.10.2019
6084 Rain 13 1012 87 10000 2.1 180 18:19 16.10.2019
6085 Clouds 13 1012 87 10000 1.5 180 17:56 16.10.2019
6086 Clouds 13 1012 87 10000 1.5 180 17:37 16.10.2019
6087 Rain 14 1012 87 10000 2.6 180 17:19 16.10.2019
6088 Rain 14 1012 87 10000 3.1 170 16:58 16.10.2019
6089 Rain 14 1012 87 10000 3.1 170 16:38 16.10.2019
6090 Drizzle 13 1013 82 10000 2.6 180 16:20 16.10.2019
6091 -273 0 0 0 0 0 15:54 16.10.2019
6092 Clouds 13 1013 93 10000 3.1 160 15:54 16.10.2019
6093 -273 0 0 0 0 0 15:54 16.10.2019
6094 Clouds 13 1013 93 10000 3.1 160 15:54 16.10.2019
6095 Rain 13 1013 93 10000 3.1 200 15:36 16.10.2019
6096 Rain 13 1013 82 10000 4.1 220 15:18 16.10.2019
6097 Rain 13 1013 82 10000 4.1 220 14:55 16.10.2019
6098 Rain 13 1013 93 10000 5.1 200 14:36 16.10.2019
6099 Rain 13 1013 87 10000 7.2 210 14:18 16.10.2019
6100 Rain 13 1013 76 10000 5.1 190 13:42 16.10.2019
6101 Rain 13 1013 76 10000 5.1 190 13:23 16.10.2019
6102 Clouds 13 1014 82 10000 4.6 180 12:44 16.10.2019
6103 Rain 13 1014 82 10000 4.1 190 12:21 16.10.2019
6104 Rain 13 1014 87 10000 4.6 200 11:59 16.10.2019
6105 Rain 13 1014 87 10000 4.6 200 11:41 16.10.2019
6106 Clouds 13 1014 82 10000 5.1 200 11:18 16.10.2019
6107 Clouds 12 1014 76 10000 6.2 200 10:38 16.10.2019
6108 -273 0 0 0 0 0 10:20 16.10.2019
6109 Clouds 12 1014 81 10000 4.6 200 09:55 16.10.2019
6110 Clouds 12 1014 81 10000 4.6 200 09:36 16.10.2019
6111 Clouds 11 1013 81 10000 4.1 200 09:18 16.10.2019
6112 Clouds 11 1013 87 10000 4.1 190 08:42 16.10.2019
6113 Clouds 11 1013 81 10000 3.6 220 08:23 16.10.2019
6114 Clouds 11 1013 93 10000 4.6 190 07:45 16.10.2019
6115 Clouds 11 1013 93 10000 4.6 190 07:45 16.10.2019
6116 -273 0 0 0 0 0 07:25 16.10.2019
6117 Clouds 11 1013 93 10000 4.1 200 06:58 16.10.2019
6118 Clouds 11 1013 93 10000 4.1 200 06:58 16.10.2019
6119 Clouds 11 1013 87 10000 5.1 200 06:39 16.10.2019
6120 Clouds 11 1012 93 10000 4.1 190 05:44 16.10.2019
6121 Rain 12 1012 93 10000 2.6 200 03:24 16.10.2019
6122 Clouds 12 1012 87 10000 3.1 250 02:47 16.10.2019
6123 Clouds 13 1010 82 10000 6.7 240 01:19 16.10.2019
6124 Clouds 13 1010 93 10000 6.2 210 00:49 16.10.2019
6125 Clouds 13 1010 93 10000 6.2 210 00:27 16.10.2019
6126 Clouds 13 1010 93 10000 3.1 250 23:41 15.10.2019
6127 Rain 13 1010 100 10000 2.6 200 23:22 15.10.2019
6128 Rain 13 1010 100 10000 2.6 200 22:56 15.10.2019
6129 Rain 13 1010 100 10000 3.6 210 22:38 15.10.2019
6130 Rain 13 1009 93 10000 3.6 210 22:20 15.10.2019
6131 Rain 13 1009 93 10000 3.6 210 21:56 15.10.2019
6132 Rain 14 1009 93 10000 3.6 210 21:55 15.10.2019
6133 Rain 14 1009 93 10000 4.6 220 21:37 15.10.2019
6134 Rain 14 1009 87 10000 4.1 260 21:19 15.10.2019
6135 Rain 14 1009 93 10000 4.6 210 20:55 15.10.2019
6136 Rain 14 1008 93 10000 4.6 220 20:37 15.10.2019
6137 Rain 14 1008 87 10000 4.6 220 20:19 15.10.2019
6138 Rain 14 1008 87 10000 4.6 220 19:56 15.10.2019
6139 Rain 15 1007 87 10000 4.6 220 19:37 15.10.2019
6140 Drizzle 15 1007 87 10000 4.1 260 19:19 15.10.2019
6141 Rain 16 1006 77 10000 6.2 240 18:44 15.10.2019
6142 -273 0 0 0 0 0 18:26 15.10.2019
6143 Clouds 17 1006 72 10000 3.6 240 17:56 15.10.2019
6144 Clouds 18 1006 72 10000 3.6 240 17:38 15.10.2019
6145 Clouds 18 1006 72 10000 4.6 230 17:19 15.10.2019
6146 Clouds 19 1006 72 10000 4.6 230 16:45 15.10.2019
6147 Clouds 19 1006 72 10000 4.6 230 16:45 15.10.2019
6148 Clouds 19 1006 72 10000 4.6 230 16:22 15.10.2019
6149 Clouds 19 1006 68 10000 6.2 250 15:58 15.10.2019
6150 Clouds 19 1006 72 10000 4.1 240 15:40 15.10.2019
6151 Clouds 19 1006 72 10000 4.1 240 15:40 15.10.2019
6152 Clouds 20 1006 72 10000 3.6 260 15:20 15.10.2019
6153 Clouds 20 1006 72 10000 3.6 260 14:57 15.10.2019
6154 Clouds 20 1006 68 10000 3.6 260 14:38 15.10.2019
6155 Clouds 20 1006 68 10000 3.1 250 14:19 15.10.2019
6156 Clouds 21 1006 68 10000 1.5 230 13:44 15.10.2019
6157 Clouds 21 1007 72 10000 1.5 240 13:21 15.10.2019
6158 Clouds 21 1007 72 10000 1.5 210 12:59 15.10.2019
6159 Clouds 20 1007 72 10000 1.5 210 12:39 15.10.2019
6160 Clouds 20 1007 68 10000 1.5 190 12:21 15.10.2019
6161 Clouds 20 1007 68 10000 1.5 190 11:55 15.10.2019
6162 Clouds 19 1007 72 10000 1 0 11:37 15.10.2019
6163 Clouds 18 1007 72 10000 1.5 90 11:18 15.10.2019
6164 Clear 17 1006 82 10000 2.1 30 10:42 15.10.2019
6165 -273 0 0 0 0 0 10:19 15.10.2019
6166 Clear 16 1007 82 10000 2.6 20 09:57 15.10.2019
6167 Clear 15 1007 87 10000 2.6 30 09:37 15.10.2019
6168 Clear 15 1007 87 10000 2.6 30 09:37 15.10.2019
6169 Clear 14 1007 93 10000 3.1 20 09:19 15.10.2019
6170 Clear 13 1006 93 10000 2.1 360 08:43 15.10.2019
6171 Clear 13 1007 100 10000 1.5 40 08:22 15.10.2019
6172 Clear 13 1007 100 10000 1.5 40 07:58 15.10.2019
6173 Clear 13 1007 100 10000 1.5 40 07:39 15.10.2019
6174 Clear 13 1007 100 10000 2.1 50 07:20 15.10.2019
6175 Clear 13 1007 93 10000 2.6 90 06:45 15.10.2019
6176 Clear 13 1007 93 10000 2.6 90 06:26 15.10.2019
6177 Clear 13 1008 93 10000 1.5 60 05:41 15.10.2019
6178 Clear 13 1008 93 10000 1.5 80 05:23 15.10.2019
6179 Clear 13 1008 93 10000 1.5 80 04:33 15.10.2019
6180 Clear 13 1009 93 10000 0.5 0 03:37 15.10.2019
6181 Clear 14 1009 100 10000 0.5 0 02:42 15.10.2019
6182 Clear 14 1009 93 10000 0.5 0 01:49 15.10.2019
6183 Clear 14 1009 93 10000 0.5 0 01:22 15.10.2019
6184 Clear 14 1009 100 10000 1 70 00:49 15.10.2019
6185 Clear 15 1009 93 10000 0.5 0 00:22 15.10.2019
6186 Clear 15 1009 93 10000 1.5 10 23:45 14.10.2019
6187 Clear 15 1009 87 10000 2.1 50 23:21 14.10.2019
6188 Clear 15 1009 87 10000 2.1 50 22:59 14.10.2019
6189 Clear 15 1009 87 10000 1.5 80 22:38 14.10.2019
6190 Clear 15 1010 87 10000 2.6 60 22:19 14.10.2019
6191 Clear 15 1010 87 10000 2.6 60 22:19 14.10.2019
6192 Clear 15 1010 87 10000 2.6 60 21:56 14.10.2019
6193 Clear 15 1010 87 10000 2.6 60 21:56 14.10.2019
6194 Clear 16 1010 87 10000 1.5 70 21:37 14.10.2019
6195 Clear 16 1010 82 10000 1 0 21:19 14.10.2019
6196 Clear 17 1010 82 10000 1 0 20:55 14.10.2019
6197 Clear 17 1010 82 10000 1 0 20:37 14.10.2019
6198 Clear 17 1010 82 10000 0.5 0 20:18 14.10.2019
6199 Clouds 17 1010 77 10000 1 0 19:42 14.10.2019
6200 Clouds 18 1010 77 10000 1 0 19:24 14.10.2019
6201 Clear 19 1010 72 10000 0.5 0 18:59 14.10.2019
6202 Clear 20 1010 72 10000 0.5 0 18:39 14.10.2019
6203 Clear 21 1010 64 10000 0.5 0 18:20 14.10.2019
6204 Clear 21 1010 64 10000 0.5 0 18:20 14.10.2019
6205 Clear 21 1010 64 10000 0.5 0 18:20 14.10.2019
6206 Clear 21 1010 64 10000 0.5 0 18:20 14.10.2019
6207 Clear 21 1010 64 10000 0.5 0 17:58 14.10.2019
6208 Clear 22 1011 50 10000 1.5 210 17:39 14.10.2019
6209 Clear 22 1011 50 10000 1 0 17:21 14.10.2019
6210 Clear 22 1011 50 10000 1 0 17:21 14.10.2019
6211 Haze 22 1011 50 10000 3.6 160 16:44 14.10.2019
6212 Haze 23 1011 50 10000 3.6 150 16:22 14.10.2019
6213 -273 0 0 0 0 0 15:57 14.10.2019
6214 Haze 23 1012 47 10000 3.1 170 15:38 14.10.2019
6215 Haze 23 1012 49 4000 3.1 170 15:20 14.10.2019
6216 Clear 23 1013 53 10000 4.6 180 14:43 14.10.2019
6217 -273 0 0 0 0 0 14:24 14.10.2019
6218 -273 0 0 0 0 0 13:57 14.10.2019
6219 Clear 22 1013 53 10000 3.6 180 13:38 14.10.2019
6220 Clear 22 1014 56 10000 3.6 180 13:19 14.10.2019
6221 Clear 21 1014 56 10000 3.6 200 12:40 14.10.2019
6222 Clear 20 1015 60 10000 4.6 210 12:19 14.10.2019
6223 Clear 20 1015 64 10000 3.1 200 11:47 14.10.2019
6224 Clear 19 1015 64 10000 3.1 200 11:27 14.10.2019
6225 Clear 18 1015 64 10000 3.1 210 10:59 14.10.2019
6226 Clear 17 1015 72 10000 3.1 200 10:40 14.10.2019
6227 Clear 17 1015 77 10000 2.6 190 10:21 14.10.2019
6228 Clear 15 1015 82 10000 2.1 200 09:57 14.10.2019
6229 Clear 15 1015 82 10000 2.1 200 09:38 14.10.2019
6230 Clear 14 1015 93 10000 0.5 0 09:19 14.10.2019
6231 Clear 13 1015 100 10000 0.5 0 08:46 14.10.2019
6232 Clear 13 1015 100 10000 0.5 0 08:23 14.10.2019
6233 Clear 13 1015 100 10000 0.5 0 07:44 14.10.2019
6234 Clear 13 1014 93 10000 1 0 07:21 14.10.2019
6235 Clear 13 1014 93 10000 0.5 210 06:54 14.10.2019
6236 Clear 13 1014 100 10000 2.1 240 06:27 14.10.2019
6237 Clear 14 1014 100 10000 1.5 250 05:51 14.10.2019
6238 Clear 14 1014 93 10000 1 0 04:50 14.10.2019
6239 Clear 15 1014 93 10000 1.5 220 03:48 14.10.2019
6240 Clear 15 1014 87 10000 1.5 250 03:21 14.10.2019
6241 Clear 16 1014 82 10000 3.6 180 01:46 14.10.2019
6242 Clear 16 1014 87 10000 1.5 190 01:18 14.10.2019
6243 Clear 16 1014 93 10000 1 0 00:36 14.10.2019
6244 Clear 17 1014 93 10000 1.5 230 00:18 14.10.2019
6245 Clear 17 1014 87 10000 2.1 230 23:40 13.10.2019
6246 Clear 17 1013 93 10000 1.5 210 23:19 13.10.2019
6247 Clear 17 1013 93 10000 1 210 22:54 13.10.2019
6248 Clear 17 1013 93 10000 1 210 22:36 13.10.2019
6249 Clear 17 1013 93 10000 1 200 22:18 13.10.2019
6250 Clear 17 1013 93 10000 1 200 22:18 13.10.2019
6251 Clear 18 1013 93 10000 1.5 160 21:55 13.10.2019
6252 Clear 18 1013 93 10000 1.5 160 21:36 13.10.2019
6253 Clear 18 1013 88 10000 1.5 200 21:18 13.10.2019
6254 Clear 18 1012 88 10000 3.59 194.817 20:55 13.10.2019
6255 Clear 18 1012 88 10000 3.59 194.817 20:55 13.10.2019
6256 Clear 19 1012 88 10000 3.15 186.94 20:36 13.10.2019
6257 Clear 19 1012 82 10000 1.5 110 20:18 13.10.2019
6258 Clear 19 1012 77 10000 1.5 150 19:54 13.10.2019
6259 Clear 19 1012 77 10000 1.5 150 19:36 13.10.2019
6260 Clear 20 1012 68 10000 3.6 190 19:18 13.10.2019
6261 Clear 20 1012 60 10000 3.1 180 18:39 13.10.2019
6262 Clear 22 1012 53 10000 2.1 170 18:20 13.10.2019
6263 Clear 22 1012 53 10000 2.1 170 18:20 13.10.2019
6264 Clear 22 1012 53 10000 2.1 170 17:59 13.10.2019
6265 Clear 23 1012 53 10000 3.6 180 17:41 13.10.2019
6266 Clear 23 1012 53 10000 3.6 190 17:22 13.10.2019
6267 Clear 23 1012 53 10000 4.1 200 16:43 13.10.2019
6268 Clear 24 1012 53 10000 5.7 200 16:19 13.10.2019
6269 Clear 24 1012 53 10000 5.7 200 16:19 13.10.2019
6270 Clear 23 1012 53 10000 5.7 200 15:57 13.10.2019
6271 Clouds 24 1012 53 10000 5.1 180 15:39 13.10.2019
6272 Clouds 24 1012 50 10000 4.6 170 15:20 13.10.2019
6273 Clouds 23 1012 50 10000 4.6 170 14:58 13.10.2019
6274 Clouds 23 1012 57 10000 3.1 180 14:39 13.10.2019
6275 Clouds 23 1013 57 10000 4.1 160 14:20 13.10.2019
6276 Clouds 23 1013 56 10000 4.6 170 13:56 13.10.2019
6277 Clouds 22 1013 56 10000 4.6 170 13:37 13.10.2019
6278 Clear 22 1013 56 10000 5.1 190 13:19 13.10.2019
6279 Clear 21 1014 64 10000 5.1 210 12:56 13.10.2019
6280 Clear 21 1014 64 10000 5.1 210 12:37 13.10.2019
6281 Clouds 20 1014 68 10000 4.6 190 12:18 13.10.2019
6282 Clouds 19 1014 72 10000 4.1 200 11:55 13.10.2019
6283 Clouds 19 1014 72 10000 4.1 200 11:37 13.10.2019
6284 Clouds 18 1014 77 10000 4.1 210 11:18 13.10.2019
6285 Clouds 19 1014 77 10000 4.1 210 11:18 13.10.2019
6286 Clouds 19 1014 77 10000 4.1 210 11:18 13.10.2019
6287 Clouds 17 1014 82 10000 4.1 210 10:41 13.10.2019
6288 Clouds 17 1014 82 10000 4.1 210 10:41 13.10.2019
6289 Clouds 17 1014 82 10000 2.6 220 10:23 13.10.2019
6290 Clouds 17 1014 82 10000 2.6 220 10:23 13.10.2019
6291 Clouds 15 1014 87 10000 2.1 210 09:41 13.10.2019
6292 Clouds 15 1014 93 10000 3.1 210 09:22 13.10.2019
6293 Clouds 15 1014 93 10000 3.1 210 09:22 13.10.2019
6294 Clouds 14 1014 93 10000 3.1 210 08:59 13.10.2019
6295 Clouds 14 1014 93 10000 3.1 190 08:40 13.10.2019
6296 Clear 14 1013 93 10000 2.6 210 08:21 13.10.2019
6297 Clear 14 1013 100 10000 2.6 190 07:46 13.10.2019
6298 Clear 14 1013 93 10000 2.6 190 07:21 13.10.2019
6299 Clear 14 1013 93 10000 3.1 190 06:41 13.10.2019
6300 Clear 14 1013 93 10000 3.1 190 06:41 13.10.2019
6301 Fog 14 1013 100 10000 2.1 170 05:46 13.10.2019
6302 Clear 14 1013 100 10000 1 0 04:49 13.10.2019
6303 Clear 14 1013 100 10000 1 0 04:29 13.10.2019
6304 Clear 15 1013 87 10000 0.5 0 02:42 13.10.2019
6305 Clear 15 1013 82 10000 1.5 190 01:54 13.10.2019
6306 Clear 15 1013 82 10000 3.1 180 01:30 13.10.2019
6307 Clear 16 1013 82 10000 3.6 210 00:49 13.10.2019
6308 Clouds 16 1014 82 10000 3.6 200 00:22 13.10.2019
6309 Clouds 16 1014 82 10000 3.6 200 23:57 12.10.2019
6310 Clear 16 1013 82 10000 4.6 180 23:39 12.10.2019
6311 Clear 16 1013 82 10000 5.1 180 23:20 12.10.2019
6312 Clear 16 1013 82 10000 5.1 180 22:57 12.10.2019
6313 Clear 16 1013 87 10000 3.6 190 22:38 12.10.2019
6314 Clear 16 1013 82 10000 3.1 190 22:20 12.10.2019
6315 Clouds 16 1013 100 10000 0.5 0 21:55 12.10.2019
6316 Clouds 16 1013 100 10000 0.5 0 21:37 12.10.2019
6317 Rain 16 1013 100 10000 1 0 21:18 12.10.2019
6318 Clear 16 1013 100 10000 1.5 240 20:41 12.10.2019
6319 Clouds 16 1013 93 10000 1.5 220 20:23 12.10.2019
6320 Rain 17 1013 88 10000 3.1 170 19:40 12.10.2019
6321 Rain 17 1013 88 10000 3.6 170 19:22 12.10.2019
6322 Rain 17 1013 77 10000 3.6 180 18:59 12.10.2019
6323 Rain 18 1013 77 10000 3.6 180 18:40 12.10.2019
6324 Rain 18 1014 68 10000 3.1 200 18:22 12.10.2019
6325 Clear 19 1013 64 10000 3.1 190 17:44 12.10.2019
6326 Rain 19 1014 64 10000 4.6 190 17:19 12.10.2019
6327 Clear 19 1014 64 10000 3.1 210 16:55 12.10.2019
6328 Clear 20 1014 64 10000 3.1 210 16:36 12.10.2019
6329 Clear 20 1014 60 10000 3.6 220 16:18 12.10.2019
6330 Clouds 20 1013 56 10000 5.7 220 15:44 12.10.2019
6331 Clouds 20 1013 56 10000 5.7 220 15:25 12.10.2019
6332 Clouds 20 1013 53 10000 8.2 220 15:25 12.10.2019
6333 Clouds 21 1013 56 10000 5.7 220 14:57 12.10.2019
6334 Clouds 21 1013 56 10000 5.7 220 14:38 12.10.2019
6335 Clouds 20 1013 56 10000 6.7 230 14:18 12.10.2019
6336 Clouds 21 1014 56 10000 6.2 210 13:44 12.10.2019
6337 Clouds 20 1014 64 10000 6.7 210 13:26 12.10.2019
6338 Clouds 19 1014 63 10000 6.2 200 12:40 12.10.2019
6339 Clouds 18 1014 68 10000 6.7 210 12:22 12.10.2019
6340 Clouds 18 1014 68 10000 6.7 210 12:22 12.10.2019
6341 Clouds 17 1014 68 10000 6.7 210 11:59 12.10.2019
6342 Clouds 16 1014 68 10000 5.7 200 11:40 12.10.2019
6343 Clouds 16 1014 67 10000 4.1 210 11:22 12.10.2019
6344 Clouds 15 1014 77 10000 5.1 210 10:56 12.10.2019
6345 Clouds 15 1014 77 10000 5.1 210 10:37 12.10.2019
6346 Clouds 14 1014 76 10000 4.1 210 10:18 12.10.2019
6347 Clouds 13 1014 82 10000 3.6 210 09:55 12.10.2019
6348 Clouds 12 1014 82 10000 3.6 210 09:37 12.10.2019
6349 Clouds 11 1013 87 10000 2.1 230 09:18 12.10.2019
6350 Clouds 10 1013 93 10000 1.5 270 08:41 12.10.2019
6351 Clouds 10 1013 93 10000 1.5 270 08:41 12.10.2019
6352 Fog 10 1013 100 10000 3.1 200 08:21 12.10.2019
6353 Fog 10 1013 100 10000 1 0 07:37 12.10.2019
6354 Clear 10 1013 100 10000 1.5 160 07:18 12.10.2019
6355 Clear 10 1013 100 10000 1.5 230 05:53 12.10.2019
6356 Clear 10 1013 100 10000 1 0 05:25 12.10.2019
6357 Clear 10 1013 93 10000 2.6 180 04:29 12.10.2019
6358 Clear 10 1014 100 10000 3.1 190 03:46 12.10.2019
6359 Clear 11 1014 93 10000 2.6 170 02:37 12.10.2019
6360 Clear 12 1014 87 10000 3.1 180 01:31 12.10.2019
6361 Clear 12 1014 93 10000 2.6 190 00:54 12.10.2019
6362 Clear 12 1014 93 10000 2.6 190 00:35 12.10.2019
6363 Clouds 13 1014 87 10000 3.1 200 23:54 11.10.2019
6364 Clouds 12 1014 87 10000 3.1 200 23:36 11.10.2019
6365 Clouds 13 1014 87 10000 3.1 200 23:18 11.10.2019
6366 Clouds 13 1014 82 10000 3.6 190 22:37 11.10.2019
6367 Clouds 13 1014 82 10000 3.1 180 22:18 11.10.2019
6368 Clouds 13 1014 82 10000 4.1 180 21:42 11.10.2019
6369 Clouds 13 1014 87 10000 3.1 170 21:21 11.10.2019
6370 Clouds 14 1014 93 10000 2.1 180 20:57 11.10.2019
6371 Clouds 14 1014 93 10000 2.1 180 20:38 11.10.2019
6372 Clouds 14 1014 87 10000 2.1 160 20:19 11.10.2019
6373 Clouds 14 1014 87 10000 2.1 160 19:55 11.10.2019
6374 Clouds 14 1014 82 10000 1.5 140 19:36 11.10.2019
6375 Clouds 14 1014 77 10000 2.1 170 19:18 11.10.2019
6376 Clouds 14 1014 77 10000 2.1 170 19:18 11.10.2019
6377 Clouds 14 1014 77 10000 2.1 170 19:18 11.10.2019
6378 Clouds 14 1014 77 10000 2.1 170 19:18 11.10.2019
6379 Clouds 15 1014 77 10000 3.1 190 18:54 11.10.2019
6380 Clouds 16 1015 72 10000 3.6 200 18:36 11.10.2019
6381 Clouds 16 1015 72 10000 3.6 200 18:18 11.10.2019
6382 Clouds 16 1015 67 10000 3.6 190 17:55 11.10.2019
6383 Clouds 16 1015 67 10000 3.6 190 17:36 11.10.2019
6384 Clouds 16 1015 67 10000 4.6 200 17:18 11.10.2019
6385 Clouds 17 1015 67 10000 5.1 200 16:40 11.10.2019
6386 Clouds 17 1015 63 10000 6.2 210 16:20 11.10.2019
6387 Clouds 16 1016 77 10000 5.1 210 15:58 11.10.2019
6388 Clouds 16 1016 77 10000 5.1 210 15:38 11.10.2019
6389 Clouds 16 1016 77 10000 4.1 190 15:19 11.10.2019
6390 Clouds 16 1016 77 10000 4.6 180 14:46 11.10.2019
6391 Clouds 15 1017 77 10000 5.7 190 14:28 11.10.2019
6392 Clouds 15 1017 77 10000 3.1 260 13:56 11.10.2019
6393 Clouds 15 1017 77 10000 5.7 190 13:37 11.10.2019
6394 Clouds 15 1017 77 10000 5.1 170 13:18 11.10.2019
6395 Clouds 15 1017 87 10000 4.92 220.946 12:54 11.10.2019
6396 Clouds 13 1018 82 10000 5.1 180 12:36 11.10.2019
6397 Clouds 13 1018 87 10000 4.6 190 12:18 11.10.2019
6398 Clouds 12 1018 93 10000 4.1 200 11:41 11.10.2019
6399 Clouds 12 1018 87 10000 4.6 190 11:22 11.10.2019
6400 Clouds 11 1018 87 10000 4.6 190 10:58 11.10.2019
6401 Clouds 11 1019 87 10000 4.46 208.518 10:40 11.10.2019
6402 Clouds 11 1019 87 10000 4.46 208.518 10:22 11.10.2019
6403 Clouds 10 1018 93 10000 2.1 220 09:55 11.10.2019
6404 Clouds 10 1018 93 10000 2.1 220 09:37 11.10.2019
6405 Clouds 10 1018 100 10000 1.5 270 09:18 11.10.2019
6406 Clouds 9 1018 100 10000 1.5 270 08:55 11.10.2019
6407 Clouds 9 1018 93 10000 2.1 150 08:36 11.10.2019
6408 Clouds 9 1018 100 10000 1.5 210 08:18 11.10.2019
6409 Clouds 8 1018 100 10000 1 240 07:41 11.10.2019
6410 Clouds 8 1019 100 10000 1.5 230 07:22 11.10.2019
6411 Clear 8 1019 93 10000 0.5 0 06:47 11.10.2019
6412 Clear 8 1019 100 10000 1 0 06:22 11.10.2019
6413 Clear 8 1018 93 10000 1 0 05:39 11.10.2019
6414 Clouds 8 1018 100 10000 0.5 0 04:59 11.10.2019
6415 Clouds 8 1019 100 10000 1 0 04:24 11.10.2019
6416 Clear 8 1020 100 10000 2.1 260 02:32 11.10.2019
6417 Clear 9 1019 93 10000 4.1 190 00:47 11.10.2019
6418 Clear 9 1019 93 10000 4.1 190 00:27 11.10.2019
6419 Clouds 10 1019 87 10000 3.1 210 23:44 10.10.2019
6420 Clouds 10 1019 87 10000 3.6 200 23:22 10.10.2019
6421 Clouds 10 1019 87 10000 3.6 200 22:58 10.10.2019
6422 Clouds 10 1019 87 10000 3.6 200 22:39 10.10.2019
6423 Clouds 10 1019 81 10000 4.1 210 22:20 10.10.2019
6424 Clouds 11 1019 81 10000 4.6 210 21:58 10.10.2019
6425 Clouds 11 1019 81 10000 4.6 210 21:39 10.10.2019
6426 Clouds 11 1019 76 10000 4.6 230 21:21 10.10.2019
6427 Rain 11 1018 76 10000 5.7 220 20:43 10.10.2019
6428 Rain 11 1018 76 10000 4.6 220 20:22 10.10.2019
6429 Rain 11 1018 71 10000 4.6 220 19:59 10.10.2019
6430 Rain 12 1018 71 10000 4.6 220 19:41 10.10.2019
6431 Rain 12 1017 71 10000 5.1 220 19:21 10.10.2019
6432 Rain 12 1017 71 10000 5.1 220 18:59 10.10.2019
6433 Rain 12 1017 67 10000 3.6 210 18:40 10.10.2019
6434 Rain 13 1017 54 10000 4.6 270 18:20 10.10.2019
6435 Clouds 14 1016 59 10000 5.7 240 17:55 10.10.2019
6436 Clouds 14 1016 59 10000 5.7 240 17:55 10.10.2019
6437 Clouds 14 1016 59 10000 5.7 240 17:37 10.10.2019
6438 Clouds 14 1016 63 10000 3.6 230 17:18 10.10.2019
6439 Clouds 14 1016 67 10000 5.1 240 16:46 10.10.2019
6440 Clouds 14 1016 67 10000 5.1 240 16:26 10.10.2019
6441 Rain 14 1016 82 10000 4.1 220 15:58 10.10.2019
6442 Rain 14 1016 82 10000 4.1 220 15:38 10.10.2019
6443 Rain 14 1016 67 10000 5.1 270 15:19 10.10.2019
6444 -273 0 0 0 0 0 14:55 10.10.2019
6445 Clouds 14 1016 58 10000 5.1 240 14:36 10.10.2019
6446 Clouds 14 1016 58 10000 6.7 250 14:18 10.10.2019
6447 Clouds 14 1016 62 10000 8.2 240 13:42 10.10.2019
6448 Rain 13 1016 62 10000 5.7 240 13:24 10.10.2019
6449 Rain 13 1015 67 10000 6.2 250 12:58 10.10.2019
6450 Rain 13 1015 67 10000 6.2 250 12:40 10.10.2019
6451 Clouds 12 1015 71 10000 7.2 230 12:20 10.10.2019
6452 Clouds 12 1015 76 10000 7.2 220 11:58 10.10.2019
6453 Clouds 11 1015 76 10000 7.2 220 11:38 10.10.2019
6454 Clouds 11 1015 76 10000 6.7 220 11:19 10.10.2019
6455 Clouds 11 1015 76 10000 6.7 220 11:19 10.10.2019
6456 Clouds 11 1014 81 10000 6.2 210 10:44 10.10.2019
6457 Clouds 11 1014 76 10000 5.7 260 10:26 10.10.2019
6458 Clouds 10 1014 81 10000 7.2 220 09:58 10.10.2019
6459 Clouds 10 1013 81 10000 5.7 230 09:39 10.10.2019
6460 Clouds 9 1012 87 10000 4.6 210 09:21 10.10.2019
6461 Clouds 9 1012 93 10000 4.6 210 08:57 10.10.2019
6462 Clouds 9 1012 93 10000 4.6 210 08:38 10.10.2019
6463 Clouds 9 1011 93 10000 5.1 220 08:18 10.10.2019
6464 Rain 9 1011 93 10000 5.1 210 07:45 10.10.2019
6465 Rain 9 1010 93 10000 5.1 200 07:22 10.10.2019
6466 Rain 9 1010 93 10000 6.7 200 06:48 10.10.2019
6467 Rain 9 1010 93 10000 6.7 200 06:29 10.10.2019
6468 Rain 9 1010 93 10000 5.1 190 05:28 10.10.2019
6469 Rain 9 1010 93 10000 5.1 190 05:28 10.10.2019
6470 Rain 9 1010 87 10000 4.6 190 04:54 10.10.2019
6471 Rain 9 1010 87 10000 4.6 190 04:33 10.10.2019
6472 Clouds 9 1011 93 10000 3.1 210 01:46 10.10.2019
6473 Clouds 9 1011 93 10000 3.1 210 01:46 10.10.2019
6474 Clouds 9 1011 93 10000 3.1 210 01:26 10.10.2019
6475 Clouds 9 1011 93 10000 3.6 200 01:00 10.10.2019
6476 Clouds 10 1011 87 10000 3.1 200 00:24 10.10.2019
6477 Clear 10 1010 81 10000 6.2 210 23:41 09.10.2019
6478 Clouds 10 1010 87 10000 5.7 190 23:23 09.10.2019
6479 Clouds 10 1010 87 10000 5.7 190 22:59 09.10.2019
6480 Rain 10 1010 81 10000 6.2 210 22:59 09.10.2019
6481 Rain 10 1010 81 10000 6.2 210 22:40 09.10.2019
6482 Clouds 10 1010 81 10000 6.2 200 22:22 09.10.2019
6483 Clouds 10 1010 87 10000 6.7 200 21:42 09.10.2019
6484 Clouds 10 1010 87 10000 5.7 200 21:21 09.10.2019
6485 Clouds 10 1010 87 10000 5.7 200 21:21 09.10.2019
6486 Clouds 10 1010 93 10000 4.6 200 20:58 09.10.2019
6487 Clouds 10 1010 93 10000 4.6 200 20:39 09.10.2019
6488 Clouds 10 1009 93 10000 4.1 210 20:21 09.10.2019
6489 Clouds 10 1009 93 10000 4.1 210 19:59 09.10.2019
6490 Clouds 10 1009 93 10000 4.1 210 19:59 09.10.2019
6491 Clouds 10 1009 93 10000 4.1 210 19:59 09.10.2019
6492 Clouds 11 1009 87 10000 4.6 200 19:40 09.10.2019
6493 Rain 11 1009 87 10000 5.1 200 19:22 09.10.2019
6494 Rain 11 1009 87 10000 5.1 200 18:39 09.10.2019
6495 Clouds 11 1009 87 10000 5.1 200 18:21 09.10.2019
6496 Clouds 12 1009 87 10000 5.1 200 17:58 09.10.2019
6497 Rain 12 1009 87 10000 6.2 210 17:40 09.10.2019
6498 Rain 12 1009 87 10000 5.7 210 17:22 09.10.2019
6499 Rain 12 1009 87 10000 5.7 210 16:57 09.10.2019
6500 Clouds 12 1009 87 10000 5.7 210 16:39 09.10.2019
6501 Rain 12 1009 87 10000 7.2 210 16:20 09.10.2019
6502 Rain 12 1009 87 10000 7.2 210 16:20 09.10.2019
6503 Rain 12 1009 93 10000 6.2 200 15:56 09.10.2019
6504 Rain 12 1009 93 10000 6.2 200 15:37 09.10.2019
6505 Rain 12 1009 87 10000 5.1 190 15:19 09.10.2019
6506 Rain 13 1009 87 10000 4.1 200 14:46 09.10.2019
6507 Rain 13 1009 76 10000 5.1 190 14:20 09.10.2019
6508 Rain 13 1009 76 10000 5.1 190 14:00 09.10.2019
6509 Rain 14 1009 76 10000 4.6 200 13:38 09.10.2019
6510 Rain 14 1010 76 10000 5.1 200 13:19 09.10.2019
6511 Rain 13 1010 82 10000 5.1 210 12:55 09.10.2019
6512 Rain 13 1010 82 10000 5.1 210 12:37 09.10.2019
6513 Clouds 13 1010 76 10000 5.1 210 12:18 09.10.2019
6514 Dust 13 1011 76 10000 6.2 220 11:40 09.10.2019
6515 Dust 13 1011 76 10000 6.2 220 11:40 09.10.2019
6516 Dust 13 1011 82 10000 3.6 190 11:21 09.10.2019
6517 Clouds 13 1011 82 10000 4.1 190 10:59 09.10.2019
6518 Clouds 12 1011 82 10000 4.1 190 10:40 09.10.2019
6519 Clouds 12 1011 93 10000 3.6 190 10:20 09.10.2019
6520 Clouds 11 1011 93 10000 3.6 190 09:56 09.10.2019
6521 Clouds 11 1011 93 10000 4.1 180 09:38 09.10.2019
6522 Clouds 10 1012 100 10000 2.6 220 09:18 09.10.2019
6523 Clouds 10 1012 93 10000 2.1 200 08:39 09.10.2019
6524 Clouds 10 1012 93 10000 2.6 180 08:20 09.10.2019
6525 Clouds 10 1012 93 10000 2.6 180 08:20 09.10.2019
6526 Clouds 10 1012 93 10000 3.6 190 07:47 09.10.2019
6527 Clouds 10 1012 93 10000 3.6 190 07:47 09.10.2019
6528 Clouds 10 1012 93 10000 3.1 190 07:26 09.10.2019
6529 Clouds 10 1012 87 10000 2.6 260 06:59 09.10.2019
6530 Clouds 10 1012 100 10000 4.6 190 06:41 09.10.2019
6531 Clouds 10 1011 93 10000 4.1 190 05:53 09.10.2019
6532 Clouds 10 1011 93 10000 4.6 200 05:19 09.10.2019
6533 Clouds 10 1011 93 10000 5.1 190 03:54 09.10.2019
6534 Clouds 10 1011 93 10000 5.1 190 02:42 09.10.2019
6535 Clouds 11 1010 100 10000 3.6 190 01:39 09.10.2019
6536 Clouds 11 1010 93 10000 3.6 210 01:19 09.10.2019
6537 Clouds 12 1010 93 10000 2.6 210 00:56 09.10.2019
6538 Clouds 12 1010 93 10000 2.6 210 00:37 09.10.2019
6539 Clouds 12 1010 93 10000 2.6 210 00:37 09.10.2019
6540 Clouds 12 1009 93 10000 4.1 220 00:19 09.10.2019
6541 Rain 13 1009 100 10000 4.1 220 23:39 08.10.2019
6542 Rain 13 1009 100 8000 3.6 220 23:18 08.10.2019
6543 Rain 13 1009 100 6000 2.1 270 22:56 08.10.2019
6544 Rain 13 1009 100 6000 2.1 270 22:38 08.10.2019
6545 Rain 13 1009 93 9000 1.5 260 22:19 08.10.2019
6546 Rain 13 1008 100 7000 3.6 210 21:57 08.10.2019
6547 Rain 13 1008 100 7000 3.6 210 21:38 08.10.2019
6548 Rain 13 1008 100 4800 4.6 210 21:18 08.10.2019
6549 Rain 13 1008 100 4800 4.6 210 20:55 08.10.2019
6550 Rain 13 1008 100 10000 4.1 200 20:37 08.10.2019
6551 Rain 13 1008 100 10000 4.1 200 20:37 08.10.2019
6552 Rain 13 1008 100 4500 4.6 200 20:19 08.10.2019
6553 Rain 13 1008 100 10000 3.1 190 19:56 08.10.2019
6554 Rain 13 1008 100 10000 3.1 190 19:37 08.10.2019
6555 Rain 13 1008 93 10000 3.1 200 19:18 08.10.2019
6556 Drizzle 13 1008 100 6000 4.1 190 18:46 08.10.2019
6557 Rain 13 1008 100 6000 4.1 190 18:25 08.10.2019
6558 Rain 13 1009 100 4000 4.1 200 17:58 08.10.2019
6559 Rain 13 1009 93 5000 3.1 240 17:39 08.10.2019
6560 Rain 13 1008 100 8000 4.6 190 17:20 08.10.2019
6561 Rain 13 1009 93 4500 4.1 180 16:56 08.10.2019
6562 Rain 13 1009 93 4500 4.1 180 16:56 08.10.2019
6563 Rain 13 1009 93 4500 4.1 180 16:37 08.10.2019
6564 Rain 13 1009 82 10000 4.6 240 16:19 08.10.2019
6565 Clouds 13 1009 93 10000 4.1 180 15:40 08.10.2019
6566 Rain 13 1009 93 10000 5.1 190 15:21 08.10.2019
6567 Drizzle 13 1009 93 10000 5.1 190 14:57 08.10.2019
6568 Rain 13 1009 93 10000 5.7 190 14:39 08.10.2019
6569 Rain 13 1009 93 10000 5.1 230 14:20 08.10.2019
6570 Rain 13 1010 87 10000 4.1 250 13:56 08.10.2019
6571 Drizzle 12 1010 93 10000 6.2 190 13:37 08.10.2019
6572 Clouds 12 1010 100 10000 6.2 200 13:18 08.10.2019
6573 Clouds 12 1010 93 10000 5.7 190 12:56 08.10.2019
6574 Rain 12 1010 93 10000 5.7 190 12:37 08.10.2019
6575 Rain 12 1010 93 10000 5.7 190 12:37 08.10.2019
6576 Rain 12 1010 100 10000 5.7 200 12:18 08.10.2019
6577 Rain 12 1011 93 4800 5.1 200 11:41 08.10.2019
6578 Rain 11 1011 93 10000 4.1 230 11:23 08.10.2019
6579 Rain 11 1011 100 9000 5.1 190 10:56 08.10.2019
6580 Rain 11 1011 100 9000 5.1 190 10:36 08.10.2019
6581 Rain 11 1011 87 10000 3.6 220 10:18 08.10.2019
6582 Rain 11 1011 100 3500 4.1 200 09:55 08.10.2019
6583 Rain 11 1011 100 10000 4.6 200 09:37 08.10.2019
6584 Rain 11 1012 93 10000 3.1 220 09:18 08.10.2019
6585 Rain 11 1012 93 10000 2.6 210 08:41 08.10.2019
6586 Rain 11 1012 100 3400 4.1 200 08:23 08.10.2019
6587 Rain 11 1012 93 6000 4.1 190 07:44 08.10.2019
6588 Rain 11 1013 93 10000 3.1 220 07:21 08.10.2019
6589 Rain 11 1013 93 10000 3.6 210 06:50 08.10.2019
6590 Rain 11 1013 93 10000 4.1 180 06:28 08.10.2019
6591 Rain 11 1013 93 10000 5.1 190 05:46 08.10.2019
6592 Rain 11 1013 93 10000 5.1 190 05:46 08.10.2019
6593 Rain 11 1014 93 10000 4.6 180 05:25 08.10.2019
6594 Clouds 11 1014 93 10000 4.1 180 04:31 08.10.2019
6595 Rain 11 1015 93 10000 2.1 200 03:27 08.10.2019
6596 Rain 11 1016 93 10000 3.1 210 02:36 08.10.2019
6597 Clouds 10 1016 93 10000 3.1 210 01:47 08.10.2019
6598 Clouds 10 1016 93 10000 3.1 210 01:27 08.10.2019
6599 Clouds 10 1017 100 10000 1 220 00:46 08.10.2019
6600 Clouds 10 1017 93 10000 1 250 00:21 08.10.2019
6601 Clouds 10 1017 93 10000 1 0 23:40 07.10.2019
6602 Rain 10 1017 93 10000 1 0 23:20 07.10.2019
6603 Rain 10 1017 93 10000 1 0 23:20 07.10.2019
6604 Rain 10 1017 93 10000 1 0 22:57 07.10.2019
6605 Clouds 10 1018 87 10000 1.62 162.817 22:39 07.10.2019
6606 Clouds 10 1018 87 10000 1.5 110 22:20 07.10.2019
6607 Clouds 10 1018 93 10000 1.5 100 21:57 07.10.2019
6608 Clouds 10 1018 93 10000 1.5 100 21:38 07.10.2019
6609 Clouds 10 1018 93 10000 1.5 80 21:20 07.10.2019
6610 Clouds 10 1018 93 10000 1.5 80 21:20 07.10.2019
6611 Clouds 10 1018 93 10000 1.5 80 20:57 07.10.2019
6612 Rain 10 1018 93 10000 1 0 20:39 07.10.2019
6613 Rain 10 1018 81 10000 1.5 90 20:20 07.10.2019
6614 Rain 10 1018 81 10000 1 0 19:58 07.10.2019
6615 Clouds 10 1018 81 10000 1 0 19:39 07.10.2019
6616 Clouds 10 1018 81 10000 2.1 110 19:19 07.10.2019
6617 Clouds 11 1018 76 10000 1.5 130 18:56 07.10.2019
6618 Clouds 11 1018 76 10000 1.5 130 18:56 07.10.2019
6619 Clouds 11 1018 76 10000 1.5 130 18:38 07.10.2019
6620 Clouds 11 1018 76 10000 2.1 110 18:18 07.10.2019
6621 Clouds 11 1018 76 10000 2.1 170 17:43 07.10.2019
6622 Clouds 11 1018 76 10000 1.5 150 17:20 07.10.2019
6623 Clouds 11 1019 76 10000 1.5 160 16:57 07.10.2019
6624 Clouds 11 1019 76 10000 1.5 160 16:38 07.10.2019
6625 Clouds 11 1019 76 10000 2.1 150 16:20 07.10.2019
6626 Clouds 11 1019 71 10000 2.6 140 15:45 07.10.2019
6627 Clouds 11 1019 81 10000 2.6 190 15:26 07.10.2019
6628 Clouds 11 1019 81 10000 2.1 180 14:55 07.10.2019
6629 Clouds 11 1019 81 10000 2.1 180 14:37 07.10.2019
6630 Clouds 11 1019 81 10000 1.5 150 14:19 07.10.2019
6631 Clouds 11 1019 81 10000 1.5 180 13:43 07.10.2019
6632 Clouds 11 1019 81 10000 2.1 190 13:20 07.10.2019
6633 Clouds 11 1019 81 10000 2.1 190 12:56 07.10.2019
6634 Clouds 10 1019 81 10000 2.6 140 12:38 07.10.2019
6635 Clouds 10 1019 81 10000 2.6 120 12:19 07.10.2019
6636 Rain 10 1019 81 10000 2.6 120 11:57 07.10.2019
6637 Clouds 10 1019 87 10000 2.1 130 11:37 07.10.2019
6638 Clouds 10 1019 87 10000 2.6 70 11:18 07.10.2019
6639 Clouds 9 1019 87 10000 3.6 70 10:41 07.10.2019
6640 Clouds 9 1019 81 10000 3.1 80 10:20 07.10.2019
6641 Clouds 8 1018 87 10000 3.1 60 09:43 07.10.2019
6642 Clouds 8 1018 81 10000 4.1 50 09:24 07.10.2019
6643 Clouds 8 1018 87 10000 3.6 50 08:57 07.10.2019
6644 Clouds 8 1017 87 10000 2.6 30 08:39 07.10.2019
6645 Clouds 8 1017 87 10000 3.6 50 08:19 07.10.2019
6646 Clouds 8 1017 93 10000 3.1 20 07:43 07.10.2019
6647 Clouds 8 1016 93 10000 3.6 40 07:25 07.10.2019
6648 Clouds 8 1016 93 10000 2.6 70 06:55 07.10.2019
6649 Clouds 8 1016 93 10000 2.6 70 06:37 07.10.2019
6650 Clouds 8 1016 93 10000 3.6 20 05:50 07.10.2019
6651 Clouds 8 1016 93 10000 3.6 20 05:24 07.10.2019
6652 Rain 8 1015 100 6000 2.6 70 04:44 07.10.2019
6653 Clouds 8 1015 87 10000 3.6 10 03:45 07.10.2019
6654 Clouds 8 1014 93 10000 3.1 30 03:23 07.10.2019
6655 Clouds 8 1014 93 9000 4.6 360 02:23 07.10.2019
6656 Clouds 8 1014 93 9000 4.6 360 01:58 07.10.2019
6657 Rain 8 1013 93 7000 5.1 30 01:23 07.10.2019
6658 Rain 8 1013 93 7000 5.7 20 00:45 07.10.2019
6659 Rain 8 1012 93 7000 4.6 10 00:23 07.10.2019
6660 Rain 8 1012 93 7000 4.6 10 23:59 06.10.2019
6661 Drizzle 8 1012 93 4000 4.1 10 23:39 06.10.2019
6662 Drizzle 8 1012 87 10000 2.6 60 23:18 06.10.2019
6663 Drizzle 8 1011 93 3500 5.1 20 22:54 06.10.2019
6664 Drizzle 8 1011 93 3500 5.1 20 22:36 06.10.2019
6665 Drizzle 8 1011 87 10000 3.1 70 22:18 06.10.2019
6666 Rain 8 1011 93 5000 5.7 50 21:54 06.10.2019
6667 Rain 8 1011 93 5000 5.7 50 21:36 06.10.2019
6668 Rain 8 1011 87 9000 4.6 80 21:18 06.10.2019
6669 Rain 8 1011 87 9000 4.6 80 21:18 06.10.2019
6670 Rain 8 1011 93 5000 4.6 40 20:54 06.10.2019
6671 Rain 8 1011 93 7000 4.6 60 20:36 06.10.2019
6672 Rain 8 1011 93 5000 4.6 40 20:36 06.10.2019
6673 Rain 8 1011 93 7000 4.6 60 20:36 06.10.2019
6674 Rain 8 1011 93 7000 4.6 60 20:18 06.10.2019
6675 Rain 8 1011 93 7000 4.6 50 19:54 06.10.2019
6676 Rain 8 1011 93 7000 4.6 50 19:36 06.10.2019
6677 Rain 8 1011 93 4500 3.6 70 19:18 06.10.2019
6678 Rain 8 1011 93 6000 5.1 60 18:54 06.10.2019
6679 Rain 9 1011 100 4600 4.6 60 18:36 06.10.2019
6680 Rain 9 1011 100 4600 4.6 60 18:18 06.10.2019
6681 Rain 9 1011 100 4200 4.6 60 17:42 06.10.2019
6682 Rain 9 1012 93 8000 6.2 90 17:20 06.10.2019
6683 Rain 9 1012 93 9000 5.1 90 16:55 06.10.2019
6684 Rain 9 1012 93 3300 4.6 70 16:36 06.10.2019
6685 Rain 9 1013 93 3000 4.6 80 16:18 06.10.2019
6686 Rain 9 1013 93 3000 4.6 70 15:42 06.10.2019
6687 Rain 9 1013 87 6000 5.1 90 15:19 06.10.2019
6688 Rain 9 1014 87 9000 4.6 90 14:44 06.10.2019
6689 Rain 8 1014 93 4800 4.6 70 14:26 06.10.2019
6690 Rain 8 1015 93 6000 5.1 100 13:59 06.10.2019
6691 Rain 8 1015 100 6000 4.6 60 13:40 06.10.2019
6692 Rain 8 1015 93 9000 5.1 70 13:21 06.10.2019
6693 Rain 8 1015 93 9000 5.1 70 12:58 06.10.2019
6694 Rain 8 1015 93 10000 5.1 80 12:39 06.10.2019
6695 Rain 8 1015 93 10000 5.1 80 12:21 06.10.2019
6696 Rain 8 1016 87 10000 4.6 80 11:58 06.10.2019
6697 Rain 8 1016 87 10000 4.6 80 11:39 06.10.2019
6698 Rain 8 1016 87 10000 4.6 90 11:21 06.10.2019
6699 Rain 8 1016 87 10000 3.1 70 10:54 06.10.2019
6700 Rain 8 1016 87 10000 3.1 70 10:36 06.10.2019
6701 Rain 8 1017 76 10000 3.6 60 10:18 06.10.2019
6702 Clouds 8 1017 81 10000 4.6 50 09:41 06.10.2019
6703 Clouds 7 1017 81 10000 4.1 60 09:19 06.10.2019
6704 Clouds 7 1017 81 10000 4.6 50 08:48 06.10.2019
6705 Clouds 7 1017 81 10000 4.1 50 08:21 06.10.2019
6706 Clouds 7 1017 81 10000 4.6 50 07:57 06.10.2019
6707 Clouds 7 1017 81 10000 4.6 50 07:39 06.10.2019
6708 Clouds 7 1017 81 10000 4.6 50 06:49 06.10.2019
6709 Clouds 7 1018 81 10000 3.6 50 05:41 06.10.2019
6710 Clouds 7 1018 87 10000 4.1 40 04:32 06.10.2019
6711 Clear 7 1019 93 10000 4.1 60 02:53 06.10.2019
6712 Clear 7 1019 93 10000 4.1 60 02:30 06.10.2019
6713 Clear 7 1019 93 10000 2.1 60 01:48 06.10.2019
6714 Clear 7 1019 93 10000 2.6 70 01:30 06.10.2019
6715 Clouds 7 1019 93 10000 2.6 70 00:59 06.10.2019
6716 Clear 7 1019 93 10000 2.6 70 00:59 06.10.2019
6717 Clouds 7 1019 93 10000 2.6 70 00:31 06.10.2019
6718 Clouds 7 1019 87 10000 3.1 80 23:58 05.10.2019
6719 Clouds 7 1019 87 10000 3.1 80 23:40 05.10.2019
6720 Clouds 7 1019 87 10000 3.1 80 23:40 05.10.2019
6721 Clouds 8 1019 81 10000 3.1 80 23:19 05.10.2019
6722 Clouds 8 1019 81 10000 4.1 70 22:54 05.10.2019
6723 Clouds 8 1019 81 10000 4.1 70 22:36 05.10.2019
6724 Clouds 8 1019 76 10000 3.1 60 22:18 05.10.2019
6725 Clouds 8 1019 81 10000 2.1 30 21:41 05.10.2019
6726 Clouds 8 1019 81 10000 2.1 30 21:41 05.10.2019
6727 Clouds 8 1019 76 10000 3.1 10